Wetterdaten: Dienstag, 03.10.2017
Datum Zeit Temp. A. Temp. A. max Feuchte A. Luftdruck Regen Wind Richtung Richtung Sonnenschein ET UV Solar Taupunkt Windchill Windböen
03.10.2017 00:00 12,2 °C 12,2 °C 95 % 1017,1 hPa 0,0 mm 0,0 km/h (0 Bft) SW 230 ° 0 min 0,000 mm 0,0 UV-I 0 W/m² 11,4 °C 12,2 °C 0,0 km/h (0 Bft)
03.10.2017 00:01 12,1 °C 12,2 °C 95 % 1017,1 hPa 0,0 mm 0,0 km/h (0 Bft) SW 230 ° 0 min 0,000 mm 0,0 UV-I 0 W/m² 11,3 °C 12,1 °C 0,0 km/h (0 Bft)
03.10.2017 00:02 12,2 °C 12,2 °C 95 % 1017,1 hPa 0,0 mm 0,0 km/h (0 Bft) SW 230 ° 0 min 0,000 mm 0,0 UV-I 0 W/m² 11,4 °C 12,2 °C 0,0 km/h (0 Bft)
03.10.2017 00:03 12,1 °C 12,2 °C 95 % 1017,1 hPa 0,0 mm 0,0 km/h (0 Bft) SW 230 ° 0 min 0,000 mm 0,0 UV-I 0 W/m² 11,3 °C 12,1 °C 0,0 km/h (0 Bft)
03.10.2017 00:04 12,2 °C 12,2 °C 95 % 1017,1 hPa 0,0 mm 0,0 km/h (0 Bft) SW 230 ° 0 min 0,000 mm 0,0 UV-I 0 W/m² 11,4 °C 12,2 °C 0,0 km/h (0 Bft)
03.10.2017 00:05 12,2 °C 12,2 °C 95 % 1017,1 hPa 0,0 mm 0,0 km/h (0 Bft) SW 230 ° 0 min 0,000 mm 0,0 UV-I 0 W/m² 11,4 °C 12,2 °C 0,0 km/h (0 Bft)
03.10.2017 00:06 12,2 °C 12,2 °C 95 % 1017,1 hPa 0,0 mm 0,0 km/h (0 Bft) SW 230 ° 0 min 0,000 mm 0,0 UV-I 0 W/m² 11,4 °C 12,2 °C 0,0 km/h (0 Bft)
03.10.2017 00:07 12,2 °C 12,2 °C 95 % 1017,1 hPa 0,0 mm 0,0 km/h (0 Bft) SW 230 ° 0 min 0,000 mm 0,0 UV-I 0 W/m² 11,4 °C 12,2 °C 0,0 km/h (0 Bft)
03.10.2017 00:08 12,2 °C 12,2 °C 95 % 1017,1 hPa 0,0 mm 0,0 km/h (0 Bft) SW 230 ° 0 min 0,000 mm 0,0 UV-I 0 W/m² 11,4 °C 12,2 °C 0,0 km/h (0 Bft)
03.10.2017 00:09 12,2 °C 12,2 °C 95 % 1017,1 hPa 0,0 mm 0,0 km/h (0 Bft) SW 230 ° 0 min 0,000 mm 0,0 UV-I 0 W/m² 11,4 °C 12,2 °C 0,0 km/h (0 Bft)
03.10.2017 00:10 12,2 °C 12,2 °C 95 % 1017,1 hPa 0,0 mm 0,0 km/h (0 Bft) SW 230 ° 0 min 0,000 mm 0,0 UV-I 0 W/m² 11,4 °C 12,2 °C 0,0 km/h (0 Bft)
03.10.2017 00:11 12,2 °C 12,2 °C 95 % 1017,0 hPa 0,0 mm 0,0 km/h (0 Bft) SW 230 ° 0 min 0,000 mm 0,0 UV-I 0 W/m² 11,4 °C 12,2 °C 0,0 km/h (0 Bft)
03.10.2017 00:12 12,2 °C 12,2 °C 95 % 1017,1 hPa 0,0 mm 0,0 km/h (0 Bft) SW 230 ° 0 min 0,000 mm 0,0 UV-I 0 W/m² 11,4 °C 12,2 °C 0,0 km/h (0 Bft)
03.10.2017 00:13 12,2 °C 12,2 °C 95 % 1017,1 hPa 0,0 mm 0,0 km/h (0 Bft) SW 230 ° 0 min 0,000 mm 0,0 UV-I 0 W/m² 11,4 °C 12,2 °C 0,0 km/h (0 Bft)
03.10.2017 00:14 12,2 °C 12,2 °C 95 % 1017,1 hPa 0,0 mm 0,0 km/h (0 Bft) SW 230 ° 0 min 0,000 mm 0,0 UV-I 0 W/m² 11,4 °C 12,2 °C 0,0 km/h (0 Bft)
03.10.2017 00:15 12,1 °C 12,2 °C 95 % 1017,0 hPa 0,0 mm 0,0 km/h (0 Bft) SW 230 ° 0 min 0,000 mm 0,0 UV-I 0 W/m² 11,3 °C 12,1 °C 0,0 km/h (0 Bft)
03.10.2017 00:16 12,1 °C 12,1 °C 95 % 1017,0 hPa 0,0 mm 0,0 km/h (0 Bft) SW 230 ° 0 min 0,000 mm 0,0 UV-I 0 W/m² 11,3 °C 12,1 °C 0,0 km/h (0 Bft)
03.10.2017 00:17 12,1 °C 12,1 °C 95 % 1017,0 hPa 0,0 mm 0,0 km/h (0 Bft) SW 230 ° 0 min 0,000 mm 0,0 UV-I 0 W/m² 11,3 °C 12,1 °C 0,0 km/h (0 Bft)
03.10.2017 00:18 12,1 °C 12,1 °C 95 % 1017,0 hPa 0,0 mm 0,0 km/h (0 Bft) SW 230 ° 0 min 0,000 mm 0,0 UV-I 0 W/m² 11,3 °C 12,1 °C 0,0 km/h (0 Bft)
03.10.2017 00:19 12,1 °C 12,1 °C 95 % 1017,0 hPa 0,0 mm 0,0 km/h (0 Bft) SW 230 ° 0 min 0,000 mm 0,0 UV-I 0 W/m² 11,3 °C 12,1 °C 0,0 km/h (0 Bft)
03.10.2017 00:20 12,1 °C 12,1 °C 95 % 1017,0 hPa 0,0 mm 0,0 km/h (0 Bft) SW 230 ° 0 min 0,000 mm 0,0 UV-I 0 W/m² 11,3 °C 12,1 °C 0,0 km/h (0 Bft)
03.10.2017 00:21 12,0 °C 12,1 °C 95 % 1017,0 hPa 0,0 mm 0,0 km/h (0 Bft) SW 230 ° 0 min 0,000 mm 0,0 UV-I 0 W/m² 11,2 °C 12,0 °C 0,0 km/h (0 Bft)
03.10.2017 00:22 12,1 °C 12,1 °C 95 % 1017,0 hPa 0,0 mm 0,0 km/h (0 Bft) SW 230 ° 0 min 0,000 mm 0,0 UV-I 0 W/m² 11,3 °C 12,1 °C 0,0 km/h (0 Bft)
03.10.2017 00:23 12,0 °C 12,1 °C 95 % 1017,0 hPa 0,0 mm 0,0 km/h (0 Bft) SW 230 ° 0 min 0,000 mm 0,0 UV-I 0 W/m² 11,2 °C 12,0 °C 0,0 km/h (0 Bft)
03.10.2017 00:24 12,0 °C 12,1 °C 95 % 1017,0 hPa 0,0 mm 0,0 km/h (0 Bft) SW 230 ° 0 min 0,000 mm 0,0 UV-I 0 W/m² 11,2 °C 12,0 °C 0,0 km/h (0 Bft)
03.10.2017 00:25 12,1 °C 12,1 °C 95 % 1017,0 hPa 0,0 mm 0,0 km/h (0 Bft) SW 230 ° 0 min 0,000 mm 0,0 UV-I 0 W/m² 11,3 °C 12,1 °C 0,0 km/h (0 Bft)
03.10.2017 00:26 12,1 °C 12,1 °C 95 % 1017,0 hPa 0,0 mm 0,0 km/h (0 Bft) SW 230 ° 0 min 0,000 mm 0,0 UV-I 0 W/m² 11,3 °C 12,1 °C 0,0 km/h (0 Bft)
03.10.2017 00:27 12,2 °C 12,2 °C 95 % 1017,1 hPa 0,0 mm 1,3 km/h (1 Bft) SW 219 ° 0 min 0,000 mm 0,0 UV-I 0 W/m² 11,4 °C 12,2 °C 3,2 km/h (1 Bft)
03.10.2017 00:28 12,2 °C 12,2 °C 95 % 1017,1 hPa 0,0 mm 4,4 km/h (1 Bft) S-SW 205 ° 0 min 0,000 mm 0,0 UV-I 0 W/m² 11,4 °C 12,2 °C 4,8 km/h (1 Bft)
03.10.2017 00:29 12,2 °C 12,2 °C 95 % 1017,0 hPa 0,0 mm 3,8 km/h (1 Bft) S-SW 196 ° 0 min 0,000 mm 0,0 UV-I 0 W/m² 11,4 °C 12,2 °C 6,4 km/h (2 Bft)
03.10.2017 00:30 12,2 °C 12,2 °C 95 % 1017,0 hPa 0,0 mm 1,7 km/h (1 Bft) S-SW 196 ° 0 min 0,000 mm 0,0 UV-I 0 W/m² 11,4 °C 12,2 °C 3,2 km/h (1 Bft)
03.10.2017 00:31 12,3 °C 12,3 °C 95 % 1017,0 hPa 0,0 mm 0,9 km/h (0 Bft) S-SW 196 ° 0 min 0,000 mm 0,0 UV-I 0 W/m² 11,5 °C 12,3 °C 1,6 km/h (1 Bft)
03.10.2017 00:32 12,3 °C 12,3 °C 95 % 1016,9 hPa 0,0 mm 2,5 km/h (1 Bft) S-SW 196 ° 0 min 0,000 mm 0,0 UV-I 0 W/m² 11,5 °C 12,3 °C 3,2 km/h (1 Bft)
03.10.2017 00:33 12,3 °C 12,3 °C 95 % 1016,9 hPa 0,0 mm 2,7 km/h (1 Bft) S-SW 196 ° 0 min 0,000 mm 0,0 UV-I 0 W/m² 11,5 °C 12,3 °C 3,2 km/h (1 Bft)
03.10.2017 00:34 12,3 °C 12,3 °C 95 % 1016,9 hPa 0,0 mm 1,0 km/h (0 Bft) S-SW 196 ° 0 min 0,000 mm 0,0 UV-I 0 W/m² 11,5 °C 12,3 °C 1,6 km/h (1 Bft)
03.10.2017 00:35 12,3 °C 12,3 °C 95 % 1016,9 hPa 0,0 mm 1,7 km/h (1 Bft) S-SW 196 ° 0 min 0,000 mm 0,0 UV-I 0 W/m² 11,5 °C 12,3 °C 4,8 km/h (1 Bft)
03.10.2017 00:36 12,3 °C 12,3 °C 95 % 1016,9 hPa 0,0 mm 0,0 km/h (0 Bft) S-SW 196 ° 0 min 0,000 mm 0,0 UV-I 0 W/m² 11,5 °C 12,3 °C 0,0 km/h (0 Bft)
03.10.2017 00:37 12,3 °C 12,3 °C 95 % 1016,9 hPa 0,0 mm 0,0 km/h (0 Bft) S-SW 196 ° 0 min 0,000 mm 0,0 UV-I 0 W/m² 11,5 °C 12,3 °C 0,0 km/h (0 Bft)
03.10.2017 00:38 12,3 °C 12,3 °C 95 % 1016,9 hPa 0,0 mm 0,0 km/h (0 Bft) S-SW 196 ° 0 min 0,000 mm 0,0 UV-I 0 W/m² 11,5 °C 12,3 °C 0,0 km/h (0 Bft)
03.10.2017 00:39 12,4 °C 12,4 °C 95 % 1016,9 hPa 0,0 mm 1,4 km/h (1 Bft) S-SW 196 ° 0 min 0,000 mm 0,0 UV-I 0 W/m² 11,6 °C 12,4 °C 3,2 km/h (1 Bft)
03.10.2017 00:40 12,4 °C 12,4 °C 95 % 1016,9 hPa 0,0 mm 1,2 km/h (1 Bft) S-SW 196 ° 0 min 0,000 mm 0,0 UV-I 0 W/m² 11,6 °C 12,4 °C 3,2 km/h (1 Bft)
03.10.2017 00:41 12,4 °C 12,4 °C 95 % 1016,9 hPa 0,0 mm 0,0 km/h (0 Bft) S-SW 196 ° 0 min 0,000 mm 0,0 UV-I 0 W/m² 11,6 °C 12,4 °C 0,0 km/h (0 Bft)
03.10.2017 00:42 12,4 °C 12,4 °C 95 % 1016,8 hPa 0,0 mm 0,0 km/h (0 Bft) S-SW 196 ° 0 min 0,000 mm 0,0 UV-I 0 W/m² 11,6 °C 12,4 °C 0,0 km/h (0 Bft)
03.10.2017 00:43 12,4 °C 12,4 °C 95 % 1016,8 hPa 0,0 mm 2,4 km/h (1 Bft) W-SW 258 ° 0 min 0,000 mm 0,0 UV-I 0 W/m² 11,6 °C 12,4 °C 6,4 km/h (2 Bft)
03.10.2017 00:44 12,4 °C 12,4 °C 95 % 1016,8 hPa 0,0 mm 1,6 km/h (1 Bft) W-SW 248 ° 0 min 0,000 mm 0,0 UV-I 0 W/m² 11,6 °C 12,4 °C 3,2 km/h (1 Bft)
03.10.2017 00:45 12,4 °C 12,4 °C 94 % 1016,8 hPa 0,0 mm 0,2 km/h (0 Bft) W-SW 248 ° 0 min 0,000 mm 0,0 UV-I 0 W/m² 11,5 °C 12,4 °C 1,6 km/h (1 Bft)
03.10.2017 00:46 12,5 °C 12,5 °C 94 % 1016,8 hPa 0,0 mm 0,0 km/h (0 Bft) W-SW 248 ° 0 min 0,000 mm 0,0 UV-I 0 W/m² 11,6 °C 12,5 °C 0,0 km/h (0 Bft)
03.10.2017 00:47 12,5 °C 12,5 °C 94 % 1016,7 hPa 0,0 mm 0,3 km/h (0 Bft) W-SW 248 ° 0 min 0,000 mm 0,0 UV-I 0 W/m² 11,6 °C 12,5 °C 1,6 km/h (1 Bft)
03.10.2017 00:48 12,6 °C 12,6 °C 94 % 1016,7 hPa 0,0 mm 1,6 km/h (1 Bft) W-SW 249 ° 0 min 0,000 mm 0,0 UV-I 0 W/m² 11,7 °C 12,6 °C 3,2 km/h (1 Bft)
03.10.2017 00:49 12,6 °C 12,6 °C 94 % 1016,7 hPa 0,0 mm 0,1 km/h (0 Bft) W-SW 249 ° 0 min 0,000 mm 0,0 UV-I 0 W/m² 11,7 °C 12,6 °C 1,6 km/h (1 Bft)
03.10.2017 00:50 12,6 °C 12,6 °C 94 % 1016,7 hPa 0,0 mm 0,0 km/h (0 Bft) W-SW 249 ° 0 min 0,000 mm 0,0 UV-I 0 W/m² 11,7 °C 12,6 °C 0,0 km/h (0 Bft)
03.10.2017 00:51 12,6 °C 12,6 °C 94 % 1016,7 hPa 0,0 mm 0,0 km/h (0 Bft) W-SW 249 ° 0 min 0,000 mm 0,0 UV-I 0 W/m² 11,7 °C 12,6 °C 0,0 km/h (0 Bft)
03.10.2017 00:52 12,6 °C 12,6 °C 94 % 1016,7 hPa 0,0 mm 0,0 km/h (0 Bft) W-SW 249 ° 0 min 0,000 mm 0,0 UV-I 0 W/m² 11,7 °C 12,6 °C 0,0 km/h (0 Bft)
03.10.2017 00:53 12,6 °C 12,6 °C 94 % 1016,7 hPa 0,0 mm 0,0 km/h (0 Bft) W-SW 249 ° 0 min 0,000 mm 0,0 UV-I 0 W/m² 11,7 °C 12,6 °C 0,0 km/h (0 Bft)
03.10.2017 00:54 12,6 °C 12,6 °C 94 % 1016,8 hPa 0,0 mm 0,0 km/h (0 Bft) W-SW 248 ° 0 min 0,000 mm 0,0 UV-I 0 W/m² 11,7 °C 12,6 °C 0,0 km/h (0 Bft)
03.10.2017 00:55 12,6 °C 12,6 °C 94 % 1016,8 hPa 0,0 mm 1,2 km/h (1 Bft) SW 234 ° 0 min 0,000 mm 0,0 UV-I 0 W/m² 11,7 °C 12,6 °C 3,2 km/h (1 Bft)
03.10.2017 00:56 12,6 °C 12,6 °C 94 % 1016,7 hPa 0,0 mm 2,7 km/h (1 Bft) SW 215 ° 0 min 0,000 mm 0,0 UV-I 0 W/m² 11,7 °C 12,6 °C 4,8 km/h (1 Bft)
03.10.2017 00:57 12,6 °C 12,6 °C 94 % 1016,7 hPa 0,0 mm 0,2 km/h (0 Bft) SW 215 ° 0 min 0,000 mm 0,0 UV-I 0 W/m² 11,7 °C 12,6 °C 1,6 km/h (1 Bft)
03.10.2017 00:58 12,6 °C 12,6 °C 94 % 1016,8 hPa 0,0 mm 0,9 km/h (0 Bft) SW 215 ° 0 min 0,000 mm 0,0 UV-I 0 W/m² 11,7 °C 12,6 °C 3,2 km/h (1 Bft)
03.10.2017 00:59 12,6 °C 12,6 °C 94 % 1016,8 hPa 0,0 mm 0,7 km/h (0 Bft) SW 215 ° 0 min 0,000 mm 0,0 UV-I 0 W/m² 11,7 °C 12,6 °C 1,6 km/h (1 Bft)
03.10.2017 01:00 12,6 °C 12,6 °C 93 % 1016,7 hPa 0,0 mm 0,9 km/h (0 Bft) S 185 ° 0 min 0,000 mm 0,0 UV-I 0 W/m² 11,5 °C 12,6 °C 1,6 km/h (1 Bft)
03.10.2017 01:01 12,6 °C 12,6 °C 93 % 1016,7 hPa 0,0 mm 0,0 km/h (0 Bft) S 185 ° 0 min 0,000 mm 0,0 UV-I 0 W/m² 11,5 °C 12,6 °C 0,0 km/h (0 Bft)
03.10.2017 01:02 12,6 °C 12,6 °C 94 % 1016,7 hPa 0,0 mm 1,4 km/h (1 Bft) S 185 ° 0 min 0,000 mm 0,0 UV-I 0 W/m² 11,7 °C 12,6 °C 3,2 km/h (1 Bft)
03.10.2017 01:03 12,5 °C 12,6 °C 94 % 1016,7 hPa 0,0 mm 0,9 km/h (0 Bft) S 185 ° 0 min 0,000 mm 0,0 UV-I 0 W/m² 11,6 °C 12,5 °C 1,6 km/h (1 Bft)
03.10.2017 01:04 12,6 °C 12,6 °C 94 % 1016,7 hPa 0,0 mm 0,0 km/h (0 Bft) S 185 ° 0 min 0,000 mm 0,0 UV-I 0 W/m² 11,7 °C 12,6 °C 0,0 km/h (0 Bft)
03.10.2017 01:05 12,6 °C 12,6 °C 93 % 1016,6 hPa 0,0 mm 0,0 km/h (0 Bft) S 185 ° 0 min 0,000 mm 0,0 UV-I 0 W/m² 11,5 °C 12,6 °C 0,0 km/h (0 Bft)
03.10.2017 01:06 12,6 °C 12,6 °C 94 % 1016,7 hPa 0,0 mm 0,0 km/h (0 Bft) S 185 ° 0 min 0,000 mm 0,0 UV-I 0 W/m² 11,7 °C 12,6 °C 0,0 km/h (0 Bft)
03.10.2017 01:07 12,6 °C 12,6 °C 93 % 1016,7 hPa 0,0 mm 1,0 km/h (0 Bft) S 185 ° 0 min 0,000 mm 0,0 UV-I 0 W/m² 11,5 °C 12,6 °C 3,2 km/h (1 Bft)
03.10.2017 01:08 12,6 °C 12,6 °C 93 % 1016,5 hPa 0,0 mm 1,4 km/h (1 Bft) S 185 ° 0 min 0,000 mm 0,0 UV-I 0 W/m² 11,5 °C 12,6 °C 3,2 km/h (1 Bft)
03.10.2017 01:09 12,6 °C 12,6 °C 93 % 1016,5 hPa 0,0 mm 0,1 km/h (0 Bft) S 185 ° 0 min 0,000 mm 0,0 UV-I 0 W/m² 11,5 °C 12,6 °C 1,6 km/h (1 Bft)
03.10.2017 01:10 12,7 °C 12,7 °C 93 % 1016,5 hPa 0,0 mm 0,1 km/h (0 Bft) S-SW 192 ° 0 min 0,000 mm 0,0 UV-I 0 W/m² 11,6 °C 12,7 °C 3,2 km/h (1 Bft)
03.10.2017 01:11 12,6 °C 12,7 °C 93 % 1016,5 hPa 0,0 mm 3,6 km/h (1 Bft) W-SW 239 ° 0 min 0,000 mm 0,0 UV-I 0 W/m² 11,5 °C 12,6 °C 6,4 km/h (2 Bft)
03.10.2017 01:12 12,7 °C 12,7 °C 93 % 1016,5 hPa 0,0 mm 0,1 km/h (0 Bft) W-SW 239 ° 0 min 0,000 mm 0,0 UV-I 0 W/m² 11,6 °C 12,7 °C 1,6 km/h (1 Bft)
03.10.2017 01:13 12,7 °C 12,7 °C 93 % 1016,5 hPa 0,0 mm 0,8 km/h (0 Bft) W-SW 243 ° 0 min 0,000 mm 0,0 UV-I 0 W/m² 11,6 °C 12,7 °C 6,4 km/h (2 Bft)
03.10.2017 01:14 12,7 °C 12,8 °C 93 % 1016,5 hPa 0,0 mm 3,2 km/h (1 Bft) W-SW 239 ° 0 min 0,000 mm 0,0 UV-I 0 W/m² 11,6 °C 12,7 °C 8,0 km/h (2 Bft)
03.10.2017 01:15 12,8 °C 12,8 °C 93 % 1016,5 hPa 0,0 mm 1,3 km/h (1 Bft) W-SW 238 ° 0 min 0,000 mm 0,0 UV-I 0 W/m² 11,7 °C 12,8 °C 3,2 km/h (1 Bft)
03.10.2017 01:16 12,8 °C 12,8 °C 93 % 1016,5 hPa 0,0 mm 1,5 km/h (1 Bft) SW 218 ° 0 min 0,000 mm 0,0 UV-I 0 W/m² 11,7 °C 12,8 °C 6,4 km/h (2 Bft)
03.10.2017 01:17 12,8 °C 12,8 °C 93 % 1016,4 hPa 0,0 mm 1,5 km/h (1 Bft) SW 217 ° 0 min 0,000 mm 0,0 UV-I 0 W/m² 11,7 °C 12,8 °C 3,2 km/h (1 Bft)
03.10.2017 01:18 12,9 °C 12,9 °C 92 % 1016,4 hPa 0,0 mm 3,2 km/h (1 Bft) SW 228 ° 0 min 0,000 mm 0,0 UV-I 0 W/m² 11,6 °C 12,9 °C 6,4 km/h (2 Bft)
03.10.2017 01:19 12,9 °C 12,9 °C 92 % 1016,4 hPa 0,0 mm 2,0 km/h (1 Bft) SW 219 ° 0 min 0,000 mm 0,0 UV-I 0 W/m² 11,6 °C 12,9 °C 3,2 km/h (1 Bft)
03.10.2017 01:20 13,0 °C 13,0 °C 92 % 1016,4 hPa 0,0 mm 0,6 km/h (0 Bft) SW 219 ° 0 min 0,000 mm 0,0 UV-I 0 W/m² 11,7 °C 13,0 °C 1,6 km/h (1 Bft)
03.10.2017 01:21 13,1 °C 13,1 °C 92 % 1016,4 hPa 0,0 mm 1,0 km/h (0 Bft) SW 220 ° 0 min 0,000 mm 0,0 UV-I 0 W/m² 11,8 °C 13,1 °C 3,2 km/h (1 Bft)
03.10.2017 01:22 13,1 °C 13,1 °C 92 % 1016,4 hPa 0,0 mm 2,3 km/h (1 Bft) W-SW 257 ° 0 min 0,000 mm 0,0 UV-I 0 W/m² 11,8 °C 13,1 °C 6,4 km/h (2 Bft)
03.10.2017 01:23 13,1 °C 13,1 °C 92 % 1016,3 hPa 0,0 mm 1,7 km/h (1 Bft) W-SW 257 ° 0 min 0,000 mm 0,0 UV-I 0 W/m² 11,8 °C 13,1 °C 3,2 km/h (1 Bft)
03.10.2017 01:24 13,1 °C 13,1 °C 92 % 1016,3 hPa 0,0 mm 0,1 km/h (0 Bft) W-SW 257 ° 0 min 0,000 mm 0,0 UV-I 0 W/m² 11,8 °C 13,1 °C 1,6 km/h (1 Bft)
03.10.2017 01:25 13,1 °C 13,1 °C 92 % 1016,3 hPa 0,0 mm 0,0 km/h (0 Bft) W-SW 257 ° 0 min 0,000 mm 0,0 UV-I 0 W/m² 11,8 °C 13,1 °C 0,0 km/h (0 Bft)
03.10.2017 01:26 13,1 °C 13,1 °C 92 % 1016,3 hPa 0,0 mm 0,0 km/h (0 Bft) W-SW 257 ° 0 min 0,000 mm 0,0 UV-I 0 W/m² 11,8 °C 13,1 °C 0,0 km/h (0 Bft)
03.10.2017 01:27 13,1 °C 13,2 °C 92 % 1016,3 hPa 0,0 mm 2,0 km/h (1 Bft) W-SW 257 ° 0 min 0,000 mm 0,0 UV-I 0 W/m² 11,8 °C 13,1 °C 4,8 km/h (1 Bft)
03.10.2017 01:28 13,1 °C 13,2 °C 92 % 1016,4 hPa 0,0 mm 0,4 km/h (0 Bft) W-SW 257 ° 0 min 0,000 mm 0,0 UV-I 0 W/m² 11,8 °C 13,1 °C 1,6 km/h (1 Bft)
03.10.2017 01:29 13,1 °C 13,1 °C 92 % 1016,3 hPa 0,0 mm 4,0 km/h (1 Bft) SW 229 ° 0 min 0,000 mm 0,0 UV-I 0 W/m² 11,8 °C 13,1 °C 4,8 km/h (1 Bft)
03.10.2017 01:30 13,1 °C 13,1 °C 92 % 1016,4 hPa 0,0 mm 3,8 km/h (1 Bft) W-SW 250 ° 0 min 0,000 mm 0,0 UV-I 0 W/m² 11,8 °C 13,1 °C 4,8 km/h (1 Bft)
03.10.2017 01:31 13,1 °C 13,1 °C 92 % 1016,3 hPa 0,0 mm 2,0 km/h (1 Bft) SW 233 ° 0 min 0,000 mm 0,0 UV-I 0 W/m² 11,8 °C 13,1 °C 3,2 km/h (1 Bft)
03.10.2017 01:32 13,1 °C 13,1 °C 92 % 1016,3 hPa 0,0 mm 0,1 km/h (0 Bft) SW 233 ° 0 min 0,000 mm 0,0 UV-I 0 W/m² 11,8 °C 13,1 °C 1,6 km/h (1 Bft)
03.10.2017 01:33 13,2 °C 13,2 °C 92 % 1016,4 hPa 0,0 mm 2,1 km/h (1 Bft) SW 236 ° 0 min 0,000 mm 0,0 UV-I 0 W/m² 11,9 °C 13,2 °C 4,8 km/h (1 Bft)
03.10.2017 01:34 13,2 °C 13,2 °C 92 % 1016,4 hPa 0,0 mm 4,7 km/h (1 Bft) W 275 ° 0 min 0,000 mm 0,0 UV-I 0 W/m² 11,9 °C 13,2 °C 9,7 km/h (2 Bft)
03.10.2017 01:35 13,2 °C 13,2 °C 92 % 1016,4 hPa 0,0 mm 2,8 km/h (1 Bft) W 264 ° 0 min 0,000 mm 0,0 UV-I 0 W/m² 11,9 °C 13,2 °C 6,4 km/h (2 Bft)
03.10.2017 01:36 13,2 °C 13,2 °C 92 % 1016,4 hPa 0,0 mm 6,7 km/h (2 Bft) W-NW 283 ° 0 min 0,000 mm 0,0 UV-I 0 W/m² 11,9 °C 13,2 °C 11,3 km/h (2 Bft)
03.10.2017 01:37 13,2 °C 13,2 °C 92 % 1016,4 hPa 0,0 mm 3,2 km/h (1 Bft) W 265 ° 0 min 0,000 mm 0,0 UV-I 0 W/m² 11,9 °C 13,2 °C 4,8 km/h (1 Bft)
03.10.2017 01:38 13,2 °C 13,2 °C 92 % 1016,4 hPa 0,0 mm 2,6 km/h (1 Bft) W 265 ° 0 min 0,000 mm 0,0 UV-I 0 W/m² 11,9 °C 13,2 °C 4,8 km/h (1 Bft)
03.10.2017 01:39 13,2 °C 13,2 °C 92 % 1016,4 hPa 0,0 mm 2,1 km/h (1 Bft) W 265 ° 0 min 0,000 mm 0,0 UV-I 0 W/m² 11,9 °C 13,2 °C 3,2 km/h (1 Bft)
03.10.2017 01:40 13,2 °C 13,2 °C 92 % 1016,4 hPa 0,0 mm 0,5 km/h (0 Bft) W 267 ° 0 min 0,000 mm 0,0 UV-I 0 W/m² 11,9 °C 13,2 °C 3,2 km/h (1 Bft)
03.10.2017 01:41 13,2 °C 13,2 °C 92 % 1016,3 hPa 0,0 mm 0,3 km/h (0 Bft) W 267 ° 0 min 0,000 mm 0,0 UV-I 0 W/m² 11,9 °C 13,2 °C 1,6 km/h (1 Bft)
03.10.2017 01:42 13,2 °C 13,2 °C 92 % 1016,4 hPa 0,0 mm 0,5 km/h (0 Bft) W-SW 258 ° 0 min 0,000 mm 0,0 UV-I 0 W/m² 11,9 °C 13,2 °C 1,6 km/h (1 Bft)
03.10.2017 01:43 13,2 °C 13,3 °C 92 % 1016,3 hPa 0,0 mm 0,7 km/h (0 Bft) W-SW 257 ° 0 min 0,000 mm 0,0 UV-I 0 W/m² 11,9 °C 13,2 °C 1,6 km/h (1 Bft)
03.10.2017 01:44 13,3 °C 13,3 °C 92 % 1016,4 hPa 0,0 mm 3,0 km/h (1 Bft) SW 236 ° 0 min 0,000 mm 0,0 UV-I 0 W/m² 12,0 °C 13,3 °C 6,4 km/h (2 Bft)
03.10.2017 01:45 13,3 °C 13,3 °C 92 % 1016,4 hPa 0,0 mm 0,8 km/h (0 Bft) SW 236 ° 0 min 0,000 mm 0,0 UV-I 0 W/m² 12,0 °C 13,3 °C 3,2 km/h (1 Bft)
03.10.2017 01:46 13,3 °C 13,3 °C 92 % 1016,4 hPa 0,0 mm 3,0 km/h (1 Bft) W 259 ° 0 min 0,000 mm 0,0 UV-I 0 W/m² 12,0 °C 13,3 °C 6,4 km/h (2 Bft)
03.10.2017 01:47 13,4 °C 13,4 °C 92 % 1016,4 hPa 0,0 mm 1,3 km/h (1 Bft) W-SW 257 ° 0 min 0,000 mm 0,0 UV-I 0 W/m² 12,1 °C 13,4 °C 3,2 km/h (1 Bft)
03.10.2017 01:48 13,4 °C 13,4 °C 92 % 1016,4 hPa 0,0 mm 1,3 km/h (1 Bft) W-SW 257 ° 0 min 0,000 mm 0,0 UV-I 0 W/m² 12,1 °C 13,4 °C 3,2 km/h (1 Bft)
03.10.2017 01:49 13,4 °C 13,4 °C 91 % 1016,4 hPa 0,0 mm 0,6 km/h (0 Bft) W-SW 257 ° 0 min 0,000 mm 0,0 UV-I 0 W/m² 12,0 °C 13,4 °C 1,6 km/h (1 Bft)
03.10.2017 01:50 13,4 °C 13,4 °C 91 % 1016,4 hPa 0,0 mm 0,0 km/h (0 Bft) W-SW 257 ° 0 min 0,000 mm 0,0 UV-I 0 W/m² 12,0 °C 13,4 °C 0,0 km/h (0 Bft)
03.10.2017 01:51 13,4 °C 13,4 °C 91 % 1016,3 hPa 0,0 mm 0,1 km/h (0 Bft) W-SW 257 ° 0 min 0,000 mm 0,0 UV-I 0 W/m² 12,0 °C 13,4 °C 1,6 km/h (1 Bft)
03.10.2017 01:52 13,4 °C 13,4 °C 91 % 1016,3 hPa 0,0 mm 0,0 km/h (0 Bft) W-SW 257 ° 0 min 0,000 mm 0,0 UV-I 0 W/m² 12,0 °C 13,4 °C 0,0 km/h (0 Bft)
03.10.2017 01:53 13,5 °C 13,5 °C 91 % 1016,3 hPa 0,0 mm 0,1 km/h (0 Bft) W-SW 240 ° 0 min 0,000 mm 0,0 UV-I 0 W/m² 12,1 °C 13,5 °C 1,6 km/h (1 Bft)
03.10.2017 01:54 13,5 °C 13,5 °C 91 % 1016,3 hPa 0,0 mm 0,0 km/h (0 Bft) W-SW 240 ° 0 min 0,000 mm 0,0 UV-I 0 W/m² 12,1 °C 13,5 °C 0,0 km/h (0 Bft)
03.10.2017 01:55 13,5 °C 13,6 °C 91 % 1016,3 hPa 0,0 mm 2,2 km/h (1 Bft) W-SW 255 ° 0 min 0,000 mm 0,0 UV-I 0 W/m² 12,1 °C 13,5 °C 3,2 km/h (1 Bft)
03.10.2017 01:56 13,5 °C 13,5 °C 91 % 1016,3 hPa 0,0 mm 2,9 km/h (1 Bft) W-SW 255 ° 0 min 0,000 mm 0,0 UV-I 0 W/m² 12,1 °C 13,5 °C 6,4 km/h (2 Bft)
03.10.2017 01:57 13,5 °C 13,5 °C 91 % 1016,3 hPa 0,0 mm 1,1 km/h (1 Bft) W-SW 255 ° 0 min 0,000 mm 0,0 UV-I 0 W/m² 12,1 °C 13,5 °C 3,2 km/h (1 Bft)
03.10.2017 01:58 13,5 °C 13,5 °C 91 % 1016,3 hPa 0,0 mm 0,4 km/h (0 Bft) W-SW 255 ° 0 min 0,000 mm 0,0 UV-I 0 W/m² 12,1 °C 13,5 °C 1,6 km/h (1 Bft)
03.10.2017 01:59 13,5 °C 13,5 °C 91 % 1016,3 hPa 0,0 mm 1,4 km/h (1 Bft) W-SW 255 ° 0 min 0,000 mm 0,0 UV-I 0 W/m² 12,1 °C 13,5 °C 3,2 km/h (1 Bft)
03.10.2017 02:00 13,4 °C 13,5 °C 91 % 1016,4 hPa 0,0 mm 2,7 km/h (1 Bft) W-SW 255 ° 0 min 0,000 mm 0,0 UV-I 0 W/m² 12,0 °C 13,4 °C 4,8 km/h (1 Bft)
03.10.2017 02:01 13,4 °C 13,4 °C 91 % 1016,4 hPa 0,0 mm 0,1 km/h (0 Bft) W-SW 255 ° 0 min 0,000 mm 0,0 UV-I 0 W/m² 12,0 °C 13,4 °C 1,6 km/h (1 Bft)
03.10.2017 02:02 13,4 °C 13,4 °C 91 % 1016,4 hPa 0,0 mm 1,4 km/h (1 Bft) W-SW 248 ° 0 min 0,000 mm 0,0 UV-I 0 W/m² 12,0 °C 13,4 °C 3,2 km/h (1 Bft)
03.10.2017 02:03 13,4 °C 13,4 °C 91 % 1016,4 hPa 0,0 mm 2,0 km/h (1 Bft) W-SW 248 ° 0 min 0,000 mm 0,0 UV-I 0 W/m² 12,0 °C 13,4 °C 3,2 km/h (1 Bft)
03.10.2017 02:04 13,4 °C 13,4 °C 91 % 1016,4 hPa 0,0 mm 0,6 km/h (0 Bft) W-SW 248 ° 0 min 0,000 mm 0,0 UV-I 0 W/m² 12,0 °C 13,4 °C 1,6 km/h (1 Bft)
03.10.2017 02:05 13,4 °C 13,4 °C 91 % 1016,4 hPa 0,0 mm 1,4 km/h (1 Bft) W-SW 248 ° 0 min 0,000 mm 0,0 UV-I 0 W/m² 12,0 °C 13,4 °C 3,2 km/h (1 Bft)
03.10.2017 02:06 13,4 °C 13,4 °C 91 % 1016,4 hPa 0,0 mm 1,7 km/h (1 Bft) W-SW 248 ° 0 min 0,000 mm 0,0 UV-I 0 W/m² 12,0 °C 13,4 °C 3,2 km/h (1 Bft)
03.10.2017 02:07 13,4 °C 13,4 °C 91 % 1016,3 hPa 0,0 mm 2,9 km/h (1 Bft) W-SW 249 ° 0 min 0,000 mm 0,0 UV-I 0 W/m² 12,0 °C 13,4 °C 4,8 km/h (1 Bft)
03.10.2017 02:08 13,4 °C 13,4 °C 91 % 1016,3 hPa 0,0 mm 1,2 km/h (1 Bft) SW 235 ° 0 min 0,000 mm 0,0 UV-I 0 W/m² 12,0 °C 13,4 °C 3,2 km/h (1 Bft)
03.10.2017 02:09 13,4 °C 13,4 °C 91 % 1016,4 hPa 0,0 mm 0,8 km/h (0 Bft) SW 235 ° 0 min 0,000 mm 0,0 UV-I 0 W/m² 12,0 °C 13,4 °C 1,6 km/h (1 Bft)
03.10.2017 02:10 13,4 °C 13,4 °C 91 % 1016,3 hPa 0,0 mm 0,4 km/h (0 Bft) SW 235 ° 0 min 0,000 mm 0,0 UV-I 0 W/m² 12,0 °C 13,4 °C 3,2 km/h (1 Bft)
03.10.2017 02:11 13,5 °C 13,5 °C 91 % 1016,2 hPa 0,0 mm 1,2 km/h (1 Bft) SW 235 ° 0 min 0,000 mm 0,0 UV-I 0 W/m² 12,1 °C 13,5 °C 3,2 km/h (1 Bft)
03.10.2017 02:12 13,5 °C 13,5 °C 91 % 1016,3 hPa 0,0 mm 0,3 km/h (0 Bft) SW 235 ° 0 min 0,000 mm 0,0 UV-I 0 W/m² 12,1 °C 13,5 °C 1,6 km/h (1 Bft)
03.10.2017 02:13 13,6 °C 13,6 °C 91 % 1016,3 hPa 0,0 mm 3,2 km/h (1 Bft) S-SW 211 ° 0 min 0,000 mm 0,0 UV-I 0 W/m² 12,2 °C 13,6 °C 6,4 km/h (2 Bft)
03.10.2017 02:14 13,6 °C 13,6 °C 91 % 1016,3 hPa 0,0 mm 5,0 km/h (1 Bft) W 273 ° 0 min 0,000 mm 0,0 UV-I 0 W/m² 12,2 °C 13,6 °C 8,0 km/h (2 Bft)
03.10.2017 02:15 13,6 °C 13,6 °C 91 % 1016,3 hPa 0,0 mm 3,7 km/h (1 Bft) SW 234 ° 0 min 0,000 mm 0,0 UV-I 0 W/m² 12,2 °C 13,6 °C 4,8 km/h (1 Bft)
03.10.2017 02:16 13,7 °C 13,7 °C 91 % 1016,2 hPa 0,0 mm 0,6 km/h (0 Bft) SW 234 ° 0 min 0,000 mm 0,0 UV-I 0 W/m² 12,3 °C 13,7 °C 1,6 km/h (1 Bft)
03.10.2017 02:17 13,7 °C 13,7 °C 91 % 1016,2 hPa 0,0 mm 2,6 km/h (1 Bft) SW 219 ° 0 min 0,000 mm 0,0 UV-I 0 W/m² 12,3 °C 13,7 °C 4,8 km/h (1 Bft)
03.10.2017 02:18 13,7 °C 13,7 °C 91 % 1016,2 hPa 0,0 mm 3,4 km/h (1 Bft) W-SW 257 ° 0 min 0,000 mm 0,0 UV-I 0 W/m² 12,3 °C 13,7 °C 4,8 km/h (1 Bft)
03.10.2017 02:19 13,7 °C 13,7 °C 91 % 1016,2 hPa 0,0 mm 3,9 km/h (1 Bft) W-SW 243 ° 0 min 0,000 mm 0,0 UV-I 0 W/m² 12,3 °C 13,7 °C 4,8 km/h (1 Bft)
03.10.2017 02:20 13,6 °C 13,7 °C 91 % 1016,2 hPa 0,0 mm 4,1 km/h (1 Bft) W 261 ° 0 min 0,000 mm 0,0 UV-I 0 W/m² 12,2 °C 13,6 °C 6,4 km/h (2 Bft)
03.10.2017 02:21 13,6 °C 13,6 °C 91 % 1016,2 hPa 0,0 mm 7,4 km/h (2 Bft) W-SW 252 ° 0 min 0,000 mm 0,0 UV-I 0 W/m² 12,2 °C 13,6 °C 11,3 km/h (2 Bft)
03.10.2017 02:22 13,6 °C 13,6 °C 91 % 1016,2 hPa 0,0 mm 1,1 km/h (1 Bft) W-SW 252 ° 0 min 0,000 mm 0,0 UV-I 0 W/m² 12,2 °C 13,6 °C 3,2 km/h (1 Bft)
03.10.2017 02:23 13,6 °C 13,6 °C 91 % 1016,2 hPa 0,0 mm 0,4 km/h (0 Bft) W-SW 252 ° 0 min 0,000 mm 0,0 UV-I 0 W/m² 12,2 °C 13,6 °C 3,2 km/h (1 Bft)
03.10.2017 02:24 13,5 °C 13,6 °C 91 % 1016,2 hPa 0,0 mm 1,5 km/h (1 Bft) SW 224 ° 0 min 0,000 mm 0,0 UV-I 0 W/m² 12,1 °C 13,5 °C 4,8 km/h (1 Bft)
03.10.2017 02:25 13,5 °C 13,5 °C 91 % 1016,1 hPa 0,0 mm 0,5 km/h (0 Bft) SW 224 ° 0 min 0,000 mm 0,0 UV-I 0 W/m² 12,1 °C 13,5 °C 1,6 km/h (1 Bft)
03.10.2017 02:26 13,5 °C 13,5 °C 91 % 1016,1 hPa 0,0 mm 1,1 km/h (1 Bft) SW 224 ° 0 min 0,000 mm 0,0 UV-I 0 W/m² 12,1 °C 13,5 °C 3,2 km/h (1 Bft)
03.10.2017 02:27 13,5 °C 13,5 °C 91 % 1016,1 hPa 0,0 mm 2,2 km/h (1 Bft) W-SW 245 ° 0 min 0,000 mm 0,0 UV-I 0 W/m² 12,1 °C 13,5 °C 4,8 km/h (1 Bft)
03.10.2017 02:28 13,4 °C 13,5 °C 91 % 1016,1 hPa 0,0 mm 2,7 km/h (1 Bft) W-SW 255 ° 0 min 0,000 mm 0,0 UV-I 0 W/m² 12,0 °C 13,4 °C 4,8 km/h (1 Bft)
03.10.2017 02:29 13,4 °C 13,4 °C 91 % 1016,1 hPa 0,0 mm 2,3 km/h (1 Bft) W-SW 256 ° 0 min 0,000 mm 0,0 UV-I 0 W/m² 12,0 °C 13,4 °C 4,8 km/h (1 Bft)
03.10.2017 02:30 13,4 °C 13,4 °C 91 % 1016,1 hPa 0,0 mm 0,0 km/h (0 Bft) W-SW 256 ° 0 min 0,000 mm 0,0 UV-I 0 W/m² 12,0 °C 13,4 °C 0,0 km/h (0 Bft)
03.10.2017 02:31 13,4 °C 13,4 °C 92 % 1016,1 hPa 0,0 mm 0,0 km/h (0 Bft) W-SW 256 ° 0 min 0,000 mm 0,0 UV-I 0 W/m² 12,1 °C 13,4 °C 0,0 km/h (0 Bft)
03.10.2017 02:32 13,3 °C 13,4 °C 92 % 1016,0 hPa 0,0 mm 0,8 km/h (0 Bft) W 271 ° 0 min 0,000 mm 0,0 UV-I 0 W/m² 12,0 °C 13,3 °C 1,6 km/h (1 Bft)
03.10.2017 02:33 13,3 °C 13,4 °C 92 % 1016,1 hPa 0,0 mm 1,0 km/h (0 Bft) W 271 ° 0 min 0,000 mm 0,0 UV-I 0 W/m² 12,0 °C 13,3 °C 1,6 km/h (1 Bft)
03.10.2017 02:34 13,3 °C 13,4 °C 92 % 1016,1 hPa 0,0 mm 0,1 km/h (0 Bft) W 271 ° 0 min 0,000 mm 0,0 UV-I 0 W/m² 12,0 °C 13,3 °C 1,6 km/h (1 Bft)
03.10.2017 02:35 13,3 °C 13,4 °C 92 % 1016,0 hPa 0,0 mm 1,1 km/h (1 Bft) W 271 ° 0 min 0,000 mm 0,0 UV-I 0 W/m² 12,0 °C 13,3 °C 3,2 km/h (1 Bft)
03.10.2017 02:36 13,3 °C 13,4 °C 92 % 1016,0 hPa 0,0 mm 0,7 km/h (0 Bft) W-SW 257 ° 0 min 0,000 mm 0,0 UV-I 0 W/m² 12,0 °C 13,3 °C 3,2 km/h (1 Bft)
03.10.2017 02:37 13,3 °C 13,3 °C 92 % 1015,9 hPa 0,2 mm 0,8 km/h (0 Bft) W-SW 257 ° 0 min 0,000 mm 0,0 UV-I 0 W/m² 12,0 °C 13,3 °C 3,2 km/h (1 Bft)
03.10.2017 02:38 13,3 °C 13,3 °C 92 % 1015,9 hPa 0,0 mm 0,7 km/h (0 Bft) W-SW 257 ° 0 min 0,000 mm 0,0 UV-I 0 W/m² 12,0 °C 13,3 °C 1,6 km/h (1 Bft)
03.10.2017 02:39 13,3 °C 13,3 °C 92 % 1015,9 hPa 0,0 mm 0,5 km/h (0 Bft) W-SW 257 ° 0 min 0,000 mm 0,0 UV-I 0 W/m² 12,0 °C 13,3 °C 1,6 km/h (1 Bft)
03.10.2017 02:40 13,3 °C 13,3 °C 92 % 1015,9 hPa 0,0 mm 0,7 km/h (0 Bft) W-SW 257 ° 0 min 0,000 mm 0,0 UV-I 0 W/m² 12,0 °C 13,3 °C 3,2 km/h (1 Bft)
03.10.2017 02:41 13,3 °C 13,3 °C 92 % 1015,9 hPa 0,0 mm 2,3 km/h (1 Bft) W 261 ° 0 min 0,000 mm 0,0 UV-I 0 W/m² 12,0 °C 13,3 °C 4,8 km/h (1 Bft)
03.10.2017 02:42 13,2 °C 13,3 °C 92 % 1016,0 hPa 0,0 mm 4,6 km/h (1 Bft) W 259 ° 0 min 0,000 mm 0,0 UV-I 0 W/m² 11,9 °C 13,2 °C 6,4 km/h (2 Bft)
03.10.2017 02:43 13,2 °C 13,2 °C 92 % 1015,9 hPa 0,0 mm 0,5 km/h (0 Bft) W 259 ° 0 min 0,000 mm 0,0 UV-I 0 W/m² 11,9 °C 13,2 °C 1,6 km/h (1 Bft)
03.10.2017 02:44 13,2 °C 13,2 °C 92 % 1015,9 hPa 0,0 mm 0,0 km/h (0 Bft) W 259 ° 0 min 0,000 mm 0,0 UV-I 0 W/m² 11,9 °C 13,2 °C 0,0 km/h (0 Bft)
03.10.2017 02:45 13,2 °C 13,2 °C 92 % 1015,9 hPa 0,0 mm 0,9 km/h (0 Bft) W 259 ° 0 min 0,000 mm 0,0 UV-I 0 W/m² 11,9 °C 13,2 °C 3,2 km/h (1 Bft)
03.10.2017 02:46 13,2 °C 13,2 °C 93 % 1015,9 hPa 0,0 mm 1,3 km/h (1 Bft) W 259 ° 0 min 0,000 mm 0,0 UV-I 0 W/m² 12,1 °C 13,2 °C 3,2 km/h (1 Bft)
03.10.2017 02:47 13,2 °C 13,2 °C 93 % 1015,9 hPa 0,0 mm 0,1 km/h (0 Bft) W 259 ° 0 min 0,000 mm 0,0 UV-I 0 W/m² 12,1 °C 13,2 °C 1,6 km/h (1 Bft)
03.10.2017 02:48 13,3 °C 13,3 °C 93 % 1015,9 hPa 0,0 mm 1,2 km/h (1 Bft) SW 216 ° 0 min 0,000 mm 0,0 UV-I 0 W/m² 12,2 °C 13,3 °C 3,2 km/h (1 Bft)
03.10.2017 02:49 13,3 °C 13,3 °C 93 % 1015,9 hPa 0,0 mm 1,6 km/h (1 Bft) S-SW 205 ° 0 min 0,000 mm 0,0 UV-I 0 W/m² 12,2 °C 13,3 °C 4,8 km/h (1 Bft)
03.10.2017 02:50 13,3 °C 13,3 °C 92 % 1015,9 hPa 0,0 mm 1,9 km/h (1 Bft) W 271 ° 0 min 0,000 mm 0,0 UV-I 0 W/m² 12,0 °C 13,3 °C 4,8 km/h (1 Bft)
03.10.2017 02:51 13,3 °C 13,3 °C 92 % 1015,9 hPa 0,0 mm 0,5 km/h (0 Bft) W 263 ° 0 min 0,000 mm 0,0 UV-I 0 W/m² 12,0 °C 13,3 °C 1,6 km/h (1 Bft)
03.10.2017 02:52 13,3 °C 13,3 °C 92 % 1015,9 hPa 0,0 mm 1,2 km/h (1 Bft) W-SW 237 ° 0 min 0,000 mm 0,0 UV-I 0 W/m² 12,0 °C 13,3 °C 3,2 km/h (1 Bft)
03.10.2017 02:53 13,4 °C 13,4 °C 92 % 1015,9 hPa 0,0 mm 0,7 km/h (0 Bft) W-SW 244 ° 0 min 0,000 mm 0,0 UV-I 0 W/m² 12,1 °C 13,4 °C 3,2 km/h (1 Bft)
03.10.2017 02:54 13,4 °C 13,4 °C 92 % 1015,9 hPa 0,0 mm 2,7 km/h (1 Bft) W 277 ° 0 min 0,000 mm 0,0 UV-I 0 W/m² 12,1 °C 13,4 °C 6,4 km/h (2 Bft)
03.10.2017 02:55 13,4 °C 13,4 °C 92 % 1015,9 hPa 0,0 mm 3,6 km/h (1 Bft) W-SW 244 ° 0 min 0,000 mm 0,0 UV-I 0 W/m² 12,1 °C 13,4 °C 6,4 km/h (2 Bft)
03.10.2017 02:56 13,4 °C 13,4 °C 92 % 1015,9 hPa 0,0 mm 4,3 km/h (1 Bft) W 271 ° 0 min 0,000 mm 0,0 UV-I 0 W/m² 12,1 °C 13,4 °C 6,4 km/h (2 Bft)
03.10.2017 02:57 13,5 °C 13,5 °C 92 % 1015,8 hPa 0,0 mm 3,4 km/h (1 Bft) W-SW 254 ° 0 min 0,000 mm 0,0 UV-I 0 W/m² 12,2 °C 13,5 °C 6,4 km/h (2 Bft)
03.10.2017 02:58 13,5 °C 13,5 °C 92 % 1015,8 hPa 0,0 mm 4,2 km/h (1 Bft) W-SW 257 ° 0 min 0,000 mm 0,0 UV-I 0 W/m² 12,2 °C 13,5 °C 8,0 km/h (2 Bft)
03.10.2017 02:59 13,4 °C 13,5 °C 92 % 1015,8 hPa 0,0 mm 3,6 km/h (1 Bft) SW 233 ° 0 min 0,000 mm 0,0 UV-I 0 W/m² 12,1 °C 13,4 °C 6,4 km/h (2 Bft)
03.10.2017 03:00 13,4 °C 13,5 °C 92 % 1015,7 hPa 0,0 mm 1,4 km/h (1 Bft) SW 233 ° 0 min 0,000 mm 0,0 UV-I 0 W/m² 12,1 °C 13,4 °C 3,2 km/h (1 Bft)
03.10.2017 03:01 13,5 °C 13,5 °C 92 % 1015,7 hPa 0,0 mm 0,1 km/h (0 Bft) SW 233 ° 0 min 0,000 mm 0,0 UV-I 0 W/m² 12,2 °C 13,5 °C 1,6 km/h (1 Bft)
03.10.2017 03:02 13,5 °C 13,5 °C 92 % 1015,7 hPa 0,0 mm 0,6 km/h (0 Bft) SW 234 ° 0 min 0,000 mm 0,0 UV-I 0 W/m² 12,2 °C 13,5 °C 3,2 km/h (1 Bft)
03.10.2017 03:03 13,5 °C 13,5 °C 92 % 1015,7 hPa 0,0 mm 1,2 km/h (1 Bft) SW 233 ° 0 min 0,000 mm 0,0 UV-I 0 W/m² 12,2 °C 13,5 °C 1,6 km/h (1 Bft)
03.10.2017 03:04 13,5 °C 13,5 °C 92 % 1015,7 hPa 0,0 mm 0,2 km/h (0 Bft) SW 227 ° 0 min 0,000 mm 0,0 UV-I 0 W/m² 12,2 °C 13,5 °C 1,6 km/h (1 Bft)
03.10.2017 03:05 13,5 °C 13,6 °C 92 % 1015,7 hPa 0,0 mm 0,8 km/h (0 Bft) SW 223 ° 0 min 0,000 mm 0,0 UV-I 0 W/m² 12,2 °C 13,5 °C 3,2 km/h (1 Bft)
03.10.2017 03:06 13,6 °C 13,6 °C 92 % 1015,7 hPa 0,0 mm 4,1 km/h (1 Bft) S 186 ° 0 min 0,000 mm 0,0 UV-I 0 W/m² 12,3 °C 13,6 °C 6,4 km/h (2 Bft)
03.10.2017 03:07 13,5 °C 13,6 °C 92 % 1015,7 hPa 0,0 mm 2,7 km/h (1 Bft) S-SW 201 ° 0 min 0,000 mm 0,0 UV-I 0 W/m² 12,2 °C 13,5 °C 6,4 km/h (2 Bft)
03.10.2017 03:08 13,6 °C 13,6 °C 92 % 1015,6 hPa 0,0 mm 0,4 km/h (0 Bft) S-SW 202 ° 0 min 0,000 mm 0,0 UV-I 0 W/m² 12,3 °C 13,6 °C 1,6 km/h (1 Bft)
03.10.2017 03:09 13,6 °C 13,6 °C 92 % 1015,6 hPa 0,0 mm 0,0 km/h (0 Bft) S-SW 202 ° 0 min 0,000 mm 0,0 UV-I 0 W/m² 12,3 °C 13,6 °C 0,0 km/h (0 Bft)
03.10.2017 03:10 13,6 °C 13,6 °C 92 % 1015,6 hPa 0,0 mm 0,0 km/h (0 Bft) S-SW 202 ° 0 min 0,000 mm 0,0 UV-I 0 W/m² 12,3 °C 13,6 °C 0,0 km/h (0 Bft)
03.10.2017 03:11 13,6 °C 13,6 °C 92 % 1015,5 hPa 0,0 mm 2,2 km/h (1 Bft) W-SW 258 ° 0 min 0,000 mm 0,0 UV-I 0 W/m² 12,3 °C 13,6 °C 4,8 km/h (1 Bft)
03.10.2017 03:12 13,5 °C 13,6 °C 92 % 1015,5 hPa 0,0 mm 1,4 km/h (1 Bft) S-SW 194 ° 0 min 0,000 mm 0,0 UV-I 0 W/m² 12,2 °C 13,5 °C 3,2 km/h (1 Bft)
03.10.2017 03:13 13,5 °C 13,6 °C 92 % 1015,5 hPa 0,0 mm 4,5 km/h (1 Bft) W 275 ° 0 min 0,000 mm 0,0 UV-I 0 W/m² 12,2 °C 13,5 °C 9,7 km/h (2 Bft)
03.10.2017 03:14 13,6 °C 13,6 °C 92 % 1015,5 hPa 0,0 mm 4,9 km/h (1 Bft) SW 224 ° 0 min 0,000 mm 0,0 UV-I 0 W/m² 12,3 °C 13,6 °C 9,7 km/h (2 Bft)
03.10.2017 03:15 13,6 °C 13,6 °C 92 % 1015,4 hPa 0,0 mm 2,2 km/h (1 Bft) SW 228 ° 0 min 0,000 mm 0,0 UV-I 0 W/m² 12,3 °C 13,6 °C 4,8 km/h (1 Bft)
03.10.2017 03:16 13,6 °C 13,6 °C 92 % 1015,4 hPa 0,0 mm 3,0 km/h (1 Bft) S 190 ° 0 min 0,000 mm 0,0 UV-I 0 W/m² 12,3 °C 13,6 °C 4,8 km/h (1 Bft)
03.10.2017 03:17 13,6 °C 13,6 °C 92 % 1015,4 hPa 0,0 mm 1,7 km/h (1 Bft) S 190 ° 0 min 0,000 mm 0,0 UV-I 0 W/m² 12,3 °C 13,6 °C 3,2 km/h (1 Bft)
03.10.2017 03:18 13,6 °C 13,6 °C 91 % 1015,3 hPa 0,0 mm 2,7 km/h (1 Bft) S-SW 204 ° 0 min 0,000 mm 0,0 UV-I 0 W/m² 12,2 °C 13,6 °C 4,8 km/h (1 Bft)
03.10.2017 03:19 13,7 °C 13,7 °C 91 % 1015,3 hPa 0,0 mm 0,5 km/h (0 Bft) S-SW 204 ° 0 min 0,000 mm 0,0 UV-I 0 W/m² 12,3 °C 13,7 °C 3,2 km/h (1 Bft)
03.10.2017 03:20 13,7 °C 13,7 °C 91 % 1015,3 hPa 0,0 mm 1,6 km/h (1 Bft) SW 219 ° 0 min 0,000 mm 0,0 UV-I 0 W/m² 12,3 °C 13,7 °C 3,2 km/h (1 Bft)
03.10.2017 03:21 13,7 °C 13,7 °C 91 % 1015,3 hPa 0,0 mm 0,0 km/h (0 Bft) SW 219 ° 0 min 0,000 mm 0,0 UV-I 0 W/m² 12,3 °C 13,7 °C 0,0 km/h (0 Bft)
03.10.2017 03:22 13,7 °C 13,7 °C 91 % 1015,3 hPa 0,0 mm 0,1 km/h (0 Bft) SW 220 ° 0 min 0,000 mm 0,0 UV-I 0 W/m² 12,3 °C 13,7 °C 1,6 km/h (1 Bft)
03.10.2017 03:23 13,7 °C 13,8 °C 91 % 1015,3 hPa 0,0 mm 2,9 km/h (1 Bft) SW 228 ° 0 min 0,000 mm 0,0 UV-I 0 W/m² 12,3 °C 13,7 °C 6,4 km/h (2 Bft)
03.10.2017 03:24 13,7 °C 13,7 °C 91 % 1015,2 hPa 0,0 mm 0,1 km/h (0 Bft) SW 228 ° 0 min 0,000 mm 0,0 UV-I 0 W/m² 12,3 °C 13,7 °C 1,6 km/h (1 Bft)
03.10.2017 03:25 13,7 °C 13,7 °C 91 % 1015,3 hPa 0,0 mm 1,9 km/h (1 Bft) W 268 ° 0 min 0,000 mm 0,0 UV-I 0 W/m² 12,3 °C 13,7 °C 4,8 km/h (1 Bft)
03.10.2017 03:26 13,7 °C 13,8 °C 91 % 1015,2 hPa 0,0 mm 2,5 km/h (1 Bft) W-SW 255 ° 0 min 0,000 mm 0,0 UV-I 0 W/m² 12,3 °C 13,7 °C 3,2 km/h (1 Bft)
03.10.2017 03:27 13,7 °C 13,7 °C 91 % 1015,2 hPa 0,0 mm 2,9 km/h (1 Bft) W-SW 244 ° 0 min 0,000 mm 0,0 UV-I 0 W/m² 12,3 °C 13,7 °C 4,8 km/h (1 Bft)
03.10.2017 03:28 13,7 °C 13,7 °C 91 % 1015,2 hPa 0,0 mm 2,2 km/h (1 Bft) W-SW 244 ° 0 min 0,000 mm 0,0 UV-I 0 W/m² 12,3 °C 13,7 °C 3,2 km/h (1 Bft)
03.10.2017 03:29 13,7 °C 13,7 °C 91 % 1015,2 hPa 0,0 mm 1,6 km/h (1 Bft) W-SW 244 ° 0 min 0,000 mm 0,0 UV-I 0 W/m² 12,3 °C 13,7 °C 3,2 km/h (1 Bft)
03.10.2017 03:30 13,7 °C 13,7 °C 91 % 1015,2 hPa 0,0 mm 1,7 km/h (1 Bft) W-NW 291 ° 0 min 0,000 mm 0,0 UV-I 0 W/m² 12,3 °C 13,7 °C 4,8 km/h (1 Bft)
03.10.2017 03:31 13,6 °C 13,7 °C 91 % 1015,2 hPa 0,0 mm 1,6 km/h (1 Bft) W-NW 290 ° 0 min 0,000 mm 0,0 UV-I 0 W/m² 12,2 °C 13,6 °C 4,8 km/h (1 Bft)
03.10.2017 03:32 13,6 °C 13,7 °C 91 % 1015,2 hPa 0,0 mm 2,4 km/h (1 Bft) W 278 ° 0 min 0,000 mm 0,0 UV-I 0 W/m² 12,2 °C 13,6 °C 6,4 km/h (2 Bft)
03.10.2017 03:33 13,6 °C 13,6 °C 91 % 1015,2 hPa 0,0 mm 1,0 km/h (0 Bft) W 278 ° 0 min 0,000 mm 0,0 UV-I 0 W/m² 12,2 °C 13,6 °C 3,2 km/h (1 Bft)
03.10.2017 03:34 13,6 °C 13,6 °C 91 % 1015,2 hPa 0,0 mm 1,8 km/h (1 Bft) W-SW 238 ° 0 min 0,000 mm 0,0 UV-I 0 W/m² 12,2 °C 13,6 °C 3,2 km/h (1 Bft)
03.10.2017 03:35 13,6 °C 13,6 °C 91 % 1015,2 hPa 0,0 mm 1,7 km/h (1 Bft) W 263 ° 0 min 0,000 mm 0,0 UV-I 0 W/m² 12,2 °C 13,6 °C 4,8 km/h (1 Bft)
03.10.2017 03:36 13,6 °C 13,6 °C 91 % 1015,1 hPa 0,0 mm 0,9 km/h (0 Bft) W-SW 254 ° 0 min 0,000 mm 0,0 UV-I 0 W/m² 12,2 °C 13,6 °C 3,2 km/h (1 Bft)
03.10.2017 03:37 13,6 °C 13,6 °C 91 % 1015,1 hPa 0,0 mm 2,9 km/h (1 Bft) W-NW 298 ° 0 min 0,000 mm 0,0 UV-I 0 W/m² 12,2 °C 13,6 °C 6,4 km/h (2 Bft)
03.10.2017 03:38 13,6 °C 13,6 °C 91 % 1015,2 hPa 0,0 mm 2,3 km/h (1 Bft) W 271 ° 0 min 0,000 mm 0,0 UV-I 0 W/m² 12,2 °C 13,6 °C 4,8 km/h (1 Bft)
03.10.2017 03:39 13,6 °C 13,6 °C 91 % 1015,1 hPa 0,0 mm 3,6 km/h (1 Bft) W-SW 244 ° 0 min 0,000 mm 0,0 UV-I 0 W/m² 12,2 °C 13,6 °C 6,4 km/h (2 Bft)
03.10.2017 03:40 13,6 °C 13,6 °C 92 % 1015,1 hPa 0,0 mm 3,3 km/h (1 Bft) W-SW 252 ° 0 min 0,000 mm 0,0 UV-I 0 W/m² 12,3 °C 13,6 °C 4,8 km/h (1 Bft)
03.10.2017 03:41 13,6 °C 13,6 °C 91 % 1015,1 hPa 0,0 mm 3,7 km/h (1 Bft) W-SW 255 ° 0 min 0,000 mm 0,0 UV-I 0 W/m² 12,2 °C 13,6 °C 9,7 km/h (2 Bft)
03.10.2017 03:42 13,5 °C 13,6 °C 91 % 1015,1 hPa 0,0 mm 3,9 km/h (1 Bft) W-SW 238 ° 0 min 0,000 mm 0,0 UV-I 0 W/m² 12,1 °C 13,5 °C 9,7 km/h (2 Bft)
03.10.2017 03:43 13,6 °C 13,6 °C 92 % 1015,2 hPa 0,0 mm 4,0 km/h (1 Bft) W 259 ° 0 min 0,000 mm 0,0 UV-I 0 W/m² 12,3 °C 13,6 °C 6,4 km/h (2 Bft)
03.10.2017 03:44 13,5 °C 13,6 °C 92 % 1015,2 hPa 0,0 mm 3,6 km/h (1 Bft) W 270 ° 0 min 0,000 mm 0,0 UV-I 0 W/m² 12,2 °C 13,5 °C 4,8 km/h (1 Bft)
03.10.2017 03:45 13,5 °C 13,5 °C 92 % 1015,2 hPa 0,0 mm 1,3 km/h (1 Bft) SW 234 ° 0 min 0,000 mm 0,0 UV-I 0 W/m² 12,2 °C 13,5 °C 3,2 km/h (1 Bft)
03.10.2017 03:46 13,5 °C 13,5 °C 92 % 1015,1 hPa 0,0 mm 0,7 km/h (0 Bft) SW 234 ° 0 min 0,000 mm 0,0 UV-I 0 W/m² 12,2 °C 13,5 °C 3,2 km/h (1 Bft)
03.10.2017 03:47 13,5 °C 13,6 °C 92 % 1015,1 hPa 0,0 mm 0,0 km/h (0 Bft) SW 234 ° 0 min 0,000 mm 0,0 UV-I 0 W/m² 12,2 °C 13,5 °C 0,0 km/h (0 Bft)
03.10.2017 03:48 13,6 °C 13,6 °C 92 % 1015,1 hPa 0,0 mm 0,0 km/h (0 Bft) SW 234 ° 0 min 0,000 mm 0,0 UV-I 0 W/m² 12,3 °C 13,6 °C 0,0 km/h (0 Bft)
03.10.2017 03:49 13,6 °C 13,6 °C 92 % 1015,0 hPa 0,0 mm 0,1 km/h (0 Bft) SW 234 ° 0 min 0,000 mm 0,0 UV-I 0 W/m² 12,3 °C 13,6 °C 1,6 km/h (1 Bft)
03.10.2017 03:50 13,6 °C 13,6 °C 92 % 1015,0 hPa 0,0 mm 0,7 km/h (0 Bft) SW 234 ° 0 min 0,000 mm 0,0 UV-I 0 W/m² 12,3 °C 13,6 °C 3,2 km/h (1 Bft)
03.10.2017 03:51 13,6 °C 13,6 °C 92 % 1015,0 hPa 0,0 mm 1,7 km/h (1 Bft) SW 230 ° 0 min 0,000 mm 0,0 UV-I 0 W/m² 12,3 °C 13,6 °C 3,2 km/h (1 Bft)
03.10.2017 03:52 13,6 °C 13,7 °C 92 % 1015,0 hPa 0,0 mm 3,1 km/h (1 Bft) S-SW 203 ° 0 min 0,000 mm 0,0 UV-I 0 W/m² 12,3 °C 13,6 °C 4,8 km/h (1 Bft)
03.10.2017 03:53 13,7 °C 13,7 °C 92 % 1015,0 hPa 0,0 mm 1,6 km/h (1 Bft) S-SW 203 ° 0 min 0,000 mm 0,0 UV-I 0 W/m² 12,4 °C 13,7 °C 3,2 km/h (1 Bft)
03.10.2017 03:54 13,7 °C 13,7 °C 92 % 1015,0 hPa 0,0 mm 1,7 km/h (1 Bft) S-SW 203 ° 0 min 0,000 mm 0,0 UV-I 0 W/m² 12,4 °C 13,7 °C 3,2 km/h (1 Bft)
03.10.2017 03:55 13,8 °C 13,8 °C 91 % 1014,9 hPa 0,0 mm 1,5 km/h (1 Bft) S-SW 203 ° 0 min 0,000 mm 0,0 UV-I 0 W/m² 12,4 °C 13,8 °C 3,2 km/h (1 Bft)
03.10.2017 03:56 13,8 °C 13,8 °C 91 % 1014,8 hPa 0,0 mm 1,5 km/h (1 Bft) S-SW 203 ° 0 min 0,000 mm 0,0 UV-I 0 W/m² 12,4 °C 13,8 °C 3,2 km/h (1 Bft)
03.10.2017 03:57 13,8 °C 13,8 °C 91 % 1014,8 hPa 0,0 mm 3,2 km/h (1 Bft) S-SW 192 ° 0 min 0,000 mm 0,0 UV-I 0 W/m² 12,4 °C 13,8 °C 4,8 km/h (1 Bft)
03.10.2017 03:58 13,8 °C 13,8 °C 91 % 1014,8 hPa 0,0 mm 1,7 km/h (1 Bft) S-SW 192 ° 0 min 0,000 mm 0,0 UV-I 0 W/m² 12,4 °C 13,8 °C 4,8 km/h (1 Bft)
03.10.2017 03:59 13,9 °C 13,9 °C 91 % 1014,9 hPa 0,0 mm 2,9 km/h (1 Bft) NW 320 ° 0 min 0,000 mm 0,0 UV-I 0 W/m² 12,5 °C 13,9 °C 6,4 km/h (2 Bft)
03.10.2017 04:00 13,9 °C 13,9 °C 91 % 1014,9 hPa 0,0 mm 2,4 km/h (1 Bft) W-SW 244 ° 0 min 0,000 mm 0,0 UV-I 0 W/m² 12,5 °C 13,9 °C 4,8 km/h (1 Bft)
03.10.2017 04:01 13,9 °C 14,0 °C 91 % 1014,8 hPa 0,0 mm 0,2 km/h (0 Bft) W-SW 244 ° 0 min 0,000 mm 0,0 UV-I 0 W/m² 12,5 °C 13,9 °C 1,6 km/h (1 Bft)
03.10.2017 04:02 14,0 °C 14,0 °C 91 % 1014,8 hPa 0,0 mm 0,0 km/h (0 Bft) W-SW 244 ° 0 min 0,000 mm 0,0 UV-I 0 W/m² 12,6 °C 14,0 °C 0,0 km/h (0 Bft)
03.10.2017 04:03 14,0 °C 14,0 °C 91 % 1014,8 hPa 0,0 mm 2,2 km/h (1 Bft) SW 226 ° 0 min 0,000 mm 0,0 UV-I 0 W/m² 12,6 °C 14,0 °C 4,8 km/h (1 Bft)
03.10.2017 04:04 14,1 °C 14,1 °C 91 % 1014,8 hPa 0,0 mm 2,3 km/h (1 Bft) S 188 ° 0 min 0,000 mm 0,0 UV-I 0 W/m² 12,7 °C 14,1 °C 4,8 km/h (1 Bft)
03.10.2017 04:05 14,1 °C 14,1 °C 90 % 1014,7 hPa 0,0 mm 0,9 km/h (0 Bft) S 188 ° 0 min 0,000 mm 0,0 UV-I 0 W/m² 12,5 °C 14,1 °C 3,2 km/h (1 Bft)
03.10.2017 04:06 14,1 °C 14,1 °C 90 % 1014,6 hPa 0,0 mm 3,2 km/h (1 Bft) S-SW 194 ° 0 min 0,000 mm 0,0 UV-I 0 W/m² 12,5 °C 14,1 °C 9,7 km/h (2 Bft)
03.10.2017 04:07 14,1 °C 14,1 °C 90 % 1014,6 hPa 0,0 mm 1,7 km/h (1 Bft) S-SW 194 ° 0 min 0,000 mm 0,0 UV-I 0 W/m² 12,5 °C 14,1 °C 4,8 km/h (1 Bft)
03.10.2017 04:08 14,1 °C 14,1 °C 90 % 1014,6 hPa 0,0 mm 2,5 km/h (1 Bft) S-SW 211 ° 0 min 0,000 mm 0,0 UV-I 0 W/m² 12,5 °C 14,1 °C 4,8 km/h (1 Bft)
03.10.2017 04:09 14,1 °C 14,1 °C 90 % 1014,6 hPa 0,0 mm 0,1 km/h (0 Bft) S-SW 211 ° 0 min 0,000 mm 0,0 UV-I 0 W/m² 12,5 °C 14,1 °C 1,6 km/h (1 Bft)
03.10.2017 04:10 14,1 °C 14,1 °C 90 % 1014,6 hPa 0,0 mm 0,0 km/h (0 Bft) S-SW 211 ° 0 min 0,000 mm 0,0 UV-I 0 W/m² 12,5 °C 14,1 °C 0,0 km/h (0 Bft)
03.10.2017 04:11 14,1 °C 14,1 °C 90 % 1014,5 hPa 0,0 mm 3,0 km/h (1 Bft) S-SW 213 ° 0 min 0,000 mm 0,0 UV-I 0 W/m² 12,5 °C 14,1 °C 6,4 km/h (2 Bft)
03.10.2017 04:12 14,1 °C 14,1 °C 90 % 1014,6 hPa 0,0 mm 1,1 km/h (1 Bft) W-SW 250 ° 0 min 0,000 mm 0,0 UV-I 0 W/m² 12,5 °C 14,1 °C 3,2 km/h (1 Bft)
03.10.2017 04:13 14,1 °C 14,1 °C 90 % 1014,6 hPa 0,0 mm 3,4 km/h (1 Bft) W-SW 251 ° 0 min 0,000 mm 0,0 UV-I 0 W/m² 12,5 °C 14,1 °C 6,4 km/h (2 Bft)
03.10.2017 04:14 14,0 °C 14,1 °C 90 % 1014,5 hPa 0,0 mm 1,8 km/h (1 Bft) W-SW 247 ° 0 min 0,000 mm 0,0 UV-I 0 W/m² 12,4 °C 14,0 °C 3,2 km/h (1 Bft)
03.10.2017 04:15 14,0 °C 14,1 °C 91 % 1014,5 hPa 0,0 mm 0,1 km/h (0 Bft) W-SW 247 ° 0 min 0,000 mm 0,0 UV-I 0 W/m² 12,6 °C 14,0 °C 1,6 km/h (1 Bft)
03.10.2017 04:16 14,0 °C 14,0 °C 91 % 1014,5 hPa 0,0 mm 0,0 km/h (0 Bft) W-SW 247 ° 0 min 0,000 mm 0,0 UV-I 0 W/m² 12,6 °C 14,0 °C 0,0 km/h (0 Bft)
03.10.2017 04:17 14,0 °C 14,0 °C 91 % 1014,5 hPa 0,0 mm 0,8 km/h (0 Bft) SW 230 ° 0 min 0,000 mm 0,0 UV-I 0 W/m² 12,6 °C 14,0 °C 4,8 km/h (1 Bft)
03.10.2017 04:18 14,0 °C 14,0 °C 91 % 1014,4 hPa 0,0 mm 2,3 km/h (1 Bft) W 259 ° 0 min 0,000 mm 0,0 UV-I 0 W/m² 12,6 °C 14,0 °C 6,4 km/h (2 Bft)
03.10.2017 04:19 14,0 °C 14,0 °C 91 % 1014,4 hPa 0,0 mm 0,2 km/h (0 Bft) SW 223 ° 0 min 0,000 mm 0,0 UV-I 0 W/m² 12,6 °C 14,0 °C 1,6 km/h (1 Bft)
03.10.2017 04:20 14,1 °C 14,1 °C 90 % 1014,4 hPa 0,0 mm 1,0 km/h (0 Bft) SW 223 ° 0 min 0,000 mm 0,0 UV-I 0 W/m² 12,5 °C 14,1 °C 4,8 km/h (1 Bft)
03.10.2017 04:21 14,1 °C 14,1 °C 90 % 1014,4 hPa 0,0 mm 0,7 km/h (0 Bft) SW 224 ° 0 min 0,000 mm 0,0 UV-I 0 W/m² 12,5 °C 14,1 °C 3,2 km/h (1 Bft)
03.10.2017 04:22 14,1 °C 14,1 °C 90 % 1014,3 hPa 0,0 mm 1,1 km/h (1 Bft) SW 224 ° 0 min 0,000 mm 0,0 UV-I 0 W/m² 12,5 °C 14,1 °C 3,2 km/h (1 Bft)
03.10.2017 04:23 14,1 °C 14,1 °C 90 % 1014,3 hPa 0,0 mm 0,0 km/h (0 Bft) SW 224 ° 0 min 0,000 mm 0,0 UV-I 0 W/m² 12,5 °C 14,1 °C 0,0 km/h (0 Bft)
03.10.2017 04:24 14,1 °C 14,1 °C 90 % 1014,3 hPa 0,0 mm 0,1 km/h (0 Bft) SW 224 ° 0 min 0,000 mm 0,0 UV-I 0 W/m² 12,5 °C 14,1 °C 1,6 km/h (1 Bft)
03.10.2017 04:25 14,1 °C 14,1 °C 90 % 1014,2 hPa 0,0 mm 1,5 km/h (1 Bft) S-SW 202 ° 0 min 0,000 mm 0,0 UV-I 0 W/m² 12,5 °C 14,1 °C 3,2 km/h (1 Bft)
03.10.2017 04:26 14,1 °C 14,1 °C 90 % 1014,2 hPa 0,0 mm 0,2 km/h (0 Bft) S-SW 202 ° 0 min 0,000 mm 0,0 UV-I 0 W/m² 12,5 °C 14,1 °C 1,6 km/h (1 Bft)
03.10.2017 04:27 14,2 °C 14,2 °C 90 % 1014,3 hPa 0,0 mm 0,3 km/h (0 Bft) S-SW 201 ° 0 min 0,000 mm 0,0 UV-I 0 W/m² 12,6 °C 14,2 °C 1,6 km/h (1 Bft)
03.10.2017 04:28 14,1 °C 14,2 °C 90 % 1014,2 hPa 0,0 mm 2,3 km/h (1 Bft) S 178 ° 0 min 0,000 mm 0,0 UV-I 0 W/m² 12,5 °C 14,1 °C 8,0 km/h (2 Bft)
03.10.2017 04:29 14,2 °C 14,2 °C 90 % 1014,2 hPa 0,0 mm 5,1 km/h (1 Bft) S 169 ° 0 min 0,000 mm 0,0 UV-I 0 W/m² 12,6 °C 14,2 °C 11,3 km/h (2 Bft)
03.10.2017 04:30 14,2 °C 14,2 °C 90 % 1014,2 hPa 0,0 mm 3,7 km/h (1 Bft) S-SW 194 ° 0 min 0,000 mm 0,0 UV-I 0 W/m² 12,6 °C 14,2 °C 8,0 km/h (2 Bft)
03.10.2017 04:31 14,2 °C 14,2 °C 90 % 1014,2 hPa 0,0 mm 2,2 km/h (1 Bft) S 190 ° 0 min 0,000 mm 0,0 UV-I 0 W/m² 12,6 °C 14,2 °C 3,2 km/h (1 Bft)
03.10.2017 04:32 14,2 °C 14,2 °C 90 % 1014,2 hPa 0,0 mm 3,5 km/h (1 Bft) S-SO 168 ° 0 min 0,000 mm 0,0 UV-I 0 W/m² 12,6 °C 14,2 °C 6,4 km/h (2 Bft)
03.10.2017 04:33 14,2 °C 14,2 °C 90 % 1014,1 hPa 0,0 mm 3,0 km/h (1 Bft) S 190 ° 0 min 0,000 mm 0,0 UV-I 0 W/m² 12,6 °C 14,2 °C 8,0 km/h (2 Bft)
03.10.2017 04:34 14,2 °C 14,2 °C 90 % 1014,0 hPa 0,0 mm 2,6 km/h (1 Bft) S-SW 192 ° 0 min 0,000 mm 0,0 UV-I 0 W/m² 12,6 °C 14,2 °C 4,8 km/h (1 Bft)
03.10.2017 04:35 14,1 °C 14,2 °C 90 % 1014,0 hPa 0,0 mm 4,1 km/h (1 Bft) S 180 ° 0 min 0,000 mm 0,0 UV-I 0 W/m² 12,5 °C 14,1 °C 8,0 km/h (2 Bft)
03.10.2017 04:36 14,1 °C 14,1 °C 90 % 1014,0 hPa 0,0 mm 1,3 km/h (1 Bft) S 180 ° 0 min 0,000 mm 0,0 UV-I 0 W/m² 12,5 °C 14,1 °C 3,2 km/h (1 Bft)
03.10.2017 04:37 14,1 °C 14,1 °C 90 % 1013,9 hPa 0,0 mm 1,9 km/h (1 Bft) S 180 ° 0 min 0,000 mm 0,0 UV-I 0 W/m² 12,5 °C 14,1 °C 4,8 km/h (1 Bft)
03.10.2017 04:38 14,2 °C 14,2 °C 90 % 1013,9 hPa 0,0 mm 1,1 km/h (1 Bft) S-SW 202 ° 0 min 0,000 mm 0,0 UV-I 0 W/m² 12,6 °C 14,2 °C 3,2 km/h (1 Bft)
03.10.2017 04:39 14,2 °C 14,2 °C 90 % 1014,0 hPa 0,0 mm 0,5 km/h (0 Bft) S-SW 202 ° 0 min 0,000 mm 0,0 UV-I 0 W/m² 12,6 °C 14,2 °C 1,6 km/h (1 Bft)
03.10.2017 04:40 14,2 °C 14,2 °C 90 % 1014,0 hPa 0,0 mm 0,0 km/h (0 Bft) S-SW 202 ° 0 min 0,000 mm 0,0 UV-I 0 W/m² 12,6 °C 14,2 °C 0,0 km/h (0 Bft)
03.10.2017 04:41 14,2 °C 14,2 °C 90 % 1013,9 hPa 0,0 mm 0,0 km/h (0 Bft) S-SW 202 ° 0 min 0,000 mm 0,0 UV-I 0 W/m² 12,6 °C 14,2 °C 0,0 km/h (0 Bft)
03.10.2017 04:42 14,2 °C 14,3 °C 89 % 1013,9 hPa 0,0 mm 1,1 km/h (1 Bft) S-SW 202 ° 0 min 0,000 mm 0,0 UV-I 0 W/m² 12,4 °C 14,2 °C 3,2 km/h (1 Bft)
03.10.2017 04:43 14,2 °C 14,3 °C 90 % 1013,8 hPa 0,0 mm 0,3 km/h (0 Bft) S-SW 202 ° 0 min 0,000 mm 0,0 UV-I 0 W/m² 12,6 °C 14,2 °C 1,6 km/h (1 Bft)
03.10.2017 04:44 14,2 °C 14,2 °C 90 % 1013,8 hPa 0,0 mm 0,0 km/h (0 Bft) S-SW 202 ° 0 min 0,000 mm 0,0 UV-I 0 W/m² 12,6 °C 14,2 °C 0,0 km/h (0 Bft)
03.10.2017 04:45 14,1 °C 14,2 °C 90 % 1013,7 hPa 0,0 mm 0,0 km/h (0 Bft) S-SW 202 ° 0 min 0,000 mm 0,0 UV-I 0 W/m² 12,5 °C 14,1 °C 0,0 km/h (0 Bft)
03.10.2017 04:46 14,1 °C 14,1 °C 90 % 1013,7 hPa 0,0 mm 0,0 km/h (0 Bft) S-SW 202 ° 0 min 0,000 mm 0,0 UV-I 0 W/m² 12,5 °C 14,1 °C 0,0 km/h (0 Bft)
03.10.2017 04:47 13,9 °C 14,1 °C 91 % 1013,6 hPa 0,0 mm 0,0 km/h (0 Bft) S-SW 202 ° 0 min 0,000 mm 0,0 UV-I 0 W/m² 12,5 °C 13,9 °C 0,0 km/h (0 Bft)
03.10.2017 04:48 13,9 °C 14,0 °C 91 % 1013,6 hPa 0,0 mm 1,9 km/h (1 Bft) W-SW 240 ° 0 min 0,000 mm 0,0 UV-I 0 W/m² 12,5 °C 13,9 °C 6,4 km/h (2 Bft)
03.10.2017 04:49 13,8 °C 13,9 °C 91 % 1013,6 hPa 0,0 mm 0,0 km/h (0 Bft) W-SW 240 ° 0 min 0,000 mm 0,0 UV-I 0 W/m² 12,4 °C 13,8 °C 0,0 km/h (0 Bft)
03.10.2017 04:50 13,8 °C 13,8 °C 91 % 1013,6 hPa 0,0 mm 0,1 km/h (0 Bft) W-SW 240 ° 0 min 0,000 mm 0,0 UV-I 0 W/m² 12,4 °C 13,8 °C 1,6 km/h (1 Bft)
03.10.2017 04:51 13,8 °C 13,8 °C 91 % 1013,6 hPa 0,0 mm 0,0 km/h (0 Bft) W-SW 240 ° 0 min 0,000 mm 0,0 UV-I 0 W/m² 12,4 °C 13,8 °C 0,0 km/h (0 Bft)
03.10.2017 04:52 13,7 °C 13,8 °C 91 % 1013,5 hPa 0,0 mm 0,0 km/h (0 Bft) W-SW 240 ° 0 min 0,000 mm 0,0 UV-I 0 W/m² 12,3 °C 13,7 °C 0,0 km/h (0 Bft)
03.10.2017 04:53 13,7 °C 13,7 °C 91 % 1013,5 hPa 0,0 mm 0,5 km/h (0 Bft) NW 315 ° 0 min 0,000 mm 0,0 UV-I 0 W/m² 12,3 °C 13,7 °C 4,8 km/h (1 Bft)
03.10.2017 04:54 13,7 °C 13,7 °C 91 % 1013,5 hPa 0,0 mm 1,1 km/h (1 Bft) NW 315 ° 0 min 0,000 mm 0,0 UV-I 0 W/m² 12,3 °C 13,7 °C 3,2 km/h (1 Bft)
03.10.2017 04:55 13,7 °C 13,7 °C 91 % 1013,4 hPa 0,0 mm 1,3 km/h (1 Bft) W-SW 242 ° 0 min 0,000 mm 0,0 UV-I 0 W/m² 12,3 °C 13,7 °C 3,2 km/h (1 Bft)
03.10.2017 04:56 13,7 °C 13,7 °C 91 % 1013,4 hPa 0,0 mm 0,3 km/h (0 Bft) W-SW 242 ° 0 min 0,000 mm 0,0 UV-I 0 W/m² 12,3 °C 13,7 °C 1,6 km/h (1 Bft)
03.10.2017 04:57 13,7 °C 13,8 °C 91 % 1013,4 hPa 0,0 mm 0,0 km/h (0 Bft) W-SW 242 ° 0 min 0,000 mm 0,0 UV-I 0 W/m² 12,3 °C 13,7 °C 0,0 km/h (0 Bft)
03.10.2017 04:58 13,8 °C 13,8 °C 91 % 1013,4 hPa 0,0 mm 0,4 km/h (0 Bft) W-SW 238 ° 0 min 0,000 mm 0,0 UV-I 0 W/m² 12,4 °C 13,8 °C 3,2 km/h (1 Bft)
03.10.2017 04:59 13,8 °C 13,8 °C 91 % 1013,4 hPa 0,0 mm 3,1 km/h (1 Bft) SW 217 ° 0 min 0,000 mm 0,0 UV-I 0 W/m² 12,4 °C 13,8 °C 6,4 km/h (2 Bft)
03.10.2017 05:00 13,9 °C 13,9 °C 90 % 1013,3 hPa 0,0 mm 0,9 km/h (0 Bft) SW 217 ° 0 min 0,000 mm 0,0 UV-I 0 W/m² 12,3 °C 13,9 °C 1,6 km/h (1 Bft)
03.10.2017 05:01 13,9 °C 13,9 °C 91 % 1013,3 hPa 0,0 mm 3,4 km/h (1 Bft) S-SW 212 ° 0 min 0,000 mm 0,0 UV-I 0 W/m² 12,5 °C 13,9 °C 4,8 km/h (1 Bft)
03.10.2017 05:02 13,9 °C 13,9 °C 91 % 1013,3 hPa 0,0 mm 2,7 km/h (1 Bft) S-SW 212 ° 0 min 0,000 mm 0,0 UV-I 0 W/m² 12,5 °C 13,9 °C 3,2 km/h (1 Bft)
03.10.2017 05:03 13,9 °C 13,9 °C 90 % 1013,2 hPa 0,0 mm 3,3 km/h (1 Bft) S-SW 209 ° 0 min 0,000 mm 0,0 UV-I 0 W/m² 12,3 °C 13,9 °C 6,4 km/h (2 Bft)
03.10.2017 05:04 13,9 °C 13,9 °C 90 % 1013,2 hPa 0,0 mm 4,6 km/h (1 Bft) S-SW 192 ° 0 min 0,000 mm 0,0 UV-I 0 W/m² 12,3 °C 13,9 °C 6,4 km/h (2 Bft)
03.10.2017 05:05 14,0 °C 14,0 °C 90 % 1013,2 hPa 0,0 mm 2,8 km/h (1 Bft) S 181 ° 0 min 0,000 mm 0,0 UV-I 0 W/m² 12,4 °C 14,0 °C 4,8 km/h (1 Bft)
03.10.2017 05:06 13,9 °C 14,0 °C 90 % 1013,1 hPa 0,0 mm 1,4 km/h (1 Bft) S 181 ° 0 min 0,000 mm 0,0 UV-I 0 W/m² 12,3 °C 13,9 °C 4,8 km/h (1 Bft)
03.10.2017 05:07 13,9 °C 13,9 °C 90 % 1013,1 hPa 0,0 mm 2,2 km/h (1 Bft) S 181 ° 0 min 0,000 mm 0,0 UV-I 0 W/m² 12,3 °C 13,9 °C 3,2 km/h (1 Bft)
03.10.2017 05:08 13,8 °C 13,9 °C 91 % 1013,0 hPa 0,0 mm 1,9 km/h (1 Bft) S 181 ° 0 min 0,000 mm 0,0 UV-I 0 W/m² 12,4 °C 13,8 °C 3,2 km/h (1 Bft)
03.10.2017 05:09 13,7 °C 13,8 °C 91 % 1012,9 hPa 0,0 mm 1,7 km/h (1 Bft) S 181 ° 0 min 0,000 mm 0,0 UV-I 0 W/m² 12,3 °C 13,7 °C 3,2 km/h (1 Bft)
03.10.2017 05:10 13,6 °C 13,7 °C 91 % 1012,9 hPa 0,0 mm 1,8 km/h (1 Bft) S 182 ° 0 min 0,000 mm 0,0 UV-I 0 W/m² 12,2 °C 13,6 °C 4,8 km/h (1 Bft)
03.10.2017 05:11 13,6 °C 13,6 °C 91 % 1012,9 hPa 0,0 mm 2,1 km/h (1 Bft) S 186 ° 0 min 0,000 mm 0,0 UV-I 0 W/m² 12,2 °C 13,6 °C 3,2 km/h (1 Bft)
03.10.2017 05:12 13,5 °C 13,6 °C 92 % 1012,9 hPa 0,0 mm 1,6 km/h (1 Bft) S 186 ° 0 min 0,000 mm 0,0 UV-I 0 W/m² 12,2 °C 13,5 °C 3,2 km/h (1 Bft)
03.10.2017 05:13 13,5 °C 13,5 °C 92 % 1012,8 hPa 0,0 mm 1,3 km/h (1 Bft) S 186 ° 0 min 0,000 mm 0,0 UV-I 0 W/m² 12,2 °C 13,5 °C 3,2 km/h (1 Bft)
03.10.2017 05:14 13,4 °C 13,5 °C 92 % 1012,8 hPa 0,0 mm 2,2 km/h (1 Bft) S 186 ° 0 min 0,000 mm 0,0 UV-I 0 W/m² 12,1 °C 13,4 °C 3,2 km/h (1 Bft)
03.10.2017 05:15 13,4 °C 13,4 °C 92 % 1012,8 hPa 0,0 mm 1,7 km/h (1 Bft) S 186 ° 0 min 0,000 mm 0,0 UV-I 0 W/m² 12,1 °C 13,4 °C 3,2 km/h (1 Bft)
03.10.2017 05:16 13,3 °C 13,4 °C 92 % 1012,7 hPa 0,0 mm 1,4 km/h (1 Bft) S 186 ° 0 min 0,000 mm 0,0 UV-I 0 W/m² 12,0 °C 13,3 °C 1,6 km/h (1 Bft)
03.10.2017 05:17 13,2 °C 13,3 °C 92 % 1012,7 hPa 0,0 mm 0,1 km/h (0 Bft) S 186 ° 0 min 0,000 mm 0,0 UV-I 0 W/m² 11,9 °C 13,2 °C 1,6 km/h (1 Bft)
03.10.2017 05:18 13,2 °C 13,2 °C 92 % 1012,7 hPa 0,0 mm 1,0 km/h (0 Bft) S 186 ° 0 min 0,000 mm 0,0 UV-I 0 W/m² 11,9 °C 13,2 °C 3,2 km/h (1 Bft)
03.10.2017 05:19 13,2 °C 13,2 °C 92 % 1012,7 hPa 0,0 mm 1,1 km/h (1 Bft) S 186 ° 0 min 0,000 mm 0,0 UV-I 0 W/m² 11,9 °C 13,2 °C 1,6 km/h (1 Bft)
03.10.2017 05:20 13,2 °C 13,2 °C 93 % 1012,7 hPa 0,0 mm 1,7 km/h (1 Bft) S 186 ° 0 min 0,000 mm 0,0 UV-I 0 W/m² 12,1 °C 13,2 °C 3,2 km/h (1 Bft)
03.10.2017 05:21 13,2 °C 13,2 °C 93 % 1012,7 hPa 0,0 mm 1,8 km/h (1 Bft) S 186 ° 0 min 0,000 mm 0,0 UV-I 0 W/m² 12,1 °C 13,2 °C 3,2 km/h (1 Bft)
03.10.2017 05:22 13,2 °C 13,2 °C 93 % 1012,6 hPa 0,0 mm 2,7 km/h (1 Bft) S 186 ° 0 min 0,000 mm 0,0 UV-I 0 W/m² 12,1 °C 13,2 °C 4,8 km/h (1 Bft)
03.10.2017 05:23 13,2 °C 13,2 °C 93 % 1012,7 hPa 0,0 mm 1,0 km/h (0 Bft) S 186 ° 0 min 0,000 mm 0,0 UV-I 0 W/m² 12,1 °C 13,2 °C 3,2 km/h (1 Bft)
03.10.2017 05:24 13,2 °C 13,2 °C 93 % 1012,7 hPa 0,0 mm 2,0 km/h (1 Bft) S 186 ° 0 min 0,000 mm 0,0 UV-I 0 W/m² 12,1 °C 13,2 °C 3,2 km/h (1 Bft)
03.10.2017 05:25 13,2 °C 13,2 °C 93 % 1012,7 hPa 0,0 mm 1,5 km/h (1 Bft) S 186 ° 0 min 0,000 mm 0,0 UV-I 0 W/m² 12,1 °C 13,2 °C 3,2 km/h (1 Bft)
03.10.2017 05:26 13,2 °C 13,2 °C 92 % 1012,7 hPa 0,0 mm 0,9 km/h (0 Bft) S 186 ° 0 min 0,000 mm 0,0 UV-I 0 W/m² 11,9 °C 13,2 °C 1,6 km/h (1 Bft)
03.10.2017 05:27 13,2 °C 13,2 °C 92 % 1012,8 hPa 0,0 mm 1,5 km/h (1 Bft) S 186 ° 0 min 0,000 mm 0,0 UV-I 0 W/m² 11,9 °C 13,2 °C 3,2 km/h (1 Bft)
03.10.2017 05:28 13,1 °C 13,2 °C 92 % 1012,8 hPa 0,0 mm 0,3 km/h (0 Bft) S 186 ° 0 min 0,000 mm 0,0 UV-I 0 W/m² 11,8 °C 13,1 °C 1,6 km/h (1 Bft)
03.10.2017 05:29 13,1 °C 13,2 °C 92 % 1012,7 hPa 0,0 mm 0,0 km/h (0 Bft) S 186 ° 0 min 0,000 mm 0,0 UV-I 0 W/m² 11,8 °C 13,1 °C 0,0 km/h (0 Bft)
03.10.2017 05:30 13,1 °C 13,1 °C 92 % 1012,7 hPa 0,0 mm 0,0 km/h (0 Bft) S 186 ° 0 min 0,000 mm 0,0 UV-I 0 W/m² 11,8 °C 13,1 °C 0,0 km/h (0 Bft)
03.10.2017 05:31 13,1 °C 13,1 °C 92 % 1012,6 hPa 0,0 mm 0,0 km/h (0 Bft) S 186 ° 0 min 0,000 mm 0,0 UV-I 0 W/m² 11,8 °C 13,1 °C 0,0 km/h (0 Bft)
03.10.2017 05:32 13,1 °C 13,1 °C 92 % 1012,6 hPa 0,0 mm 0,0 km/h (0 Bft) S 186 ° 0 min 0,000 mm 0,0 UV-I 0 W/m² 11,8 °C 13,1 °C 0,0 km/h (0 Bft)
03.10.2017 05:33 13,1 °C 13,1 °C 92 % 1012,6 hPa 0,0 mm 0,0 km/h (0 Bft) S 186 ° 0 min 0,000 mm 0,0 UV-I 0 W/m² 11,8 °C 13,1 °C 0,0 km/h (0 Bft)
03.10.2017 05:34 13,0 °C 13,1 °C 92 % 1012,6 hPa 0,0 mm 0,0 km/h (0 Bft) S 186 ° 0 min 0,000 mm 0,0 UV-I 0 W/m² 11,7 °C 13,0 °C 0,0 km/h (0 Bft)
03.10.2017 05:35 13,1 °C 13,1 °C 92 % 1012,6 hPa 0,0 mm 1,2 km/h (1 Bft) S 186 ° 0 min 0,000 mm 0,0 UV-I 0 W/m² 11,8 °C 13,1 °C 4,8 km/h (1 Bft)
03.10.2017 05:36 13,1 °C 13,1 °C 92 % 1012,7 hPa 0,0 mm 2,6 km/h (1 Bft) S 188 ° 0 min 0,000 mm 0,0 UV-I 0 W/m² 11,8 °C 13,1 °C 4,8 km/h (1 Bft)
03.10.2017 05:37 13,2 °C 13,2 °C 92 % 1012,6 hPa 0,0 mm 0,0 km/h (0 Bft) S 188 ° 0 min 0,000 mm 0,0 UV-I 0 W/m² 11,9 °C 13,2 °C 0,0 km/h (0 Bft)
03.10.2017 05:38 13,3 °C 13,3 °C 92 % 1012,5 hPa 0,0 mm 0,0 km/h (0 Bft) S 188 ° 0 min 0,000 mm 0,0 UV-I 0 W/m² 12,0 °C 13,3 °C 0,0 km/h (0 Bft)
03.10.2017 05:39 13,2 °C 13,3 °C 92 % 1012,6 hPa 0,0 mm 0,0 km/h (0 Bft) S 188 ° 0 min 0,000 mm 0,0 UV-I 0 W/m² 11,9 °C 13,2 °C 0,0 km/h (0 Bft)
03.10.2017 05:40 13,2 °C 13,2 °C 92 % 1012,5 hPa 0,0 mm 0,0 km/h (0 Bft) S 188 ° 0 min 0,000 mm 0,0 UV-I 0 W/m² 11,9 °C 13,2 °C 0,0 km/h (0 Bft)
03.10.2017 05:41 13,2 °C 13,2 °C 92 % 1012,6 hPa 0,0 mm 0,5 km/h (0 Bft) S 188 ° 0 min 0,000 mm 0,0 UV-I 0 W/m² 11,9 °C 13,2 °C 3,2 km/h (1 Bft)
03.10.2017 05:42 13,2 °C 13,2 °C 92 % 1012,5 hPa 0,0 mm 0,0 km/h (0 Bft) S 188 ° 0 min 0,000 mm 0,0 UV-I 0 W/m² 11,9 °C 13,2 °C 0,0 km/h (0 Bft)
03.10.2017 05:43 13,1 °C 13,2 °C 92 % 1012,5 hPa 0,0 mm 0,0 km/h (0 Bft) S 188 ° 0 min 0,000 mm 0,0 UV-I 0 W/m² 11,8 °C 13,1 °C 0,0 km/h (0 Bft)
03.10.2017 05:44 13,1 °C 13,2 °C 92 % 1012,5 hPa 0,0 mm 0,0 km/h (0 Bft) S 188 ° 0 min 0,000 mm 0,0 UV-I 0 W/m² 11,8 °C 13,1 °C 0,0 km/h (0 Bft)
03.10.2017 05:45 13,1 °C 13,1 °C 92 % 1012,4 hPa 0,0 mm 0,0 km/h (0 Bft) S 188 ° 0 min 0,000 mm 0,0 UV-I 0 W/m² 11,8 °C 13,1 °C 0,0 km/h (0 Bft)
03.10.2017 05:46 12,9 °C 13,1 °C 92 % 1012,4 hPa 0,0 mm 0,0 km/h (0 Bft) S 188 ° 0 min 0,000 mm 0,0 UV-I 0 W/m² 11,6 °C 12,9 °C 0,0 km/h (0 Bft)
03.10.2017 05:47 12,9 °C 12,9 °C 92 % 1012,4 hPa 0,0 mm 0,0 km/h (0 Bft) S 188 ° 0 min 0,000 mm 0,0 UV-I 0 W/m² 11,6 °C 12,9 °C 0,0 km/h (0 Bft)
03.10.2017 05:48 12,8 °C 12,9 °C 93 % 1012,4 hPa 0,0 mm 0,0 km/h (0 Bft) S 188 ° 0 min 0,000 mm 0,0 UV-I 0 W/m² 11,7 °C 12,8 °C 0,0 km/h (0 Bft)
03.10.2017 05:49 12,8 °C 12,8 °C 93 % 1012,4 hPa 0,0 mm 0,0 km/h (0 Bft) S 188 ° 0 min 0,000 mm 0,0 UV-I 0 W/m² 11,7 °C 12,8 °C 0,0 km/h (0 Bft)
03.10.2017 05:50 12,7 °C 12,8 °C 93 % 1012,4 hPa 0,0 mm 0,0 km/h (0 Bft) S 188 ° 0 min 0,000 mm 0,0 UV-I 0 W/m² 11,6 °C 12,7 °C 0,0 km/h (0 Bft)
03.10.2017 05:51 12,7 °C 12,7 °C 93 % 1012,3 hPa 0,0 mm 0,0 km/h (0 Bft) S 188 ° 0 min 0,000 mm 0,0 UV-I 0 W/m² 11,6 °C 12,7 °C 0,0 km/h (0 Bft)
03.10.2017 05:52 12,6 °C 12,7 °C 93 % 1012,3 hPa 0,0 mm 0,0 km/h (0 Bft) S 188 ° 0 min 0,000 mm 0,0 UV-I 0 W/m² 11,5 °C 12,6 °C 0,0 km/h (0 Bft)
03.10.2017 05:53 12,6 °C 12,7 °C 93 % 1012,3 hPa 0,0 mm 0,0 km/h (0 Bft) S 188 ° 0 min 0,000 mm 0,0 UV-I 0 W/m² 11,5 °C 12,6 °C 0,0 km/h (0 Bft)
03.10.2017 05:54 12,6 °C 12,6 °C 93 % 1012,3 hPa 0,0 mm 0,0 km/h (0 Bft) S 188 ° 0 min 0,000 mm 0,0 UV-I 0 W/m² 11,5 °C 12,6 °C 0,0 km/h (0 Bft)
03.10.2017 05:55 12,6 °C 12,6 °C 93 % 1012,3 hPa 0,0 mm 0,0 km/h (0 Bft) S 188 ° 0 min 0,000 mm 0,0 UV-I 0 W/m² 11,5 °C 12,6 °C 0,0 km/h (0 Bft)
03.10.2017 05:56 12,6 °C 12,6 °C 94 % 1012,2 hPa 0,0 mm 0,0 km/h (0 Bft) S 188 ° 0 min 0,000 mm 0,0 UV-I 0 W/m² 11,7 °C 12,6 °C 0,0 km/h (0 Bft)
03.10.2017 05:57 12,6 °C 12,6 °C 93 % 1012,3 hPa 0,0 mm 0,0 km/h (0 Bft) S 188 ° 0 min 0,000 mm 0,0 UV-I 0 W/m² 11,5 °C 12,6 °C 0,0 km/h (0 Bft)
03.10.2017 05:58 12,6 °C 12,6 °C 93 % 1012,2 hPa 0,0 mm 0,0 km/h (0 Bft) S 188 ° 0 min 0,000 mm 0,0 UV-I 0 W/m² 11,5 °C 12,6 °C 0,0 km/h (0 Bft)
03.10.2017 05:59 12,6 °C 12,6 °C 94 % 1012,2 hPa 0,0 mm 0,0 km/h (0 Bft) S 188 ° 0 min 0,000 mm 0,0 UV-I 0 W/m² 11,7 °C 12,6 °C 0,0 km/h (0 Bft)
03.10.2017 06:00 12,7 °C 12,7 °C 94 % 1012,2 hPa 0,0 mm 0,0 km/h (0 Bft) S 188 ° 0 min 0,000 mm 0,0 UV-I 0 W/m² 11,8 °C 12,7 °C 0,0 km/h (0 Bft)
03.10.2017 06:01 12,8 °C 12,8 °C 94 % 1012,2 hPa 0,0 mm 0,0 km/h (0 Bft) S 188 ° 0 min 0,000 mm 0,0 UV-I 0 W/m² 11,9 °C 12,8 °C 0,0 km/h (0 Bft)
03.10.2017 06:02 12,9 °C 12,9 °C 94 % 1012,1 hPa 0,0 mm 0,5 km/h (0 Bft) S 188 ° 0 min 0,000 mm 0,0 UV-I 0 W/m² 12,0 °C 12,9 °C 4,8 km/h (1 Bft)
03.10.2017 06:03 13,1 °C 13,1 °C 94 % 1012,1 hPa 0,0 mm 2,6 km/h (1 Bft) S 188 ° 0 min 0,000 mm 0,0 UV-I 0 W/m² 12,2 °C 13,1 °C 4,8 km/h (1 Bft)
03.10.2017 06:04 13,2 °C 13,2 °C 94 % 1012,1 hPa 0,0 mm 1,3 km/h (1 Bft) S 188 ° 0 min 0,000 mm 0,0 UV-I 0 W/m² 12,3 °C 13,2 °C 3,2 km/h (1 Bft)
03.10.2017 06:05 13,3 °C 13,3 °C 93 % 1012,0 hPa 0,0 mm 4,2 km/h (1 Bft) S 182 ° 0 min 0,000 mm 0,0 UV-I 0 W/m² 12,2 °C 13,3 °C 6,4 km/h (2 Bft)
03.10.2017 06:06 13,4 °C 13,4 °C 93 % 1012,0 hPa 0,0 mm 2,5 km/h (1 Bft) S 182 ° 0 min 0,000 mm 0,0 UV-I 0 W/m² 12,3 °C 13,4 °C 4,8 km/h (1 Bft)
03.10.2017 06:07 13,6 °C 13,6 °C 93 % 1012,0 hPa 0,0 mm 0,7 km/h (0 Bft) S 182 ° 0 min 0,000 mm 0,0 UV-I 0 W/m² 12,5 °C 13,6 °C 3,2 km/h (1 Bft)
03.10.2017 06:08 13,6 °C 13,6 °C 92 % 1012,0 hPa 0,0 mm 2,0 km/h (1 Bft) S-SW 198 ° 0 min 0,000 mm 0,0 UV-I 0 W/m² 12,3 °C 13,6 °C 6,4 km/h (2 Bft)
03.10.2017 06:09 13,7 °C 13,7 °C 92 % 1011,9 hPa 0,0 mm 1,7 km/h (1 Bft) S 181 ° 0 min 0,000 mm 0,0 UV-I 0 W/m² 12,4 °C 13,7 °C 3,2 km/h (1 Bft)
03.10.2017 06:10 13,7 °C 13,7 °C 92 % 1011,9 hPa 0,0 mm 4,1 km/h (1 Bft) S-SW 198 ° 0 min 0,000 mm 0,0 UV-I 0 W/m² 12,4 °C 13,7 °C 6,4 km/h (2 Bft)
03.10.2017 06:11 13,7 °C 13,7 °C 91 % 1011,9 hPa 0,0 mm 0,7 km/h (0 Bft) S-SW 198 ° 0 min 0,000 mm 0,0 UV-I 0 W/m² 12,3 °C 13,7 °C 1,6 km/h (1 Bft)
03.10.2017 06:12 13,7 °C 13,7 °C 91 % 1011,9 hPa 0,0 mm 0,8 km/h (0 Bft) S-SW 198 ° 0 min 0,000 mm 0,0 UV-I 0 W/m² 12,3 °C 13,7 °C 3,2 km/h (1 Bft)
03.10.2017 06:13 13,7 °C 13,7 °C 91 % 1011,8 hPa 0,0 mm 2,2 km/h (1 Bft) S-SW 194 ° 0 min 0,000 mm 0,0 UV-I 0 W/m² 12,3 °C 13,7 °C 4,8 km/h (1 Bft)
03.10.2017 06:14 13,7 °C 13,7 °C 91 % 1011,8 hPa 0,0 mm 2,1 km/h (1 Bft) S-SW 205 ° 0 min 0,000 mm 0,0 UV-I 0 W/m² 12,3 °C 13,7 °C 3,2 km/h (1 Bft)
03.10.2017 06:15 13,7 °C 13,7 °C 91 % 1011,8 hPa 0,0 mm 2,1 km/h (1 Bft) S-SW 205 ° 0 min 0,000 mm 0,0 UV-I 0 W/m² 12,3 °C 13,7 °C 3,2 km/h (1 Bft)
03.10.2017 06:16 13,6 °C 13,7 °C 91 % 1011,7 hPa 0,0 mm 0,0 km/h (0 Bft) S-SW 205 ° 0 min 0,000 mm 0,0 UV-I 0 W/m² 12,2 °C 13,6 °C 0,0 km/h (0 Bft)
03.10.2017 06:17 13,7 °C 13,7 °C 91 % 1011,7 hPa 0,0 mm 0,4 km/h (0 Bft) S 188 ° 0 min 0,000 mm 0,0 UV-I 0 W/m² 12,3 °C 13,7 °C 1,6 km/h (1 Bft)
03.10.2017 06:18 13,7 °C 13,7 °C 91 % 1011,6 hPa 0,0 mm 0,1 km/h (0 Bft) S 188 ° 0 min 0,000 mm 0,0 UV-I 0 W/m² 12,3 °C 13,7 °C 1,6 km/h (1 Bft)
03.10.2017 06:19 13,7 °C 13,7 °C 91 % 1011,6 hPa 0,0 mm 0,0 km/h (0 Bft) S 188 ° 0 min 0,000 mm 0,0 UV-I 0 W/m² 12,3 °C 13,7 °C 0,0 km/h (0 Bft)
03.10.2017 06:20 13,7 °C 13,7 °C 91 % 1011,6 hPa 0,0 mm 0,0 km/h (0 Bft) S 188 ° 0 min 0,000 mm 0,0 UV-I 0 W/m² 12,3 °C 13,7 °C 0,0 km/h (0 Bft)
03.10.2017 06:21 13,6 °C 13,7 °C 91 % 1011,6 hPa 0,0 mm 0,0 km/h (0 Bft) S 188 ° 0 min 0,000 mm 0,0 UV-I 0 W/m² 12,2 °C 13,6 °C 0,0 km/h (0 Bft)
03.10.2017 06:22 13,6 °C 13,6 °C 91 % 1011,6 hPa 0,0 mm 0,3 km/h (0 Bft) S 188 ° 0 min 0,000 mm 0,0 UV-I 0 W/m² 12,2 °C 13,6 °C 1,6 km/h (1 Bft)
03.10.2017 06:23 13,5 °C 13,6 °C 91 % 1011,6 hPa 0,0 mm 0,0 km/h (0 Bft) S 188 ° 0 min 0,000 mm 0,0 UV-I 0 W/m² 12,1 °C 13,5 °C 0,0 km/h (0 Bft)
03.10.2017 06:24 13,5 °C 13,5 °C 91 % 1011,5 hPa 0,0 mm 0,0 km/h (0 Bft) S 188 ° 0 min 0,000 mm 0,0 UV-I 0 W/m² 12,1 °C 13,5 °C 0,0 km/h (0 Bft)
03.10.2017 06:25 13,5 °C 13,5 °C 91 % 1011,5 hPa 0,0 mm 0,0 km/h (0 Bft) S 188 ° 0 min 0,000 mm 0,0 UV-I 0 W/m² 12,1 °C 13,5 °C 0,0 km/h (0 Bft)
03.10.2017 06:26 13,5 °C 13,5 °C 91 % 1011,5 hPa 0,0 mm 0,1 km/h (0 Bft) S 188 ° 0 min 0,000 mm 0,0 UV-I 0 W/m² 12,1 °C 13,5 °C 1,6 km/h (1 Bft)
03.10.2017 06:27 13,4 °C 13,5 °C 91 % 1011,5 hPa 0,0 mm 0,1 km/h (0 Bft) S 188 ° 0 min 0,000 mm 0,0 UV-I 0 W/m² 12,0 °C 13,4 °C 1,6 km/h (1 Bft)
03.10.2017 06:28 13,4 °C 13,4 °C 91 % 1011,5 hPa 0,0 mm 0,0 km/h (0 Bft) S 188 ° 0 min 0,000 mm 0,0 UV-I 0 W/m² 12,0 °C 13,4 °C 0,0 km/h (0 Bft)
03.10.2017 06:29 13,4 °C 13,4 °C 91 % 1011,5 hPa 0,0 mm 0,0 km/h (0 Bft) S 188 ° 0 min 0,000 mm 0,0 UV-I 0 W/m² 12,0 °C 13,4 °C 0,0 km/h (0 Bft)
03.10.2017 06:30 13,3 °C 13,4 °C 91 % 1011,5 hPa 0,0 mm 0,0 km/h (0 Bft) S 188 ° 0 min 0,000 mm 0,0 UV-I 0 W/m² 11,9 °C 13,3 °C 0,0 km/h (0 Bft)
03.10.2017 06:31 13,3 °C 13,3 °C 91 % 1011,5 hPa 0,0 mm 0,0 km/h (0 Bft) S 188 ° 0 min 0,000 mm 0,0 UV-I 0 W/m² 11,9 °C 13,3 °C 0,0 km/h (0 Bft)
03.10.2017 06:32 13,3 °C 13,3 °C 91 % 1011,5 hPa 0,0 mm 0,7 km/h (0 Bft) S 188 ° 0 min 0,000 mm 0,0 UV-I 0 W/m² 11,9 °C 13,3 °C 3,2 km/h (1 Bft)
03.10.2017 06:33 13,2 °C 13,3 °C 92 % 1011,5 hPa 0,0 mm 0,1 km/h (0 Bft) S 188 ° 0 min 0,000 mm 0,0 UV-I 0 W/m² 11,9 °C 13,2 °C 1,6 km/h (1 Bft)
03.10.2017 06:34 13,2 °C 13,2 °C 92 % 1011,5 hPa 0,0 mm 0,0 km/h (0 Bft) S 188 ° 0 min 0,000 mm 0,0 UV-I 0 W/m² 11,9 °C 13,2 °C 0,0 km/h (0 Bft)
03.10.2017 06:35 13,2 °C 13,2 °C 92 % 1011,5 hPa 0,0 mm 0,0 km/h (0 Bft) S 188 ° 0 min 0,000 mm 0,0 UV-I 0 W/m² 11,9 °C 13,2 °C 0,0 km/h (0 Bft)
03.10.2017 06:36 13,2 °C 13,2 °C 92 % 1011,5 hPa 0,0 mm 0,0 km/h (0 Bft) S 188 ° 0 min 0,000 mm 0,0 UV-I 0 W/m² 11,9 °C 13,2 °C 0,0 km/h (0 Bft)
03.10.2017 06:37 13,2 °C 13,2 °C 92 % 1011,5 hPa 0,0 mm 0,9 km/h (0 Bft) SO 127 ° 0 min 0,000 mm 0,0 UV-I 0 W/m² 11,9 °C 13,2 °C 3,2 km/h (1 Bft)
03.10.2017 06:38 13,2 °C 13,2 °C 92 % 1011,4 hPa 0,0 mm 0,0 km/h (0 Bft) SO 146 ° 0 min 0,000 mm 0,0 UV-I 0 W/m² 11,9 °C 13,2 °C 0,0 km/h (0 Bft)
03.10.2017 06:39 13,2 °C 13,2 °C 92 % 1011,4 hPa 0,0 mm 0,0 km/h (0 Bft) SO 146 ° 0 min 0,000 mm 0,0 UV-I 0 W/m² 11,9 °C 13,2 °C 0,0 km/h (0 Bft)
03.10.2017 06:40 13,2 °C 13,2 °C 92 % 1011,4 hPa 0,0 mm 0,0 km/h (0 Bft) SO 146 ° 0 min 0,000 mm 0,0 UV-I 0 W/m² 11,9 °C 13,2 °C 0,0 km/h (0 Bft)
03.10.2017 06:41 13,2 °C 13,2 °C 92 % 1011,4 hPa 0,0 mm 0,8 km/h (0 Bft) SO 146 ° 0 min 0,000 mm 0,0 UV-I 0 W/m² 11,9 °C 13,2 °C 3,2 km/h (1 Bft)
03.10.2017 06:42 13,2 °C 13,2 °C 92 % 1011,4 hPa 0,0 mm 0,0 km/h (0 Bft) SO 146 ° 0 min 0,000 mm 0,0 UV-I 0 W/m² 11,9 °C 13,2 °C 0,0 km/h (0 Bft)
03.10.2017 06:43 13,2 °C 13,2 °C 92 % 1011,4 hPa 0,0 mm 0,2 km/h (0 Bft) SO 146 ° 0 min 0,000 mm 0,0 UV-I 0 W/m² 11,9 °C 13,2 °C 1,6 km/h (1 Bft)
03.10.2017 06:44 13,1 °C 13,2 °C 92 % 1011,4 hPa 0,0 mm 2,3 km/h (1 Bft) S 190 ° 0 min 0,000 mm 0,0 UV-I 0 W/m² 11,8 °C 13,1 °C 3,2 km/h (1 Bft)
03.10.2017 06:45 13,1 °C 13,1 °C 92 % 1011,5 hPa 0,0 mm 2,7 km/h (1 Bft) W 260 ° 0 min 0,000 mm 0,0 UV-I 0 W/m² 11,8 °C 13,1 °C 4,8 km/h (1 Bft)
03.10.2017 06:46 13,1 °C 13,1 °C 92 % 1011,5 hPa 0,0 mm 1,3 km/h (1 Bft) W 260 ° 0 min 0,000 mm 0,0 UV-I 0 W/m² 11,8 °C 13,1 °C 1,6 km/h (1 Bft)
03.10.2017 06:47 13,1 °C 13,1 °C 92 % 1011,5 hPa 0,0 mm 0,2 km/h (0 Bft) W 260 ° 0 min 0,000 mm 0,0 UV-I 0 W/m² 11,8 °C 13,1 °C 1,6 km/h (1 Bft)
03.10.2017 06:48 13,0 °C 13,1 °C 92 % 1011,5 hPa 0,0 mm 0,0 km/h (0 Bft) W 260 ° 0 min 0,000 mm 0,0 UV-I 0 W/m² 11,7 °C 13,0 °C 0,0 km/h (0 Bft)
03.10.2017 06:49 13,0 °C 13,0 °C 93 % 1011,4 hPa 0,0 mm 0,0 km/h (0 Bft) W 259 ° 0 min 0,000 mm 0,0 UV-I 0 W/m² 11,9 °C 13,0 °C 0,0 km/h (0 Bft)
03.10.2017 06:50 12,9 °C 13,0 °C 93 % 1011,3 hPa 0,0 mm 0,0 km/h (0 Bft) W 259 ° 0 min 0,000 mm 0,0 UV-I 0 W/m² 11,8 °C 12,9 °C 0,0 km/h (0 Bft)
03.10.2017 06:51 12,9 °C 12,9 °C 93 % 1011,5 hPa 0,0 mm 0,0 km/h (0 Bft) W 259 ° 0 min 0,000 mm 0,0 UV-I 0 W/m² 11,8 °C 12,9 °C 0,0 km/h (0 Bft)
03.10.2017 06:52 12,9 °C 12,9 °C 93 % 1011,5 hPa 0,0 mm 1,1 km/h (1 Bft) W 259 ° 0 min 0,000 mm 0,0 UV-I 0 W/m² 11,8 °C 12,9 °C 1,6 km/h (1 Bft)
03.10.2017 06:53 12,9 °C 12,9 °C 93 % 1011,5 hPa 0,0 mm 0,0 km/h (0 Bft) W 259 ° 0 min 0,000 mm 0,0 UV-I 0 W/m² 11,8 °C 12,9 °C 0,0 km/h (0 Bft)
03.10.2017 06:54 12,9 °C 12,9 °C 93 % 1011,4 hPa 0,0 mm 0,0 km/h (0 Bft) W 259 ° 0 min 0,000 mm 0,0 UV-I 0 W/m² 11,8 °C 12,9 °C 0,0 km/h (0 Bft)
03.10.2017 06:55 12,8 °C 12,9 °C 93 % 1011,5 hPa 0,0 mm 0,0 km/h (0 Bft) W 259 ° 0 min 0,000 mm 0,0 UV-I 0 W/m² 11,7 °C 12,8 °C 0,0 km/h (0 Bft)
03.10.2017 06:56 12,8 °C 12,8 °C 93 % 1011,5 hPa 0,0 mm 0,1 km/h (0 Bft) W-SW 255 ° 0 min 0,000 mm 0,0 UV-I 0 W/m² 11,7 °C 12,8 °C 1,6 km/h (1 Bft)
03.10.2017 06:57 12,9 °C 12,9 °C 93 % 1011,4 hPa 0,0 mm 2,3 km/h (1 Bft) W-SW 244 ° 0 min 0,000 mm 0,0 UV-I 0 W/m² 11,8 °C 12,9 °C 3,2 km/h (1 Bft)
03.10.2017 06:58 12,9 °C 12,9 °C 93 % 1011,4 hPa 0,0 mm 0,5 km/h (0 Bft) W-SW 244 ° 0 min 0,000 mm 0,0 UV-I 0 W/m² 11,8 °C 12,9 °C 1,6 km/h (1 Bft)
03.10.2017 06:59 12,9 °C 12,9 °C 93 % 1011,4 hPa 0,0 mm 0,0 km/h (0 Bft) W-SW 244 ° 0 min 0,000 mm 0,0 UV-I 0 W/m² 11,8 °C 12,9 °C 0,0 km/h (0 Bft)
03.10.2017 07:00 12,9 °C 12,9 °C 93 % 1011,4 hPa 0,0 mm 2,5 km/h (1 Bft) SW 223 ° 0 min 0,000 mm 0,0 UV-I 0 W/m² 11,8 °C 12,9 °C 4,8 km/h (1 Bft)
03.10.2017 07:01 12,9 °C 12,9 °C 93 % 1011,4 hPa 0,0 mm 1,2 km/h (1 Bft) S-SW 207 ° 0 min 0,000 mm 0,0 UV-I 0 W/m² 11,8 °C 12,9 °C 4,8 km/h (1 Bft)
03.10.2017 07:02 13,0 °C 13,0 °C 93 % 1011,3 hPa 0,0 mm 2,5 km/h (1 Bft) S-SW 207 ° 0 min 0,000 mm 0,0 UV-I 0 W/m² 11,9 °C 13,0 °C 4,8 km/h (1 Bft)
03.10.2017 07:03 13,1 °C 13,1 °C 93 % 1011,4 hPa 0,0 mm 4,3 km/h (1 Bft) S-SW 201 ° 0 min 0,000 mm 0,0 UV-I 0 W/m² 12,0 °C 13,1 °C 6,4 km/h (2 Bft)
03.10.2017 07:04 13,1 °C 13,1 °C 93 % 1011,4 hPa 0,0 mm 4,0 km/h (1 Bft) S 185 ° 0 min 0,000 mm 0,0 UV-I 0 W/m² 12,0 °C 13,1 °C 6,4 km/h (2 Bft)
03.10.2017 07:05 13,2 °C 13,2 °C 93 % 1011,2 hPa 0,0 mm 2,3 km/h (1 Bft) S 185 ° 0 min 0,000 mm 0,0 UV-I 0 W/m² 12,1 °C 13,2 °C 4,8 km/h (1 Bft)
03.10.2017 07:06 13,2 °C 13,2 °C 93 % 1011,2 hPa 0,0 mm 1,7 km/h (1 Bft) S 185 ° 0 min 0,000 mm 0,0 UV-I 0 W/m² 12,1 °C 13,2 °C 3,2 km/h (1 Bft)
03.10.2017 07:07 13,2 °C 13,2 °C 93 % 1011,2 hPa 0,0 mm 0,0 km/h (0 Bft) S 185 ° 0 min 0,000 mm 0,0 UV-I 0 W/m² 12,1 °C 13,2 °C 0,0 km/h (0 Bft)
03.10.2017 07:08 13,2 °C 13,2 °C 93 % 1011,2 hPa 0,0 mm 0,0 km/h (0 Bft) S 185 ° 0 min 0,000 mm 0,0 UV-I 0 W/m² 12,1 °C 13,2 °C 0,0 km/h (0 Bft)
03.10.2017 07:09 13,2 °C 13,2 °C 93 % 1011,2 hPa 0,0 mm 0,0 km/h (0 Bft) S 185 ° 0 min 0,000 mm 0,0 UV-I 0 W/m² 12,1 °C 13,2 °C 0,0 km/h (0 Bft)
03.10.2017 07:10 13,2 °C 13,3 °C 93 % 1011,3 hPa 0,0 mm 0,4 km/h (0 Bft) S 185 ° 0 min 0,000 mm 0,0 UV-I 0 W/m² 12,1 °C 13,2 °C 1,6 km/h (1 Bft)
03.10.2017 07:11 13,3 °C 13,3 °C 93 % 1011,3 hPa 0,0 mm 1,3 km/h (1 Bft) S 185 ° 0 min 0,000 mm 0,0 UV-I 0 W/m² 12,2 °C 13,3 °C 3,2 km/h (1 Bft)
03.10.2017 07:12 13,3 °C 13,3 °C 92 % 1011,2 hPa 0,0 mm 0,4 km/h (0 Bft) S 185 ° 0 min 0,000 mm 0,0 UV-I 0 W/m² 12,0 °C 13,3 °C 1,6 km/h (1 Bft)
03.10.2017 07:13 13,3 °C 13,4 °C 92 % 1011,1 hPa 0,0 mm 0,0 km/h (0 Bft) S 185 ° 0 min 0,000 mm 0,0 UV-I 0 W/m² 12,0 °C 13,3 °C 0,0 km/h (0 Bft)
03.10.2017 07:14 13,3 °C 13,3 °C 92 % 1011,1 hPa 0,0 mm 0,0 km/h (0 Bft) S 185 ° 0 min 0,000 mm 0,0 UV-I 0 W/m² 12,0 °C 13,3 °C 0,0 km/h (0 Bft)
03.10.2017 07:15 13,4 °C 13,4 °C 92 % 1011,2 hPa 0,0 mm 0,1 km/h (0 Bft) S 185 ° 0 min 0,000 mm 0,0 UV-I 0 W/m² 12,1 °C 13,4 °C 1,6 km/h (1 Bft)
03.10.2017 07:16 13,4 °C 13,4 °C 92 % 1011,1 hPa 0,0 mm 1,7 km/h (1 Bft) SW 228 ° 0 min 0,000 mm 0,0 UV-I 0 W/m² 12,1 °C 13,4 °C 3,2 km/h (1 Bft)
03.10.2017 07:17 13,4 °C 13,4 °C 92 % 1011,2 hPa 0,0 mm 0,3 km/h (0 Bft) S-SW 196 ° 0 min 0,000 mm 0,0 UV-I 0 W/m² 12,1 °C 13,4 °C 1,6 km/h (1 Bft)
03.10.2017 07:18 13,5 °C 13,5 °C 92 % 1011,1 hPa 0,0 mm 0,8 km/h (0 Bft) S-SW 196 ° 0 min 0,000 mm 0,0 UV-I 0 W/m² 12,2 °C 13,5 °C 3,2 km/h (1 Bft)
03.10.2017 07:19 13,5 °C 13,6 °C 92 % 1011,0 hPa 0,0 mm 1,1 km/h (1 Bft) S-SW 196 ° 0 min 0,000 mm 0,0 UV-I 0 W/m² 12,2 °C 13,5 °C 3,2 km/h (1 Bft)
03.10.2017 07:20 13,6 °C 13,6 °C 92 % 1011,1 hPa 0,0 mm 1,2 km/h (1 Bft) SW 215 ° 0 min 0,000 mm 0,0 UV-I 0 W/m² 12,3 °C 13,6 °C 3,2 km/h (1 Bft)
03.10.2017 07:21 13,6 °C 13,6 °C 91 % 1011,0 hPa 0,0 mm 0,8 km/h (0 Bft) SW 215 ° 0 min 0,000 mm 0,0 UV-I 0 W/m² 12,2 °C 13,6 °C 3,2 km/h (1 Bft)
03.10.2017 07:22 13,6 °C 13,6 °C 91 % 1011,0 hPa 0,0 mm 2,3 km/h (1 Bft) SW 215 ° 0 min 0,000 mm 0,0 UV-I 0 W/m² 12,2 °C 13,6 °C 4,8 km/h (1 Bft)
03.10.2017 07:23 13,6 °C 13,6 °C 91 % 1011,0 hPa 0,0 mm 2,4 km/h (1 Bft) S 181 ° 0 min 0,000 mm 0,0 UV-I 0 W/m² 12,2 °C 13,6 °C 4,8 km/h (1 Bft)
03.10.2017 07:24 13,7 °C 13,7 °C 91 % 1011,0 hPa 0,0 mm 1,2 km/h (1 Bft) S 181 ° 0 min 0,000 mm 0,0 UV-I 0 W/m² 12,3 °C 13,7 °C 3,2 km/h (1 Bft)
03.10.2017 07:25 13,7 °C 13,7 °C 91 % 1011,0 hPa 0,0 mm 3,9 km/h (1 Bft) S-SO 150 ° 0 min 0,000 mm 0,0 UV-I 0 W/m² 12,3 °C 13,7 °C 8,0 km/h (2 Bft)
03.10.2017 07:26 13,6 °C 13,7 °C 91 % 1011,0 hPa 0,0 mm 5,5 km/h (1 Bft) W-SW 254 ° 0 min 0,000 mm 0,0 UV-I 0 W/m² 12,2 °C 13,6 °C 9,7 km/h (2 Bft)
03.10.2017 07:27 13,6 °C 13,7 °C 91 % 1011,0 hPa 0,0 mm 4,6 km/h (1 Bft) S-SW 211 ° 0 min 0,000 mm 0,0 UV-I 0 W/m² 12,2 °C 13,6 °C 9,7 km/h (2 Bft)
03.10.2017 07:28 13,7 °C 13,7 °C 91 % 1011,0 hPa 0,0 mm 1,9 km/h (1 Bft) SW 233 ° 0 min 0,000 mm 0,0 UV-I 0 W/m² 12,3 °C 13,7 °C 3,2 km/h (1 Bft)
03.10.2017 07:29 13,8 °C 13,8 °C 91 % 1011,0 hPa 0,0 mm 2,2 km/h (1 Bft) S 169 ° 0 min 0,000 mm 0,0 UV-I 0 W/m² 12,4 °C 13,8 °C 8,0 km/h (2 Bft)
03.10.2017 07:30 13,8 °C 13,8 °C 91 % 1011,0 hPa 0,0 mm 5,5 km/h (1 Bft) S-SW 192 ° 0 min 0,000 mm 0,0 UV-I 0 W/m² 12,4 °C 13,8 °C 8,0 km/h (2 Bft)
03.10.2017 07:31 13,9 °C 13,9 °C 90 % 1011,0 hPa 0,0 mm 2,7 km/h (1 Bft) S-SW 194 ° 0 min 0,000 mm 0,0 UV-I 0 W/m² 12,3 °C 13,9 °C 4,8 km/h (1 Bft)
03.10.2017 07:32 13,9 °C 13,9 °C 90 % 1011,1 hPa 0,0 mm 3,6 km/h (1 Bft) S-SW 208 ° 0 min 0,000 mm 0,0 UV-I 0 W/m² 12,3 °C 13,9 °C 4,8 km/h (1 Bft)
03.10.2017 07:33 14,0 °C 14,0 °C 90 % 1011,1 hPa 0,2 mm 4,1 km/h (1 Bft) S 188 ° 0 min 0,000 mm 0,0 UV-I 0 W/m² 12,4 °C 14,0 °C 6,4 km/h (2 Bft)
03.10.2017 07:34 14,1 °C 14,1 °C 90 % 1011,1 hPa 0,0 mm 4,8 km/h (1 Bft) S 191 ° 0 min 0,000 mm 0,0 UV-I 0 W/m² 12,5 °C 14,1 °C 9,7 km/h (2 Bft)
03.10.2017 07:35 14,2 °C 14,2 °C 90 % 1011,1 hPa 0,0 mm 4,7 km/h (1 Bft) S-SW 199 ° 0 min 0,000 mm 0,0 UV-I 0 W/m² 12,6 °C 14,2 °C 8,0 km/h (2 Bft)
03.10.2017 07:36 14,2 °C 14,2 °C 90 % 1011,1 hPa 0,0 mm 3,6 km/h (1 Bft) S-SW 193 ° 0 min 0,000 mm 0,0 UV-I 0 W/m² 12,6 °C 14,2 °C 6,4 km/h (2 Bft)
03.10.2017 07:37 14,3 °C 14,3 °C 90 % 1011,0 hPa 0,0 mm 3,4 km/h (1 Bft) S-SW 211 ° 0 min 0,000 mm 0,0 UV-I 0 W/m² 12,7 °C 14,3 °C 4,8 km/h (1 Bft)
03.10.2017 07:38 14,4 °C 14,4 °C 90 % 1011,1 hPa 0,0 mm 3,4 km/h (1 Bft) S 188 ° 0 min 0,000 mm 0,0 UV-I 0 W/m² 12,8 °C 14,4 °C 8,0 km/h (2 Bft)
03.10.2017 07:39 14,4 °C 14,4 °C 89 % 1011,0 hPa 0,0 mm 7,6 km/h (2 Bft) S 182 ° 0 min 0,000 mm 0,0 UV-I 0 W/m² 12,6 °C 14,4 °C 11,3 km/h (2 Bft)
03.10.2017 07:40 14,5 °C 14,5 °C 89 % 1011,1 hPa 0,0 mm 5,6 km/h (1 Bft) W-SW 258 ° 0 min 0,000 mm 0,0 UV-I 0 W/m² 12,7 °C 14,5 °C 11,3 km/h (2 Bft)
03.10.2017 07:41 14,6 °C 14,6 °C 89 % 1011,1 hPa 0,0 mm 3,7 km/h (1 Bft) O-SO 109 ° 0 min 0,000 mm 0,0 UV-I 0 W/m² 12,8 °C 14,6 °C 8,0 km/h (2 Bft)
03.10.2017 07:42 14,7 °C 14,7 °C 89 % 1011,1 hPa 0,0 mm 4,0 km/h (1 Bft) S 190 ° 0 min 0,000 mm 0,0 UV-I 0 W/m² 12,9 °C 14,7 °C 11,3 km/h (2 Bft)
03.10.2017 07:43 14,7 °C 14,7 °C 89 % 1011,1 hPa 0,0 mm 4,8 km/h (1 Bft) SW 225 ° 0 min 0,000 mm 0,0 UV-I 0 W/m² 12,9 °C 14,7 °C 9,7 km/h (2 Bft)
03.10.2017 07:44 14,7 °C 14,7 °C 89 % 1011,0 hPa 0,0 mm 6,6 km/h (2 Bft) W-SW 255 ° 0 min 0,000 mm 0,0 UV-I 0 W/m² 12,9 °C 14,7 °C 9,7 km/h (2 Bft)
03.10.2017 07:45 14,7 °C 14,7 °C 89 % 1011,0 hPa 0,0 mm 7,8 km/h (2 Bft) S-SW 198 ° 0 min 0,000 mm 0,0 UV-I 0 W/m² 12,9 °C 14,7 °C 12,9 km/h (3 Bft)
03.10.2017 07:46 14,7 °C 14,7 °C 89 % 1011,0 hPa 0,0 mm 11,3 km/h (2 Bft) W-SW 257 ° 0 min 0,000 mm 0,0 UV-I 5 W/m² 12,9 °C 14,7 °C 14,5 km/h (3 Bft)
03.10.2017 07:47 14,7 °C 14,8 °C 89 % 1011,0 hPa 0,0 mm 8,3 km/h (2 Bft) S-SO 150 ° 0 min 0,000 mm 0,0 UV-I 7 W/m² 12,9 °C 14,7 °C 14,5 km/h (3 Bft)
03.10.2017 07:48 14,7 °C 14,7 °C 90 % 1010,9 hPa 0,0 mm 4,0 km/h (1 Bft) S-SW 195 ° 0 min 0,000 mm 0,0 UV-I 7 W/m² 13,1 °C 14,7 °C 9,7 km/h (2 Bft)
03.10.2017 07:49 14,7 °C 14,8 °C 90 % 1011,0 hPa 0,0 mm 1,7 km/h (1 Bft) S-SW 195 ° 0 min 0,000 mm 0,0 UV-I 5 W/m² 13,1 °C 14,7 °C 4,8 km/h (1 Bft)
03.10.2017 07:50 14,7 °C 14,8 °C 90 % 1011,0 hPa 0,0 mm 3,0 km/h (1 Bft) W 275 ° 0 min 0,000 mm 0,0 UV-I 5 W/m² 13,1 °C 14,7 °C 11,3 km/h (2 Bft)
03.10.2017 07:51 14,7 °C 14,7 °C 90 % 1010,9 hPa 0,0 mm 6,9 km/h (2 Bft) S-SW 198 ° 0 min 0,000 mm 0,0 UV-I 7 W/m² 13,1 °C 14,7 °C 12,9 km/h (3 Bft)
03.10.2017 07:52 14,7 °C 14,7 °C 90 % 1011,0 hPa 0,0 mm 5,8 km/h (2 Bft) S-SW 212 ° 0 min 0,000 mm 0,0 UV-I 7 W/m² 13,1 °C 14,7 °C 12,9 km/h (3 Bft)
03.10.2017 07:53 14,7 °C 14,7 °C 90 % 1011,0 hPa 0,0 mm 4,3 km/h (1 Bft) W-SW 252 ° 0 min 0,000 mm 0,0 UV-I 7 W/m² 13,1 °C 14,7 °C 6,4 km/h (2 Bft)
03.10.2017 07:54 14,7 °C 14,7 °C 90 % 1011,0 hPa 0,0 mm 3,6 km/h (1 Bft) W 260 ° 0 min 0,000 mm 0,0 UV-I 7 W/m² 13,1 °C 14,7 °C 6,4 km/h (2 Bft)
03.10.2017 07:55 14,6 °C 14,7 °C 90 % 1011,0 hPa 0,0 mm 5,0 km/h (1 Bft) S 185 ° 0 min 0,000 mm 0,0 UV-I 5 W/m² 13,0 °C 14,6 °C 9,7 km/h (2 Bft)
03.10.2017 07:56 14,6 °C 14,7 °C 90 % 1011,0 hPa 0,0 mm 9,0 km/h (2 Bft) W-SW 250 ° 0 min 0,000 mm 0,0 UV-I 5 W/m² 13,0 °C 14,6 °C 16,1 km/h (3 Bft)
03.10.2017 07:57 14,6 °C 14,7 °C 90 % 1011,1 hPa 0,0 mm 3,5 km/h (1 Bft) W-SW 255 ° 0 min 0,000 mm 0,0 UV-I 0 W/m² 13,0 °C 14,6 °C 11,3 km/h (2 Bft)
03.10.2017 07:58 14,6 °C 14,6 °C 91 % 1011,1 hPa 0,0 mm 4,9 km/h (1 Bft) W-NW 288 ° 0 min 0,000 mm 0,0 UV-I 5 W/m² 13,1 °C 14,6 °C 8,0 km/h (2 Bft)
03.10.2017 07:59 14,6 °C 14,6 °C 91 % 1011,2 hPa 0,0 mm 6,0 km/h (2 Bft) W-SW 243 ° 0 min 0,000 mm 0,0 UV-I 0 W/m² 13,1 °C 14,6 °C 12,9 km/h (3 Bft)
03.10.2017 08:00 14,6 °C 14,6 °C 91 % 1011,1 hPa 0,0 mm 8,4 km/h (2 Bft) SW 217 ° 0 min 0,000 mm 0,0 UV-I 5 W/m² 13,1 °C 14,6 °C 14,5 km/h (3 Bft)
03.10.2017 08:01 14,7 °C 14,7 °C 91 % 1011,1 hPa 0,0 mm 5,0 km/h (1 Bft) W 277 ° 0 min 0,000 mm 0,0 UV-I 5 W/m² 13,2 °C 14,7 °C 6,4 km/h (2 Bft)
03.10.2017 08:02 14,6 °C 14,7 °C 91 % 1011,0 hPa 0,0 mm 3,6 km/h (1 Bft) S 169 ° 0 min 0,000 mm 0,0 UV-I 5 W/m² 13,1 °C 14,6 °C 6,4 km/h (2 Bft)
03.10.2017 08:03 14,6 °C 14,6 °C 91 % 1011,1 hPa 0,0 mm 2,6 km/h (1 Bft) W 261 ° 0 min 0,000 mm 0,0 UV-I 7 W/m² 13,1 °C 14,6 °C 4,8 km/h (1 Bft)
03.10.2017 08:04 14,6 °C 14,6 °C 91 % 1011,1 hPa 0,0 mm 3,4 km/h (1 Bft) W 269 ° 0 min 0,000 mm 0,0 UV-I 7 W/m² 13,1 °C 14,6 °C 4,8 km/h (1 Bft)
03.10.2017 08:05 14,6 °C 14,7 °C 91 % 1011,0 hPa 0,0 mm 6,9 km/h (2 Bft) W 269 ° 0 min 0,000 mm 0,0 UV-I 9 W/m² 13,1 °C 14,6 °C 16,1 km/h (3 Bft)
03.10.2017 08:06 14,7 °C 14,7 °C 91 % 1011,0 hPa 0,0 mm 4,4 km/h (1 Bft) S-SW 205 ° 0 min 0,000 mm 0,0 UV-I 9 W/m² 13,2 °C 14,7 °C 9,7 km/h (2 Bft)
03.10.2017 08:07 14,7 °C 14,7 °C 91 % 1011,0 hPa 0,0 mm 4,7 km/h (1 Bft) SW 232 ° 0 min 0,000 mm 0,0 UV-I 9 W/m² 13,2 °C 14,7 °C 12,9 km/h (3 Bft)
03.10.2017 08:08 14,7 °C 14,7 °C 90 % 1011,0 hPa 0,0 mm 5,4 km/h (1 Bft) SW 229 ° 0 min 0,000 mm 0,0 UV-I 11 W/m² 13,1 °C 14,7 °C 12,9 km/h (3 Bft)
03.10.2017 08:09 14,7 °C 14,7 °C 90 % 1011,0 hPa 0,0 mm 10,3 km/h (2 Bft) W-SW 238 ° 0 min 0,000 mm 0,0 UV-I 9 W/m² 13,1 °C 14,7 °C 19,3 km/h (3 Bft)
03.10.2017 08:10 14,7 °C 14,7 °C 91 % 1011,0 hPa 0,0 mm 4,7 km/h (1 Bft) W-SW 246 ° 0 min 0,000 mm 0,0 UV-I 11 W/m² 13,2 °C 14,7 °C 14,5 km/h (3 Bft)
03.10.2017 08:11 14,7 °C 14,7 °C 90 % 1011,0 hPa 0,0 mm 3,9 km/h (1 Bft) W 278 ° 0 min 0,000 mm 0,0 UV-I 11 W/m² 13,1 °C 14,7 °C 6,4 km/h (2 Bft)
03.10.2017 08:12 14,7 °C 14,7 °C 91 % 1011,1 hPa 0,0 mm 2,0 km/h (1 Bft) W 281 ° 0 min 0,000 mm 0,0 UV-I 11 W/m² 13,2 °C 14,7 °C 4,8 km/h (1 Bft)
03.10.2017 08:13 14,7 °C 14,8 °C 91 % 1011,0 hPa 0,0 mm 4,2 km/h (1 Bft) W-SW 240 ° 0 min 0,000 mm 0,0 UV-I 11 W/m² 13,2 °C 14,7 °C 6,4 km/h (2 Bft)
03.10.2017 08:14 14,8 °C 14,8 °C 91 % 1011,0 hPa 0,0 mm 2,7 km/h (1 Bft) SW 235 ° 0 min 0,000 mm 0,0 UV-I 11 W/m² 13,3 °C 14,8 °C 4,8 km/h (1 Bft)
03.10.2017 08:15 14,8 °C 14,8 °C 91 % 1011,1 hPa 0,0 mm 4,1 km/h (1 Bft) W-SW 255 ° 0 min 0,000 mm 0,0 UV-I 11 W/m² 13,3 °C 14,8 °C 8,0 km/h (2 Bft)
03.10.2017 08:16 14,8 °C 14,8 °C 90 % 1011,1 hPa 0,0 mm 6,2 km/h (2 Bft) W-SW 250 ° 0 min 0,000 mm 0,0 UV-I 7 W/m² 13,2 °C 14,8 °C 12,9 km/h (3 Bft)
03.10.2017 08:17 14,8 °C 14,8 °C 91 % 1011,1 hPa 0,0 mm 4,5 km/h (1 Bft) SW 223 ° 0 min 0,000 mm 0,0 UV-I 11 W/m² 13,3 °C 14,8 °C 9,7 km/h (2 Bft)
03.10.2017 08:18 14,8 °C 14,8 °C 91 % 1011,1 hPa 0,0 mm 7,5 km/h (2 Bft) SW 227 ° 0 min 0,000 mm 0,0 UV-I 14 W/m² 13,3 °C 14,8 °C 12,9 km/h (3 Bft)
03.10.2017 08:19 14,7 °C 14,8 °C 91 % 1011,1 hPa 0,0 mm 7,7 km/h (2 Bft) W 268 ° 0 min 0,000 mm 0,0 UV-I 16 W/m² 13,2 °C 14,7 °C 12,9 km/h (3 Bft)
03.10.2017 08:20 14,7 °C 14,7 °C 91 % 1011,2 hPa 0,0 mm 5,4 km/h (1 Bft) W 267 ° 0 min 0,000 mm 0,0 UV-I 18 W/m² 13,2 °C 14,7 °C 6,4 km/h (2 Bft)
03.10.2017 08:21 14,7 °C 14,7 °C 91 % 1011,2 hPa 0,0 mm 5,1 km/h (1 Bft) W-SW 247 ° 0 min 0,000 mm 0,0 UV-I 18 W/m² 13,2 °C 14,7 °C 6,4 km/h (2 Bft)
03.10.2017 08:22 14,7 °C 14,7 °C 91 % 1011,1 hPa 0,0 mm 6,6 km/h (2 Bft) W-SW 255 ° 0 min 0,000 mm 0,0 UV-I 19 W/m² 13,2 °C 14,7 °C 11,3 km/h (2 Bft)
03.10.2017 08:23 14,7 °C 14,7 °C 91 % 1011,1 hPa 0,0 mm 8,2 km/h (2 Bft) W 267 ° 0 min 0,000 mm 0,0 UV-I 18 W/m² 13,2 °C 14,7 °C 11,3 km/h (2 Bft)
03.10.2017 08:24 14,6 °C 14,7 °C 91 % 1011,2 hPa 0,0 mm 13,2 km/h (3 Bft) S-SW 196 ° 0 min 0,000 mm 0,0 UV-I 14 W/m² 13,1 °C 14,6 °C 19,3 km/h (3 Bft)
03.10.2017 08:25 14,6 °C 14,6 °C 91 % 1011,2 hPa 0,0 mm 6,2 km/h (2 Bft) W 281 ° 0 min 0,000 mm 0,0 UV-I 11 W/m² 13,1 °C 14,6 °C 14,5 km/h (3 Bft)
03.10.2017 08:26 14,6 °C 14,6 °C 91 % 1011,2 hPa 0,2 mm 11,0 km/h (2 Bft) W 263 ° 0 min 0,000 mm 0,0 UV-I 11 W/m² 13,1 °C 14,6 °C 16,1 km/h (3 Bft)
03.10.2017 08:27 14,6 °C 14,6 °C 91 % 1011,3 hPa 0,0 mm 9,0 km/h (2 Bft) W 277 ° 0 min 0,000 mm 0,0 UV-I 12 W/m² 13,1 °C 14,6 °C 14,5 km/h (3 Bft)
03.10.2017 08:28 14,6 °C 14,6 °C 91 % 1011,3 hPa 0,0 mm 9,7 km/h (2 Bft) W-SW 253 ° 0 min 0,000 mm 0,0 UV-I 18 W/m² 13,1 °C 14,6 °C 12,9 km/h (3 Bft)
03.10.2017 08:29 14,6 °C 14,6 °C 91 % 1011,3 hPa 0,0 mm 8,4 km/h (2 Bft) W 273 ° 0 min 0,000 mm 0,0 UV-I 16 W/m² 13,1 °C 14,6 °C 11,3 km/h (2 Bft)
03.10.2017 08:30 14,6 °C 14,6 °C 91 % 1011,3 hPa 0,0 mm 15,5 km/h (3 Bft) W-SW 256 ° 0 min 0,000 mm 0,0 UV-I 14 W/m² 13,1 °C 14,6 °C 19,3 km/h (3 Bft)
03.10.2017 08:31 14,6 °C 14,6 °C 91 % 1011,3 hPa 0,0 mm 7,7 km/h (2 Bft) SW 234 ° 0 min 0,000 mm 0,0 UV-I 16 W/m² 13,1 °C 14,6 °C 16,1 km/h (3 Bft)
03.10.2017 08:32 14,6 °C 14,6 °C 91 % 1011,3 hPa 0,0 mm 6,6 km/h (2 Bft) W-SW 252 ° 0 min 0,000 mm 0,0 UV-I 18 W/m² 13,1 °C 14,6 °C 12,9 km/h (3 Bft)
03.10.2017 08:33 14,5 °C 14,6 °C 92 % 1011,2 hPa 0,0 mm 6,9 km/h (2 Bft) W 279 ° 0 min 0,000 mm 0,0 UV-I 21 W/m² 13,2 °C 14,5 °C 11,3 km/h (2 Bft)
03.10.2017 08:34 14,4 °C 14,5 °C 92 % 1011,2 hPa 0,0 mm 9,5 km/h (2 Bft) W 273 ° 0 min 0,000 mm 0,0 UV-I 25 W/m² 13,1 °C 14,4 °C 12,9 km/h (3 Bft)
03.10.2017 08:35 14,4 °C 14,4 °C 91 % 1011,2 hPa 0,0 mm 7,5 km/h (2 Bft) W 269 ° 0 min 0,000 mm 0,0 UV-I 25 W/m² 12,9 °C 14,4 °C 14,5 km/h (3 Bft)
03.10.2017 08:36 14,4 °C 14,4 °C 91 % 1011,2 hPa 0,0 mm 4,9 km/h (1 Bft) W-SW 254 ° 0 min 0,000 mm 0,0 UV-I 25 W/m² 12,9 °C 14,4 °C 9,7 km/h (2 Bft)
03.10.2017 08:37 14,4 °C 14,4 °C 92 % 1011,2 hPa 0,0 mm 10,2 km/h (2 Bft) W-SW 254 ° 0 min 0,000 mm 0,0 UV-I 23 W/m² 13,1 °C 14,4 °C 16,1 km/h (3 Bft)
03.10.2017 08:38 14,4 °C 14,4 °C 92 % 1011,2 hPa 0,0 mm 8,8 km/h (2 Bft) W-SW 256 ° 0 min 0,000 mm 0,0 UV-I 21 W/m² 13,1 °C 14,4 °C 12,9 km/h (3 Bft)
03.10.2017 08:39 14,4 °C 14,4 °C 92 % 1011,3 hPa 0,0 mm 6,6 km/h (2 Bft) W 267 ° 0 min 0,000 mm 0,0 UV-I 21 W/m² 13,1 °C 14,4 °C 11,3 km/h (2 Bft)
03.10.2017 08:40 14,4 °C 14,4 °C 92 % 1011,3 hPa 0,0 mm 10,7 km/h (2 Bft) W-SW 254 ° 0 min 0,000 mm 0,0 UV-I 21 W/m² 13,1 °C 14,4 °C 12,9 km/h (3 Bft)
03.10.2017 08:41 14,3 °C 14,4 °C 92 % 1011,3 hPa 0,0 mm 4,3 km/h (1 Bft) W 273 ° 0 min 0,000 mm 0,0 UV-I 21 W/m² 13,0 °C 14,3 °C 6,4 km/h (2 Bft)
03.10.2017 08:42 14,3 °C 14,4 °C 92 % 1011,4 hPa 0,0 mm 10,3 km/h (2 Bft) W 273 ° 0 min 0,000 mm 0,0 UV-I 25 W/m² 13,0 °C 14,3 °C 19,3 km/h (3 Bft)
03.10.2017 08:43 14,4 °C 14,4 °C 92 % 1011,3 hPa 0,0 mm 6,7 km/h (2 Bft) W-SW 255 ° 0 min 0,000 mm 0,0 UV-I 28 W/m² 13,1 °C 14,4 °C 11,3 km/h (2 Bft)
03.10.2017 08:44 14,4 °C 14,4 °C 92 % 1011,3 hPa 0,0 mm 6,1 km/h (2 Bft) W 264 ° 0 min 0,000 mm 0,0 UV-I 28 W/m² 13,1 °C 14,4 °C 12,9 km/h (3 Bft)
03.10.2017 08:45 14,4 °C 14,4 °C 92 % 1011,4 hPa 0,0 mm 11,3 km/h (2 Bft) W-SW 247 ° 0 min 0,000 mm 0,0 UV-I 33 W/m² 13,1 °C 14,4 °C 16,1 km/h (3 Bft)
03.10.2017 08:46 14,4 °C 14,4 °C 92 % 1011,3 hPa 0,0 mm 8,4 km/h (2 Bft) W 265 ° 0 min 0,000 mm 0,0 UV-I 35 W/m² 13,1 °C 14,4 °C 16,1 km/h (3 Bft)
03.10.2017 08:47 14,4 °C 14,4 °C 92 % 1011,3 hPa 0,0 mm 10,1 km/h (2 Bft) W 273 ° 0 min 0,000 mm 0,0 UV-I 37 W/m² 13,1 °C 14,4 °C 17,7 km/h (3 Bft)
03.10.2017 08:48 14,4 °C 14,4 °C 92 % 1011,3 hPa 0,0 mm 8,4 km/h (2 Bft) W-SW 257 ° 0 min 0,000 mm 0,0 UV-I 37 W/m² 13,1 °C 14,4 °C 12,9 km/h (3 Bft)
03.10.2017 08:49 14,4 °C 14,4 °C 92 % 1011,2 hPa 0,0 mm 8,5 km/h (2 Bft) W-NW 290 ° 0 min 0,000 mm 0,0 UV-I 39 W/m² 13,1 °C 14,4 °C 12,9 km/h (3 Bft)
03.10.2017 08:50 14,4 °C 14,4 °C 92 % 1011,4 hPa 0,0 mm 6,0 km/h (2 Bft) W-NW 285 ° 0 min 0,000 mm 0,0 UV-I 40 W/m² 13,1 °C 14,4 °C 11,3 km/h (2 Bft)
03.10.2017 08:51 14,4 °C 14,4 °C 92 % 1011,4 hPa 0,0 mm 4,1 km/h (1 Bft) W-SW 249 ° 0 min 0,000 mm 0,0 UV-I 42 W/m² 13,1 °C 14,4 °C 9,7 km/h (2 Bft)
03.10.2017 08:52 14,5 °C 14,5 °C 92 % 1011,4 hPa 0,0 mm 6,6 km/h (2 Bft) W-NW 288 ° 0 min 0,000 mm 0,0 UV-I 39 W/m² 13,2 °C 14,5 °C 14,5 km/h (3 Bft)
03.10.2017 08:53 14,5 °C 14,5 °C 92 % 1011,3 hPa 0,0 mm 8,9 km/h (2 Bft) W-NW 292 ° 0 min 0,000 mm 0,0 UV-I 44 W/m² 13,2 °C 14,5 °C 12,9 km/h (3 Bft)
03.10.2017 08:54 14,6 °C 14,6 °C 92 % 1011,4 hPa 0,0 mm 6,6 km/h (2 Bft) SW 220 ° 0 min 0,000 mm 0,0 UV-I 44 W/m² 13,3 °C 14,6 °C 11,3 km/h (2 Bft)
03.10.2017 08:55 14,5 °C 14,6 °C 92 % 1011,4 hPa 0,0 mm 3,1 km/h (1 Bft) W-NW 300 ° 0 min 0,000 mm 0,0 UV-I 42 W/m² 13,2 °C 14,5 °C 6,4 km/h (2 Bft)
03.10.2017 08:56 14,6 °C 14,6 °C 92 % 1011,4 hPa 0,0 mm 4,8 km/h (1 Bft) W-NW 291 ° 0 min 0,000 mm 0,0 UV-I 35 W/m² 13,3 °C 14,6 °C 9,7 km/h (2 Bft)
03.10.2017 08:57 14,6 °C 14,6 °C 92 % 1011,4 hPa 0,0 mm 6,5 km/h (2 Bft) W 263 ° 0 min 0,000 mm 0,0 UV-I 32 W/m² 13,3 °C 14,6 °C 11,3 km/h (2 Bft)
03.10.2017 08:58 14,6 °C 14,6 °C 92 % 1011,4 hPa 0,0 mm 6,7 km/h (2 Bft) W 276 ° 0 min 0,000 mm 0,0 UV-I 39 W/m² 13,3 °C 14,6 °C 9,7 km/h (2 Bft)
03.10.2017 08:59 14,6 °C 14,6 °C 92 % 1011,4 hPa 0,0 mm 6,9 km/h (2 Bft) W-NW 292 ° 0 min 0,000 mm 0,0 UV-I 39 W/m² 13,3 °C 14,6 °C 12,9 km/h (3 Bft)
03.10.2017 09:00 14,6 °C 14,6 °C 92 % 1011,4 hPa 0,0 mm 10,7 km/h (2 Bft) W-SW 258 ° 0 min 0,025 mm 0,0 UV-I 42 W/m² 13,3 °C 14,6 °C 16,1 km/h (3 Bft)
03.10.2017 09:01 14,6 °C 14,6 °C 92 % 1011,4 hPa 0,0 mm 3,5 km/h (1 Bft) W-NW 288 ° 0 min 0,000 mm 0,0 UV-I 42 W/m² 13,3 °C 14,6 °C 9,7 km/h (2 Bft)
03.10.2017 09:02 14,6 °C 14,6 °C 92 % 1011,4 hPa 0,0 mm 7,6 km/h (2 Bft) W 264 ° 0 min 0,000 mm 0,0 UV-I 40 W/m² 13,3 °C 14,6 °C 11,3 km/h (2 Bft)
03.10.2017 09:03 14,6 °C 14,6 °C 92 % 1011,4 hPa 0,0 mm 3,1 km/h (1 Bft) W-SW 250 ° 0 min 0,000 mm 0,0 UV-I 51 W/m² 13,3 °C 14,6 °C 4,8 km/h (1 Bft)
03.10.2017 09:04 14,6 °C 14,6 °C 92 % 1011,4 hPa 0,0 mm 4,2 km/h (1 Bft) W-NW 282 ° 0 min 0,000 mm 0,0 UV-I 46 W/m² 13,3 °C 14,6 °C 8,0 km/h (2 Bft)
03.10.2017 09:05 14,6 °C 14,6 °C 92 % 1011,4 hPa 0,0 mm 3,8 km/h (1 Bft) SW 236 ° 0 min 0,000 mm 0,0 UV-I 40 W/m² 13,3 °C 14,6 °C 6,4 km/h (2 Bft)
03.10.2017 09:06 14,7 °C 14,7 °C 92 % 1011,4 hPa 0,0 mm 8,0 km/h (2 Bft) W 262 ° 0 min 0,000 mm 0,0 UV-I 44 W/m² 13,4 °C 14,7 °C 11,3 km/h (2 Bft)
03.10.2017 09:07 14,7 °C 14,7 °C 91 % 1011,4 hPa 0,0 mm 6,9 km/h (2 Bft) W 261 ° 0 min 0,000 mm 0,0 UV-I 47 W/m² 13,2 °C 14,7 °C 11,3 km/h (2 Bft)
03.10.2017 09:08 14,7 °C 14,7 °C 91 % 1011,4 hPa 0,0 mm 6,1 km/h (2 Bft) NW 325 ° 0 min 0,000 mm 0,0 UV-I 44 W/m² 13,2 °C 14,7 °C 9,7 km/h (2 Bft)
03.10.2017 09:09 14,7 °C 14,7 °C 91 % 1011,5 hPa 0,0 mm 13,5 km/h (3 Bft) W-NW 289 ° 0 min 0,000 mm 0,0 UV-I 32 W/m² 13,2 °C 14,7 °C 17,7 km/h (3 Bft)
03.10.2017 09:10 14,7 °C 14,7 °C 91 % 1011,5 hPa 0,0 mm 10,7 km/h (2 Bft) W-SW 255 ° 0 min 0,000 mm 0,0 UV-I 28 W/m² 13,2 °C 14,7 °C 16,1 km/h (3 Bft)
03.10.2017 09:11 14,7 °C 14,7 °C 91 % 1011,5 hPa 0,0 mm 9,3 km/h (2 Bft) W 280 ° 0 min 0,000 mm 0,0 UV-I 28 W/m² 13,2 °C 14,7 °C 14,5 km/h (3 Bft)
03.10.2017 09:12 14,7 °C 14,7 °C 91 % 1011,6 hPa 0,0 mm 4,5 km/h (1 Bft) W 273 ° 0 min 0,000 mm 0,0 UV-I 28 W/m² 13,2 °C 14,7 °C 9,7 km/h (2 Bft)
03.10.2017 09:13 14,7 °C 14,7 °C 91 % 1011,5 hPa 0,2 mm 8,6 km/h (2 Bft) W-SW 240 ° 0 min 0,000 mm 0,0 UV-I 32 W/m² 13,2 °C 14,7 °C 12,9 km/h (3 Bft)
03.10.2017 09:14 14,7 °C 14,7 °C 91 % 1011,5 hPa 0,0 mm 4,2 km/h (1 Bft) SW 234 ° 0 min 0,000 mm 0,0 UV-I 32 W/m² 13,2 °C 14,7 °C 6,4 km/h (2 Bft)
03.10.2017 09:15 14,7 °C 14,7 °C 91 % 1011,5 hPa 0,2 mm 6,6 km/h (2 Bft) W-NW 296 ° 0 min 0,000 mm 0,0 UV-I 33 W/m² 13,2 °C 14,7 °C 12,9 km/h (3 Bft)
03.10.2017 09:16 14,6 °C 14,7 °C 91 % 1011,6 hPa 0,0 mm 8,0 km/h (2 Bft) W-NW 296 ° 0 min 0,000 mm 0,0 UV-I 32 W/m² 13,1 °C 14,6 °C 12,9 km/h (3 Bft)
03.10.2017 09:17 14,7 °C 14,7 °C 91 % 1011,6 hPa 0,0 mm 5,3 km/h (1 Bft) W 274 ° 0 min 0,000 mm 0,0 UV-I 32 W/m² 13,2 °C 14,7 °C 11,3 km/h (2 Bft)
03.10.2017 09:18 14,7 °C 14,7 °C 91 % 1011,8 hPa 0,0 mm 5,9 km/h (2 Bft) W-NW 283 ° 0 min 0,000 mm 0,0 UV-I 33 W/m² 13,2 °C 14,7 °C 12,9 km/h (3 Bft)
03.10.2017 09:19 14,7 °C 14,7 °C 91 % 1011,9 hPa 0,0 mm 10,1 km/h (2 Bft) NW 323 ° 0 min 0,000 mm 0,0 UV-I 40 W/m² 13,2 °C 14,7 °C 14,5 km/h (3 Bft)
03.10.2017 09:20 14,7 °C 14,7 °C 92 % 1012,1 hPa 0,0 mm 9,3 km/h (2 Bft) N 355 ° 0 min 0,000 mm 0,0 UV-I 16 W/m² 13,4 °C 14,7 °C 14,5 km/h (3 Bft)
03.10.2017 09:21 14,6 °C 14,7 °C 92 % 1012,3 hPa 0,2 mm 11,5 km/h (2 Bft) N-NW 332 ° 0 min 0,000 mm 0,0 UV-I 9 W/m² 13,3 °C 14,6 °C 17,7 km/h (3 Bft)
03.10.2017 09:22 14,4 °C 14,6 °C 90 % 1013,0 hPa 0,0 mm 20,9 km/h (4 Bft) NW 324 ° 0 min 0,000 mm 0,0 UV-I 7 W/m² 12,8 °C 14,4 °C 29,0 km/h (5 Bft)
03.10.2017 09:23 14,0 °C 14,4 °C 86 % 1013,0 hPa 0,0 mm 19,5 km/h (3 Bft) NW 323 ° 0 min 0,000 mm 0,0 UV-I 9 W/m² 11,7 °C 14,0 °C 30,6 km/h (5 Bft)
03.10.2017 09:24 13,5 °C 14,0 °C 84 % 1012,9 hPa 0,0 mm 16,4 km/h (3 Bft) N-NW 345 ° 0 min 0,000 mm 0,0 UV-I 9 W/m² 10,8 °C 13,5 °C 29,0 km/h (5 Bft)
03.10.2017 09:25 13,2 °C 13,5 °C 85 % 1013,1 hPa 0,2 mm 19,9 km/h (4 Bft) W-SW 253 ° 0 min 0,000 mm 0,0 UV-I 11 W/m² 10,7 °C 13,2 °C 30,6 km/h (5 Bft)
03.10.2017 09:26 12,8 °C 13,2 °C 85 % 1013,1 hPa 0,2 mm 19,2 km/h (3 Bft) N-NW 345 ° 0 min 0,000 mm 0,0 UV-I 12 W/m² 10,3 °C 12,8 °C 25,7 km/h (4 Bft)
03.10.2017 09:27 12,5 °C 12,8 °C 85 % 1013,1 hPa 0,2 mm 12,7 km/h (3 Bft) W 263 ° 0 min 0,000 mm 0,0 UV-I 14 W/m² 10,0 °C 12,5 °C 17,7 km/h (3 Bft)
03.10.2017 09:28 12,2 °C 12,5 °C 86 % 1013,2 hPa 0,2 mm 16,4 km/h (3 Bft) W 267 ° 0 min 0,000 mm 0,0 UV-I 14 W/m² 9,9 °C 12,2 °C 24,1 km/h (4 Bft)
03.10.2017 09:29 12,0 °C 12,2 °C 86 % 1013,4 hPa 0,2 mm 12,5 km/h (3 Bft) NW 304 ° 0 min 0,000 mm 0,0 UV-I 16 W/m² 9,7 °C 12,0 °C 22,5 km/h (4 Bft)
03.10.2017 09:30 11,8 °C 12,0 °C 87 % 1013,4 hPa 0,2 mm 14,9 km/h (3 Bft) NW 315 ° 0 min 0,000 mm 0,0 UV-I 19 W/m² 9,7 °C 11,8 °C 29,0 km/h (5 Bft)
03.10.2017 09:31 11,6 °C 11,8 °C 88 % 1013,4 hPa 0,2 mm 14,9 km/h (3 Bft) W-NW 296 ° 0 min 0,000 mm 0,0 UV-I 21 W/m² 9,7 °C 11,6 °C 29,0 km/h (5 Bft)
03.10.2017 09:32 11,4 °C 11,6 °C 88 % 1013,5 hPa 0,2 mm 18,0 km/h (3 Bft) W-NW 289 ° 0 min 0,000 mm 0,0 UV-I 23 W/m² 9,5 °C 11,4 °C 29,0 km/h (5 Bft)
03.10.2017 09:33 11,3 °C 11,4 °C 89 % 1013,6 hPa 0,2 mm 11,1 km/h (2 Bft) W 262 ° 0 min 0,000 mm 0,0 UV-I 28 W/m² 9,6 °C 11,3 °C 19,3 km/h (3 Bft)
03.10.2017 09:34 11,1 °C 11,3 °C 90 % 1013,4 hPa 0,2 mm 7,8 km/h (2 Bft) W 278 ° 0 min 0,000 mm 0,0 UV-I 28 W/m² 9,5 °C 11,1 °C 14,5 km/h (3 Bft)
03.10.2017 09:35 11,0 °C 11,1 °C 90 % 1013,4 hPa 0,2 mm 9,1 km/h (2 Bft) W-SW 243 ° 0 min 0,000 mm 0,0 UV-I 28 W/m² 9,4 °C 11,0 °C 12,9 km/h (3 Bft)
03.10.2017 09:36 10,9 °C 11,0 °C 90 % 1013,5 hPa 0,2 mm 10,3 km/h (2 Bft) NW 307 ° 0 min 0,000 mm 0,0 UV-I 28 W/m² 9,3 °C 10,9 °C 17,7 km/h (3 Bft)
03.10.2017 09:37 10,8 °C 10,9 °C 91 % 1013,5 hPa 0,2 mm 11,9 km/h (2 Bft) W 265 ° 0 min 0,000 mm 0,0 UV-I 25 W/m² 9,4 °C 10,8 °C 17,7 km/h (3 Bft)
03.10.2017 09:38 10,8 °C 10,8 °C 91 % 1013,7 hPa 0,2 mm 10,5 km/h (2 Bft) NW 318 ° 0 min 0,000 mm 0,0 UV-I 21 W/m² 9,4 °C 10,8 °C 24,1 km/h (4 Bft)
03.10.2017 09:39 10,7 °C 10,8 °C 91 % 1013,9 hPa 0,0 mm 18,3 km/h (3 Bft) W 276 ° 0 min 0,000 mm 0,0 UV-I 14 W/m² 9,3 °C 10,7 °C 27,4 km/h (4 Bft)
03.10.2017 09:40 10,7 °C 10,7 °C 91 % 1014,0 hPa 0,2 mm 18,5 km/h (3 Bft) NW 321 ° 0 min 0,000 mm 0,0 UV-I 14 W/m² 9,3 °C 10,7 °C 29,0 km/h (5 Bft)
03.10.2017 09:41 10,7 °C 10,7 °C 91 % 1014,2 hPa 0,2 mm 12,2 km/h (2 Bft) N-NW 327 ° 0 min 0,000 mm 0,0 UV-I 16 W/m² 9,3 °C 10,7 °C 19,3 km/h (3 Bft)
03.10.2017 09:42 10,6 °C 10,7 °C 91 % 1014,3 hPa 0,2 mm 12,7 km/h (3 Bft) W 271 ° 0 min 0,000 mm 0,0 UV-I 16 W/m² 9,2 °C 10,6 °C 24,1 km/h (4 Bft)
03.10.2017 09:43 10,7 °C 10,7 °C 91 % 1014,4 hPa 0,0 mm 22,9 km/h (4 Bft) W 261 ° 0 min 0,000 mm 0,0 UV-I 14 W/m² 9,3 °C 10,7 °C 33,8 km/h (5 Bft)
03.10.2017 09:44 10,6 °C 10,7 °C 91 % 1014,6 hPa 0,2 mm 11,3 km/h (2 Bft) W 267 ° 0 min 0,000 mm 0,0 UV-I 21 W/m² 9,2 °C 10,6 °C 22,5 km/h (4 Bft)
03.10.2017 09:45 10,6 °C 10,6 °C 92 % 1014,5 hPa 0,2 mm 11,1 km/h (2 Bft) W-SW 258 ° 0 min 0,000 mm 0,0 UV-I 23 W/m² 9,4 °C 10,6 °C 19,3 km/h (3 Bft)
03.10.2017 09:46 10,5 °C 10,6 °C 92 % 1014,5 hPa 0,0 mm 14,9 km/h (3 Bft) W-SW 254 ° 0 min 0,000 mm 0,0 UV-I 30 W/m² 9,3 °C 10,5 °C 19,3 km/h (3 Bft)
03.10.2017 09:47 10,5 °C 10,6 °C 92 % 1014,6 hPa 0,2 mm 16,8 km/h (3 Bft) W-NW 296 ° 0 min 0,000 mm 0,0 UV-I 37 W/m² 9,3 °C 10,5 °C 22,5 km/h (4 Bft)
03.10.2017 09:48 10,4 °C 10,5 °C 92 % 1014,5 hPa 0,2 mm 9,1 km/h (2 Bft) W-NW 288 ° 0 min 0,000 mm 0,0 UV-I 37 W/m² 9,2 °C 10,4 °C 12,9 km/h (3 Bft)
03.10.2017 09:49 10,4 °C 10,4 °C 92 % 1014,6 hPa 0,0 mm 8,4 km/h (2 Bft) W 269 ° 0 min 0,000 mm 0,0 UV-I 37 W/m² 9,2 °C 10,4 °C 12,9 km/h (3 Bft)
03.10.2017 09:50 10,4 °C 10,4 °C 92 % 1014,6 hPa 0,2 mm 10,2 km/h (2 Bft) SW 230 ° 0 min 0,000 mm 0,0 UV-I 30 W/m² 9,2 °C 10,4 °C 14,5 km/h (3 Bft)
03.10.2017 09:51 10,4 °C 10,4 °C 92 % 1014,7 hPa 0,2 mm 12,9 km/h (3 Bft) SW 223 ° 0 min 0,000 mm 0,0 UV-I 25 W/m² 9,2 °C 10,4 °C 20,9 km/h (4 Bft)
03.10.2017 09:52 10,3 °C 10,4 °C 92 % 1014,9 hPa 0,0 mm 12,7 km/h (3 Bft) W-NW 300 ° 0 min 0,000 mm 0,0 UV-I 23 W/m² 9,1 °C 10,3 °C 19,3 km/h (3 Bft)
03.10.2017 09:53 10,3 °C 10,3 °C 92 % 1015,0 hPa 0,2 mm 13,3 km/h (3 Bft) W-SW 246 ° 0 min 0,000 mm 0,0 UV-I 25 W/m² 9,1 °C 10,3 °C 19,3 km/h (3 Bft)
03.10.2017 09:54 10,3 °C 10,3 °C 92 % 1015,1 hPa 0,0 mm 12,0 km/h (2 Bft) SW 232 ° 0 min 0,000 mm 0,0 UV-I 23 W/m² 9,1 °C 10,3 °C 19,3 km/h (3 Bft)
03.10.2017 09:55 10,3 °C 10,3 °C 92 % 1015,2 hPa 0,2 mm 16,0 km/h (3 Bft) W 267 ° 0 min 0,000 mm 0,0 UV-I 26 W/m² 9,1 °C 10,3 °C 19,3 km/h (3 Bft)
03.10.2017 09:56 10,3 °C 10,3 °C 92 % 1015,3 hPa 0,0 mm 10,8 km/h (2 Bft) W-SW 258 ° 0 min 0,000 mm 0,0 UV-I 25 W/m² 9,1 °C 10,3 °C 19,3 km/h (3 Bft)
03.10.2017 09:57 10,3 °C 10,3 °C 92 % 1015,5 hPa 0,2 mm 8,4 km/h (2 Bft) W 269 ° 0 min 0,000 mm 0,0 UV-I 19 W/m² 9,1 °C 10,3 °C 14,5 km/h (3 Bft)
03.10.2017 09:58 10,3 °C 10,3 °C 92 % 1015,7 hPa 0,0 mm 11,3 km/h (2 Bft) SW 232 ° 0 min 0,000 mm 0,0 UV-I 18 W/m² 9,1 °C 10,3 °C 16,1 km/h (3 Bft)
03.10.2017 09:59 10,3 °C 10,3 °C 92 % 1015,7 hPa 0,0 mm 5,3 km/h (1 Bft) W 281 ° 0 min 0,000 mm 0,0 UV-I 18 W/m² 9,1 °C 10,3 °C 9,7 km/h (2 Bft)
03.10.2017 10:00 10,3 °C 10,3 °C 92 % 1015,8 hPa 0,0 mm 6,0 km/h (2 Bft) S 180 ° 0 min 0,000 mm 0,0 UV-I 19 W/m² 9,1 °C 10,3 °C 9,7 km/h (2 Bft)
03.10.2017 10:01 10,3 °C 10,3 °C 92 % 1015,9 hPa 0,0 mm 10,7 km/h (2 Bft) W-SW 252 ° 0 min 0,026 mm 0,0 UV-I 16 W/m² 9,1 °C 10,3 °C 16,1 km/h (3 Bft)
03.10.2017 10:02 10,2 °C 10,3 °C 93 % 1015,9 hPa 0,2 mm 8,5 km/h (2 Bft) SW 225 ° 0 min 0,000 mm 0,0 UV-I 12 W/m² 9,1 °C 10,2 °C 14,5 km/h (3 Bft)
03.10.2017 10:03 10,3 °C 10,3 °C 93 % 1015,9 hPa 0,0 mm 6,8 km/h (2 Bft) W-SW 254 ° 0 min 0,000 mm 0,0 UV-I 11 W/m² 9,2 °C 10,3 °C 11,3 km/h (2 Bft)
03.10.2017 10:04 10,2 °C 10,3 °C 93 % 1016,0 hPa 0,0 mm 3,8 km/h (1 Bft) SW 227 ° 0 min 0,000 mm 0,0 UV-I 9 W/m² 9,1 °C 10,2 °C 8,0 km/h (2 Bft)
03.10.2017 10:05 10,2 °C 10,2 °C 93 % 1015,9 hPa 0,2 mm 5,0 km/h (1 Bft) W 271 ° 0 min 0,000 mm 0,0 UV-I 7 W/m² 9,1 °C 10,2 °C 9,7 km/h (2 Bft)
03.10.2017 10:06 10,2 °C 10,2 °C 93 % 1015,9 hPa 0,0 mm 4,3 km/h (1 Bft) W-SW 244 ° 0 min 0,000 mm 0,0 UV-I 5 W/m² 9,1 °C 10,2 °C 6,4 km/h (2 Bft)
03.10.2017 10:07 10,2 °C 10,2 °C 93 % 1015,9 hPa 0,2 mm 4,2 km/h (1 Bft) W 281 ° 0 min 0,000 mm 0,0 UV-I 5 W/m² 9,1 °C 10,2 °C 6,4 km/h (2 Bft)
03.10.2017 10:08 10,2 °C 10,2 °C 93 % 1015,9 hPa 0,0 mm 4,3 km/h (1 Bft) W-SW 258 ° 0 min 0,000 mm 0,0 UV-I 7 W/m² 9,1 °C 10,2 °C 6,4 km/h (2 Bft)
03.10.2017 10:09 10,2 °C 10,2 °C 93 % 1016,0 hPa 0,2 mm 8,9 km/h (2 Bft) NW 310 ° 0 min 0,000 mm 0,0 UV-I 11 W/m² 9,1 °C 10,2 °C 14,5 km/h (3 Bft)
03.10.2017 10:10 10,2 °C 10,2 °C 93 % 1016,0 hPa 0,2 mm 6,3 km/h (2 Bft) W 281 ° 0 min 0,000 mm 0,0 UV-I 12 W/m² 9,1 °C 10,2 °C 19,3 km/h (3 Bft)
03.10.2017 10:11 10,2 °C 10,2 °C 93 % 1016,0 hPa 0,0 mm 12,0 km/h (2 Bft) W-NW 288 ° 0 min 0,000 mm 0,0 UV-I 18 W/m² 9,1 °C 10,2 °C 19,3 km/h (3 Bft)
03.10.2017 10:12 10,2 °C 10,2 °C 93 % 1016,1 hPa 0,2 mm 9,7 km/h (2 Bft) W 275 ° 0 min 0,000 mm 0,0 UV-I 21 W/m² 9,1 °C 10,2 °C 16,1 km/h (3 Bft)
03.10.2017 10:13 10,2 °C 10,2 °C 93 % 1016,0 hPa 0,0 mm 4,7 km/h (1 Bft) W 269 ° 0 min 0,000 mm 0,0 UV-I 28 W/m² 9,1 °C 10,2 °C 11,3 km/h (2 Bft)
03.10.2017 10:14 10,2 °C 10,2 °C 93 % 1016,1 hPa 0,2 mm 4,5 km/h (1 Bft) W-SW 252 ° 0 min 0,000 mm 0,0 UV-I 33 W/m² 9,1 °C 10,2 °C 6,4 km/h (2 Bft)
03.10.2017 10:15 10,2 °C 10,2 °C 93 % 1016,1 hPa 0,2 mm 2,3 km/h (1 Bft) NW 313 ° 0 min 0,000 mm 0,0 UV-I 33 W/m² 9,1 °C 10,2 °C 4,8 km/h (1 Bft)
03.10.2017 10:16 10,2 °C 10,2 °C 93 % 1016,1 hPa 0,2 mm 5,5 km/h (1 Bft) W 262 ° 0 min 0,000 mm 0,0 UV-I 28 W/m² 9,1 °C 10,2 °C 9,7 km/h (2 Bft)
03.10.2017 10:17 10,2 °C 10,2 °C 93 % 1016,1 hPa 0,0 mm 4,8 km/h (1 Bft) W-SW 244 ° 0 min 0,000 mm 0,0 UV-I 23 W/m² 9,1 °C 10,2 °C 6,4 km/h (2 Bft)
03.10.2017 10:18 10,2 °C 10,2 °C 93 % 1016,1 hPa 0,2 mm 6,2 km/h (2 Bft) W 261 ° 0 min 0,000 mm 0,0 UV-I 18 W/m² 9,1 °C 10,2 °C 9,7 km/h (2 Bft)
03.10.2017 10:19 10,2 °C 10,2 °C 93 % 1016,2 hPa 0,0 mm 2,7 km/h (1 Bft) SW 234 ° 0 min 0,000 mm 0,0 UV-I 16 W/m² 9,1 °C 10,2 °C 4,8 km/h (1 Bft)
03.10.2017 10:20 10,2 °C 10,2 °C 93 % 1016,1 hPa 0,2 mm 1,5 km/h (1 Bft) SW 234 ° 0 min 0,000 mm 0,0 UV-I 18 W/m² 9,1 °C 10,2 °C 4,8 km/h (1 Bft)
03.10.2017 10:21 10,2 °C 10,2 °C 93 % 1016,0 hPa 0,2 mm 0,9 km/h (0 Bft) SW 234 ° 0 min 0,000 mm 0,0 UV-I 23 W/m² 9,1 °C 10,2 °C 1,6 km/h (1 Bft)
03.10.2017 10:22 10,2 °C 10,2 °C 93 % 1016,0 hPa 0,0 mm 0,4 km/h (0 Bft) SW 234 ° 0 min 0,000 mm 0,0 UV-I 28 W/m² 9,1 °C 10,2 °C 1,6 km/h (1 Bft)
03.10.2017 10:23 10,2 °C 10,2 °C 93 % 1016,0 hPa 0,2 mm 0,0 km/h (0 Bft) SW 234 ° 0 min 0,000 mm 0,0 UV-I 33 W/m² 9,1 °C 10,2 °C 0,0 km/h (0 Bft)
03.10.2017 10:24 10,2 °C 10,2 °C 94 % 1016,1 hPa 0,2 mm 0,0 km/h (0 Bft) SW 234 ° 0 min 0,000 mm 0,0 UV-I 42 W/m² 9,3 °C 10,2 °C 0,0 km/h (0 Bft)
03.10.2017 10:25 10,2 °C 10,2 °C 94 % 1016,1 hPa 0,0 mm 0,7 km/h (0 Bft) S-SW 206 ° 0 min 0,000 mm 0,0 UV-I 37 W/m² 9,3 °C 10,2 °C 3,2 km/h (1 Bft)
03.10.2017 10:26 10,2 °C 10,2 °C 94 % 1016,2 hPa 0,2 mm 2,1 km/h (1 Bft) W 261 ° 0 min 0,000 mm 0,0 UV-I 46 W/m² 9,3 °C 10,2 °C 3,2 km/h (1 Bft)
03.10.2017 10:27 10,3 °C 10,3 °C 94 % 1016,2 hPa 0,0 mm 4,3 km/h (1 Bft) W-NW 288 ° 0 min 0,000 mm 0,0 UV-I 47 W/m² 9,4 °C 10,3 °C 9,7 km/h (2 Bft)
03.10.2017 10:28 10,3 °C 10,3 °C 94 % 1016,2 hPa 0,2 mm 2,4 km/h (1 Bft) W-NW 294 ° 0 min 0,000 mm 0,0 UV-I 46 W/m² 9,4 °C 10,3 °C 6,4 km/h (2 Bft)
03.10.2017 10:29 10,3 °C 10,3 °C 94 % 1016,3 hPa 0,0 mm 1,7 km/h (1 Bft) W-NW 294 ° 0 min 0,000 mm 0,0 UV-I 40 W/m² 9,4 °C 10,3 °C 3,2 km/h (1 Bft)
03.10.2017 10:30 10,3 °C 10,3 °C 94 % 1016,3 hPa 0,2 mm 1,1 km/h (1 Bft) W-NW 294 ° 0 min 0,000 mm 0,0 UV-I 35 W/m² 9,4 °C 10,3 °C 3,2 km/h (1 Bft)
03.10.2017 10:31 10,3 °C 10,3 °C 94 % 1016,3 hPa 0,0 mm 1,6 km/h (1 Bft) W-NW 300 ° 0 min 0,000 mm 0,0 UV-I 42 W/m² 9,4 °C 10,3 °C 3,2 km/h (1 Bft)
03.10.2017 10:32 10,3 °C 10,3 °C 94 % 1016,3 hPa 0,2 mm 0,0 km/h (0 Bft) W-NW 300 ° 0 min 0,000 mm 0,0 UV-I 35 W/m² 9,4 °C 10,3 °C 0,0 km/h (0 Bft)
03.10.2017 10:33 10,3 °C 10,3 °C 94 % 1016,4 hPa 0,0 mm 0,2 km/h (0 Bft) W-NW 300 ° 0 min 0,000 mm 0,0 UV-I 32 W/m² 9,4 °C 10,3 °C 1,6 km/h (1 Bft)
03.10.2017 10:34 10,3 °C 10,3 °C 94 % 1016,4 hPa 0,2 mm 2,1 km/h (1 Bft) W-SW 247 ° 0 min 0,000 mm 0,0 UV-I 37 W/m² 9,4 °C 10,3 °C 4,8 km/h (1 Bft)
03.10.2017 10:35 10,3 °C 10,3 °C 94 % 1016,3 hPa 0,0 mm 0,9 km/h (0 Bft) W 276 ° 0 min 0,000 mm 0,0 UV-I 44 W/m² 9,4 °C 10,3 °C 3,2 km/h (1 Bft)
03.10.2017 10:36 10,3 °C 10,3 °C 94 % 1016,4 hPa 0,0 mm 2,9 km/h (1 Bft) W 281 ° 0 min 0,000 mm 0,0 UV-I 46 W/m² 9,4 °C 10,3 °C 4,8 km/h (1 Bft)
03.10.2017 10:37 10,3 °C 10,3 °C 94 % 1016,3 hPa 0,2 mm 1,6 km/h (1 Bft) W 281 ° 0 min 0,000 mm 0,0 UV-I 49 W/m² 9,4 °C 10,3 °C 3,2 km/h (1 Bft)
03.10.2017 10:38 10,3 °C 10,3 °C 94 % 1016,3 hPa 0,0 mm 1,3 km/h (1 Bft) W 281 ° 0 min 0,000 mm 0,6 UV-I 56 W/m² 9,4 °C 10,3 °C 1,6 km/h (1 Bft)
03.10.2017 10:39 10,3 °C 10,3 °C 94 % 1016,4 hPa 0,0 mm 1,4 km/h (1 Bft) W 281 ° 0 min 0,000 mm 0,6 UV-I 56 W/m² 9,4 °C 10,3 °C 3,2 km/h (1 Bft)
03.10.2017 10:40 10,3 °C 10,3 °C 94 % 1016,3 hPa 0,0 mm 1,7 km/h (1 Bft) W 281 ° 0 min 0,000 mm 0,0 UV-I 53 W/m² 9,4 °C 10,3 °C 3,2 km/h (1 Bft)
03.10.2017 10:41 10,4 °C 10,4 °C 94 % 1016,5 hPa 0,2 mm 1,0 km/h (0 Bft) W 281 ° 0 min 0,000 mm 0,0 UV-I 51 W/m² 9,5 °C 10,4 °C 3,2 km/h (1 Bft)
03.10.2017 10:42 10,4 °C 10,4 °C 94 % 1016,5 hPa 0,0 mm 1,7 km/h (1 Bft) NO 36 ° 0 min 0,000 mm 0,0 UV-I 47 W/m² 9,5 °C 10,4 °C 3,2 km/h (1 Bft)
03.10.2017 10:43 10,4 °C 10,4 °C 94 % 1016,6 hPa 0,0 mm 1,0 km/h (0 Bft) NO 36 ° 0 min 0,000 mm 0,0 UV-I 47 W/m² 9,5 °C 10,4 °C 3,2 km/h (1 Bft)
03.10.2017 10:44 10,4 °C 10,4 °C 94 % 1016,6 hPa 0,0 mm 0,1 km/h (0 Bft) NO 36 ° 0 min 0,000 mm 0,0 UV-I 46 W/m² 9,5 °C 10,4 °C 1,6 km/h (1 Bft)
03.10.2017 10:45 10,4 °C 10,4 °C 94 % 1016,8 hPa 0,0 mm 0,0 km/h (0 Bft) NO 36 ° 0 min 0,000 mm 0,0 UV-I 40 W/m² 9,5 °C 10,4 °C 0,0 km/h (0 Bft)
03.10.2017 10:46 10,4 °C 10,4 °C 94 % 1016,8 hPa 0,0 mm 3,3 km/h (1 Bft) N-NW 327 ° 0 min 0,000 mm 0,0 UV-I 40 W/m² 9,5 °C 10,4 °C 4,8 km/h (1 Bft)
03.10.2017 10:47 10,4 °C 10,4 °C 94 % 1016,9 hPa 0,0 mm 3,4 km/h (1 Bft) N-NW 327 ° 0 min 0,000 mm 0,0 UV-I 44 W/m² 9,5 °C 10,4 °C 4,8 km/h (1 Bft)
03.10.2017 10:48 10,4 °C 10,4 °C 94 % 1016,9 hPa 0,0 mm 2,8 km/h (1 Bft) N 355 ° 0 min 0,000 mm 0,0 UV-I 37 W/m² 9,5 °C 10,4 °C 4,8 km/h (1 Bft)
03.10.2017 10:49 10,4 °C 10,4 °C 94 % 1017,0 hPa 0,0 mm 3,1 km/h (1 Bft) NW 326 ° 0 min 0,000 mm 0,0 UV-I 32 W/m² 9,5 °C 10,4 °C 6,4 km/h (2 Bft)
03.10.2017 10:50 10,4 °C 10,4 °C 94 % 1017,2 hPa 0,0 mm 3,5 km/h (1 Bft) NW 319 ° 0 min 0,000 mm 0,0 UV-I 32 W/m² 9,5 °C 10,4 °C 4,8 km/h (1 Bft)
03.10.2017 10:51 10,4 °C 10,4 °C 94 % 1017,2 hPa 0,0 mm 4,8 km/h (1 Bft) N 11 ° 0 min 0,000 mm 0,0 UV-I 32 W/m² 9,5 °C 10,4 °C 8,0 km/h (2 Bft)
03.10.2017 10:52 10,4 °C 10,4 °C 94 % 1017,2 hPa 0,2 mm 3,7 km/h (1 Bft) N-NO 20 ° 0 min 0,000 mm 0,0 UV-I 30 W/m² 9,5 °C 10,4 °C 4,8 km/h (1 Bft)
03.10.2017 10:53 10,4 °C 10,4 °C 94 % 1017,2 hPa 0,0 mm 1,9 km/h (1 Bft) N-NO 19 ° 0 min 0,000 mm 0,0 UV-I 30 W/m² 9,5 °C 10,4 °C 4,8 km/h (1 Bft)
03.10.2017 10:54 10,4 °C 10,4 °C 93 % 1017,3 hPa 0,0 mm 2,1 km/h (1 Bft) N-NW 342 ° 0 min 0,000 mm 0,0 UV-I 26 W/m² 9,3 °C 10,4 °C 4,8 km/h (1 Bft)
03.10.2017 10:55 10,4 °C 10,4 °C 93 % 1017,3 hPa 0,2 mm 3,1 km/h (1 Bft) NW 325 ° 0 min 0,000 mm 0,0 UV-I 26 W/m² 9,3 °C 10,4 °C 4,8 km/h (1 Bft)
03.10.2017 10:56 10,4 °C 10,4 °C 93 % 1017,4 hPa 0,0 mm 4,7 km/h (1 Bft) W-SW 258 ° 0 min 0,000 mm 0,0 UV-I 26 W/m² 9,3 °C 10,4 °C 9,7 km/h (2 Bft)
03.10.2017 10:57 10,4 °C 10,4 °C 93 % 1017,4 hPa 0,2 mm 3,2 km/h (1 Bft) W 259 ° 0 min 0,000 mm 0,0 UV-I 25 W/m² 9,3 °C 10,4 °C 4,8 km/h (1 Bft)
03.10.2017 10:58 10,4 °C 10,4 °C 93 % 1017,5 hPa 0,0 mm 3,4 km/h (1 Bft) W-NW 288 ° 0 min 0,000 mm 0,0 UV-I 25 W/m² 9,3 °C 10,4 °C 4,8 km/h (1 Bft)
03.10.2017 10:59 10,3 °C 10,4 °C 93 % 1017,5 hPa 0,2 mm 1,9 km/h (1 Bft) W-NW 288 ° 0 min 0,000 mm 0,0 UV-I 32 W/m² 9,2 °C 10,3 °C 3,2 km/h (1 Bft)
03.10.2017 11:00 10,3 °C 10,4 °C 93 % 1017,6 hPa 0,0 mm 0,7 km/h (0 Bft) W-NW 288 ° 0 min 0,000 mm 0,0 UV-I 58 W/m² 9,2 °C 10,3 °C 3,2 km/h (1 Bft)
03.10.2017 11:01 10,3 °C 10,3 °C 93 % 1017,5 hPa 0,2 mm 0,9 km/h (0 Bft) W-NW 288 ° 0 min 0,025 mm 0,6 UV-I 65 W/m² 9,2 °C 10,3 °C 1,6 km/h (1 Bft)
03.10.2017 11:02 10,3 °C 10,3 °C 93 % 1017,5 hPa 0,0 mm 1,3 km/h (1 Bft) SW 217 ° 0 min 0,000 mm 0,6 UV-I 62 W/m² 9,2 °C 10,3 °C 4,8 km/h (1 Bft)
03.10.2017 11:03 10,3 °C 10,3 °C 93 % 1017,6 hPa 0,2 mm 4,1 km/h (1 Bft) W-SW 250 ° 0 min 0,000 mm 0,0 UV-I 47 W/m² 9,2 °C 10,3 °C 6,4 km/h (2 Bft)
03.10.2017 11:04 10,3 °C 10,3 °C 93 % 1017,7 hPa 0,0 mm 5,9 km/h (2 Bft) W-SW 248 ° 0 min 0,000 mm 0,0 UV-I 49 W/m² 9,2 °C 10,3 °C 9,7 km/h (2 Bft)
03.10.2017 11:05 10,3 °C 10,3 °C 93 % 1017,7 hPa 0,0 mm 3,1 km/h (1 Bft) SW 227 ° 0 min 0,000 mm 0,7 UV-I 67 W/m² 9,2 °C 10,3 °C 4,8 km/h (1 Bft)
03.10.2017 11:06 10,3 °C 10,3 °C 93 % 1017,8 hPa 0,2 mm 10,0 km/h (2 Bft) W 269 ° 0 min 0,000 mm 0,7 UV-I 67 W/m² 9,2 °C 10,3 °C 14,5 km/h (3 Bft)
03.10.2017 11:07 10,3 °C 10,3 °C 93 % 1017,8 hPa 0,0 mm 9,8 km/h (2 Bft) W-SW 254 ° 0 min 0,000 mm 0,7 UV-I 74 W/m² 9,2 °C 10,3 °C 14,5 km/h (3 Bft)
03.10.2017 11:08 10,3 °C 10,3 °C 93 % 1017,8 hPa 0,2 mm 9,5 km/h (2 Bft) S-SW 211 ° 0 min 0,000 mm 0,7 UV-I 74 W/m² 9,2 °C 10,3 °C 14,5 km/h (3 Bft)
03.10.2017 11:09 10,2 °C 10,3 °C 93 % 1017,7 hPa 0,0 mm 8,3 km/h (2 Bft) W-SW 256 ° 0 min 0,000 mm 0,7 UV-I 70 W/m² 9,1 °C 10,2 °C 16,1 km/h (3 Bft)
03.10.2017 11:10 10,2 °C 10,2 °C 93 % 1017,8 hPa 0,0 mm 4,0 km/h (1 Bft) W-SW 258 ° 0 min 0,000 mm 0,6 UV-I 65 W/m² 9,1 °C 10,2 °C 6,4 km/h (2 Bft)
03.10.2017 11:11 10,2 °C 10,2 °C 93 % 1017,7 hPa 0,2 mm 3,4 km/h (1 Bft) W-SW 241 ° 0 min 0,000 mm 0,5 UV-I 56 W/m² 9,1 °C 10,2 °C 8,0 km/h (2 Bft)
03.10.2017 11:12 10,2 °C 10,2 °C 93 % 1017,9 hPa 0,0 mm 5,8 km/h (2 Bft) W-SW 246 ° 0 min 0,000 mm 0,0 UV-I 40 W/m² 9,1 °C 10,2 °C 8,0 km/h (2 Bft)
03.10.2017 11:13 10,2 °C 10,2 °C 93 % 1017,9 hPa 0,2 mm 8,6 km/h (2 Bft) W 265 ° 0 min 0,000 mm 0,0 UV-I 33 W/m² 9,1 °C 10,2 °C 12,9 km/h (3 Bft)
03.10.2017 11:14 10,1 °C 10,2 °C 93 % 1017,9 hPa 0,0 mm 7,0 km/h (2 Bft) W-SW 252 ° 0 min 0,000 mm 0,0 UV-I 30 W/m² 9,0 °C 10,1 °C 11,3 km/h (2 Bft)
03.10.2017 11:15 10,1 °C 10,1 °C 93 % 1017,9 hPa 0,0 mm 4,8 km/h (1 Bft) W-SW 245 ° 0 min 0,000 mm 0,0 UV-I 28 W/m² 9,0 °C 10,1 °C 9,7 km/h (2 Bft)
03.10.2017 11:16 10,1 °C 10,1 °C 93 % 1017,9 hPa 0,0 mm 6,2 km/h (2 Bft) SW 220 ° 0 min 0,000 mm 0,0 UV-I 26 W/m² 9,0 °C 10,1 °C 11,3 km/h (2 Bft)
03.10.2017 11:17 10,1 °C 10,1 °C 93 % 1018,0 hPa 0,2 mm 3,1 km/h (1 Bft) S 186 ° 0 min 0,000 mm 0,0 UV-I 25 W/m² 9,0 °C 10,1 °C 6,4 km/h (2 Bft)
03.10.2017 11:18 10,0 °C 10,1 °C 93 % 1018,0 hPa 0,0 mm 5,2 km/h (1 Bft) S-SW 196 ° 0 min 0,000 mm 0,0 UV-I 21 W/m² 8,9 °C 9,7 °C 8,0 km/h (2 Bft)
03.10.2017 11:19 9,9 °C 10,0 °C 93 % 1018,0 hPa 0,0 mm 12,1 km/h (2 Bft) W 269 ° 0 min 0,000 mm 0,0 UV-I 19 W/m² 8,8 °C 8,2 °C 17,7 km/h (3 Bft)
03.10.2017 11:20 9,9 °C 10,0 °C 93 % 1018,2 hPa 0,2 mm 9,5 km/h (2 Bft) W-NW 286 ° 0 min 0,000 mm 0,0 UV-I 19 W/m² 8,8 °C 8,6 °C 16,1 km/h (3 Bft)
03.10.2017 11:21 9,9 °C 9,9 °C 93 % 1018,2 hPa 0,0 mm 7,2 km/h (2 Bft) NW 307 ° 0 min 0,000 mm 0,0 UV-I 19 W/m² 8,8 °C 9,1 °C 16,1 km/h (3 Bft)
03.10.2017 11:22 9,9 °C 9,9 °C 93 % 1018,1 hPa 0,2 mm 6,1 km/h (2 Bft) W-SW 244 ° 0 min 0,000 mm 0,0 UV-I 18 W/m² 8,8 °C 9,3 °C 12,9 km/h (3 Bft)
03.10.2017 11:23 9,9 °C 9,9 °C 93 % 1018,1 hPa 0,0 mm 4,8 km/h (1 Bft) W 268 ° 0 min 0,000 mm 0,0 UV-I 18 W/m² 8,8 °C 9,7 °C 9,7 km/h (2 Bft)
03.10.2017 11:24 9,9 °C 9,9 °C 93 % 1018,1 hPa 0,2 mm 2,5 km/h (1 Bft) W 267 ° 0 min 0,000 mm 0,0 UV-I 18 W/m² 8,8 °C 9,9 °C 4,8 km/h (1 Bft)
03.10.2017 11:25 9,8 °C 9,9 °C 93 % 1018,0 hPa 0,2 mm 5,3 km/h (1 Bft) W 273 ° 0 min 0,000 mm 0,0 UV-I 18 W/m² 8,7 °C 9,4 °C 9,7 km/h (2 Bft)
03.10.2017 11:26 9,8 °C 9,9 °C 93 % 1018,0 hPa 0,0 mm 3,8 km/h (1 Bft) S 177 ° 0 min 0,000 mm 0,0 UV-I 19 W/m² 8,7 °C 9,8 °C 8,0 km/h (2 Bft)
03.10.2017 11:27 9,8 °C 9,8 °C 93 % 1018,0 hPa 0,2 mm 2,6 km/h (1 Bft) S-SW 204 ° 0 min 0,000 mm 0,0 UV-I 21 W/m² 8,7 °C 9,8 °C 6,4 km/h (2 Bft)
03.10.2017 11:28 9,7 °C 9,8 °C 93 % 1018,0 hPa 0,2 mm 3,2 km/h (1 Bft) W-SW 248 ° 0 min 0,000 mm 0,0 UV-I 21 W/m² 8,6 °C 9,7 °C 6,4 km/h (2 Bft)
03.10.2017 11:29 9,7 °C 9,7 °C 93 % 1018,1 hPa 0,0 mm 5,7 km/h (1 Bft) W-SW 242 ° 0 min 0,000 mm 0,0 UV-I 23 W/m² 8,6 °C 9,2 °C 8,0 km/h (2 Bft)
03.10.2017 11:30 9,7 °C 9,7 °C 93 % 1018,2 hPa 0,2 mm 4,3 km/h (1 Bft) W-SW 242 ° 0 min 0,000 mm 0,0 UV-I 25 W/m² 8,6 °C 9,7 °C 8,0 km/h (2 Bft)
03.10.2017 11:31 9,7 °C 9,7 °C 93 % 1018,3 hPa 0,2 mm 1,9 km/h (1 Bft) W 267 ° 0 min 0,000 mm 0,0 UV-I 26 W/m² 8,6 °C 9,7 °C 6,4 km/h (2 Bft)
03.10.2017 11:32 9,7 °C 9,7 °C 93 % 1018,2 hPa 0,0 mm 6,8 km/h (2 Bft) W-SW 240 ° 0 min 0,000 mm 0,0 UV-I 26 W/m² 8,6 °C 8,9 °C 12,9 km/h (3 Bft)
03.10.2017 11:33 9,7 °C 9,7 °C 93 % 1018,2 hPa 0,2 mm 4,0 km/h (1 Bft) S-SW 205 ° 0 min 0,000 mm 0,0 UV-I 28 W/m² 8,6 °C 9,7 °C 6,4 km/h (2 Bft)
03.10.2017 11:34 9,6 °C 9,7 °C 93 % 1018,1 hPa 0,2 mm 2,6 km/h (1 Bft) SW 219 ° 0 min 0,000 mm 0,0 UV-I 30 W/m² 8,5 °C 9,6 °C 4,8 km/h (1 Bft)
03.10.2017 11:35 9,6 °C 9,7 °C 93 % 1018,1 hPa 0,0 mm 1,8 km/h (1 Bft) S-SW 211 ° 0 min 0,000 mm 0,0 UV-I 26 W/m² 8,5 °C 9,6 °C 3,2 km/h (1 Bft)
03.10.2017 11:36 9,6 °C 9,6 °C 93 % 1018,1 hPa 0,2 mm 4,1 km/h (1 Bft) S-SW 192 ° 0 min 0,000 mm 0,0 UV-I 25 W/m² 8,5 °C 9,6 °C 6,4 km/h (2 Bft)
03.10.2017 11:37 9,6 °C 9,6 °C 93 % 1018,1 hPa 0,2 mm 2,1 km/h (1 Bft) S-SW 192 ° 0 min 0,000 mm 0,0 UV-I 25 W/m² 8,5 °C 9,6 °C 4,8 km/h (1 Bft)
03.10.2017 11:38 9,6 °C 9,6 °C 93 % 1018,0 hPa 0,2 mm 4,2 km/h (1 Bft) S-SO 166 ° 0 min 0,000 mm 0,0 UV-I 25 W/m² 8,5 °C 9,6 °C 8,0 km/h (2 Bft)
03.10.2017 11:39 9,6 °C 9,6 °C 93 % 1018,0 hPa 0,0 mm 3,7 km/h (1 Bft) W 259 ° 0 min 0,000 mm 0,0 UV-I 26 W/m² 8,5 °C 9,6 °C 6,4 km/h (2 Bft)
03.10.2017 11:40 9,6 °C 9,6 °C 93 % 1018,0 hPa 0,2 mm 4,6 km/h (1 Bft) W-SW 253 ° 0 min 0,000 mm 0,0 UV-I 32 W/m² 8,5 °C 9,4 °C 11,3 km/h (2 Bft)
03.10.2017 11:41 9,6 °C 9,6 °C 93 % 1017,9 hPa 0,2 mm 5,8 km/h (2 Bft) S 186 ° 0 min 0,000 mm 0,0 UV-I 40 W/m² 8,5 °C 9,1 °C 14,5 km/h (3 Bft)
03.10.2017 11:42 9,6 °C 9,6 °C 93 % 1017,9 hPa 0,0 mm 6,7 km/h (2 Bft) S-SW 206 ° 0 min 0,000 mm 0,0 UV-I 44 W/m² 8,5 °C 8,8 °C 14,5 km/h (3 Bft)
03.10.2017 11:43 9,6 °C 9,6 °C 93 % 1017,8 hPa 0,2 mm 6,7 km/h (2 Bft) W 278 ° 0 min 0,000 mm 0,0 UV-I 44 W/m² 8,5 °C 8,8 °C 14,5 km/h (3 Bft)
03.10.2017 11:44 9,6 °C 9,6 °C 93 % 1017,7 hPa 0,2 mm 5,0 km/h (1 Bft) SW 214 ° 0 min 0,000 mm 0,0 UV-I 40 W/m² 8,5 °C 9,3 °C 8,0 km/h (2 Bft)
03.10.2017 11:45 9,6 °C 9,6 °C 93 % 1017,5 hPa 0,0 mm 3,4 km/h (1 Bft) W 264 ° 0 min 0,000 mm 0,0 UV-I 37 W/m² 8,5 °C 9,6 °C 6,4 km/h (2 Bft)
03.10.2017 11:46 9,6 °C 9,6 °C 93 % 1017,4 hPa 0,2 mm 4,4 km/h (1 Bft) W-SW 237 ° 0 min 0,000 mm 0,0 UV-I 35 W/m² 8,5 °C 9,6 °C 8,0 km/h (2 Bft)
03.10.2017 11:47 9,6 °C 9,6 °C 93 % 1017,3 hPa 0,2 mm 5,0 km/h (1 Bft) SW 214 ° 0 min 0,000 mm 0,0 UV-I 30 W/m² 8,5 °C 9,3 °C 16,1 km/h (3 Bft)
03.10.2017 11:48 9,5 °C 9,6 °C 93 % 1017,4 hPa 0,0 mm 5,4 km/h (1 Bft) S-SW 206 ° 0 min 0,000 mm 0,0 UV-I 26 W/m² 8,4 °C 9,1 °C 9,7 km/h (2 Bft)
03.10.2017 11:49 9,4 °C 9,5 °C 93 % 1017,5 hPa 0,2 mm 3,5 km/h (1 Bft) W-NW 286 ° 0 min 0,000 mm 0,0 UV-I 28 W/m² 8,3 °C 9,4 °C 4,8 km/h (1 Bft)
03.10.2017 11:50 9,5 °C 9,5 °C 93 % 1017,6 hPa 0,0 mm 5,3 km/h (1 Bft) W-NW 284 ° 0 min 0,000 mm 0,0 UV-I 33 W/m² 8,4 °C 9,1 °C 8,0 km/h (2 Bft)
03.10.2017 11:51 9,5 °C 9,5 °C 93 % 1017,7 hPa 0,2 mm 5,8 km/h (2 Bft) W 263 ° 0 min 0,000 mm 0,0 UV-I 42 W/m² 8,4 °C 9,0 °C 14,5 km/h (3 Bft)
03.10.2017 11:52 9,5 °C 9,5 °C 93 % 1017,6 hPa 0,0 mm 7,2 km/h (2 Bft) W 272 ° 0 min 0,000 mm 0,0 UV-I 53 W/m² 8,4 °C 8,6 °C 11,3 km/h (2 Bft)
03.10.2017 11:53 9,6 °C 9,6 °C 92 % 1017,6 hPa 0,2 mm 5,2 km/h (1 Bft) W-SW 252 ° 0 min 0,000 mm 0,6 UV-I 63 W/m² 8,4 °C 9,2 °C 9,7 km/h (2 Bft)
03.10.2017 11:54 9,6 °C 9,6 °C 93 % 1017,6 hPa 0,0 mm 2,5 km/h (1 Bft) W-SW 255 ° 0 min 0,000 mm 0,6 UV-I 63 W/m² 8,5 °C 9,6 °C 3,2 km/h (1 Bft)
03.10.2017 11:55 9,6 °C 9,6 °C 93 % 1017,6 hPa 0,2 mm 2,8 km/h (1 Bft) W 261 ° 0 min 0,000 mm 0,6 UV-I 63 W/m² 8,5 °C 9,6 °C 3,2 km/h (1 Bft)
03.10.2017 11:56 9,6 °C 9,6 °C 93 % 1017,6 hPa 0,0 mm 2,3 km/h (1 Bft) W 261 ° 0 min 0,000 mm 0,6 UV-I 65 W/m² 8,5 °C 9,6 °C 3,2 km/h (1 Bft)
03.10.2017 11:57 9,6 °C 9,6 °C 93 % 1017,5 hPa 0,0 mm 0,0 km/h (0 Bft) W 261 ° 0 min 0,000 mm 0,6 UV-I 62 W/m² 8,5 °C 9,6 °C 0,0 km/h (0 Bft)
03.10.2017 11:58 9,6 °C 9,6 °C 93 % 1017,6 hPa 0,2 mm 2,5 km/h (1 Bft) W 265 ° 0 min 0,000 mm 0,0 UV-I 54 W/m² 8,5 °C 9,6 °C 6,4 km/h (2 Bft)
03.10.2017 11:59 9,6 °C 9,6 °C 93 % 1017,7 hPa 0,0 mm 5,3 km/h (1 Bft) W-NW 291 ° 0 min 0,000 mm 0,0 UV-I 54 W/m² 8,5 °C 9,2 °C 9,7 km/h (2 Bft)
03.10.2017 12:00 9,6 °C 9,6 °C 93 % 1017,8 hPa 0,0 mm 3,4 km/h (1 Bft) W-NW 293 ° 0 min 0,000 mm 0,0 UV-I 53 W/m² 8,5 °C 9,6 °C 4,8 km/h (1 Bft)
03.10.2017 12:01 9,6 °C 9,6 °C 93 % 1017,9 hPa 0,0 mm 1,5 km/h (1 Bft) W-NW 294 ° 0 min 0,026 mm 0,0 UV-I 53 W/m² 8,5 °C 9,6 °C 4,8 km/h (1 Bft)
03.10.2017 12:02 9,6 °C 9,6 °C 93 % 1017,8 hPa 0,0 mm 1,2 km/h (1 Bft) NW 308 ° 0 min 0,000 mm 0,0 UV-I 53 W/m² 8,5 °C 9,6 °C 1,6 km/h (1 Bft)
03.10.2017 12:03 9,6 °C 9,6 °C 93 % 1017,8 hPa 0,0 mm 2,4 km/h (1 Bft) W-NW 283 ° 0 min 0,000 mm 0,0 UV-I 54 W/m² 8,5 °C 9,6 °C 4,8 km/h (1 Bft)
03.10.2017 12:04 9,6 °C 9,6 °C 93 % 1017,8 hPa 0,0 mm 5,3 km/h (1 Bft) W-SW 258 ° 0 min 0,000 mm 0,5 UV-I 62 W/m² 8,5 °C 9,2 °C 8,0 km/h (2 Bft)
03.10.2017 12:05 9,6 °C 9,6 °C 93 % 1017,8 hPa 0,0 mm 2,4 km/h (1 Bft) W-NW 286 ° 0 min 0,000 mm 0,6 UV-I 62 W/m² 8,5 °C 9,6 °C 4,8 km/h (1 Bft)
03.10.2017 12:06 9,6 °C 9,6 °C 93 % 1017,9 hPa 0,0 mm 1,3 km/h (1 Bft) W-NW 286 ° 0 min 0,000 mm 0,0 UV-I 53 W/m² 8,5 °C 9,6 °C 3,2 km/h (1 Bft)
03.10.2017 12:07 9,6 °C 9,6 °C 93 % 1017,9 hPa 0,0 mm 3,0 km/h (1 Bft) W-SW 246 ° 0 min 0,000 mm 0,0 UV-I 44 W/m² 8,5 °C 9,6 °C 4,8 km/h (1 Bft)
03.10.2017 12:08 9,6 °C 9,6 °C 93 % 1017,9 hPa 0,0 mm 2,7 km/h (1 Bft) W 267 ° 0 min 0,000 mm 0,0 UV-I 44 W/m² 8,5 °C 9,6 °C 4,8 km/h (1 Bft)
03.10.2017 12:09 9,6 °C 9,6 °C 93 % 1017,9 hPa 0,0 mm 1,9 km/h (1 Bft) W 267 ° 0 min 0,000 mm 0,0 UV-I 49 W/m² 8,5 °C 9,6 °C 3,2 km/h (1 Bft)
03.10.2017 12:10 9,6 °C 9,6 °C 93 % 1017,8 hPa 0,0 mm 0,7 km/h (0 Bft) W 267 ° 0 min 0,000 mm 0,0 UV-I 51 W/m² 8,5 °C 9,6 °C 1,6 km/h (1 Bft)
03.10.2017 12:11 9,6 °C 9,6 °C 93 % 1017,8 hPa 0,0 mm 3,0 km/h (1 Bft) W 267 ° 0 min 0,000 mm 0,5 UV-I 65 W/m² 8,5 °C 9,6 °C 4,8 km/h (1 Bft)
03.10.2017 12:12 9,6 °C 9,6 °C 93 % 1017,8 hPa 0,0 mm 2,1 km/h (1 Bft) W 267 ° 0 min 0,000 mm 0,7 UV-I 74 W/m² 8,5 °C 9,6 °C 3,2 km/h (1 Bft)
03.10.2017 12:13 9,6 °C 9,7 °C 93 % 1017,8 hPa 0,0 mm 0,3 km/h (0 Bft) W 267 ° 0 min 0,000 mm 0,9 UV-I 93 W/m² 8,5 °C 9,6 °C 3,2 km/h (1 Bft)
03.10.2017 12:14 9,7 °C 9,7 °C 93 % 1017,7 hPa 0,0 mm 0,0 km/h (0 Bft) W 267 ° 0 min 0,000 mm 1,1 UV-I 123 W/m² 8,6 °C 9,7 °C 0,0 km/h (0 Bft)
03.10.2017 12:15 9,7 °C 9,7 °C 93 % 1017,8 hPa 0,0 mm 0,9 km/h (0 Bft) W 267 ° 0 min 0,000 mm 1,2 UV-I 137 W/m² 8,6 °C 9,7 °C 3,2 km/h (1 Bft)
03.10.2017 12:16 9,8 °C 9,8 °C 94 % 1017,9 hPa 0,0 mm 2,4 km/h (1 Bft) W 271 ° 0 min 0,000 mm 1,1 UV-I 100 W/m² 8,9 °C 9,8 °C 3,2 km/h (1 Bft)
03.10.2017 12:17 9,8 °C 9,8 °C 94 % 1018,0 hPa 0,0 mm 4,4 km/h (1 Bft) W-NW 286 ° 0 min 0,000 mm 0,9 UV-I 81 W/m² 8,9 °C 9,8 °C 6,4 km/h (2 Bft)
03.10.2017 12:18 9,9 °C 9,9 °C 94 % 1018,2 hPa 0,0 mm 3,2 km/h (1 Bft) W-NW 286 ° 0 min 0,000 mm 0,7 UV-I 72 W/m² 9,0 °C 9,9 °C 4,8 km/h (1 Bft)
03.10.2017 12:19 9,9 °C 9,9 °C 94 % 1018,2 hPa 0,0 mm 2,2 km/h (1 Bft) W-NW 286 ° 0 min 0,000 mm 0,8 UV-I 79 W/m² 9,0 °C 9,9 °C 3,2 km/h (1 Bft)
03.10.2017 12:20 9,9 °C 9,9 °C 93 % 1018,2 hPa 0,0 mm 1,6 km/h (1 Bft) W-NW 288 ° 0 min 0,000 mm 0,8 UV-I 83 W/m² 8,8 °C 9,9 °C 4,8 km/h (1 Bft)
03.10.2017 12:21 9,9 °C 9,9 °C 93 % 1018,2 hPa 0,0 mm 3,6 km/h (1 Bft) W-NW 284 ° 0 min 0,000 mm 0,8 UV-I 86 W/m² 8,8 °C 9,9 °C 4,8 km/h (1 Bft)
03.10.2017 12:22 9,9 °C 9,9 °C 93 % 1018,3 hPa 0,0 mm 4,0 km/h (1 Bft) NW 304 ° 0 min 0,000 mm 0,8 UV-I 91 W/m² 8,8 °C 9,9 °C 6,4 km/h (2 Bft)
03.10.2017 12:23 9,9 °C 9,9 °C 93 % 1018,3 hPa 0,0 mm 2,7 km/h (1 Bft) W 267 ° 0 min 0,000 mm 0,8 UV-I 91 W/m² 8,8 °C 9,9 °C 4,8 km/h (1 Bft)
03.10.2017 12:24 9,9 °C 9,9 °C 93 % 1018,2 hPa 0,0 mm 3,3 km/h (1 Bft) S-SW 213 ° 0 min 0,000 mm 1,0 UV-I 102 W/m² 8,8 °C 9,9 °C 4,8 km/h (1 Bft)
03.10.2017 12:25 9,9 °C 9,9 °C 93 % 1018,2 hPa 0,0 mm 3,4 km/h (1 Bft) W-NW 284 ° 0 min 0,000 mm 1,0 UV-I 125 W/m² 8,8 °C 9,9 °C 6,4 km/h (2 Bft)
03.10.2017 12:26 9,9 °C 9,9 °C 93 % 1018,2 hPa 0,0 mm 4,7 km/h (1 Bft) W-SW 253 ° 0 min 0,000 mm 1,4 UV-I 148 W/m² 8,8 °C 9,7 °C 6,4 km/h (2 Bft)
03.10.2017 12:27 10,0 °C 10,0 °C 93 % 1018,1 hPa 0,0 mm 1,6 km/h (1 Bft) SW 232 ° 0 min 0,000 mm 1,6 UV-I 165 W/m² 8,9 °C 10,0 °C 3,2 km/h (1 Bft)
03.10.2017 12:28 10,1 °C 10,1 °C 93 % 1018,0 hPa 0,0 mm 2,6 km/h (1 Bft) SW 219 ° 0 min 0,000 mm 1,7 UV-I 199 W/m² 9,0 °C 10,1 °C 6,4 km/h (2 Bft)
03.10.2017 12:29 10,1 °C 10,1 °C 93 % 1018,1 hPa 0,0 mm 2,8 km/h (1 Bft) SW 233 ° 0 min 0,000 mm 1,9 UV-I 206 W/m² 9,0 °C 10,1 °C 4,8 km/h (1 Bft)
03.10.2017 12:30 10,2 °C 10,2 °C 93 % 1018,1 hPa 0,0 mm 3,0 km/h (1 Bft) W-SW 241 ° 0 min 0,000 mm 2,0 UV-I 209 W/m² 9,1 °C 10,2 °C 4,8 km/h (1 Bft)
03.10.2017 12:31 10,2 °C 10,2 °C 93 % 1018,2 hPa 0,0 mm 1,8 km/h (1 Bft) W 270 ° 0 min 0,000 mm 2,1 UV-I 209 W/m² 9,1 °C 10,2 °C 4,8 km/h (1 Bft)
03.10.2017 12:32 10,3 °C 10,3 °C 93 % 1018,2 hPa 0,0 mm 3,4 km/h (1 Bft) W 263 ° 0 min 0,000 mm 2,2 UV-I 230 W/m² 9,2 °C 10,3 °C 4,8 km/h (1 Bft)
03.10.2017 12:33 10,4 °C 10,4 °C 93 % 1018,2 hPa 0,0 mm 4,6 km/h (1 Bft) W 278 ° 0 min 0,000 mm 2,3 UV-I 227 W/m² 9,3 °C 10,4 °C 11,3 km/h (2 Bft)
03.10.2017 12:34 10,5 °C 10,5 °C 93 % 1018,3 hPa 0,0 mm 6,5 km/h (2 Bft) W 281 ° 0 min 0,000 mm 2,1 UV-I 207 W/m² 9,4 °C 10,5 °C 11,3 km/h (2 Bft)
03.10.2017 12:35 10,6 °C 10,6 °C 93 % 1018,3 hPa 0,0 mm 8,2 km/h (2 Bft) W-SW 245 ° 0 min 0,000 mm 2,4 UV-I 239 W/m² 9,5 °C 10,6 °C 11,3 km/h (2 Bft)
03.10.2017 12:36 10,7 °C 10,7 °C 93 % 1018,3 hPa 0,0 mm 7,7 km/h (2 Bft) W 260 ° 1 min 0,000 mm 2,8 UV-I 301 W/m² 9,6 °C 10,7 °C 12,9 km/h (3 Bft)
03.10.2017 12:37 10,7 °C 10,7 °C 93 % 1018,2 hPa 0,0 mm 5,0 km/h (1 Bft) W 260 ° 0 min 0,000 mm 2,4 UV-I 287 W/m² 9,6 °C 10,7 °C 9,7 km/h (2 Bft)
03.10.2017 12:38 10,8 °C 10,8 °C 92 % 1018,2 hPa 0,0 mm 7,2 km/h (2 Bft) W 265 ° 0 min 0,000 mm 2,3 UV-I 232 W/m² 9,6 °C 10,8 °C 14,5 km/h (3 Bft)
03.10.2017 12:39 10,8 °C 10,8 °C 92 % 1018,2 hPa 0,0 mm 6,2 km/h (2 Bft) SW 233 ° 0 min 0,000 mm 2,4 UV-I 230 W/m² 9,6 °C 10,8 °C 11,3 km/h (2 Bft)
03.10.2017 12:40 10,9 °C 10,9 °C 92 % 1018,2 hPa 0,0 mm 9,5 km/h (2 Bft) W-SW 258 ° 0 min 0,000 mm 2,5 UV-I 274 W/m² 9,7 °C 10,9 °C 17,7 km/h (3 Bft)
03.10.2017 12:41 11,1 °C 11,1 °C 92 % 1018,3 hPa 0,0 mm 6,8 km/h (2 Bft) W 263 ° 0 min 0,000 mm 4,1 UV-I 274 W/m² 9,8 °C 11,1 °C 12,9 km/h (3 Bft)
03.10.2017 12:42 11,3 °C 11,3 °C 93 % 1018,2 hPa 0,0 mm 8,0 km/h (2 Bft) W-SW 257 ° 0 min 0,000 mm 4,1 UV-I 274 W/m² 10,2 °C 11,3 °C 11,3 km/h (2 Bft)
03.10.2017 12:43 11,4 °C 11,4 °C 92 % 1018,2 hPa 0,0 mm 8,9 km/h (2 Bft) W-NW 292 ° 1 min 0,000 mm 3,9 UV-I 492 W/m² 10,1 °C 11,4 °C 12,9 km/h (3 Bft)
03.10.2017 12:44 11,5 °C 11,5 °C 92 % 1018,2 hPa 0,0 mm 6,8 km/h (2 Bft) W-NW 283 ° 1 min 0,000 mm 3,6 UV-I 492 W/m² 10,2 °C 11,5 °C 12,9 km/h (3 Bft)
03.10.2017 12:45 11,6 °C 11,6 °C 92 % 1018,2 hPa 0,0 mm 8,4 km/h (2 Bft) W 260 ° 1 min 0,000 mm 4,1 UV-I 629 W/m² 10,3 °C 11,6 °C 12,9 km/h (3 Bft)
03.10.2017 12:46 11,7 °C 11,7 °C 92 % 1018,1 hPa 0,0 mm 7,0 km/h (2 Bft) W-SW 248 ° 1 min 0,000 mm 3,1 UV-I 629 W/m² 10,4 °C 11,7 °C 11,3 km/h (2 Bft)
03.10.2017 12:47 11,7 °C 11,7 °C 91 % 1018,1 hPa 0,0 mm 8,2 km/h (2 Bft) W 270 ° 0 min 0,000 mm 2,3 UV-I 220 W/m² 10,3 °C 11,7 °C 11,3 km/h (2 Bft)
03.10.2017 12:48 11,7 °C 11,7 °C 91 % 1018,2 hPa 0,0 mm 6,0 km/h (2 Bft) W 269 ° 0 min 0,000 mm 2,3 UV-I 230 W/m² 10,3 °C 11,7 °C 11,3 km/h (2 Bft)
03.10.2017 12:49 11,7 °C 11,7 °C 90 % 1018,2 hPa 0,0 mm 10,1 km/h (2 Bft) W-SW 251 ° 0 min 0,000 mm 2,3 UV-I 230 W/m² 10,1 °C 11,7 °C 14,5 km/h (3 Bft)
03.10.2017 12:50 11,6 °C 11,7 °C 90 % 1018,2 hPa 0,0 mm 10,3 km/h (2 Bft) SW 236 ° 0 min 0,000 mm 2,3 UV-I 241 W/m² 10,0 °C 11,6 °C 19,3 km/h (3 Bft)
03.10.2017 12:51 11,6 °C 11,6 °C 90 % 1018,2 hPa 0,0 mm 8,2 km/h (2 Bft) W 269 ° 0 min 0,000 mm 2,2 UV-I 232 W/m² 10,0 °C 11,6 °C 11,3 km/h (2 Bft)
03.10.2017 12:52 11,5 °C 11,6 °C 90 % 1018,2 hPa 0,0 mm 11,5 km/h (2 Bft) W-SW 239 ° 0 min 0,000 mm 2,2 UV-I 236 W/m² 9,9 °C 11,5 °C 17,7 km/h (3 Bft)
03.10.2017 12:53 11,4 °C 11,5 °C 90 % 1018,2 hPa 0,0 mm 8,7 km/h (2 Bft) W-SW 253 ° 0 min 0,000 mm 2,1 UV-I 227 W/m² 9,8 °C 11,4 °C 14,5 km/h (3 Bft)
03.10.2017 12:54 11,4 °C 11,4 °C 89 % 1018,3 hPa 0,0 mm 8,5 km/h (2 Bft) W 261 ° 0 min 0,000 mm 1,9 UV-I 218 W/m² 9,7 °C 11,4 °C 14,5 km/h (3 Bft)
03.10.2017 12:55 11,4 °C 11,4 °C 90 % 1018,3 hPa 0,0 mm 8,6 km/h (2 Bft) W 267 ° 0 min 0,000 mm 1,8 UV-I 213 W/m² 9,8 °C 11,4 °C 11,3 km/h (2 Bft)
03.10.2017 12:56 11,4 °C 11,4 °C 91 % 1018,4 hPa 0,0 mm 3,8 km/h (1 Bft) W 259 ° 0 min 0,000 mm 1,8 UV-I 213 W/m² 10,0 °C 11,4 °C 6,4 km/h (2 Bft)
03.10.2017 12:57 11,4 °C 11,4 °C 91 % 1018,5 hPa 0,0 mm 6,2 km/h (2 Bft) W 265 ° 0 min 0,000 mm 1,7 UV-I 185 W/m² 10,0 °C 11,4 °C 14,5 km/h (3 Bft)
03.10.2017 12:58 11,4 °C 11,4 °C 91 % 1018,5 hPa 0,0 mm 10,1 km/h (2 Bft) W 268 ° 0 min 0,000 mm 1,5 UV-I 176 W/m² 10,0 °C 11,4 °C 12,9 km/h (3 Bft)
03.10.2017 12:59 11,4 °C 11,4 °C 91 % 1018,4 hPa 0,0 mm 4,1 km/h (1 Bft) W 259 ° 0 min 0,000 mm 1,6 UV-I 186 W/m² 10,0 °C 11,4 °C 9,7 km/h (2 Bft)
03.10.2017 13:00 11,3 °C 11,4 °C 90 % 1018,4 hPa 0,0 mm 7,6 km/h (2 Bft) W-SW 246 ° 0 min 0,000 mm 1,8 UV-I 207 W/m² 9,7 °C 11,3 °C 12,9 km/h (3 Bft)
03.10.2017 13:01 11,3 °C 11,4 °C 90 % 1018,4 hPa 0,0 mm 13,5 km/h (3 Bft) W 263 ° 0 min 0,101 mm 1,8 UV-I 211 W/m² 9,7 °C 11,3 °C 17,7 km/h (3 Bft)
03.10.2017 13:02 11,3 °C 11,3 °C 91 % 1018,5 hPa 0,0 mm 7,8 km/h (2 Bft) W-NW 286 ° 0 min 0,000 mm 1,6 UV-I 193 W/m² 9,9 °C 11,3 °C 12,9 km/h (3 Bft)
03.10.2017 13:03 11,3 °C 11,3 °C 91 % 1018,5 hPa 0,0 mm 7,1 km/h (2 Bft) W 271 ° 0 min 0,000 mm 1,6 UV-I 232 W/m² 9,9 °C 11,3 °C 11,3 km/h (2 Bft)
03.10.2017 13:04 11,3 °C 11,3 °C 90 % 1018,5 hPa 0,0 mm 9,9 km/h (2 Bft) W-NW 285 ° 1 min 0,000 mm 1,9 UV-I 301 W/m² 9,7 °C 11,3 °C 17,7 km/h (3 Bft)
03.10.2017 13:05 11,3 °C 11,3 °C 90 % 1018,5 hPa 0,0 mm 8,0 km/h (2 Bft) W 266 ° 0 min 0,000 mm 1,6 UV-I 213 W/m² 9,7 °C 11,3 °C 14,5 km/h (3 Bft)
03.10.2017 13:06 11,3 °C 11,3 °C 91 % 1018,6 hPa 0,0 mm 4,3 km/h (1 Bft) W-NW 302 ° 0 min 0,000 mm 1,4 UV-I 171 W/m² 9,9 °C 11,3 °C 6,4 km/h (2 Bft)
03.10.2017 13:07 11,3 °C 11,3 °C 91 % 1018,5 hPa 0,0 mm 8,6 km/h (2 Bft) W 269 ° 0 min 0,000 mm 1,4 UV-I 156 W/m² 9,9 °C 11,3 °C 16,1 km/h (3 Bft)
03.10.2017 13:08 11,3 °C 11,3 °C 90 % 1018,5 hPa 0,0 mm 12,3 km/h (3 Bft) W-SW 242 ° 0 min 0,000 mm 1,4 UV-I 153 W/m² 9,7 °C 11,3 °C 19,3 km/h (3 Bft)
03.10.2017 13:09 11,2 °C 11,3 °C 90 % 1018,6 hPa 0,0 mm 12,6 km/h (3 Bft) W 267 ° 0 min 0,000 mm 1,3 UV-I 128 W/m² 9,6 °C 11,2 °C 17,7 km/h (3 Bft)
03.10.2017 13:10 11,1 °C 11,2 °C 89 % 1018,5 hPa 0,0 mm 14,9 km/h (3 Bft) W-NW 295 ° 0 min 0,000 mm 1,2 UV-I 127 W/m² 9,4 °C 11,1 °C 20,9 km/h (4 Bft)
03.10.2017 13:11 11,0 °C 11,1 °C 89 % 1018,5 hPa 0,0 mm 13,3 km/h (3 Bft) W-NW 296 ° 0 min 0,000 mm 1,2 UV-I 139 W/m² 9,3 °C 11,0 °C 19,3 km/h (3 Bft)
03.10.2017 13:12 10,9 °C 11,0 °C 89 % 1018,6 hPa 0,0 mm 7,2 km/h (2 Bft) W 281 ° 0 min 0,000 mm 1,2 UV-I 146 W/m² 9,2 °C 10,9 °C 12,9 km/h (3 Bft)
03.10.2017 13:13 10,9 °C 10,9 °C 90 % 1018,5 hPa 0,0 mm 8,9 km/h (2 Bft) W 273 ° 0 min 0,000 mm 1,3 UV-I 158 W/m² 9,3 °C 10,9 °C 12,9 km/h (3 Bft)
03.10.2017 13:14 10,9 °C 10,9 °C 90 % 1018,5 hPa 0,0 mm 11,9 km/h (2 Bft) W 278 ° 0 min 0,000 mm 1,5 UV-I 197 W/m² 9,3 °C 10,9 °C 19,3 km/h (3 Bft)
03.10.2017 13:15 10,8 °C 10,9 °C 90 % 1018,6 hPa 0,0 mm 8,2 km/h (2 Bft) W-SW 247 ° 0 min 0,000 mm 1,6 UV-I 227 W/m² 9,2 °C 10,8 °C 14,5 km/h (3 Bft)
03.10.2017 13:16 10,8 °C 10,9 °C 90 % 1018,5 hPa 0,0 mm 4,4 km/h (1 Bft) W 263 ° 0 min 0,000 mm 1,6 UV-I 236 W/m² 9,2 °C 10,8 °C 9,7 km/h (2 Bft)
03.10.2017 13:17 10,9 °C 10,9 °C 90 % 1018,5 hPa 0,0 mm 15,1 km/h (3 Bft) W 261 ° 0 min 0,000 mm 1,7 UV-I 244 W/m² 9,3 °C 10,9 °C 19,3 km/h (3 Bft)
03.10.2017 13:18 10,9 °C 10,9 °C 90 % 1018,5 hPa 0,0 mm 13,3 km/h (3 Bft) W 280 ° 0 min 0,000 mm 1,7 UV-I 237 W/m² 9,3 °C 10,9 °C 17,7 km/h (3 Bft)
03.10.2017 13:19 10,9 °C 10,9 °C 90 % 1018,5 hPa 0,0 mm 6,2 km/h (2 Bft) W-SW 257 ° 0 min 0,000 mm 1,5 UV-I 221 W/m² 9,3 °C 10,9 °C 11,3 km/h (2 Bft)
03.10.2017 13:20 10,9 °C 10,9 °C 91 % 1018,5 hPa 0,0 mm 4,7 km/h (1 Bft) W-NW 294 ° 0 min 0,000 mm 1,4 UV-I 192 W/m² 9,5 °C 10,9 °C 6,4 km/h (2 Bft)
03.10.2017 13:21 10,9 °C 11,0 °C 91 % 1018,5 hPa 0,0 mm 6,6 km/h (2 Bft) W-SW 253 ° 0 min 0,000 mm 1,4 UV-I 171 W/m² 9,5 °C 10,9 °C 11,3 km/h (2 Bft)
03.10.2017 13:22 10,9 °C 11,0 °C 90 % 1018,5 hPa 0,0 mm 4,9 km/h (1 Bft) W 267 ° 0 min 0,000 mm 1,2 UV-I 162 W/m² 9,3 °C 10,9 °C 8,0 km/h (2 Bft)
03.10.2017 13:23 11,0 °C 11,0 °C 91 % 1018,4 hPa 0,0 mm 3,9 km/h (1 Bft) W-SW 246 ° 0 min 0,000 mm 1,2 UV-I 156 W/m² 9,6 °C 11,0 °C 8,0 km/h (2 Bft)
03.10.2017 13:24 11,0 °C 11,0 °C 91 % 1018,5 hPa 0,0 mm 3,8 km/h (1 Bft) W 263 ° 0 min 0,000 mm 1,1 UV-I 142 W/m² 9,6 °C 11,0 °C 6,4 km/h (2 Bft)
03.10.2017 13:25 11,1 °C 11,1 °C 91 % 1018,4 hPa 0,0 mm 2,7 km/h (1 Bft) W 274 ° 0 min 0,000 mm 1,1 UV-I 132 W/m² 9,7 °C 11,1 °C 3,2 km/h (1 Bft)
03.10.2017 13:26 11,1 °C 11,1 °C 92 % 1018,4 hPa 0,0 mm 4,2 km/h (1 Bft) W 273 ° 0 min 0,000 mm 1,1 UV-I 130 W/m² 9,8 °C 11,1 °C 6,4 km/h (2 Bft)
03.10.2017 13:27 11,2 °C 11,2 °C 92 % 1018,4 hPa 0,0 mm 7,2 km/h (2 Bft) W 263 ° 0 min 0,000 mm 1,1 UV-I 130 W/m² 9,9 °C 11,2 °C 11,3 km/h (2 Bft)
03.10.2017 13:28 11,1 °C 11,2 °C 92 % 1018,4 hPa 0,0 mm 5,8 km/h (2 Bft) W 270 ° 0 min 0,000 mm 1,1 UV-I 134 W/m² 9,8 °C 11,1 °C 8,0 km/h (2 Bft)
03.10.2017 13:29 11,1 °C 11,1 °C 92 % 1018,5 hPa 0,0 mm 4,2 km/h (1 Bft) W 276 ° 0 min 0,000 mm 1,1 UV-I 137 W/m² 9,8 °C 11,1 °C 9,7 km/h (2 Bft)
03.10.2017 13:30 11,1 °C 11,1 °C 92 % 1018,5 hPa 0,0 mm 5,3 km/h (1 Bft) SW 233 ° 0 min 0,000 mm 1,3 UV-I 155 W/m² 9,8 °C 11,1 °C 12,9 km/h (3 Bft)
03.10.2017 13:31 11,0 °C 11,1 °C 91 % 1018,5 hPa 0,0 mm 5,0 km/h (1 Bft) W 263 ° 0 min 0,000 mm 1,3 UV-I 167 W/m² 9,6 °C 11,0 °C 8,0 km/h (2 Bft)
03.10.2017 13:32 11,0 °C 11,0 °C 92 % 1018,5 hPa 0,0 mm 4,6 km/h (1 Bft) W-SW 245 ° 0 min 0,000 mm 1,3 UV-I 169 W/m² 9,8 °C 11,0 °C 8,0 km/h (2 Bft)
03.10.2017 13:33 11,0 °C 11,0 °C 91 % 1018,5 hPa 0,0 mm 4,3 km/h (1 Bft) S-SW 192 ° 0 min 0,000 mm 1,3 UV-I 156 W/m² 9,6 °C 11,0 °C 6,4 km/h (2 Bft)
03.10.2017 13:34 10,9 °C 11,0 °C 92 % 1018,5 hPa 0,0 mm 6,2 km/h (2 Bft) W-SW 242 ° 0 min 0,000 mm 1,3 UV-I 156 W/m² 9,7 °C 10,9 °C 12,9 km/h (3 Bft)
03.10.2017 13:35 11,0 °C 11,0 °C 92 % 1018,4 hPa 0,0 mm 4,1 km/h (1 Bft) W 263 ° 0 min 0,000 mm 1,4 UV-I 163 W/m² 9,8 °C 11,0 °C 6,4 km/h (2 Bft)
03.10.2017 13:36 11,1 °C 11,1 °C 92 % 1018,4 hPa 0,0 mm 3,8 km/h (1 Bft) NW 324 ° 0 min 0,000 mm 1,4 UV-I 167 W/m² 9,8 °C 11,1 °C 4,8 km/h (1 Bft)
03.10.2017 13:37 11,1 °C 11,1 °C 92 % 1018,4 hPa 0,0 mm 5,0 km/h (1 Bft) W-NW 283 ° 0 min 0,000 mm 1,5 UV-I 169 W/m² 9,8 °C 11,1 °C 6,4 km/h (2 Bft)
03.10.2017 13:38 11,1 °C 11,1 °C 92 % 1018,4 hPa 0,0 mm 5,9 km/h (2 Bft) W 261 ° 0 min 0,000 mm 1,5 UV-I 176 W/m² 9,8 °C 11,1 °C 9,7 km/h (2 Bft)
03.10.2017 13:39 11,1 °C 11,1 °C 92 % 1018,3 hPa 0,0 mm 2,6 km/h (1 Bft) W 261 ° 0 min 0,000 mm 1,5 UV-I 181 W/m² 9,8 °C 11,1 °C 4,8 km/h (1 Bft)
03.10.2017 13:40 11,1 °C 11,1 °C 92 % 1018,3 hPa 0,0 mm 1,5 km/h (1 Bft) W 261 ° 0 min 0,000 mm 1,6 UV-I 186 W/m² 9,8 °C 11,1 °C 3,2 km/h (1 Bft)
03.10.2017 13:41 11,1 °C 11,1 °C 92 % 1018,4 hPa 0,0 mm 4,7 km/h (1 Bft) W 271 ° 0 min 0,000 mm 1,7 UV-I 186 W/m² 9,8 °C 11,1 °C 6,4 km/h (2 Bft)
03.10.2017 13:42 11,1 °C 11,1 °C 92 % 1018,4 hPa 0,0 mm 3,6 km/h (1 Bft) W 279 ° 0 min 0,000 mm 1,7 UV-I 186 W/m² 9,8 °C 11,1 °C 6,4 km/h (2 Bft)
03.10.2017 13:43 11,2 °C 11,2 °C 92 % 1018,4 hPa 0,0 mm 1,7 km/h (1 Bft) W 279 ° 0 min 0,000 mm 1,7 UV-I 197 W/m² 9,9 °C 11,2 °C 3,2 km/h (1 Bft)
03.10.2017 13:44 11,2 °C 11,2 °C 92 % 1018,5 hPa 0,0 mm 0,6 km/h (0 Bft) W 279 ° 0 min 0,000 mm 1,8 UV-I 209 W/m² 9,9 °C 11,2 °C 1,6 km/h (1 Bft)
03.10.2017 13:45 11,2 °C 11,2 °C 92 % 1018,5 hPa 0,0 mm 3,7 km/h (1 Bft) W 277 ° 0 min 0,000 mm 1,8 UV-I 223 W/m² 9,9 °C 11,2 °C 8,0 km/h (2 Bft)
03.10.2017 13:46 11,2 °C 11,3 °C 92 % 1018,4 hPa 0,0 mm 6,4 km/h (2 Bft) W 261 ° 0 min 0,000 mm 2,0 UV-I 227 W/m² 9,9 °C 11,2 °C 11,3 km/h (2 Bft)
03.10.2017 13:47 11,3 °C 11,3 °C 92 % 1018,4 hPa 0,0 mm 4,2 km/h (1 Bft) W-SW 241 ° 0 min 0,000 mm 2,1 UV-I 244 W/m² 10,0 °C 11,3 °C 6,4 km/h (2 Bft)
03.10.2017 13:48 11,3 °C 11,3 °C 92 % 1018,4 hPa 0,0 mm 4,2 km/h (1 Bft) W 262 ° 0 min 0,000 mm 2,2 UV-I 276 W/m² 10,0 °C 11,3 °C 6,4 km/h (2 Bft)
03.10.2017 13:49 11,3 °C 11,3 °C 92 % 1018,4 hPa 0,0 mm 2,3 km/h (1 Bft) W 262 ° 0 min 0,000 mm 2,1 UV-I 253 W/m² 10,0 °C 11,3 °C 4,8 km/h (1 Bft)
03.10.2017 13:50 11,4 °C 11,4 °C 92 % 1018,4 hPa 0,0 mm 3,3 km/h (1 Bft) W-NW 286 ° 0 min 0,000 mm 1,9 UV-I 195 W/m² 10,1 °C 11,4 °C 9,7 km/h (2 Bft)
03.10.2017 13:51 11,4 °C 11,4 °C 92 % 1018,5 hPa 0,0 mm 4,7 km/h (1 Bft) W 263 ° 0 min 0,000 mm 1,8 UV-I 197 W/m² 10,1 °C 11,4 °C 9,7 km/h (2 Bft)
03.10.2017 13:52 11,4 °C 11,4 °C 92 % 1018,5 hPa 0,0 mm 7,3 km/h (2 Bft) W-NW 289 ° 0 min 0,000 mm 1,7 UV-I 193 W/m² 10,1 °C 11,4 °C 11,3 km/h (2 Bft)
03.10.2017 13:53 11,4 °C 11,4 °C 91 % 1018,5 hPa 0,0 mm 4,9 km/h (1 Bft) W-SW 245 ° 0 min 0,000 mm 1,7 UV-I 178 W/m² 10,0 °C 11,4 °C 9,7 km/h (2 Bft)
03.10.2017 13:54 11,3 °C 11,4 °C 91 % 1018,5 hPa 0,0 mm 3,8 km/h (1 Bft) W 259 ° 0 min 0,000 mm 1,6 UV-I 167 W/m² 9,9 °C 11,3 °C 6,4 km/h (2 Bft)
03.10.2017 13:55 11,3 °C 11,3 °C 91 % 1018,4 hPa 0,0 mm 8,4 km/h (2 Bft) W 268 ° 0 min 0,000 mm 1,4 UV-I 146 W/m² 9,9 °C 11,3 °C 11,3 km/h (2 Bft)
03.10.2017 13:56 11,3 °C 11,3 °C 91 % 1018,5 hPa 0,0 mm 6,6 km/h (2 Bft) W 273 ° 0 min 0,000 mm 1,3 UV-I 137 W/m² 9,9 °C 11,3 °C 11,3 km/h (2 Bft)
03.10.2017 13:57 11,4 °C 11,4 °C 91 % 1018,5 hPa 0,0 mm 6,0 km/h (2 Bft) W 273 ° 0 min 0,000 mm 1,1 UV-I 123 W/m² 10,0 °C 11,4 °C 9,7 km/h (2 Bft)
03.10.2017 13:58 11,3 °C 11,4 °C 92 % 1018,5 hPa 0,0 mm 4,4 km/h (1 Bft) W-NW 294 ° 0 min 0,000 mm 1,0 UV-I 98 W/m² 10,0 °C 11,3 °C 6,4 km/h (2 Bft)
03.10.2017 13:59 11,3 °C 11,4 °C 91 % 1018,5 hPa 0,0 mm 1,8 km/h (1 Bft) W-NW 294 ° 0 min 0,000 mm 0,9 UV-I 90 W/m² 9,9 °C 11,3 °C 4,8 km/h (1 Bft)
03.10.2017 14:00 11,3 °C 11,3 °C 91 % 1018,5 hPa 0,0 mm 4,5 km/h (1 Bft) W 274 ° 0 min 0,000 mm 0,9 UV-I 95 W/m² 9,9 °C 11,3 °C 6,4 km/h (2 Bft)
03.10.2017 14:01 11,3 °C 11,3 °C 91 % 1018,5 hPa 0,0 mm 5,3 km/h (1 Bft) W 265 ° 0 min 0,102 mm 1,0 UV-I 116 W/m² 9,9 °C 11,3 °C 9,7 km/h (2 Bft)
03.10.2017 14:02 11,2 °C 11,3 °C 91 % 1018,6 hPa 0,0 mm 5,2 km/h (1 Bft) S-SW 205 ° 0 min 0,000 mm 1,2 UV-I 142 W/m² 9,8 °C 11,2 °C 9,7 km/h (2 Bft)
03.10.2017 14:03 11,2 °C 11,2 °C 91 % 1018,6 hPa 0,0 mm 7,8 km/h (2 Bft) W 267 ° 0 min 0,000 mm 0,7 UV-I 84 W/m² 9,8 °C 11,2 °C 12,9 km/h (3 Bft)
03.10.2017 14:04 11,1 °C 11,2 °C 90 % 1018,6 hPa 0,0 mm 8,9 km/h (2 Bft) W-NW 299 ° 0 min 0,000 mm 0,0 UV-I 51 W/m² 9,5 °C 11,1 °C 14,5 km/h (3 Bft)
03.10.2017 14:05 11,0 °C 11,1 °C 91 % 1018,6 hPa 0,0 mm 6,9 km/h (2 Bft) W-NW 300 ° 0 min 0,000 mm 0,0 UV-I 51 W/m² 9,6 °C 11,0 °C 9,7 km/h (2 Bft)
03.10.2017 14:06 10,9 °C 11,0 °C 90 % 1018,6 hPa 0,0 mm 7,8 km/h (2 Bft) W 270 ° 0 min 0,000 mm 0,6 UV-I 63 W/m² 9,3 °C 10,9 °C 14,5 km/h (3 Bft)
03.10.2017 14:07 10,9 °C 10,9 °C 90 % 1018,6 hPa 0,0 mm 7,6 km/h (2 Bft) W 272 ° 0 min 0,000 mm 0,7 UV-I 65 W/m² 9,3 °C 10,9 °C 16,1 km/h (3 Bft)
03.10.2017 14:08 10,8 °C 10,9 °C 90 % 1018,6 hPa 0,0 mm 13,2 km/h (3 Bft) W 265 ° 0 min 0,000 mm 0,8 UV-I 102 W/m² 9,2 °C 10,8 °C 19,3 km/h (3 Bft)
03.10.2017 14:09 10,8 °C 10,8 °C 90 % 1018,6 hPa 0,0 mm 10,3 km/h (2 Bft) W-NW 301 ° 0 min 0,000 mm 0,7 UV-I 77 W/m² 9,2 °C 10,8 °C 19,3 km/h (3 Bft)
03.10.2017 14:10 10,7 °C 10,8 °C 90 % 1018,6 hPa 0,0 mm 13,7 km/h (3 Bft) W-SW 254 ° 0 min 0,000 mm 0,0 UV-I 54 W/m² 9,1 °C 10,7 °C 17,7 km/h (3 Bft)
03.10.2017 14:11 10,7 °C 10,7 °C 89 % 1018,7 hPa 0,0 mm 14,0 km/h (3 Bft) W 275 ° 0 min 0,000 mm 0,0 UV-I 44 W/m² 9,0 °C 10,7 °C 20,9 km/h (4 Bft)
03.10.2017 14:12 10,6 °C 10,7 °C 89 % 1018,7 hPa 0,0 mm 7,4 km/h (2 Bft) N-NW 334 ° 0 min 0,000 mm 0,0 UV-I 39 W/m² 8,9 °C 10,6 °C 14,5 km/h (3 Bft)
03.10.2017 14:13 10,6 °C 10,6 °C 90 % 1018,8 hPa 0,0 mm 6,8 km/h (2 Bft) W-SW 242 ° 0 min 0,000 mm 0,0 UV-I 83 W/m² 9,0 °C 10,6 °C 9,7 km/h (2 Bft)
03.10.2017 14:14 10,5 °C 10,6 °C 90 % 1018,7 hPa 0,0 mm 3,3 km/h (1 Bft) W-NW 292 ° 0 min 0,000 mm 0,7 UV-I 93 W/m² 8,9 °C 10,5 °C 6,4 km/h (2 Bft)
03.10.2017 14:15 10,4 °C 10,5 °C 91 % 1018,7 hPa 0,0 mm 6,3 km/h (2 Bft) W 269 ° 0 min 0,000 mm 0,7 UV-I 76 W/m² 9,0 °C 10,4 °C 8,0 km/h (2 Bft)
03.10.2017 14:16 10,4 °C 10,4 °C 91 % 1018,8 hPa 0,0 mm 8,7 km/h (2 Bft) W 281 ° 0 min 0,000 mm 0,0 UV-I 54 W/m² 9,0 °C 10,4 °C 12,9 km/h (3 Bft)
03.10.2017 14:17 10,4 °C 10,4 °C 91 % 1018,9 hPa 0,0 mm 6,6 km/h (2 Bft) W 269 ° 0 min 0,000 mm 0,0 UV-I 54 W/m² 9,0 °C 10,4 °C 12,9 km/h (3 Bft)
03.10.2017 14:18 10,4 °C 10,4 °C 91 % 1018,9 hPa 0,0 mm 6,9 km/h (2 Bft) W 267 ° 0 min 0,000 mm 0,6 UV-I 60 W/m² 9,0 °C 10,4 °C 14,5 km/h (3 Bft)
03.10.2017 14:19 10,4 °C 10,4 °C 91 % 1018,9 hPa 0,0 mm 11,5 km/h (2 Bft) W 260 ° 0 min 0,000 mm 0,6 UV-I 60 W/m² 9,0 °C 10,4 °C 16,1 km/h (3 Bft)
03.10.2017 14:20 10,3 °C 10,4 °C 91 % 1018,9 hPa 0,0 mm 6,5 km/h (2 Bft) SW 227 ° 0 min 0,000 mm 0,8 UV-I 72 W/m² 8,9 °C 10,3 °C 11,3 km/h (2 Bft)
03.10.2017 14:21 10,3 °C 10,3 °C 91 % 1018,9 hPa 0,0 mm 7,3 km/h (2 Bft) W 259 ° 0 min 0,000 mm 0,9 UV-I 90 W/m² 8,9 °C 10,3 °C 12,9 km/h (3 Bft)
03.10.2017 14:22 10,3 °C 10,3 °C 91 % 1018,9 hPa 0,0 mm 9,8 km/h (2 Bft) W 271 ° 0 min 0,000 mm 1,0 UV-I 97 W/m² 8,9 °C 10,3 °C 14,5 km/h (3 Bft)
03.10.2017 14:23 10,3 °C 10,3 °C 91 % 1018,9 hPa 0,0 mm 4,8 km/h (1 Bft) W-NW 286 ° 0 min 0,000 mm 1,0 UV-I 93 W/m² 8,9 °C 10,3 °C 9,7 km/h (2 Bft)
03.10.2017 14:24 10,3 °C 10,3 °C 91 % 1018,9 hPa 0,0 mm 6,0 km/h (2 Bft) W-NW 298 ° 0 min 0,000 mm 1,0 UV-I 97 W/m² 8,9 °C 10,3 °C 11,3 km/h (2 Bft)
03.10.2017 14:25 10,3 °C 10,3 °C 91 % 1018,9 hPa 0,0 mm 6,9 km/h (2 Bft) W 261 ° 0 min 0,000 mm 1,0 UV-I 121 W/m² 8,9 °C 10,3 °C 14,5 km/h (3 Bft)
03.10.2017 14:26 10,3 °C 10,3 °C 91 % 1018,8 hPa 0,0 mm 6,5 km/h (2 Bft) W-NW 286 ° 0 min 0,000 mm 1,1 UV-I 132 W/m² 8,9 °C 10,3 °C 11,3 km/h (2 Bft)
03.10.2017 14:27 10,3 °C 10,3 °C 91 % 1018,9 hPa 0,0 mm 5,6 km/h (1 Bft) W 271 ° 0 min 0,000 mm 1,2 UV-I 141 W/m² 8,9 °C 10,3 °C 11,3 km/h (2 Bft)
03.10.2017 14:28 10,3 °C 10,3 °C 92 % 1018,8 hPa 0,0 mm 9,7 km/h (2 Bft) W 273 ° 0 min 0,000 mm 1,2 UV-I 153 W/m² 9,1 °C 10,3 °C 17,7 km/h (3 Bft)
03.10.2017 14:29 10,3 °C 10,3 °C 91 % 1018,8 hPa 0,0 mm 6,6 km/h (2 Bft) W 273 ° 0 min 0,000 mm 1,3 UV-I 181 W/m² 8,9 °C 10,3 °C 11,3 km/h (2 Bft)
03.10.2017 14:30 10,3 °C 10,3 °C 91 % 1018,9 hPa 0,0 mm 6,9 km/h (2 Bft) W-NW 285 ° 0 min 0,000 mm 1,5 UV-I 218 W/m² 8,9 °C 10,3 °C 11,3 km/h (2 Bft)
03.10.2017 14:31 10,3 °C 10,3 °C 91 % 1018,8 hPa 0,0 mm 6,3 km/h (2 Bft) W-NW 301 ° 0 min 0,000 mm 1,7 UV-I 223 W/m² 8,9 °C 10,3 °C 11,3 km/h (2 Bft)
03.10.2017 14:32 10,4 °C 10,4 °C 91 % 1018,8 hPa 0,0 mm 3,4 km/h (1 Bft) W 281 ° 0 min 0,000 mm 1,4 UV-I 185 W/m² 9,0 °C 10,4 °C 4,8 km/h (1 Bft)
03.10.2017 14:33 10,4 °C 10,4 °C 92 % 1018,8 hPa 0,0 mm 6,1 km/h (2 Bft) W 273 ° 0 min 0,000 mm 1,2 UV-I 153 W/m² 9,2 °C 10,4 °C 11,3 km/h (2 Bft)
03.10.2017 14:34 10,5 °C 10,5 °C 92 % 1018,8 hPa 0,0 mm 8,4 km/h (2 Bft) W-NW 286 ° 0 min 0,000 mm 1,0 UV-I 123 W/m² 9,3 °C 10,5 °C 11,3 km/h (2 Bft)
03.10.2017 14:35 10,5 °C 10,5 °C 92 % 1018,8 hPa 0,0 mm 5,7 km/h (1 Bft) W 278 ° 0 min 0,000 mm 0,8 UV-I 100 W/m² 9,3 °C 10,5 °C 9,7 km/h (2 Bft)
03.10.2017 14:36 10,6 °C 10,6 °C 92 % 1018,8 hPa 0,0 mm 7,8 km/h (2 Bft) W 263 ° 0 min 0,000 mm 0,7 UV-I 88 W/m² 9,4 °C 10,6 °C 11,3 km/h (2 Bft)
03.10.2017 14:37 10,6 °C 10,6 °C 92 % 1018,8 hPa 0,0 mm 5,2 km/h (1 Bft) S-SW 200 ° 0 min 0,000 mm 0,8 UV-I 91 W/m² 9,4 °C 10,6 °C 6,4 km/h (2 Bft)
03.10.2017 14:38 10,6 °C 10,6 °C 92 % 1018,8 hPa 0,0 mm 1,9 km/h (1 Bft) W-NW 292 ° 0 min 0,000 mm 0,7 UV-I 79 W/m² 9,4 °C 10,6 °C 4,8 km/h (1 Bft)
03.10.2017 14:39 10,5 °C 10,6 °C 92 % 1018,8 hPa 0,0 mm 4,4 km/h (1 Bft) S-SW 205 ° 0 min 0,000 mm 0,6 UV-I 69 W/m² 9,3 °C 10,5 °C 6,4 km/h (2 Bft)
03.10.2017 14:40 10,4 °C 10,5 °C 91 % 1018,8 hPa 0,0 mm 5,9 km/h (2 Bft) W 271 ° 0 min 0,000 mm 0,6 UV-I 69 W/m² 9,0 °C 10,4 °C 14,5 km/h (3 Bft)
03.10.2017 14:41 10,4 °C 10,4 °C 92 % 1018,9 hPa 0,0 mm 9,1 km/h (2 Bft) W 260 ° 0 min 0,000 mm 0,7 UV-I 86 W/m² 9,2 °C 10,4 °C 14,5 km/h (3 Bft)
03.10.2017 14:42 10,4 °C 10,4 °C 92 % 1018,9 hPa 0,0 mm 8,5 km/h (2 Bft) W-SW 258 ° 0 min 0,000 mm 0,7 UV-I 97 W/m² 9,2 °C 10,4 °C 12,9 km/h (3 Bft)
03.10.2017 14:43 10,4 °C 10,4 °C 92 % 1018,9 hPa 0,0 mm 5,2 km/h (1 Bft) W 271 ° 0 min 0,000 mm 0,7 UV-I 97 W/m² 9,2 °C 10,4 °C 11,3 km/h (2 Bft)
03.10.2017 14:44 10,4 °C 10,4 °C 92 % 1018,9 hPa 0,0 mm 5,6 km/h (1 Bft) W-SW 257 ° 0 min 0,000 mm 0,6 UV-I 84 W/m² 9,2 °C 10,4 °C 8,0 km/h (2 Bft)
03.10.2017 14:45 10,4 °C 10,4 °C 92 % 1018,9 hPa 0,0 mm 7,1 km/h (2 Bft) W-SW 252 ° 0 min 0,000 mm 0,6 UV-I 84 W/m² 9,2 °C 10,4 °C 11,3 km/h (2 Bft)
03.10.2017 14:46 10,4 °C 10,4 °C 92 % 1018,9 hPa 0,0 mm 3,4 km/h (1 Bft) W-NW 292 ° 0 min 0,000 mm 0,8 UV-I 107 W/m² 9,2 °C 10,4 °C 4,8 km/h (1 Bft)
03.10.2017 14:47 10,4 °C 10,4 °C 92 % 1019,0 hPa 0,2 mm 4,9 km/h (1 Bft) W 269 ° 0 min 0,000 mm 1,1 UV-I 139 W/m² 9,2 °C 10,4 °C 9,7 km/h (2 Bft)
03.10.2017 14:48 10,3 °C 10,4 °C 92 % 1018,9 hPa 0,0 mm 8,6 km/h (2 Bft) W-NW 289 ° 0 min 0,000 mm 1,3 UV-I 176 W/m² 9,1 °C 10,3 °C 12,9 km/h (3 Bft)
03.10.2017 14:49 10,4 °C 10,4 °C 92 % 1018,9 hPa 0,0 mm 3,6 km/h (1 Bft) W-NW 290 ° 0 min 0,000 mm 1,4 UV-I 209 W/m² 9,2 °C 10,4 °C 4,8 km/h (1 Bft)
03.10.2017 14:50 10,4 °C 10,4 °C 93 % 1018,8 hPa 0,0 mm 4,1 km/h (1 Bft) W-NW 285 ° 0 min 0,000 mm 1,5 UV-I 209 W/m² 9,3 °C 10,4 °C 6,4 km/h (2 Bft)
03.10.2017 14:51 10,6 °C 10,6 °C 93 % 1018,9 hPa 0,0 mm 4,3 km/h (1 Bft) W 265 ° 0 min 0,000 mm 1,3 UV-I 192 W/m² 9,5 °C 10,6 °C 6,4 km/h (2 Bft)
03.10.2017 14:52 10,6 °C 10,6 °C 93 % 1018,8 hPa 0,0 mm 4,4 km/h (1 Bft) W-SW 257 ° 0 min 0,000 mm 0,9 UV-I 139 W/m² 9,5 °C 10,6 °C 6,4 km/h (2 Bft)
03.10.2017 14:53 10,6 °C 10,6 °C 93 % 1019,0 hPa 0,0 mm 4,9 km/h (1 Bft) W-NW 285 ° 0 min 0,000 mm 0,7 UV-I 93 W/m² 9,5 °C 10,6 °C 6,4 km/h (2 Bft)
03.10.2017 14:54 10,6 °C 10,6 °C 93 % 1019,0 hPa 0,0 mm 3,6 km/h (1 Bft) NW 319 ° 0 min 0,000 mm 0,6 UV-I 77 W/m² 9,5 °C 10,6 °C 6,4 km/h (2 Bft)
03.10.2017 14:55 10,6 °C 10,6 °C 93 % 1019,0 hPa 0,0 mm 4,9 km/h (1 Bft) NW 312 ° 0 min 0,000 mm 0,6 UV-I 81 W/m² 9,5 °C 10,6 °C 8,0 km/h (2 Bft)
03.10.2017 14:56 10,5 °C 10,6 °C 93 % 1019,1 hPa 0,2 mm 5,6 km/h (1 Bft) NW 325 ° 0 min 0,000 mm 0,6 UV-I 83 W/m² 9,4 °C 10,5 °C 8,0 km/h (2 Bft)
03.10.2017 14:57 10,4 °C 10,5 °C 92 % 1019,1 hPa 0,0 mm 5,0 km/h (1 Bft) NW 323 ° 0 min 0,000 mm 0,7 UV-I 90 W/m² 9,2 °C 10,4 °C 6,4 km/h (2 Bft)
03.10.2017 14:58 10,4 °C 10,4 °C 93 % 1019,1 hPa 0,0 mm 3,0 km/h (1 Bft) W-NW 300 ° 0 min 0,000 mm 0,8 UV-I 102 W/m² 9,3 °C 10,4 °C 4,8 km/h (1 Bft)
03.10.2017 14:59 10,4 °C 10,4 °C 93 % 1019,1 hPa 0,0 mm 3,9 km/h (1 Bft) N-NW 329 ° 0 min 0,000 mm 0,8 UV-I 113 W/m² 9,3 °C 10,4 °C 8,0 km/h (2 Bft)
03.10.2017 15:00 10,4 °C 10,4 °C 93 % 1019,1 hPa 0,2 mm 3,8 km/h (1 Bft) NW 317 ° 0 min 0,000 mm 0,7 UV-I 84 W/m² 9,3 °C 10,4 °C 8,0 km/h (2 Bft)
03.10.2017 15:01 10,3 °C 10,4 °C 93 % 1019,1 hPa 0,0 mm 2,9 km/h (1 Bft) NW 304 ° 0 min 0,051 mm 0,6 UV-I 79 W/m² 9,2 °C 10,3 °C 4,8 km/h (1 Bft)
03.10.2017 15:02 10,3 °C 10,3 °C 93 % 1019,2 hPa 0,0 mm 4,7 km/h (1 Bft) W-NW 290 ° 0 min 0,000 mm 0,7 UV-I 84 W/m² 9,2 °C 10,3 °C 6,4 km/h (2 Bft)
03.10.2017 15:03 10,3 °C 10,3 °C 93 % 1019,2 hPa 0,0 mm 3,3 km/h (1 Bft) N-NW 331 ° 0 min 0,000 mm 0,6 UV-I 76 W/m² 9,2 °C 10,3 °C 4,8 km/h (1 Bft)
03.10.2017 15:04 10,3 °C 10,3 °C 93 % 1019,2 hPa 0,0 mm 2,1 km/h (1 Bft) NW 324 ° 0 min 0,000 mm 0,5 UV-I 60 W/m² 9,2 °C 10,3 °C 4,8 km/h (1 Bft)
03.10.2017 15:05 10,3 °C 10,3 °C 93 % 1019,2 hPa 0,0 mm 4,1 km/h (1 Bft) N-NW 344 ° 0 min 0,000 mm 0,0 UV-I 54 W/m² 9,2 °C 10,3 °C 6,4 km/h (2 Bft)
03.10.2017 15:06 10,3 °C 10,3 °C 93 % 1019,2 hPa 0,0 mm 1,5 km/h (1 Bft) N 360 ° 0 min 0,000 mm 0,5 UV-I 63 W/m² 9,2 °C 10,3 °C 4,8 km/h (1 Bft)
03.10.2017 15:07 10,3 °C 10,3 °C 93 % 1019,2 hPa 0,0 mm 3,9 km/h (1 Bft) N-NW 334 ° 0 min 0,000 mm 0,5 UV-I 69 W/m² 9,2 °C 10,3 °C 6,4 km/h (2 Bft)
03.10.2017 15:08 10,3 °C 10,3 °C 93 % 1019,2 hPa 0,0 mm 5,9 km/h (2 Bft) N-NW 337 ° 0 min 0,000 mm 0,7 UV-I 79 W/m² 9,2 °C 10,3 °C 9,7 km/h (2 Bft)
03.10.2017 15:09 10,3 °C 10,3 °C 93 % 1019,2 hPa 0,0 mm 3,4 km/h (1 Bft) N-NW 327 ° 0 min 0,000 mm 0,7 UV-I 88 W/m² 9,2 °C 10,3 °C 8,0 km/h (2 Bft)
03.10.2017 15:10 10,2 °C 10,3 °C 93 % 1019,2 hPa 0,0 mm 1,5 km/h (1 Bft) NW 317 ° 0 min 0,000 mm 0,7 UV-I 91 W/m² 9,1 °C 10,2 °C 4,8 km/h (1 Bft)
03.10.2017 15:11 10,2 °C 10,2 °C 93 % 1019,2 hPa 0,0 mm 3,2 km/h (1 Bft) W-NW 295 ° 0 min 0,000 mm 0,8 UV-I 107 W/m² 9,1 °C 10,2 °C 4,8 km/h (1 Bft)
03.10.2017 15:12 10,3 °C 10,3 °C 93 % 1019,2 hPa 0,0 mm 3,4 km/h (1 Bft) NW 306 ° 0 min 0,000 mm 1,0 UV-I 207 W/m² 9,2 °C 10,3 °C 4,8 km/h (1 Bft)
03.10.2017 15:13 10,3 °C 10,3 °C 93 % 1019,2 hPa 0,0 mm 6,0 km/h (2 Bft) W-NW 284 ° 0 min 0,000 mm 1,6 UV-I 244 W/m² 9,2 °C 10,3 °C 11,3 km/h (2 Bft)
03.10.2017 15:14 10,3 °C 10,3 °C 93 % 1019,2 hPa 0,0 mm 3,7 km/h (1 Bft) W 277 ° 0 min 0,000 mm 1,5 UV-I 183 W/m² 9,2 °C 10,3 °C 6,4 km/h (2 Bft)
03.10.2017 15:15 10,4 °C 10,4 °C 93 % 1019,2 hPa 0,0 mm 5,1 km/h (1 Bft) W-SW 257 ° 0 min 0,000 mm 1,2 UV-I 128 W/m² 9,3 °C 10,4 °C 8,0 km/h (2 Bft)
03.10.2017 15:16 10,4 °C 10,4 °C 93 % 1019,3 hPa 0,0 mm 3,5 km/h (1 Bft) W 281 ° 0 min 0,000 mm 1,1 UV-I 97 W/m² 9,3 °C 10,4 °C 6,4 km/h (2 Bft)
03.10.2017 15:17 10,4 °C 10,4 °C 93 % 1019,3 hPa 0,0 mm 8,1 km/h (2 Bft) W 259 ° 0 min 0,000 mm 1,0 UV-I 79 W/m² 9,3 °C 10,4 °C 14,5 km/h (3 Bft)
03.10.2017 15:18 10,6 °C 10,6 °C 93 % 1019,3 hPa 0,0 mm 6,2 km/h (2 Bft) W-NW 288 ° 0 min 0,000 mm 0,9 UV-I 83 W/m² 9,5 °C 10,6 °C 8,0 km/h (2 Bft)
03.10.2017 15:19 10,6 °C 10,6 °C 93 % 1019,4 hPa 0,0 mm 10,6 km/h (2 Bft) W-SW 247 ° 0 min 0,000 mm 1,0 UV-I 93 W/m² 9,5 °C 10,6 °C 14,5 km/h (3 Bft)
03.10.2017 15:20 10,6 °C 10,6 °C 93 % 1019,3 hPa 0,0 mm 6,7 km/h (2 Bft) W-SW 251 ° 0 min 0,000 mm 1,0 UV-I 98 W/m² 9,5 °C 10,6 °C 9,7 km/h (2 Bft)
03.10.2017 15:21 10,5 °C 10,6 °C 92 % 1019,3 hPa 0,0 mm 6,0 km/h (2 Bft) W-SW 254 ° 0 min 0,000 mm 1,0 UV-I 100 W/m² 9,3 °C 10,5 °C 8,0 km/h (2 Bft)
03.10.2017 15:22 10,5 °C 10,5 °C 92 % 1019,3 hPa 0,0 mm 3,6 km/h (1 Bft) W-NW 288 ° 0 min 0,000 mm 0,9 UV-I 100 W/m² 9,3 °C 10,5 °C 6,4 km/h (2 Bft)
03.10.2017 15:23 10,4 °C 10,5 °C 92 % 1019,3 hPa 0,0 mm 4,5 km/h (1 Bft) W-NW 298 ° 0 min 0,000 mm 0,9 UV-I 97 W/m² 9,2 °C 10,4 °C 9,7 km/h (2 Bft)
03.10.2017 15:24 10,4 °C 10,4 °C 92 % 1019,2 hPa 0,0 mm 2,9 km/h (1 Bft) W 272 ° 0 min 0,000 mm 0,8 UV-I 97 W/m² 9,2 °C 10,4 °C 6,4 km/h (2 Bft)
03.10.2017 15:25 10,4 °C 10,4 °C 92 % 1019,3 hPa 0,0 mm 1,5 km/h (1 Bft) W 272 ° 0 min 0,000 mm 0,8 UV-I 95 W/m² 9,2 °C 10,4 °C 3,2 km/h (1 Bft)
03.10.2017 15:26 10,4 °C 10,4 °C 92 % 1019,3 hPa 0,0 mm 3,2 km/h (1 Bft) W-NW 286 ° 0 min 0,000 mm 0,6 UV-I 79 W/m² 9,2 °C 10,4 °C 4,8 km/h (1 Bft)
03.10.2017 15:27 10,4 °C 10,4 °C 92 % 1019,3 hPa 0,0 mm 6,4 km/h (2 Bft) W 279 ° 0 min 0,000 mm 0,5 UV-I 63 W/m² 9,2 °C 10,4 °C 9,7 km/h (2 Bft)
03.10.2017 15:28 10,4 °C 10,4 °C 92 % 1019,3 hPa 0,0 mm 3,7 km/h (1 Bft) W 269 ° 0 min 0,000 mm 0,5 UV-I 60 W/m² 9,2 °C 10,4 °C 4,8 km/h (1 Bft)
03.10.2017 15:29 10,4 °C 10,4 °C 92 % 1019,3 hPa 0,0 mm 2,6 km/h (1 Bft) W 269 ° 0 min 0,000 mm 0,6 UV-I 79 W/m² 9,2 °C 10,4 °C 4,8 km/h (1 Bft)
03.10.2017 15:30 10,4 °C 10,4 °C 92 % 1019,3 hPa 0,0 mm 0,3 km/h (0 Bft) W 267 ° 0 min 0,000 mm 0,7 UV-I 90 W/m² 9,2 °C 10,4 °C 3,2 km/h (1 Bft)
03.10.2017 15:31 10,4 °C 10,4 °C 92 % 1019,3 hPa 0,0 mm 1,8 km/h (1 Bft) W 267 ° 0 min 0,000 mm 0,7 UV-I 84 W/m² 9,2 °C 10,4 °C 4,8 km/h (1 Bft)
03.10.2017 15:32 10,5 °C 10,5 °C 92 % 1019,3 hPa 0,0 mm 2,1 km/h (1 Bft) W 266 ° 0 min 0,000 mm 0,6 UV-I 76 W/m² 9,3 °C 10,5 °C 3,2 km/h (1 Bft)
03.10.2017 15:33 10,4 °C 10,5 °C 92 % 1019,4 hPa 0,0 mm 2,7 km/h (1 Bft) W 261 ° 0 min 0,000 mm 0,5 UV-I 65 W/m² 9,2 °C 10,4 °C 6,4 km/h (2 Bft)
03.10.2017 15:34 10,4 °C 10,4 °C 92 % 1019,4 hPa 0,0 mm 1,7 km/h (1 Bft) SW 226 ° 0 min 0,000 mm 0,5 UV-I 56 W/m² 9,2 °C 10,4 °C 3,2 km/h (1 Bft)
03.10.2017 15:35 10,4 °C 10,4 °C 92 % 1019,4 hPa 0,0 mm 2,2 km/h (1 Bft) S-SW 203 ° 0 min 0,000 mm 0,0 UV-I 49 W/m² 9,2 °C 10,4 °C 4,8 km/h (1 Bft)
03.10.2017 15:36 10,4 °C 10,4 °C 92 % 1019,4 hPa 0,0 mm 2,3 km/h (1 Bft) SW 219 ° 0 min 0,000 mm 0,0 UV-I 47 W/m² 9,2 °C 10,4 °C 4,8 km/h (1 Bft)
03.10.2017 15:37 10,3 °C 10,4 °C 92 % 1019,3 hPa 0,0 mm 2,9 km/h (1 Bft) S-SW 213 ° 0 min 0,000 mm 0,0 UV-I 44 W/m² 9,1 °C 10,3 °C 4,8 km/h (1 Bft)
03.10.2017 15:38 10,3 °C 10,3 °C 92 % 1019,4 hPa 0,0 mm 2,3 km/h (1 Bft) SW 229 ° 0 min 0,000 mm 0,0 UV-I 42 W/m² 9,1 °C 10,3 °C 4,8 km/h (1 Bft)
03.10.2017 15:39 10,3 °C 10,3 °C 92 % 1019,4 hPa 0,0 mm 3,7 km/h (1 Bft) W 259 ° 0 min 0,000 mm 0,0 UV-I 51 W/m² 9,1 °C 10,3 °C 6,4 km/h (2 Bft)
03.10.2017 15:40 10,3 °C 10,3 °C 92 % 1019,4 hPa 0,0 mm 2,8 km/h (1 Bft) S-SW 202 ° 0 min 0,000 mm 0,5 UV-I 62 W/m² 9,1 °C 10,3 °C 4,8 km/h (1 Bft)
03.10.2017 15:41 10,3 °C 10,3 °C 92 % 1019,4 hPa 0,0 mm 2,7 km/h (1 Bft) S-SW 200 ° 0 min 0,000 mm 0,6 UV-I 67 W/m² 9,1 °C 10,3 °C 4,8 km/h (1 Bft)
03.10.2017 15:42 10,3 °C 10,3 °C 92 % 1019,4 hPa 0,0 mm 3,2 km/h (1 Bft) S-SW 198 ° 0 min 0,000 mm 0,7 UV-I 60 W/m² 9,1 °C 10,3 °C 4,8 km/h (1 Bft)
03.10.2017 15:43 10,3 °C 10,3 °C 92 % 1019,4 hPa 0,0 mm 3,8 km/h (1 Bft) S-SW 201 ° 0 min 0,000 mm 0,0 UV-I 53 W/m² 9,1 °C 10,3 °C 4,8 km/h (1 Bft)
03.10.2017 15:44 10,3 °C 10,3 °C 92 % 1019,4 hPa 0,0 mm 2,4 km/h (1 Bft) S-SW 201 ° 0 min 0,000 mm 0,5 UV-I 58 W/m² 9,1 °C 10,3 °C 3,2 km/h (1 Bft)
03.10.2017 15:45 10,2 °C 10,3 °C 92 % 1019,4 hPa 0,0 mm 0,1 km/h (0 Bft) S-SW 201 ° 0 min 0,000 mm 0,7 UV-I 83 W/m² 9,0 °C 10,2 °C 1,6 km/h (1 Bft)
03.10.2017 15:46 10,2 °C 10,2 °C 92 % 1019,4 hPa 0,0 mm 0,0 km/h (0 Bft) S-SW 201 ° 0 min 0,000 mm 1,0 UV-I 118 W/m² 9,0 °C 10,2 °C 0,0 km/h (0 Bft)
03.10.2017 15:47 10,3 °C 10,3 °C 93 % 1019,4 hPa 0,0 mm 2,1 km/h (1 Bft) SW 226 ° 0 min 0,000 mm 1,1 UV-I 114 W/m² 9,2 °C 10,3 °C 4,8 km/h (1 Bft)
03.10.2017 15:48 10,3 °C 10,3 °C 93 % 1019,4 hPa 0,0 mm 4,2 km/h (1 Bft) S-SW 199 ° 0 min 0,000 mm 0,8 UV-I 90 W/m² 9,2 °C 10,3 °C 6,4 km/h (2 Bft)
03.10.2017 15:49 10,3 °C 10,3 °C 93 % 1019,4 hPa 0,0 mm 1,7 km/h (1 Bft) S-SW 199 ° 0 min 0,000 mm 0,6 UV-I 77 W/m² 9,2 °C 10,3 °C 6,4 km/h (2 Bft)
03.10.2017 15:50 10,3 °C 10,3 °C 93 % 1019,4 hPa 0,0 mm 0,0 km/h (0 Bft) S-SW 199 ° 0 min 0,000 mm 0,6 UV-I 76 W/m² 9,2 °C 10,3 °C 0,0 km/h (0 Bft)
03.10.2017 15:51 10,4 °C 10,4 °C 93 % 1019,4 hPa 0,0 mm 1,7 km/h (1 Bft) S-SW 194 ° 0 min 0,000 mm 0,6 UV-I 77 W/m² 9,3 °C 10,4 °C 4,8 km/h (1 Bft)
03.10.2017 15:52 10,4 °C 10,4 °C 93 % 1019,4 hPa 0,0 mm 5,3 km/h (1 Bft) W-SW 256 ° 0 min 0,000 mm 0,7 UV-I 83 W/m² 9,3 °C 10,4 °C 8,0 km/h (2 Bft)
03.10.2017 15:53 10,4 °C 10,4 °C 92 % 1019,4 hPa 0,0 mm 3,2 km/h (1 Bft) W-SW 256 ° 0 min 0,000 mm 0,7 UV-I 100 W/m² 9,2 °C 10,4 °C 4,8 km/h (1 Bft)
03.10.2017 15:54 10,4 °C 10,4 °C 92 % 1019,4 hPa 0,0 mm 5,0 km/h (1 Bft) SW 221 ° 0 min 0,000 mm 0,8 UV-I 121 W/m² 9,2 °C 10,4 °C 8,0 km/h (2 Bft)
03.10.2017 15:55 10,4 °C 10,4 °C 92 % 1019,4 hPa 0,0 mm 1,9 km/h (1 Bft) S-SW 196 ° 0 min 0,000 mm 0,9 UV-I 149 W/m² 9,2 °C 10,4 °C 3,2 km/h (1 Bft)
03.10.2017 15:56 10,4 °C 10,4 °C 92 % 1019,4 hPa 0,0 mm 2,6 km/h (1 Bft) S-SW 196 ° 0 min 0,000 mm 1,0 UV-I 146 W/m² 9,2 °C 10,4 °C 4,8 km/h (1 Bft)
03.10.2017 15:57 10,6 °C 10,6 °C 92 % 1019,4 hPa 0,0 mm 3,3 km/h (1 Bft) S-SW 196 ° 0 min 0,000 mm 0,9 UV-I 114 W/m² 9,4 °C 10,6 °C 4,8 km/h (1 Bft)
03.10.2017 15:58 10,6 °C 10,6 °C 92 % 1019,4 hPa 0,0 mm 5,3 km/h (1 Bft) S 186 ° 0 min 0,000 mm 0,8 UV-I 97 W/m² 9,4 °C 10,6 °C 9,7 km/h (2 Bft)
03.10.2017 15:59 10,6 °C 10,6 °C 92 % 1019,4 hPa 0,0 mm 6,2 km/h (2 Bft) S-SW 213 ° 0 min 0,000 mm 0,7 UV-I 76 W/m² 9,4 °C 10,6 °C 9,7 km/h (2 Bft)
03.10.2017 16:00 10,5 °C 10,6 °C 92 % 1019,4 hPa 0,0 mm 5,8 km/h (2 Bft) S-SW 192 ° 0 min 0,000 mm 0,7 UV-I 83 W/m² 9,3 °C 10,5 °C 8,0 km/h (2 Bft)
03.10.2017 16:01 10,5 °C 10,5 °C 92 % 1019,5 hPa 0,0 mm 6,9 km/h (2 Bft) S-SW 196 ° 0 min 0,050 mm 0,7 UV-I 84 W/m² 9,3 °C 10,5 °C 9,7 km/h (2 Bft)
03.10.2017 16:02 10,5 °C 10,5 °C 92 % 1019,5 hPa 0,0 mm 3,9 km/h (1 Bft) S-SW 202 ° 0 min 0,000 mm 0,7 UV-I 93 W/m² 9,3 °C 10,5 °C 8,0 km/h (2 Bft)
03.10.2017 16:03 10,5 °C 10,5 °C 92 % 1019,4 hPa 0,0 mm 3,9 km/h (1 Bft) SW 214 ° 0 min 0,000 mm 0,8 UV-I 111 W/m² 9,3 °C 10,5 °C 6,4 km/h (2 Bft)
03.10.2017 16:04 10,6 °C 10,6 °C 92 % 1019,5 hPa 0,0 mm 2,1 km/h (1 Bft) S-SW 207 ° 0 min 0,000 mm 0,9 UV-I 120 W/m² 9,4 °C 10,6 °C 4,8 km/h (1 Bft)
03.10.2017 16:05 10,6 °C 10,6 °C 92 % 1019,5 hPa 0,0 mm 0,7 km/h (0 Bft) S-SW 207 ° 0 min 0,000 mm 0,9 UV-I 102 W/m² 9,4 °C 10,6 °C 3,2 km/h (1 Bft)
03.10.2017 16:06 10,6 °C 10,6 °C 92 % 1019,5 hPa 0,0 mm 4,4 km/h (1 Bft) S-SW 205 ° 0 min 0,000 mm 1,0 UV-I 102 W/m² 9,4 °C 10,6 °C 8,0 km/h (2 Bft)
03.10.2017 16:07 10,5 °C 10,6 °C 92 % 1019,4 hPa 0,0 mm 5,4 km/h (1 Bft) S 189 ° 0 min 0,000 mm 1,0 UV-I 84 W/m² 9,3 °C 10,5 °C 8,0 km/h (2 Bft)
03.10.2017 16:08 10,5 °C 10,6 °C 92 % 1019,5 hPa 0,0 mm 2,9 km/h (1 Bft) W-SW 246 ° 0 min 0,000 mm 1,1 UV-I 98 W/m² 9,3 °C 10,5 °C 4,8 km/h (1 Bft)
03.10.2017 16:09 10,5 °C 10,5 °C 92 % 1019,5 hPa 0,0 mm 1,7 km/h (1 Bft) S-SW 201 ° 0 min 0,000 mm 1,2 UV-I 148 W/m² 9,3 °C 10,5 °C 4,8 km/h (1 Bft)
03.10.2017 16:10 10,5 °C 10,5 °C 92 % 1019,5 hPa 0,0 mm 2,7 km/h (1 Bft) S-SW 202 ° 0 min 0,000 mm 1,2 UV-I 132 W/m² 9,3 °C 10,5 °C 4,8 km/h (1 Bft)
03.10.2017 16:11 10,6 °C 10,6 °C 92 % 1019,5 hPa 0,0 mm 0,6 km/h (0 Bft) S-SW 202 ° 0 min 0,000 mm 1,2 UV-I 111 W/m² 9,4 °C 10,6 °C 3,2 km/h (1 Bft)
03.10.2017 16:12 10,6 °C 10,6 °C 92 % 1019,5 hPa 0,0 mm 4,7 km/h (1 Bft) SW 223 ° 0 min 0,000 mm 1,1 UV-I 125 W/m² 9,4 °C 10,6 °C 8,0 km/h (2 Bft)
03.10.2017 16:13 10,6 °C 10,6 °C 92 % 1019,5 hPa 0,0 mm 1,8 km/h (1 Bft) SW 223 ° 0 min 0,000 mm 1,1 UV-I 141 W/m² 9,4 °C 10,6 °C 3,2 km/h (1 Bft)
03.10.2017 16:14 10,6 °C 10,6 °C 92 % 1019,5 hPa 0,0 mm 1,7 km/h (1 Bft) S-SW 209 ° 0 min 0,000 mm 1,1 UV-I 148 W/m² 9,4 °C 10,6 °C 3,2 km/h (1 Bft)
03.10.2017 16:15 10,6 °C 10,7 °C 93 % 1019,5 hPa 0,0 mm 3,4 km/h (1 Bft) S-SW 208 ° 0 min 0,000 mm 1,0 UV-I 141 W/m² 9,5 °C 10,6 °C 6,4 km/h (2 Bft)
03.10.2017 16:16 10,7 °C 10,7 °C 92 % 1019,5 hPa 0,0 mm 2,9 km/h (1 Bft) S-SW 208 ° 0 min 0,000 mm 0,9 UV-I 84 W/m² 9,5 °C 10,7 °C 4,8 km/h (1 Bft)
03.10.2017 16:17 10,7 °C 10,7 °C 92 % 1019,5 hPa 0,0 mm 3,3 km/h (1 Bft) S 175 ° 0 min 0,000 mm 0,9 UV-I 90 W/m² 9,5 °C 10,7 °C 6,4 km/h (2 Bft)
03.10.2017 16:18 10,7 °C 10,7 °C 92 % 1019,5 hPa 0,0 mm 1,9 km/h (1 Bft) S-SW 213 ° 0 min 0,000 mm 0,9 UV-I 100 W/m² 9,5 °C 10,7 °C 4,8 km/h (1 Bft)
03.10.2017 16:19 10,7 °C 10,8 °C 92 % 1019,5 hPa 0,0 mm 0,9 km/h (0 Bft) SW 214 ° 0 min 0,000 mm 0,8 UV-I 83 W/m² 9,5 °C 10,7 °C 3,2 km/h (1 Bft)
03.10.2017 16:20 10,8 °C 10,8 °C 92 % 1019,5 hPa 0,0 mm 3,1 km/h (1 Bft) W-SW 253 ° 0 min 0,000 mm 0,8 UV-I 84 W/m² 9,6 °C 10,8 °C 4,8 km/h (1 Bft)
03.10.2017 16:21 10,8 °C 10,8 °C 92 % 1019,6 hPa 0,0 mm 4,3 km/h (1 Bft) W-SW 254 ° 0 min 0,000 mm 0,9 UV-I 97 W/m² 9,6 °C 10,8 °C 4,8 km/h (1 Bft)
03.10.2017 16:22 10,8 °C 10,8 °C 92 % 1019,6 hPa 0,0 mm 4,0 km/h (1 Bft) W-SW 254 ° 0 min 0,000 mm 1,0 UV-I 185 W/m² 9,6 °C 10,8 °C 4,8 km/h (1 Bft)
03.10.2017 16:23 10,9 °C 10,9 °C 92 % 1019,6 hPa 0,0 mm 3,2 km/h (1 Bft) S-SW 198 ° 0 min 0,000 mm 1,1 UV-I 130 W/m² 9,7 °C 10,9 °C 4,8 km/h (1 Bft)
03.10.2017 16:24 10,8 °C 10,9 °C 92 % 1019,6 hPa 0,0 mm 2,7 km/h (1 Bft) S 173 ° 0 min 0,000 mm 1,0 UV-I 130 W/m² 9,6 °C 10,8 °C 6,4 km/h (2 Bft)
03.10.2017 16:25 10,8 °C 10,8 °C 92 % 1019,5 hPa 0,0 mm 1,2 km/h (1 Bft) S 173 ° 0 min 0,000 mm 1,0 UV-I 79 W/m² 9,6 °C 10,8 °C 3,2 km/h (1 Bft)
03.10.2017 16:26 10,8 °C 10,8 °C 92 % 1019,6 hPa 0,0 mm 1,0 km/h (0 Bft) S 175 ° 0 min 0,000 mm 1,0 UV-I 86 W/m² 9,6 °C 10,8 °C 1,6 km/h (1 Bft)
03.10.2017 16:27 10,8 °C 10,8 °C 92 % 1019,6 hPa 0,0 mm 0,3 km/h (0 Bft) S 175 ° 0 min 0,000 mm 0,9 UV-I 79 W/m² 9,6 °C 10,8 °C 1,6 km/h (1 Bft)
03.10.2017 16:28 10,8 °C 10,8 °C 92 % 1019,6 hPa 0,0 mm 0,5 km/h (0 Bft) S-SW 198 ° 0 min 0,000 mm 0,9 UV-I 100 W/m² 9,6 °C 10,8 °C 3,2 km/h (1 Bft)
03.10.2017 16:29 10,8 °C 10,8 °C 92 % 1019,6 hPa 0,0 mm 2,8 km/h (1 Bft) W 263 ° 0 min 0,000 mm 1,0 UV-I 160 W/m² 9,6 °C 10,8 °C 4,8 km/h (1 Bft)
03.10.2017 16:30 10,8 °C 10,8 °C 92 % 1019,7 hPa 0,0 mm 1,3 km/h (1 Bft) W 263 ° 0 min 0,000 mm 1,0 UV-I 148 W/m² 9,6 °C 10,8 °C 4,8 km/h (1 Bft)
03.10.2017 16:31 10,9 °C 10,9 °C 92 % 1019,6 hPa 0,0 mm 2,7 km/h (1 Bft) W-SW 246 ° 0 min 0,000 mm 1,1 UV-I 149 W/m² 9,7 °C 10,9 °C 11,3 km/h (2 Bft)
03.10.2017 16:32 10,9 °C 10,9 °C 92 % 1019,6 hPa 0,0 mm 2,5 km/h (1 Bft) S-SW 198 ° 0 min 0,000 mm 1,0 UV-I 171 W/m² 9,7 °C 10,9 °C 4,8 km/h (1 Bft)
03.10.2017 16:33 10,9 °C 10,9 °C 92 % 1019,7 hPa 0,0 mm 1,3 km/h (1 Bft) S-SW 198 ° 0 min 0,000 mm 1,0 UV-I 171 W/m² 9,7 °C 10,9 °C 3,2 km/h (1 Bft)
03.10.2017 16:34 10,9 °C 10,9 °C 92 % 1019,6 hPa 0,0 mm 4,0 km/h (1 Bft) W-SW 238 ° 0 min 0,000 mm 0,9 UV-I 127 W/m² 9,7 °C 10,9 °C 4,8 km/h (1 Bft)
03.10.2017 16:35 11,1 °C 11,1 °C 92 % 1019,7 hPa 0,0 mm 3,0 km/h (1 Bft) W 266 ° 0 min 0,000 mm 0,9 UV-I 148 W/m² 9,8 °C 11,1 °C 4,8 km/h (1 Bft)
03.10.2017 16:36 11,2 °C 11,2 °C 92 % 1019,7 hPa 0,0 mm 4,1 km/h (1 Bft) W 271 ° 0 min 0,000 mm 1,0 UV-I 174 W/m² 9,9 °C 11,2 °C 6,4 km/h (2 Bft)
03.10.2017 16:37 11,3 °C 11,3 °C 92 % 1019,6 hPa 0,0 mm 3,3 km/h (1 Bft) W 266 ° 0 min 0,000 mm 0,9 UV-I 149 W/m² 10,0 °C 11,3 °C 9,7 km/h (2 Bft)
03.10.2017 16:38 11,3 °C 11,3 °C 92 % 1019,6 hPa 0,0 mm 6,0 km/h (2 Bft) W 265 ° 0 min 0,000 mm 0,9 UV-I 135 W/m² 10,0 °C 11,3 °C 11,3 km/h (2 Bft)
03.10.2017 16:39 11,3 °C 11,3 °C 92 % 1019,6 hPa 0,0 mm 7,6 km/h (2 Bft) W-SW 240 ° 0 min 0,000 mm 0,8 UV-I 130 W/m² 10,0 °C 11,3 °C 11,3 km/h (2 Bft)
03.10.2017 16:40 11,3 °C 11,3 °C 92 % 1019,7 hPa 0,0 mm 3,8 km/h (1 Bft) W 259 ° 0 min 0,000 mm 0,8 UV-I 146 W/m² 10,0 °C 11,3 °C 4,8 km/h (1 Bft)
03.10.2017 16:41 11,3 °C 11,3 °C 92 % 1019,7 hPa 0,0 mm 4,6 km/h (1 Bft) W 261 ° 0 min 0,000 mm 0,8 UV-I 128 W/m² 10,0 °C 11,3 °C 6,4 km/h (2 Bft)
03.10.2017 16:42 11,3 °C 11,4 °C 91 % 1019,7 hPa 0,0 mm 4,4 km/h (1 Bft) W 281 ° 0 min 0,000 mm 0,8 UV-I 128 W/m² 9,9 °C 11,3 °C 6,4 km/h (2 Bft)
03.10.2017 16:43 11,4 °C 11,4 °C 91 % 1019,7 hPa 0,0 mm 3,5 km/h (1 Bft) W 281 ° 0 min 0,000 mm 0,8 UV-I 139 W/m² 10,0 °C 11,4 °C 6,4 km/h (2 Bft)
03.10.2017 16:44 11,4 °C 11,4 °C 91 % 1019,7 hPa 0,0 mm 4,1 km/h (1 Bft) W 281 ° 0 min 0,000 mm 0,8 UV-I 172 W/m² 10,0 °C 11,4 °C 6,4 km/h (2 Bft)
03.10.2017 16:45 11,4 °C 11,4 °C 91 % 1019,7 hPa 0,0 mm 4,0 km/h (1 Bft) W 261 ° 0 min 0,000 mm 0,8 UV-I 176 W/m² 10,0 °C 11,4 °C 4,8 km/h (1 Bft)
03.10.2017 16:46 11,4 °C 11,4 °C 91 % 1019,7 hPa 0,0 mm 4,1 km/h (1 Bft) W-SW 244 ° 0 min 0,000 mm 0,8 UV-I 188 W/m² 10,0 °C 11,4 °C 4,8 km/h (1 Bft)
03.10.2017 16:47 11,4 °C 11,5 °C 91 % 1019,7 hPa 0,0 mm 2,5 km/h (1 Bft) W 271 ° 0 min 0,000 mm 0,8 UV-I 174 W/m² 10,0 °C 11,4 °C 4,8 km/h (1 Bft)
03.10.2017 16:48 11,5 °C 11,5 °C 91 % 1019,7 hPa 0,0 mm 2,3 km/h (1 Bft) W 271 ° 0 min 0,000 mm 0,8 UV-I 151 W/m² 10,1 °C 11,5 °C 3,2 km/h (1 Bft)
03.10.2017 16:49 11,6 °C 11,6 °C 92 % 1019,8 hPa 0,0 mm 4,8 km/h (1 Bft) W-NW 302 ° 0 min 0,000 mm 0,8 UV-I 127 W/m² 10,3 °C 11,6 °C 11,3 km/h (2 Bft)
03.10.2017 16:50 11,6 °C 11,6 °C 91 % 1019,7 hPa 0,0 mm 7,6 km/h (2 Bft) W-SW 258 ° 0 min 0,000 mm 0,7 UV-I 113 W/m² 10,2 °C 11,6 °C 11,3 km/h (2 Bft)
03.10.2017 16:51 11,6 °C 11,6 °C 91 % 1019,8 hPa 0,0 mm 4,2 km/h (1 Bft) W 263 ° 0 min 0,000 mm 0,7 UV-I 97 W/m² 10,2 °C 11,6 °C 4,8 km/h (1 Bft)
03.10.2017 16:52 11,5 °C 11,6 °C 91 % 1019,7 hPa 0,0 mm 2,7 km/h (1 Bft) W 263 ° 0 min 0,000 mm 0,7 UV-I 91 W/m² 10,1 °C 11,5 °C 4,8 km/h (1 Bft)
03.10.2017 16:53 11,5 °C 11,5 °C 91 % 1019,8 hPa 0,0 mm 2,0 km/h (1 Bft) W 263 ° 0 min 0,000 mm 0,6 UV-I 88 W/m² 10,1 °C 11,5 °C 3,2 km/h (1 Bft)
03.10.2017 16:54 11,5 °C 11,5 °C 91 % 1019,8 hPa 0,0 mm 3,7 km/h (1 Bft) W 267 ° 0 min 0,000 mm 0,6 UV-I 74 W/m² 10,1 °C 11,5 °C 4,8 km/h (1 Bft)
03.10.2017 16:55 11,6 °C 11,6 °C 92 % 1019,7 hPa 0,0 mm 2,0 km/h (1 Bft) W 267 ° 0 min 0,000 mm 0,6 UV-I 70 W/m² 10,3 °C 11,6 °C 4,8 km/h (1 Bft)
03.10.2017 16:56 11,6 °C 11,6 °C 91 % 1019,7 hPa 0,0 mm 4,6 km/h (1 Bft) SW 235 ° 0 min 0,000 mm 0,6 UV-I 76 W/m² 10,2 °C 11,6 °C 6,4 km/h (2 Bft)
03.10.2017 16:57 11,5 °C 11,6 °C 91 % 1019,8 hPa 0,0 mm 4,7 km/h (1 Bft) W-NW 296 ° 0 min 0,000 mm 0,6 UV-I 81 W/m² 10,1 °C 11,5 °C 6,4 km/h (2 Bft)
03.10.2017 16:58 11,5 °C 11,5 °C 91 % 1019,8 hPa 0,0 mm 3,0 km/h (1 Bft) W 273 ° 0 min 0,000 mm 0,6 UV-I 81 W/m² 10,1 °C 11,5 °C 4,8 km/h (1 Bft)
03.10.2017 16:59 11,5 °C 11,5 °C 91 % 1019,8 hPa 0,0 mm 3,1 km/h (1 Bft) W 259 ° 0 min 0,000 mm 0,7 UV-I 86 W/m² 10,1 °C 11,5 °C 4,8 km/h (1 Bft)
03.10.2017 17:00 11,5 °C 11,5 °C 91 % 1019,8 hPa 0,0 mm 8,4 km/h (2 Bft) W 261 ° 0 min 0,000 mm 0,7 UV-I 86 W/m² 10,1 °C 11,5 °C 12,9 km/h (3 Bft)
03.10.2017 17:01 11,4 °C 11,5 °C 91 % 1019,9 hPa 0,0 mm 4,5 km/h (1 Bft) W 272 ° 0 min 0,051 mm 0,7 UV-I 81 W/m² 10,0 °C 11,4 °C 6,4 km/h (2 Bft)
03.10.2017 17:02 11,4 °C 11,4 °C 91 % 1019,8 hPa 0,0 mm 0,3 km/h (0 Bft) W 272 ° 0 min 0,000 mm 0,6 UV-I 70 W/m² 10,0 °C 11,4 °C 1,6 km/h (1 Bft)
03.10.2017 17:03 11,4 °C 11,4 °C 91 % 1019,8 hPa 0,0 mm 1,5 km/h (1 Bft) W 277 ° 0 min 0,000 mm 0,6 UV-I 65 W/m² 10,0 °C 11,4 °C 3,2 km/h (1 Bft)
03.10.2017 17:04 11,3 °C 11,4 °C 91 % 1019,8 hPa 0,0 mm 4,5 km/h (1 Bft) W 267 ° 0 min 0,000 mm 0,6 UV-I 63 W/m² 9,9 °C 11,3 °C 9,7 km/h (2 Bft)
03.10.2017 17:05 11,3 °C 11,3 °C 91 % 1019,9 hPa 0,0 mm 4,4 km/h (1 Bft) S-SW 199 ° 0 min 0,000 mm 0,5 UV-I 65 W/m² 9,9 °C 11,3 °C 6,4 km/h (2 Bft)
03.10.2017 17:06 11,3 °C 11,3 °C 91 % 1019,9 hPa 0,0 mm 2,8 km/h (1 Bft) S 188 ° 0 min 0,000 mm 0,5 UV-I 72 W/m² 9,9 °C 11,3 °C 4,8 km/h (1 Bft)
03.10.2017 17:07 11,3 °C 11,3 °C 91 % 1019,8 hPa 0,0 mm 1,3 km/h (1 Bft) W-SW 242 ° 0 min 0,000 mm 0,5 UV-I 84 W/m² 9,9 °C 11,3 °C 4,8 km/h (1 Bft)
03.10.2017 17:08 11,3 °C 11,3 °C 91 % 1019,8 hPa 0,0 mm 2,3 km/h (1 Bft) SW 224 ° 0 min 0,000 mm 0,5 UV-I 88 W/m² 9,9 °C 11,3 °C 4,8 km/h (1 Bft)
03.10.2017 17:09 11,3 °C 11,3 °C 91 % 1019,8 hPa 0,0 mm 3,4 km/h (1 Bft) W 265 ° 0 min 0,000 mm 0,5 UV-I 81 W/m² 9,9 °C 11,3 °C 9,7 km/h (2 Bft)
03.10.2017 17:10 11,3 °C 11,3 °C 91 % 1019,8 hPa 0,0 mm 6,8 km/h (2 Bft) W-SW 240 ° 0 min 0,000 mm 0,0 UV-I 69 W/m² 9,9 °C 11,3 °C 12,9 km/h (3 Bft)
03.10.2017 17:11 11,3 °C 11,3 °C 91 % 1019,8 hPa 0,0 mm 1,5 km/h (1 Bft) W 271 ° 0 min 0,000 mm 0,0 UV-I 60 W/m² 9,9 °C 11,3 °C 4,8 km/h (1 Bft)
03.10.2017 17:12 11,3 °C 11,3 °C 91 % 1019,9 hPa 0,0 mm 4,4 km/h (1 Bft) W 270 ° 0 min 0,000 mm 0,0 UV-I 58 W/m² 9,9 °C 11,3 °C 6,4 km/h (2 Bft)
03.10.2017 17:13 11,3 °C 11,4 °C 91 % 1019,9 hPa 0,0 mm 7,1 km/h (2 Bft) W 262 ° 0 min 0,000 mm 0,0 UV-I 53 W/m² 9,9 °C 11,3 °C 11,3 km/h (2 Bft)
03.10.2017 17:14 11,4 °C 11,4 °C 91 % 1019,9 hPa 0,0 mm 2,6 km/h (1 Bft) W-SW 250 ° 0 min 0,000 mm 0,0 UV-I 46 W/m² 10,0 °C 11,4 °C 6,4 km/h (2 Bft)
03.10.2017 17:15 11,3 °C 11,4 °C 91 % 1019,9 hPa 0,0 mm 5,0 km/h (1 Bft) W 271 ° 0 min 0,000 mm 0,0 UV-I 42 W/m² 9,9 °C 11,3 °C 11,3 km/h (2 Bft)
03.10.2017 17:16 11,3 °C 11,3 °C 91 % 1019,9 hPa 0,0 mm 2,3 km/h (1 Bft) SW 236 ° 0 min 0,000 mm 0,0 UV-I 42 W/m² 9,9 °C 11,3 °C 3,2 km/h (1 Bft)
03.10.2017 17:17 11,3 °C 11,3 °C 91 % 1019,9 hPa 0,0 mm 5,5 km/h (1 Bft) S-SW 213 ° 0 min 0,000 mm 0,0 UV-I 39 W/m² 9,9 °C 11,3 °C 9,7 km/h (2 Bft)
03.10.2017 17:18 11,3 °C 11,3 °C 90 % 1019,9 hPa 0,0 mm 2,6 km/h (1 Bft) S-SW 211 ° 0 min 0,000 mm 0,0 UV-I 35 W/m² 9,7 °C 11,3 °C 4,8 km/h (1 Bft)
03.10.2017 17:19 11,3 °C 11,3 °C 90 % 1019,9 hPa 0,0 mm 3,8 km/h (1 Bft) SW 227 ° 0 min 0,000 mm 0,0 UV-I 37 W/m² 9,7 °C 11,3 °C 6,4 km/h (2 Bft)
03.10.2017 17:20 11,2 °C 11,3 °C 90 % 1019,9 hPa 0,0 mm 3,3 km/h (1 Bft) W-SW 256 ° 0 min 0,000 mm 0,0 UV-I 39 W/m² 9,6 °C 11,2 °C 4,8 km/h (1 Bft)
03.10.2017 17:21 11,3 °C 11,3 °C 90 % 1020,0 hPa 0,0 mm 9,0 km/h (2 Bft) W 280 ° 0 min 0,000 mm 0,0 UV-I 67 W/m² 9,7 °C 11,3 °C 14,5 km/h (3 Bft)
03.10.2017 17:22 11,3 °C 11,3 °C 90 % 1020,0 hPa 0,0 mm 8,4 km/h (2 Bft) W-NW 294 ° 0 min 0,000 mm 0,0 UV-I 77 W/m² 9,7 °C 11,3 °C 12,9 km/h (3 Bft)
03.10.2017 17:23 11,3 °C 11,3 °C 90 % 1020,0 hPa 0,0 mm 6,6 km/h (2 Bft) W-SW 251 ° 0 min 0,000 mm 0,0 UV-I 79 W/m² 9,7 °C 11,3 °C 11,3 km/h (2 Bft)
03.10.2017 17:24 11,3 °C 11,3 °C 90 % 1020,1 hPa 0,0 mm 6,2 km/h (2 Bft) W-SW 246 ° 0 min 0,000 mm 0,0 UV-I 76 W/m² 9,7 °C 11,3 °C 12,9 km/h (3 Bft)
03.10.2017 17:25 11,3 °C 11,3 °C 90 % 1020,0 hPa 0,0 mm 2,6 km/h (1 Bft) W-SW 247 ° 0 min 0,000 mm 0,0 UV-I 67 W/m² 9,7 °C 11,3 °C 4,8 km/h (1 Bft)
03.10.2017 17:26 11,3 °C 11,3 °C 90 % 1020,1 hPa 0,0 mm 3,9 km/h (1 Bft) W-SW 248 ° 0 min 0,000 mm 0,0 UV-I 54 W/m² 9,7 °C 11,3 °C 6,4 km/h (2 Bft)
03.10.2017 17:27 11,3 °C 11,3 °C 90 % 1020,1 hPa 0,0 mm 6,9 km/h (2 Bft) W-SW 254 ° 0 min 0,000 mm 0,0 UV-I 42 W/m² 9,7 °C 11,3 °C 14,5 km/h (3 Bft)
03.10.2017 17:28 11,3 °C 11,3 °C 90 % 1020,1 hPa 0,0 mm 3,9 km/h (1 Bft) W 261 ° 0 min 0,000 mm 0,0 UV-I 40 W/m² 9,7 °C 11,3 °C 4,8 km/h (1 Bft)
03.10.2017 17:29 11,3 °C 11,3 °C 90 % 1020,1 hPa 0,0 mm 4,9 km/h (1 Bft) W 270 ° 0 min 0,000 mm 0,0 UV-I 39 W/m² 9,7 °C 11,3 °C 6,4 km/h (2 Bft)
03.10.2017 17:30 11,3 °C 11,3 °C 90 % 1020,1 hPa 0,0 mm 3,1 km/h (1 Bft) W-SW 258 ° 0 min 0,000 mm 0,0 UV-I 33 W/m² 9,7 °C 11,3 °C 4,8 km/h (1 Bft)
03.10.2017 17:31 11,3 °C 11,3 °C 90 % 1020,2 hPa 0,0 mm 1,0 km/h (0 Bft) W-SW 258 ° 0 min 0,000 mm 0,0 UV-I 32 W/m² 9,7 °C 11,3 °C 3,2 km/h (1 Bft)
03.10.2017 17:32 11,3 °C 11,3 °C 90 % 1020,2 hPa 0,0 mm 0,9 km/h (0 Bft) SW 217 ° 0 min 0,000 mm 0,0 UV-I 33 W/m² 9,7 °C 11,3 °C 6,4 km/h (2 Bft)
03.10.2017 17:33 11,2 °C 11,3 °C 90 % 1020,1 hPa 0,0 mm 4,3 km/h (1 Bft) W 280 ° 0 min 0,000 mm 0,0 UV-I 28 W/m² 9,6 °C 11,2 °C 9,7 km/h (2 Bft)
03.10.2017 17:34 11,2 °C 11,2 °C 90 % 1020,1 hPa 0,0 mm 3,6 km/h (1 Bft) W-SW 254 ° 0 min 0,000 mm 0,0 UV-I 26 W/m² 9,6 °C 11,2 °C 6,4 km/h (2 Bft)
03.10.2017 17:35 11,2 °C 11,3 °C 90 % 1020,1 hPa 0,0 mm 3,5 km/h (1 Bft) W 272 ° 0 min 0,000 mm 0,0 UV-I 26 W/m² 9,6 °C 11,2 °C 4,8 km/h (1 Bft)
03.10.2017 17:36 11,3 °C 11,3 °C 91 % 1020,1 hPa 0,0 mm 3,9 km/h (1 Bft) W 260 ° 0 min 0,000 mm 0,0 UV-I 26 W/m² 9,9 °C 11,3 °C 6,4 km/h (2 Bft)
03.10.2017 17:37 11,2 °C 11,3 °C 90 % 1020,1 hPa 0,0 mm 0,6 km/h (0 Bft) W-SW 241 ° 0 min 0,000 mm 0,0 UV-I 30 W/m² 9,6 °C 11,2 °C 3,2 km/h (1 Bft)
03.10.2017 17:38 11,2 °C 11,2 °C 90 % 1020,1 hPa 0,0 mm 1,1 km/h (1 Bft) W-SW 241 ° 0 min 0,000 mm 0,0 UV-I 28 W/m² 9,6 °C 11,2 °C 3,2 km/h (1 Bft)
03.10.2017 17:39 11,2 °C 11,2 °C 90 % 1020,0 hPa 0,0 mm 2,0 km/h (1 Bft) SW 234 ° 0 min 0,000 mm 0,0 UV-I 25 W/m² 9,6 °C 11,2 °C 4,8 km/h (1 Bft)
03.10.2017 17:40 11,2 °C 11,2 °C 90 % 1020,1 hPa 0,0 mm 2,3 km/h (1 Bft) SW 236 ° 0 min 0,000 mm 0,0 UV-I 19 W/m² 9,6 °C 11,2 °C 6,4 km/h (2 Bft)
03.10.2017 17:41 11,2 °C 11,2 °C 90 % 1020,2 hPa 0,0 mm 4,0 km/h (1 Bft) W-SW 252 ° 0 min 0,000 mm 0,0 UV-I 16 W/m² 9,6 °C 11,2 °C 4,8 km/h (1 Bft)
03.10.2017 17:42 11,2 °C 11,2 °C 90 % 1020,3 hPa 0,0 mm 2,8 km/h (1 Bft) W 271 ° 0 min 0,000 mm 0,0 UV-I 12 W/m² 9,6 °C 11,2 °C 4,8 km/h (1 Bft)
03.10.2017 17:43 11,2 °C 11,2 °C 90 % 1020,3 hPa 0,0 mm 4,0 km/h (1 Bft) W-NW 286 ° 0 min 0,000 mm 0,0 UV-I 12 W/m² 9,6 °C 11,2 °C 4,8 km/h (1 Bft)
03.10.2017 17:44 11,2 °C 11,2 °C 90 % 1020,3 hPa 0,0 mm 3,4 km/h (1 Bft) W-NW 302 ° 0 min 0,000 mm 0,0 UV-I 16 W/m² 9,6 °C 11,2 °C 4,8 km/h (1 Bft)
03.10.2017 17:45 11,2 °C 11,2 °C 90 % 1020,4 hPa 0,0 mm 2,9 km/h (1 Bft) W-NW 292 ° 0 min 0,000 mm 0,0 UV-I 18 W/m² 9,6 °C 11,2 °C 4,8 km/h (1 Bft)
03.10.2017 17:46 11,2 °C 11,2 °C 91 % 1020,4 hPa 0,0 mm 3,5 km/h (1 Bft) W 273 ° 0 min 0,000 mm 0,0 UV-I 21 W/m² 9,8 °C 11,2 °C 4,8 km/h (1 Bft)
03.10.2017 17:47 11,2 °C 11,2 °C 91 % 1020,4 hPa 0,0 mm 4,2 km/h (1 Bft) W 280 ° 0 min 0,000 mm 0,0 UV-I 26 W/m² 9,8 °C 11,2 °C 6,4 km/h (2 Bft)
03.10.2017 17:48 11,2 °C 11,2 °C 90 % 1020,4 hPa 0,0 mm 4,4 km/h (1 Bft) NW 319 ° 0 min 0,000 mm 0,0 UV-I 37 W/m² 9,6 °C 11,2 °C 6,4 km/h (2 Bft)
03.10.2017 17:49 11,2 °C 11,2 °C 90 % 1020,4 hPa 0,0 mm 2,8 km/h (1 Bft) N-NW 331 ° 0 min 0,000 mm 0,0 UV-I 35 W/m² 9,6 °C 11,2 °C 4,8 km/h (1 Bft)
03.10.2017 17:50 11,2 °C 11,2 °C 90 % 1020,4 hPa 0,0 mm 4,6 km/h (1 Bft) NW 314 ° 0 min 0,000 mm 0,0 UV-I 28 W/m² 9,6 °C 11,2 °C 6,4 km/h (2 Bft)
03.10.2017 17:51 11,2 °C 11,2 °C 90 % 1020,4 hPa 0,0 mm 2,7 km/h (1 Bft) W-NW 292 ° 0 min 0,000 mm 0,0 UV-I 23 W/m² 9,6 °C 11,2 °C 4,8 km/h (1 Bft)
03.10.2017 17:52 11,2 °C 11,2 °C 90 % 1020,4 hPa 0,0 mm 4,7 km/h (1 Bft) W-NW 294 ° 0 min 0,000 mm 0,0 UV-I 21 W/m² 9,6 °C 11,2 °C 6,4 km/h (2 Bft)
03.10.2017 17:53 11,2 °C 11,2 °C 90 % 1020,6 hPa 0,0 mm 4,1 km/h (1 Bft) NW 323 ° 0 min 0,000 mm 0,0 UV-I 18 W/m² 9,6 °C 11,2 °C 8,0 km/h (2 Bft)
03.10.2017 17:54 11,2 °C 11,2 °C 90 % 1020,6 hPa 0,0 mm 4,3 km/h (1 Bft) NW 320 ° 0 min 0,000 mm 0,0 UV-I 18 W/m² 9,6 °C 11,2 °C 8,0 km/h (2 Bft)
03.10.2017 17:55 11,2 °C 11,2 °C 90 % 1020,5 hPa 0,0 mm 4,5 km/h (1 Bft) N-NW 336 ° 0 min 0,000 mm 0,0 UV-I 18 W/m² 9,6 °C 11,2 °C 6,4 km/h (2 Bft)
03.10.2017 17:56 11,1 °C 11,2 °C 90 % 1020,5 hPa 0,0 mm 2,3 km/h (1 Bft) N-NW 336 ° 0 min 0,000 mm 0,0 UV-I 19 W/m² 9,5 °C 11,1 °C 4,8 km/h (1 Bft)
03.10.2017 17:57 11,1 °C 11,2 °C 90 % 1020,5 hPa 0,0 mm 0,1 km/h (0 Bft) N-NW 336 ° 0 min 0,000 mm 0,0 UV-I 21 W/m² 9,5 °C 11,1 °C 1,6 km/h (1 Bft)
03.10.2017 17:58 11,1 °C 11,1 °C 90 % 1020,5 hPa 0,0 mm 0,0 km/h (0 Bft) N-NW 336 ° 0 min 0,000 mm 0,0 UV-I 26 W/m² 9,5 °C 11,1 °C 0,0 km/h (0 Bft)
03.10.2017 17:59 11,1 °C 11,1 °C 90 % 1020,6 hPa 0,0 mm 0,0 km/h (0 Bft) N-NW 336 ° 0 min 0,000 mm 0,0 UV-I 28 W/m² 9,5 °C 11,1 °C 0,0 km/h (0 Bft)
03.10.2017 18:00 11,0 °C 11,1 °C 90 % 1020,6 hPa 0,0 mm 0,0 km/h (0 Bft) N-NW 336 ° 0 min 0,000 mm 0,0 UV-I 26 W/m² 9,4 °C 11,0 °C 0,0 km/h (0 Bft)
03.10.2017 18:01 11,0 °C 11,1 °C 90 % 1020,6 hPa 0,0 mm 2,8 km/h (1 Bft) N-NW 336 ° 0 min 0,026 mm 0,0 UV-I 25 W/m² 9,4 °C 11,0 °C 4,8 km/h (1 Bft)
03.10.2017 18:02 11,0 °C 11,1 °C 90 % 1020,6 hPa 0,0 mm 3,0 km/h (1 Bft) N-NW 336 ° 0 min 0,000 mm 0,0 UV-I 25 W/m² 9,4 °C 11,0 °C 4,8 km/h (1 Bft)
03.10.2017 18:03 11,0 °C 11,0 °C 90 % 1020,6 hPa 0,0 mm 4,0 km/h (1 Bft) N-NW 348 ° 0 min 0,000 mm 0,0 UV-I 28 W/m² 9,4 °C 11,0 °C 6,4 km/h (2 Bft)
03.10.2017 18:04 11,0 °C 11,0 °C 90 % 1020,6 hPa 0,0 mm 3,1 km/h (1 Bft) NW 310 ° 0 min 0,000 mm 0,0 UV-I 30 W/m² 9,4 °C 11,0 °C 6,4 km/h (2 Bft)
03.10.2017 18:05 11,0 °C 11,0 °C 89 % 1020,6 hPa 0,0 mm 4,1 km/h (1 Bft) NW 304 ° 0 min 0,000 mm 0,0 UV-I 30 W/m² 9,3 °C 11,0 °C 6,4 km/h (2 Bft)
03.10.2017 18:06 11,0 °C 11,0 °C 89 % 1020,6 hPa 0,0 mm 5,3 km/h (1 Bft) W-NW 285 ° 0 min 0,000 mm 0,0 UV-I 32 W/m² 9,3 °C 11,0 °C 8,0 km/h (2 Bft)
03.10.2017 18:07 11,0 °C 11,0 °C 89 % 1020,6 hPa 0,0 mm 5,6 km/h (1 Bft) NW 309 ° 0 min 0,000 mm 0,0 UV-I 35 W/m² 9,3 °C 11,0 °C 11,3 km/h (2 Bft)
03.10.2017 18:08 11,0 °C 11,0 °C 89 % 1020,7 hPa 0,0 mm 2,0 km/h (1 Bft) NW 309 ° 0 min 0,000 mm 0,0 UV-I 32 W/m² 9,3 °C 11,0 °C 3,2 km/h (1 Bft)
03.10.2017 18:09 11,0 °C 11,0 °C 90 % 1020,7 hPa 0,0 mm 1,0 km/h (0 Bft) NW 309 ° 0 min 0,000 mm 0,0 UV-I 32 W/m² 9,4 °C 11,0 °C 3,2 km/h (1 Bft)
03.10.2017 18:10 10,9 °C 11,0 °C 90 % 1020,7 hPa 0,0 mm 0,0 km/h (0 Bft) NW 309 ° 0 min 0,000 mm 0,0 UV-I 32 W/m² 9,3 °C 10,9 °C 0,0 km/h (0 Bft)
03.10.2017 18:11 10,9 °C 10,9 °C 90 % 1020,7 hPa 0,0 mm 2,7 km/h (1 Bft) NW 308 ° 0 min 0,000 mm 0,0 UV-I 28 W/m² 9,3 °C 10,9 °C 6,4 km/h (2 Bft)
03.10.2017 18:12 10,9 °C 10,9 °C 90 % 1020,7 hPa 0,0 mm 3,0 km/h (1 Bft) NW 313 ° 0 min 0,000 mm 0,0 UV-I 28 W/m² 9,3 °C 10,9 °C 4,8 km/h (1 Bft)
03.10.2017 18:13 10,9 °C 10,9 °C 90 % 1020,7 hPa 0,0 mm 4,1 km/h (1 Bft) W 281 ° 0 min 0,000 mm 0,0 UV-I 21 W/m² 9,3 °C 10,9 °C 6,4 km/h (2 Bft)
03.10.2017 18:14 10,9 °C 10,9 °C 90 % 1020,7 hPa 0,0 mm 1,9 km/h (1 Bft) W-NW 292 ° 0 min 0,000 mm 0,0 UV-I 19 W/m² 9,3 °C 10,9 °C 3,2 km/h (1 Bft)
03.10.2017 18:15 10,9 °C 10,9 °C 90 % 1020,7 hPa 0,0 mm 3,3 km/h (1 Bft) NW 313 ° 0 min 0,000 mm 0,0 UV-I 23 W/m² 9,3 °C 10,9 °C 6,4 km/h (2 Bft)
03.10.2017 18:16 10,8 °C 10,9 °C 90 % 1020,7 hPa 0,0 mm 0,5 km/h (0 Bft) NW 313 ° 0 min 0,000 mm 0,0 UV-I 25 W/m² 9,2 °C 10,8 °C 1,6 km/h (1 Bft)
03.10.2017 18:17 10,8 °C 10,8 °C 90 % 1020,8 hPa 0,0 mm 2,2 km/h (1 Bft) NW 313 ° 0 min 0,000 mm 0,0 UV-I 25 W/m² 9,2 °C 10,8 °C 3,2 km/h (1 Bft)
03.10.2017 18:18 10,8 °C 10,8 °C 89 % 1020,8 hPa 0,0 mm 2,1 km/h (1 Bft) W-NW 284 ° 0 min 0,000 mm 0,0 UV-I 25 W/m² 9,1 °C 10,8 °C 4,8 km/h (1 Bft)
03.10.2017 18:19 10,8 °C 10,8 °C 89 % 1020,7 hPa 0,0 mm 3,9 km/h (1 Bft) W-NW 300 ° 0 min 0,000 mm 0,0 UV-I 23 W/m² 9,1 °C 10,8 °C 8,0 km/h (2 Bft)
03.10.2017 18:20 10,8 °C 10,8 °C 90 % 1020,8 hPa 0,0 mm 2,3 km/h (1 Bft) W-NW 298 ° 0 min 0,000 mm 0,0 UV-I 23 W/m² 9,2 °C 10,8 °C 4,8 km/h (1 Bft)
03.10.2017 18:21 10,7 °C 10,8 °C 90 % 1020,8 hPa 0,0 mm 3,2 km/h (1 Bft) W-NW 290 ° 0 min 0,000 mm 0,0 UV-I 23 W/m² 9,1 °C 10,7 °C 4,8 km/h (1 Bft)
03.10.2017 18:22 10,7 °C 10,8 °C 90 % 1020,8 hPa 0,0 mm 1,9 km/h (1 Bft) W-NW 290 ° 0 min 0,000 mm 0,0 UV-I 19 W/m² 9,1 °C 10,7 °C 3,2 km/h (1 Bft)
03.10.2017 18:23 10,7 °C 10,7 °C 90 % 1020,8 hPa 0,0 mm 0,7 km/h (0 Bft) W-NW 290 ° 0 min 0,000 mm 0,0 UV-I 18 W/m² 9,1 °C 10,7 °C 1,6 km/h (1 Bft)
03.10.2017 18:24 10,6 °C 10,7 °C 90 % 1020,8 hPa 0,0 mm 0,0 km/h (0 Bft) W-NW 290 ° 0 min 0,000 mm 0,0 UV-I 18 W/m² 9,0 °C 10,6 °C 0,0 km/h (0 Bft)
03.10.2017 18:25 10,6 °C 10,6 °C 90 % 1020,8 hPa 0,0 mm 0,1 km/h (0 Bft) W-NW 290 ° 0 min 0,000 mm 0,0 UV-I 14 W/m² 9,0 °C 10,6 °C 1,6 km/h (1 Bft)
03.10.2017 18:26 10,5 °C 10,6 °C 90 % 1020,8 hPa 0,0 mm 0,0 km/h (0 Bft) W-NW 290 ° 0 min 0,000 mm 0,0 UV-I 12 W/m² 8,9 °C 10,5 °C 0,0 km/h (0 Bft)
03.10.2017 18:27 10,5 °C 10,6 °C 90 % 1020,9 hPa 0,0 mm 1,5 km/h (1 Bft) W-NW 290 ° 0 min 0,000 mm 0,0 UV-I 12 W/m² 8,9 °C 10,5 °C 3,2 km/h (1 Bft)
03.10.2017 18:29 10,3 °C 10,5 °C 90 % 1020,9 hPa 0,0 mm 1,3 km/h (1 Bft) W-NW 288 ° 0 min 0,000 mm 0,0 UV-I 12 W/m² 8,7 °C 10,3 °C 4,8 km/h (1 Bft)
03.10.2017 18:30 10,3 °C 10,3 °C 90 % 1020,9 hPa 0,0 mm 1,7 km/h (1 Bft) W-NW 288 ° 0 min 0,000 mm 0,0 UV-I 12 W/m² 8,7 °C 10,3 °C 3,2 km/h (1 Bft)
03.10.2017 18:31 10,3 °C 10,3 °C 90 % 1021,0 hPa 0,0 mm 0,8 km/h (0 Bft) W-NW 288 ° 0 min 0,000 mm 0,0 UV-I 11 W/m² 8,7 °C 10,3 °C 1,6 km/h (1 Bft)
03.10.2017 18:32 10,2 °C 10,3 °C 90 % 1021,0 hPa 0,0 mm 0,0 km/h (0 Bft) W-NW 288 ° 0 min 0,000 mm 0,0 UV-I 11 W/m² 8,6 °C 10,2 °C 0,0 km/h (0 Bft)
03.10.2017 18:33 10,2 °C 10,2 °C 90 % 1021,0 hPa 0,0 mm 0,0 km/h (0 Bft) W-NW 288 ° 0 min 0,000 mm 0,0 UV-I 12 W/m² 8,6 °C 10,2 °C 0,0 km/h (0 Bft)
03.10.2017 18:34 10,1 °C 10,2 °C 90 % 1021,0 hPa 0,0 mm 0,3 km/h (0 Bft) W-NW 288 ° 0 min 0,000 mm 0,0 UV-I 12 W/m² 8,5 °C 10,1 °C 1,6 km/h (1 Bft)
03.10.2017 18:35 10,1 °C 10,1 °C 91 % 1021,0 hPa 0,0 mm 0,5 km/h (0 Bft) W-NW 288 ° 0 min 0,000 mm 0,0 UV-I 12 W/m² 8,7 °C 10,1 °C 1,6 km/h (1 Bft)
03.10.2017 18:36 10,1 °C 10,1 °C 91 % 1021,0 hPa 0,0 mm 0,0 km/h (0 Bft) W-NW 288 ° 0 min 0,000 mm 0,0 UV-I 11 W/m² 8,7 °C 10,1 °C 0,0 km/h (0 Bft)
03.10.2017 18:37 10,1 °C 10,1 °C 91 % 1021,0 hPa 0,0 mm 0,0 km/h (0 Bft) W-NW 288 ° 0 min 0,000 mm 0,0 UV-I 9 W/m² 8,7 °C 10,1 °C 0,0 km/h (0 Bft)
03.10.2017 18:38 10,1 °C 10,1 °C 91 % 1021,0 hPa 0,0 mm 0,0 km/h (0 Bft) W-NW 288 ° 0 min 0,000 mm 0,0 UV-I 7 W/m² 8,7 °C 10,1 °C 0,0 km/h (0 Bft)
03.10.2017 18:39 10,1 °C 10,1 °C 91 % 1021,0 hPa 0,0 mm 0,0 km/h (0 Bft) W-NW 288 ° 0 min 0,000 mm 0,0 UV-I 7 W/m² 8,7 °C 10,1 °C 0,0 km/h (0 Bft)
03.10.2017 18:40 10,0 °C 10,1 °C 91 % 1021,1 hPa 0,0 mm 0,0 km/h (0 Bft) W-NW 288 ° 0 min 0,000 mm 0,0 UV-I 7 W/m² 8,6 °C 10,0 °C 0,0 km/h (0 Bft)
03.10.2017 18:41 10,0 °C 10,0 °C 91 % 1021,1 hPa 0,0 mm 0,0 km/h (0 Bft) W-NW 288 ° 0 min 0,000 mm 0,0 UV-I 7 W/m² 8,6 °C 10,0 °C 0,0 km/h (0 Bft)
03.10.2017 18:42 10,0 °C 10,0 °C 91 % 1021,0 hPa 0,0 mm 0,5 km/h (0 Bft) W-NW 288 ° 0 min 0,000 mm 0,0 UV-I 7 W/m² 8,6 °C 10,0 °C 1,6 km/h (1 Bft)
03.10.2017 18:43 10,0 °C 10,0 °C 91 % 1021,1 hPa 0,0 mm 1,1 km/h (1 Bft) W-NW 288 ° 0 min 0,000 mm 0,0 UV-I 7 W/m² 8,6 °C 10,0 °C 1,6 km/h (1 Bft)
03.10.2017 18:44 10,0 °C 10,0 °C 91 % 1021,1 hPa 0,0 mm 3,0 km/h (1 Bft) W 271 ° 0 min 0,000 mm 0,0 UV-I 7 W/m² 8,6 °C 10,0 °C 4,8 km/h (1 Bft)
03.10.2017 18:45 10,0 °C 10,0 °C 91 % 1021,1 hPa 0,0 mm 0,3 km/h (0 Bft) W 271 ° 0 min 0,000 mm 0,0 UV-I 7 W/m² 8,6 °C 10,0 °C 1,6 km/h (1 Bft)
03.10.2017 18:46 10,0 °C 10,0 °C 92 % 1021,1 hPa 0,0 mm 0,5 km/h (0 Bft) W 271 ° 0 min 0,000 mm 0,0 UV-I 5 W/m² 8,8 °C 10,0 °C 1,6 km/h (1 Bft)
03.10.2017 18:47 10,0 °C 10,0 °C 92 % 1021,1 hPa 0,0 mm 1,1 km/h (1 Bft) W 271 ° 0 min 0,000 mm 0,0 UV-I 0 W/m² 8,8 °C 10,0 °C 1,6 km/h (1 Bft)
03.10.2017 18:49 9,9 °C 10,0 °C 92 % 1021,2 hPa 0,0 mm 0,0 km/h (0 Bft) W 271 ° 0 min 0,000 mm 0,0 UV-I 0 W/m² 8,7 °C 9,9 °C 0,0 km/h (0 Bft)
03.10.2017 18:50 10,0 °C 10,0 °C 92 % 1021,2 hPa 0,0 mm 0,6 km/h (0 Bft) W 270 ° 0 min 0,000 mm 0,0 UV-I 0 W/m² 8,8 °C 10,0 °C 1,6 km/h (1 Bft)
03.10.2017 18:51 9,9 °C 10,0 °C 92 % 1021,2 hPa 0,0 mm 0,9 km/h (0 Bft) W 270 ° 0 min 0,000 mm 0,0 UV-I 0 W/m² 8,7 °C 9,9 °C 3,2 km/h (1 Bft)
03.10.2017 18:52 10,0 °C 10,0 °C 92 % 1021,2 hPa 0,0 mm 1,3 km/h (1 Bft) W 270 ° 0 min 0,000 mm 0,0 UV-I 0 W/m² 8,8 °C 10,0 °C 3,2 km/h (1 Bft)
03.10.2017 18:53 9,9 °C 10,0 °C 92 % 1021,3 hPa 0,0 mm 0,7 km/h (0 Bft) W 270 ° 0 min 0,000 mm 0,0 UV-I 0 W/m² 8,7 °C 9,9 °C 3,2 km/h (1 Bft)
03.10.2017 18:54 9,9 °C 10,0 °C 92 % 1021,3 hPa 0,0 mm 0,2 km/h (0 Bft) W 270 ° 0 min 0,000 mm 0,0 UV-I 0 W/m² 8,7 °C 9,9 °C 1,6 km/h (1 Bft)
03.10.2017 18:55 10,0 °C 10,0 °C 92 % 1021,3 hPa 0,0 mm 0,9 km/h (0 Bft) W 270 ° 0 min 0,000 mm 0,0 UV-I 0 W/m² 8,8 °C 10,0 °C 1,6 km/h (1 Bft)
03.10.2017 18:56 9,9 °C 10,0 °C 92 % 1021,3 hPa 0,0 mm 2,1 km/h (1 Bft) SW 227 ° 0 min 0,000 mm 0,0 UV-I 0 W/m² 8,7 °C 9,9 °C 4,8 km/h (1 Bft)
03.10.2017 18:57 9,9 °C 9,9 °C 92 % 1021,3 hPa 0,0 mm 2,4 km/h (1 Bft) SW 227 ° 0 min 0,000 mm 0,0 UV-I 0 W/m² 8,7 °C 9,9 °C 3,2 km/h (1 Bft)
03.10.2017 18:58 10,0 °C 10,0 °C 92 % 1021,3 hPa 0,0 mm 0,7 km/h (0 Bft) SW 227 ° 0 min 0,000 mm 0,0 UV-I 0 W/m² 8,8 °C 10,0 °C 3,2 km/h (1 Bft)
03.10.2017 18:59 10,0 °C 10,0 °C 92 % 1021,4 hPa 0,0 mm 1,1 km/h (1 Bft) SW 227 ° 0 min 0,000 mm 0,0 UV-I 0 W/m² 8,8 °C 10,0 °C 1,6 km/h (1 Bft)
03.10.2017 19:00 10,0 °C 10,1 °C 92 % 1021,4 hPa 0,0 mm 1,4 km/h (1 Bft) SW 227 ° 0 min 0,000 mm 0,0 UV-I 0 W/m² 8,8 °C 10,0 °C 3,2 km/h (1 Bft)
03.10.2017 19:01 10,1 °C 10,1 °C 92 % 1021,4 hPa 0,0 mm 2,5 km/h (1 Bft) SW 215 ° 0 min 0,000 mm 0,0 UV-I 0 W/m² 8,9 °C 10,1 °C 4,8 km/h (1 Bft)
03.10.2017 19:02 10,1 °C 10,1 °C 91 % 1021,3 hPa 0,0 mm 2,7 km/h (1 Bft) SW 215 ° 0 min 0,000 mm 0,0 UV-I 0 W/m² 8,7 °C 10,1 °C 4,8 km/h (1 Bft)
03.10.2017 19:03 10,1 °C 10,1 °C 92 % 1021,4 hPa 0,0 mm 0,9 km/h (0 Bft) SW 215 ° 0 min 0,000 mm 0,0 UV-I 0 W/m² 8,9 °C 10,1 °C 3,2 km/h (1 Bft)
03.10.2017 19:04 10,1 °C 10,1 °C 92 % 1021,4 hPa 0,0 mm 3,8 km/h (1 Bft) SW 215 ° 0 min 0,000 mm 0,0 UV-I 0 W/m² 8,9 °C 10,1 °C 6,4 km/h (2 Bft)
03.10.2017 19:05 10,1 °C 10,1 °C 92 % 1021,5 hPa 0,0 mm 3,6 km/h (1 Bft) SW 215 ° 0 min 0,000 mm 0,0 UV-I 0 W/m² 8,9 °C 10,1 °C 4,8 km/h (1 Bft)
03.10.2017 19:06 10,1 °C 10,1 °C 92 % 1021,5 hPa 0,0 mm 3,2 km/h (1 Bft) SW 215 ° 0 min 0,000 mm 0,0 UV-I 0 W/m² 8,9 °C 10,1 °C 3,2 km/h (1 Bft)
03.10.2017 19:07 10,1 °C 10,1 °C 92 % 1021,6 hPa 0,0 mm 3,3 km/h (1 Bft) SW 215 ° 0 min 0,000 mm 0,0 UV-I 0 W/m² 8,9 °C 10,1 °C 4,8 km/h (1 Bft)
03.10.2017 19:08 10,1 °C 10,1 °C 92 % 1021,6 hPa 0,0 mm 2,8 km/h (1 Bft) S-SW 213 ° 0 min 0,000 mm 0,0 UV-I 0 W/m² 8,9 °C 10,1 °C 4,8 km/h (1 Bft)
03.10.2017 19:09 10,1 °C 10,1 °C 92 % 1021,6 hPa 0,0 mm 1,1 km/h (1 Bft) S-SW 213 ° 0 min 0,000 mm 0,0 UV-I 0 W/m² 8,9 °C 10,1 °C 3,2 km/h (1 Bft)
03.10.2017 19:10 10,1 °C 10,1 °C 92 % 1021,7 hPa 0,0 mm 4,4 km/h (1 Bft) S-SW 209 ° 0 min 0,000 mm 0,0 UV-I 0 W/m² 8,9 °C 10,1 °C 6,4 km/h (2 Bft)
03.10.2017 19:11 10,1 °C 10,1 °C 92 % 1021,6 hPa 0,0 mm 3,1 km/h (1 Bft) S-SW 208 ° 0 min 0,000 mm 0,0 UV-I 0 W/m² 8,9 °C 10,1 °C 4,8 km/h (1 Bft)
03.10.2017 19:12 10,1 °C 10,1 °C 92 % 1021,7 hPa 0,0 mm 2,3 km/h (1 Bft) S-SW 208 ° 0 min 0,000 mm 0,0 UV-I 0 W/m² 8,9 °C 10,1 °C 4,8 km/h (1 Bft)
03.10.2017 19:13 10,1 °C 10,1 °C 92 % 1021,7 hPa 0,0 mm 2,7 km/h (1 Bft) S-SW 208 ° 0 min 0,000 mm 0,0 UV-I 0 W/m² 8,9 °C 10,1 °C 3,2 km/h (1 Bft)
03.10.2017 19:14 10,1 °C 10,1 °C 91 % 1021,7 hPa 0,0 mm 1,7 km/h (1 Bft) S-SW 208 ° 0 min 0,000 mm 0,0 UV-I 0 W/m² 8,7 °C 10,1 °C 3,2 km/h (1 Bft)
03.10.2017 19:15 10,1 °C 10,1 °C 91 % 1021,7 hPa 0,0 mm 2,0 km/h (1 Bft) S-SW 208 ° 0 min 0,000 mm 0,0 UV-I 0 W/m² 8,7 °C 10,1 °C 3,2 km/h (1 Bft)
03.10.2017 19:16 10,1 °C 10,1 °C 92 % 1021,7 hPa 0,0 mm 2,6 km/h (1 Bft) S-SW 208 ° 0 min 0,000 mm 0,0 UV-I 0 W/m² 8,9 °C 10,1 °C 4,8 km/h (1 Bft)
03.10.2017 19:17 10,0 °C 10,1 °C 92 % 1021,7 hPa 0,0 mm 1,9 km/h (1 Bft) S-SW 208 ° 0 min 0,000 mm 0,0 UV-I 0 W/m² 8,8 °C 10,0 °C 3,2 km/h (1 Bft)
03.10.2017 19:18 10,1 °C 10,1 °C 92 % 1021,8 hPa 0,0 mm 2,6 km/h (1 Bft) S-SW 208 ° 0 min 0,000 mm 0,0 UV-I 0 W/m² 8,9 °C 10,1 °C 4,8 km/h (1 Bft)
03.10.2017 19:19 10,0 °C 10,1 °C 92 % 1021,9 hPa 0,0 mm 3,5 km/h (1 Bft) S-SW 208 ° 0 min 0,000 mm 0,0 UV-I 0 W/m² 8,8 °C 10,0 °C 4,8 km/h (1 Bft)
03.10.2017 19:20 10,0 °C 10,0 °C 92 % 1021,9 hPa 0,0 mm 2,7 km/h (1 Bft) S-SW 208 ° 0 min 0,000 mm 0,0 UV-I 0 W/m² 8,8 °C 10,0 °C 4,8 km/h (1 Bft)
03.10.2017 19:21 10,0 °C 10,0 °C 92 % 1021,9 hPa 0,0 mm 1,9 km/h (1 Bft) S-SW 193 ° 0 min 0,000 mm 0,0 UV-I 0 W/m² 8,8 °C 10,0 °C 3,2 km/h (1 Bft)
03.10.2017 19:22 9,9 °C 10,0 °C 92 % 1021,9 hPa 0,0 mm 2,0 km/h (1 Bft) S-SW 193 ° 0 min 0,000 mm 0,0 UV-I 0 W/m² 8,7 °C 9,9 °C 3,2 km/h (1 Bft)
03.10.2017 19:23 9,9 °C 9,9 °C 92 % 1021,9 hPa 0,0 mm 1,4 km/h (1 Bft) S-SW 193 ° 0 min 0,000 mm 0,0 UV-I 0 W/m² 8,7 °C 9,9 °C 3,2 km/h (1 Bft)
03.10.2017 19:24 9,9 °C 9,9 °C 93 % 1021,9 hPa 0,0 mm 1,4 km/h (1 Bft) S-SW 200 ° 0 min 0,000 mm 0,0 UV-I 0 W/m² 8,8 °C 9,9 °C 4,8 km/h (1 Bft)
03.10.2017 19:25 9,8 °C 9,9 °C 93 % 1021,9 hPa 0,0 mm 2,3 km/h (1 Bft) S-SW 200 ° 0 min 0,000 mm 0,0 UV-I 0 W/m² 8,7 °C 9,8 °C 3,2 km/h (1 Bft)
03.10.2017 19:26 9,8 °C 9,9 °C 93 % 1021,9 hPa 0,0 mm 3,8 km/h (1 Bft) S-SW 200 ° 0 min 0,000 mm 0,0 UV-I 0 W/m² 8,7 °C 9,8 °C 4,8 km/h (1 Bft)
03.10.2017 19:27 9,8 °C 9,8 °C 92 % 1021,9 hPa 0,0 mm 4,2 km/h (1 Bft) S-SW 192 ° 0 min 0,000 mm 0,0 UV-I 0 W/m² 8,6 °C 9,8 °C 6,4 km/h (2 Bft)
03.10.2017 19:28 9,8 °C 9,8 °C 93 % 1021,9 hPa 0,0 mm 3,1 km/h (1 Bft) S 189 ° 0 min 0,000 mm 0,0 UV-I 0 W/m² 8,7 °C 9,8 °C 4,8 km/h (1 Bft)
03.10.2017 19:29 9,8 °C 9,9 °C 93 % 1022,0 hPa 0,0 mm 3,0 km/h (1 Bft) S 190 ° 0 min 0,000 mm 0,0 UV-I 0 W/m² 8,7 °C 9,8 °C 6,4 km/h (2 Bft)
03.10.2017 19:30 9,8 °C 9,9 °C 93 % 1022,0 hPa 0,0 mm 1,4 km/h (1 Bft) S 190 ° 0 min 0,000 mm 0,0 UV-I 0 W/m² 8,7 °C 9,8 °C 3,2 km/h (1 Bft)
03.10.2017 19:31 9,8 °C 9,9 °C 93 % 1022,0 hPa 0,0 mm 2,1 km/h (1 Bft) S 189 ° 0 min 0,000 mm 0,0 UV-I 0 W/m² 8,7 °C 9,8 °C 4,8 km/h (1 Bft)
03.10.2017 19:32 9,8 °C 9,8 °C 93 % 1022,0 hPa 0,0 mm 1,2 km/h (1 Bft) S 189 ° 0 min 0,000 mm 0,0 UV-I 0 W/m² 8,7 °C 9,8 °C 3,2 km/h (1 Bft)
03.10.2017 19:33 9,8 °C 9,8 °C 93 % 1022,0 hPa 0,0 mm 1,1 km/h (1 Bft) S 189 ° 0 min 0,000 mm 0,0 UV-I 0 W/m² 8,7 °C 9,8 °C 3,2 km/h (1 Bft)
03.10.2017 19:34 9,8 °C 9,8 °C 93 % 1022,0 hPa 0,0 mm 1,9 km/h (1 Bft) S 189 ° 0 min 0,000 mm 0,0 UV-I 0 W/m² 8,7 °C 9,8 °C 3,2 km/h (1 Bft)
03.10.2017 19:35 9,8 °C 9,8 °C 93 % 1022,1 hPa 0,0 mm 0,9 km/h (0 Bft) S 189 ° 0 min 0,000 mm 0,0 UV-I 0 W/m² 8,7 °C 9,8 °C 3,2 km/h (1 Bft)
03.10.2017 19:36 9,8 °C 9,8 °C 93 % 1022,1 hPa 0,0 mm 2,8 km/h (1 Bft) S 189 ° 0 min 0,000 mm 0,0 UV-I 0 W/m² 8,7 °C 9,8 °C 4,8 km/h (1 Bft)
03.10.2017 19:37 9,8 °C 9,8 °C 93 % 1022,1 hPa 0,0 mm 0,3 km/h (0 Bft) S 189 ° 0 min 0,000 mm 0,0 UV-I 0 W/m² 8,7 °C 9,8 °C 1,6 km/h (1 Bft)
03.10.2017 19:38 9,8 °C 9,8 °C 93 % 1022,1 hPa 0,0 mm 1,1 km/h (1 Bft) S 189 ° 0 min 0,000 mm 0,0 UV-I 0 W/m² 8,7 °C 9,8 °C 3,2 km/h (1 Bft)
03.10.2017 19:39 9,8 °C 9,8 °C 93 % 1022,1 hPa 0,0 mm 0,9 km/h (0 Bft) S 189 ° 0 min 0,000 mm 0,0 UV-I 0 W/m² 8,7 °C 9,8 °C 3,2 km/h (1 Bft)
03.10.2017 19:40 9,8 °C 9,8 °C 93 % 1022,2 hPa 0,0 mm 0,0 km/h (0 Bft) S 189 ° 0 min 0,000 mm 0,0 UV-I 0 W/m² 8,7 °C 9,8 °C 0,0 km/h (0 Bft)
03.10.2017 19:41 9,8 °C 9,8 °C 93 % 1022,2 hPa 0,0 mm 0,0 km/h (0 Bft) S 189 ° 0 min 0,000 mm 0,0 UV-I 0 W/m² 8,7 °C 9,8 °C 0,0 km/h (0 Bft)
03.10.2017 19:42 9,7 °C 9,8 °C 93 % 1022,2 hPa 0,0 mm 0,0 km/h (0 Bft) S 189 ° 0 min 0,000 mm 0,0 UV-I 0 W/m² 8,6 °C 9,7 °C 0,0 km/h (0 Bft)
03.10.2017 19:43 9,7 °C 9,8 °C 94 % 1022,2 hPa 0,0 mm 0,5 km/h (0 Bft) S 189 ° 0 min 0,000 mm 0,0 UV-I 0 W/m² 8,8 °C 9,7 °C 1,6 km/h (1 Bft)
03.10.2017 19:44 9,7 °C 9,7 °C 94 % 1022,2 hPa 0,0 mm 0,1 km/h (0 Bft) S 189 ° 0 min 0,000 mm 0,0 UV-I 0 W/m² 8,8 °C 9,7 °C 1,6 km/h (1 Bft)
03.10.2017 19:45 9,7 °C 9,7 °C 93 % 1022,1 hPa 0,0 mm 0,0 km/h (0 Bft) S 189 ° 0 min 0,000 mm 0,0 UV-I 0 W/m² 8,6 °C 9,7 °C 0,0 km/h (0 Bft)
03.10.2017 19:46 9,7 °C 9,7 °C 93 % 1022,2 hPa 0,0 mm 0,0 km/h (0 Bft) S 189 ° 0 min 0,000 mm 0,0 UV-I 0 W/m² 8,6 °C 9,7 °C 0,0 km/h (0 Bft)
03.10.2017 19:47 9,7 °C 9,7 °C 93 % 1022,2 hPa 0,0 mm 0,0 km/h (0 Bft) S 189 ° 0 min 0,000 mm 0,0 UV-I 0 W/m² 8,6 °C 9,7 °C 0,0 km/h (0 Bft)
03.10.2017 19:48 9,7 °C 9,7 °C 94 % 1022,2 hPa 0,0 mm 1,3 km/h (1 Bft) S 189 ° 0 min 0,000 mm 0,0 UV-I 0 W/m² 8,8 °C 9,7 °C 4,8 km/h (1 Bft)
03.10.2017 19:49 9,7 °C 9,7 °C 94 % 1022,3 hPa 0,0 mm 0,0 km/h (0 Bft) S 189 ° 0 min 0,000 mm 0,0 UV-I 0 W/m² 8,8 °C 9,7 °C 0,0 km/h (0 Bft)
03.10.2017 19:50 9,8 °C 9,8 °C 93 % 1022,3 hPa 0,0 mm 2,2 km/h (1 Bft) S 189 ° 0 min 0,000 mm 0,0 UV-I 0 W/m² 8,7 °C 9,8 °C 3,2 km/h (1 Bft)
03.10.2017 19:51 9,8 °C 9,8 °C 94 % 1022,2 hPa 0,0 mm 0,1 km/h (0 Bft) S 189 ° 0 min 0,000 mm 0,0 UV-I 0 W/m² 8,9 °C 9,8 °C 1,6 km/h (1 Bft)
03.10.2017 19:52 9,8 °C 9,8 °C 94 % 1022,3 hPa 0,0 mm 2,6 km/h (1 Bft) S 190 ° 0 min 0,000 mm 0,0 UV-I 0 W/m² 8,9 °C 9,8 °C 4,8 km/h (1 Bft)
03.10.2017 19:53 9,8 °C 9,8 °C 94 % 1022,3 hPa 0,0 mm 0,2 km/h (0 Bft) S 190 ° 0 min 0,000 mm 0,0 UV-I 0 W/m² 8,9 °C 9,8 °C 1,6 km/h (1 Bft)
03.10.2017 19:54 9,8 °C 9,8 °C 94 % 1022,3 hPa 0,0 mm 0,1 km/h (0 Bft) S 190 ° 0 min 0,000 mm 0,0 UV-I 0 W/m² 8,9 °C 9,8 °C 1,6 km/h (1 Bft)
03.10.2017 19:55 9,8 °C 9,8 °C 94 % 1022,4 hPa 0,0 mm 2,7 km/h (1 Bft) S-SW 192 ° 0 min 0,000 mm 0,0 UV-I 0 W/m² 8,9 °C 9,8 °C 4,8 km/h (1 Bft)
03.10.2017 19:56 9,8 °C 9,8 °C 94 % 1022,4 hPa 0,0 mm 3,2 km/h (1 Bft) S-SW 192 ° 0 min 0,000 mm 0,0 UV-I 0 W/m² 8,9 °C 9,8 °C 4,8 km/h (1 Bft)
03.10.2017 19:57 9,8 °C 9,8 °C 94 % 1022,5 hPa 0,0 mm 4,2 km/h (1 Bft) S-SW 196 ° 0 min 0,000 mm 0,0 UV-I 0 W/m² 8,9 °C 9,8 °C 6,4 km/h (2 Bft)
03.10.2017 19:58 9,8 °C 9,8 °C 94 % 1022,5 hPa 0,0 mm 3,2 km/h (1 Bft) S-SO 167 ° 0 min 0,000 mm 0,0 UV-I 0 W/m² 8,9 °C 9,8 °C 6,4 km/h (2 Bft)
03.10.2017 19:59 9,8 °C 9,8 °C 94 % 1022,5 hPa 0,0 mm 3,9 km/h (1 Bft) S-SW 192 ° 0 min 0,000 mm 0,0 UV-I 0 W/m² 8,9 °C 9,8 °C 6,4 km/h (2 Bft)
03.10.2017 20:00 9,9 °C 9,9 °C 93 % 1022,5 hPa 0,0 mm 1,7 km/h (1 Bft) S-SW 192 ° 0 min 0,000 mm 0,0 UV-I 0 W/m² 8,8 °C 9,9 °C 3,2 km/h (1 Bft)
03.10.2017 20:01 9,9 °C 9,9 °C 93 % 1022,5 hPa 0,0 mm 1,6 km/h (1 Bft) S-SW 194 ° 0 min 0,000 mm 0,0 UV-I 0 W/m² 8,8 °C 9,9 °C 3,2 km/h (1 Bft)
03.10.2017 20:02 9,9 °C 9,9 °C 93 % 1022,5 hPa 0,0 mm 1,9 km/h (1 Bft) S-SW 194 ° 0 min 0,000 mm 0,0 UV-I 0 W/m² 8,8 °C 9,9 °C 3,2 km/h (1 Bft)
03.10.2017 20:03 9,9 °C 9,9 °C 93 % 1022,6 hPa 0,0 mm 1,5 km/h (1 Bft) S-SW 194 ° 0 min 0,000 mm 0,0 UV-I 0 W/m² 8,8 °C 9,9 °C 1,6 km/h (1 Bft)
03.10.2017 20:04 9,9 °C 9,9 °C 93 % 1022,5 hPa 0,0 mm 0,7 km/h (0 Bft) S-SW 194 ° 0 min 0,000 mm 0,0 UV-I 0 W/m² 8,8 °C 9,9 °C 3,2 km/h (1 Bft)
03.10.2017 20:05 9,9 °C 9,9 °C 93 % 1022,5 hPa 0,0 mm 0,2 km/h (0 Bft) S-SW 194 ° 0 min 0,000 mm 0,0 UV-I 0 W/m² 8,8 °C 9,9 °C 1,6 km/h (1 Bft)
03.10.2017 20:06 9,9 °C 9,9 °C 93 % 1022,6 hPa 0,0 mm 0,2 km/h (0 Bft) S-SW 194 ° 0 min 0,000 mm 0,0 UV-I 0 W/m² 8,8 °C 9,9 °C 1,6 km/h (1 Bft)
03.10.2017 20:07 9,9 °C 9,9 °C 93 % 1022,7 hPa 0,0 mm 3,1 km/h (1 Bft) S-SW 194 ° 0 min 0,000 mm 0,0 UV-I 0 W/m² 8,8 °C 9,9 °C 4,8 km/h (1 Bft)
03.10.2017 20:08 9,9 °C 9,9 °C 93 % 1022,7 hPa 0,0 mm 2,2 km/h (1 Bft) S-SW 194 ° 0 min 0,000 mm 0,0 UV-I 0 W/m² 8,8 °C 9,9 °C 4,8 km/h (1 Bft)
03.10.2017 20:09 9,9 °C 9,9 °C 93 % 1022,7 hPa 0,0 mm 0,1 km/h (0 Bft) S-SW 194 ° 0 min 0,000 mm 0,0 UV-I 0 W/m² 8,8 °C 9,9 °C 1,6 km/h (1 Bft)
03.10.2017 20:10 9,9 °C 9,9 °C 93 % 1022,7 hPa 0,0 mm 0,4 km/h (0 Bft) W-SW 244 ° 0 min 0,000 mm 0,0 UV-I 0 W/m² 8,8 °C 9,9 °C 3,2 km/h (1 Bft)
03.10.2017 20:11 9,9 °C 9,9 °C 93 % 1022,7 hPa 0,0 mm 0,7 km/h (0 Bft) W-SW 244 ° 0 min 0,000 mm 0,0 UV-I 0 W/m² 8,8 °C 9,9 °C 3,2 km/h (1 Bft)
03.10.2017 20:12 10,0 °C 10,0 °C 93 % 1022,7 hPa 0,0 mm 0,0 km/h (0 Bft) W-SW 244 ° 0 min 0,000 mm 0,0 UV-I 0 W/m² 8,9 °C 10,0 °C 0,0 km/h (0 Bft)
03.10.2017 20:13 10,0 °C 10,0 °C 93 % 1022,7 hPa 0,0 mm 0,0 km/h (0 Bft) W-SW 244 ° 0 min 0,000 mm 0,0 UV-I 0 W/m² 8,9 °C 10,0 °C 0,0 km/h (0 Bft)
03.10.2017 20:14 10,0 °C 10,1 °C 93 % 1022,8 hPa 0,0 mm 0,0 km/h (0 Bft) W-SW 244 ° 0 min 0,000 mm 0,0 UV-I 0 W/m² 8,9 °C 10,0 °C 0,0 km/h (0 Bft)
03.10.2017 20:15 10,0 °C 10,1 °C 92 % 1022,9 hPa 0,0 mm 1,3 km/h (1 Bft) W-SW 244 ° 0 min 0,000 mm 0,0 UV-I 0 W/m² 8,8 °C 10,0 °C 3,2 km/h (1 Bft)
03.10.2017 20:16 10,1 °C 10,1 °C 92 % 1022,8 hPa 0,0 mm 1,6 km/h (1 Bft) W-SW 243 ° 0 min 0,000 mm 0,0 UV-I 0 W/m² 8,9 °C 10,1 °C 4,8 km/h (1 Bft)
03.10.2017 20:17 10,1 °C 10,1 °C 92 % 1022,9 hPa 0,0 mm 0,5 km/h (0 Bft) W-SW 243 ° 0 min 0,000 mm 0,0 UV-I 0 W/m² 8,9 °C 10,1 °C 1,6 km/h (1 Bft)
03.10.2017 20:18 10,1 °C 10,1 °C 92 % 1022,9 hPa 0,0 mm 0,7 km/h (0 Bft) W-SW 243 ° 0 min 0,000 mm 0,0 UV-I 0 W/m² 8,9 °C 10,1 °C 1,6 km/h (1 Bft)
03.10.2017 20:19 10,1 °C 10,1 °C 92 % 1022,9 hPa 0,0 mm 0,7 km/h (0 Bft) W-SW 243 ° 0 min 0,000 mm 0,0 UV-I 0 W/m² 8,9 °C 10,1 °C 1,6 km/h (1 Bft)
03.10.2017 20:20 10,1 °C 10,1 °C 92 % 1023,0 hPa 0,0 mm 0,3 km/h (0 Bft) W-SW 243 ° 0 min 0,000 mm 0,0 UV-I 0 W/m² 8,9 °C 10,1 °C 1,6 km/h (1 Bft)
03.10.2017 20:21 10,1 °C 10,1 °C 92 % 1023,0 hPa 0,0 mm 0,0 km/h (0 Bft) W-SW 243 ° 0 min 0,000 mm 0,0 UV-I 0 W/m² 8,9 °C 10,1 °C 0,0 km/h (0 Bft)
03.10.2017 20:22 10,1 °C 10,1 °C 92 % 1023,0 hPa 0,0 mm 1,4 km/h (1 Bft) W-SW 243 ° 0 min 0,000 mm 0,0 UV-I 0 W/m² 8,9 °C 10,1 °C 3,2 km/h (1 Bft)
03.10.2017 20:23 10,1 °C 10,1 °C 92 % 1023,0 hPa 0,0 mm 0,3 km/h (0 Bft) W-SW 243 ° 0 min 0,000 mm 0,0 UV-I 0 W/m² 8,9 °C 10,1 °C 1,6 km/h (1 Bft)
03.10.2017 20:24 10,1 °C 10,1 °C 92 % 1023,0 hPa 0,0 mm 0,0 km/h (0 Bft) W-SW 243 ° 0 min 0,000 mm 0,0 UV-I 0 W/m² 8,9 °C 10,1 °C 0,0 km/h (0 Bft)
03.10.2017 20:25 10,1 °C 10,1 °C 92 % 1023,0 hPa 0,0 mm 0,0 km/h (0 Bft) W-SW 243 ° 0 min 0,000 mm 0,0 UV-I 0 W/m² 8,9 °C 10,1 °C 0,0 km/h (0 Bft)
03.10.2017 20:26 10,1 °C 10,1 °C 91 % 1023,0 hPa 0,0 mm 0,0 km/h (0 Bft) W-SW 243 ° 0 min 0,000 mm 0,0 UV-I 0 W/m² 8,7 °C 10,1 °C 0,0 km/h (0 Bft)
03.10.2017 20:27 10,1 °C 10,1 °C 91 % 1023,1 hPa 0,0 mm 0,2 km/h (0 Bft) W-SW 243 ° 0 min 0,000 mm 0,0 UV-I 0 W/m² 8,7 °C 10,1 °C 3,2 km/h (1 Bft)
03.10.2017 20:28 10,1 °C 10,1 °C 92 % 1023,1 hPa 0,0 mm 1,1 km/h (1 Bft) W-SW 243 ° 0 min 0,000 mm 0,0 UV-I 0 W/m² 8,9 °C 10,1 °C 3,2 km/h (1 Bft)
03.10.2017 20:29 10,1 °C 10,1 °C 92 % 1023,1 hPa 0,0 mm 0,0 km/h (0 Bft) W-SW 243 ° 0 min 0,000 mm 0,0 UV-I 0 W/m² 8,9 °C 10,1 °C 0,0 km/h (0 Bft)
03.10.2017 20:30 10,1 °C 10,1 °C 92 % 1023,1 hPa 0,0 mm 0,0 km/h (0 Bft) W-SW 243 ° 0 min 0,000 mm 0,0 UV-I 0 W/m² 8,9 °C 10,1 °C 0,0 km/h (0 Bft)
03.10.2017 20:31 10,1 °C 10,1 °C 92 % 1023,2 hPa 0,0 mm 0,0 km/h (0 Bft) W-SW 243 ° 0 min 0,000 mm 0,0 UV-I 0 W/m² 8,9 °C 10,1 °C 0,0 km/h (0 Bft)
03.10.2017 20:32 10,1 °C 10,1 °C 92 % 1023,2 hPa 0,0 mm 0,0 km/h (0 Bft) W-SW 243 ° 0 min 0,000 mm 0,0 UV-I 0 W/m² 8,9 °C 10,1 °C 0,0 km/h (0 Bft)
03.10.2017 20:33 10,0 °C 10,1 °C 92 % 1023,2 hPa 0,0 mm 0,9 km/h (0 Bft) W-SW 243 ° 0 min 0,000 mm 0,0 UV-I 0 W/m² 8,8 °C 10,0 °C 3,2 km/h (1 Bft)
03.10.2017 20:34 10,0 °C 10,0 °C 92 % 1023,3 hPa 0,0 mm 2,0 km/h (1 Bft) W-SW 242 ° 0 min 0,000 mm 0,0 UV-I 0 W/m² 8,8 °C 10,0 °C 3,2 km/h (1 Bft)
03.10.2017 20:35 10,0 °C 10,0 °C 91 % 1023,3 hPa 0,0 mm 0,4 km/h (0 Bft) W-SW 242 ° 0 min 0,000 mm 0,0 UV-I 0 W/m² 8,6 °C 10,0 °C 3,2 km/h (1 Bft)
03.10.2017 20:36 10,0 °C 10,0 °C 91 % 1023,3 hPa 0,0 mm 2,3 km/h (1 Bft) W-SW 242 ° 0 min 0,000 mm 0,0 UV-I 0 W/m² 8,6 °C 10,0 °C 3,2 km/h (1 Bft)
03.10.2017 20:37 10,0 °C 10,0 °C 92 % 1023,3 hPa 0,0 mm 1,7 km/h (1 Bft) W-SW 242 ° 0 min 0,000 mm 0,0 UV-I 0 W/m² 8,8 °C 10,0 °C 3,2 km/h (1 Bft)
03.10.2017 20:38 10,0 °C 10,0 °C 91 % 1023,3 hPa 0,0 mm 3,4 km/h (1 Bft) S-SW 210 ° 0 min 0,000 mm 0,0 UV-I 0 W/m² 8,6 °C 10,0 °C 6,4 km/h (2 Bft)
03.10.2017 20:39 10,1 °C 10,1 °C 92 % 1023,4 hPa 0,0 mm 3,8 km/h (1 Bft) S 184 ° 0 min 0,000 mm 0,0 UV-I 0 W/m² 8,9 °C 10,1 °C 6,4 km/h (2 Bft)
03.10.2017 20:40 10,1 °C 10,1 °C 92 % 1023,4 hPa 0,0 mm 5,5 km/h (1 Bft) S-SW 198 ° 0 min 0,000 mm 0,0 UV-I 0 W/m² 8,9 °C 10,1 °C 8,0 km/h (2 Bft)
03.10.2017 20:41 10,1 °C 10,1 °C 91 % 1023,4 hPa 0,0 mm 4,2 km/h (1 Bft) S-SW 197 ° 0 min 0,000 mm 0,0 UV-I 0 W/m² 8,7 °C 10,1 °C 6,4 km/h (2 Bft)
03.10.2017 20:42 10,1 °C 10,1 °C 92 % 1023,4 hPa 0,0 mm 2,4 km/h (1 Bft) S-SW 197 ° 0 min 0,000 mm 0,0 UV-I 0 W/m² 8,9 °C 10,1 °C 4,8 km/h (1 Bft)
03.10.2017 20:43 10,0 °C 10,1 °C 92 % 1023,5 hPa 0,0 mm 5,3 km/h (1 Bft) S-SW 194 ° 0 min 0,000 mm 0,0 UV-I 0 W/m² 8,8 °C 9,7 °C 6,4 km/h (2 Bft)
03.10.2017 20:44 10,0 °C 10,1 °C 92 % 1023,5 hPa 0,0 mm 5,2 km/h (1 Bft) S 191 ° 0 min 0,000 mm 0,0 UV-I 0 W/m² 8,8 °C 9,7 °C 8,0 km/h (2 Bft)
03.10.2017 20:45 10,0 °C 10,1 °C 91 % 1023,5 hPa 0,0 mm 5,3 km/h (1 Bft) S-SW 192 ° 0 min 0,000 mm 0,0 UV-I 0 W/m² 8,6 °C 9,7 °C 8,0 km/h (2 Bft)
03.10.2017 20:46 10,0 °C 10,1 °C 92 % 1023,6 hPa 0,0 mm 4,6 km/h (1 Bft) S-SW 198 ° 0 min 0,000 mm 0,0 UV-I 0 W/m² 8,8 °C 9,9 °C 8,0 km/h (2 Bft)
03.10.2017 20:47 10,1 °C 10,1 °C 91 % 1023,6 hPa 0,0 mm 3,3 km/h (1 Bft) S-SW 198 ° 0 min 0,000 mm 0,0 UV-I 0 W/m² 8,7 °C 10,1 °C 4,8 km/h (1 Bft)
03.10.2017 20:48 10,1 °C 10,1 °C 92 % 1023,6 hPa 0,0 mm 1,9 km/h (1 Bft) S-SW 196 ° 0 min 0,000 mm 0,0 UV-I 0 W/m² 8,9 °C 10,1 °C 4,8 km/h (1 Bft)
03.10.2017 20:49 10,1 °C 10,1 °C 91 % 1023,6 hPa 0,0 mm 3,4 km/h (1 Bft) S-SW 192 ° 0 min 0,000 mm 0,0 UV-I 0 W/m² 8,7 °C 10,1 °C 4,8 km/h (1 Bft)
03.10.2017 20:50 10,1 °C 10,1 °C 92 % 1023,6 hPa 0,0 mm 5,2 km/h (1 Bft) S-SW 192 ° 0 min 0,000 mm 0,0 UV-I 0 W/m² 8,9 °C 10,1 °C 8,0 km/h (2 Bft)
03.10.2017 20:51 10,0 °C 10,1 °C 92 % 1023,6 hPa 0,0 mm 3,8 km/h (1 Bft) S-SW 200 ° 0 min 0,000 mm 0,0 UV-I 0 W/m² 8,8 °C 10,0 °C 8,0 km/h (2 Bft)
03.10.2017 20:52 10,0 °C 10,0 °C 92 % 1023,6 hPa 0,0 mm 4,5 km/h (1 Bft) S-SW 209 ° 0 min 0,000 mm 0,0 UV-I 0 W/m² 8,8 °C 10,0 °C 8,0 km/h (2 Bft)
03.10.2017 20:53 10,0 °C 10,0 °C 92 % 1023,6 hPa 0,0 mm 4,5 km/h (1 Bft) S-SW 205 ° 0 min 0,000 mm 0,0 UV-I 0 W/m² 8,8 °C 10,0 °C 8,0 km/h (2 Bft)
03.10.2017 20:54 10,0 °C 10,0 °C 91 % 1023,6 hPa 0,0 mm 3,2 km/h (1 Bft) S 173 ° 0 min 0,000 mm 0,0 UV-I 0 W/m² 8,6 °C 10,0 °C 4,8 km/h (1 Bft)
03.10.2017 20:55 10,0 °C 10,0 °C 91 % 1023,7 hPa 0,0 mm 2,6 km/h (1 Bft) S 187 ° 0 min 0,000 mm 0,0 UV-I 0 W/m² 8,6 °C 10,0 °C 4,8 km/h (1 Bft)
03.10.2017 20:56 10,0 °C 10,0 °C 92 % 1023,7 hPa 0,0 mm 2,3 km/h (1 Bft) S-SW 198 ° 0 min 0,000 mm 0,0 UV-I 0 W/m² 8,8 °C 10,0 °C 3,2 km/h (1 Bft)
03.10.2017 20:57 10,0 °C 10,0 °C 91 % 1023,7 hPa 0,0 mm 2,7 km/h (1 Bft) S-SW 198 ° 0 min 0,000 mm 0,0 UV-I 0 W/m² 8,6 °C 10,0 °C 4,8 km/h (1 Bft)
03.10.2017 20:58 9,9 °C 10,0 °C 92 % 1023,7 hPa 0,0 mm 2,4 km/h (1 Bft) S-SW 198 ° 0 min 0,000 mm 0,0 UV-I 0 W/m² 8,7 °C 9,9 °C 3,2 km/h (1 Bft)
03.10.2017 20:59 9,9 °C 10,0 °C 92 % 1023,7 hPa 0,0 mm 1,4 km/h (1 Bft) S-SW 198 ° 0 min 0,000 mm 0,0 UV-I 0 W/m² 8,7 °C 9,9 °C 3,2 km/h (1 Bft)
03.10.2017 21:00 9,9 °C 9,9 °C 92 % 1023,7 hPa 0,0 mm 2,4 km/h (1 Bft) S-SW 198 ° 0 min 0,000 mm 0,0 UV-I 0 W/m² 8,7 °C 9,9 °C 4,8 km/h (1 Bft)
03.10.2017 21:01 9,9 °C 9,9 °C 92 % 1023,7 hPa 0,0 mm 0,0 km/h (0 Bft) S-SW 198 ° 0 min 0,000 mm 0,0 UV-I 0 W/m² 8,7 °C 9,9 °C 0,0 km/h (0 Bft)
03.10.2017 21:02 9,8 °C 9,9 °C 92 % 1023,7 hPa 0,0 mm 0,9 km/h (0 Bft) S-SW 198 ° 0 min 0,000 mm 0,0 UV-I 0 W/m² 8,6 °C 9,8 °C 1,6 km/h (1 Bft)
03.10.2017 21:03 9,8 °C 9,8 °C 92 % 1023,7 hPa 0,0 mm 1,2 km/h (1 Bft) S-SW 198 ° 0 min 0,000 mm 0,0 UV-I 0 W/m² 8,6 °C 9,8 °C 1,6 km/h (1 Bft)
03.10.2017 21:04 9,8 °C 9,8 °C 92 % 1023,7 hPa 0,0 mm 1,7 km/h (1 Bft) S-SW 198 ° 0 min 0,000 mm 0,0 UV-I 0 W/m² 8,6 °C 9,8 °C 4,8 km/h (1 Bft)
03.10.2017 21:05 9,7 °C 9,8 °C 92 % 1023,8 hPa 0,0 mm 2,4 km/h (1 Bft) S-SW 198 ° 0 min 0,000 mm 0,0 UV-I 0 W/m² 8,5 °C 9,7 °C 4,8 km/h (1 Bft)
03.10.2017 21:06 9,7 °C 9,7 °C 92 % 1023,8 hPa 0,0 mm 3,8 km/h (1 Bft) S-SW 198 ° 0 min 0,000 mm 0,0 UV-I 0 W/m² 8,5 °C 9,7 °C 4,8 km/h (1 Bft)
03.10.2017 21:07 9,8 °C 9,8 °C 92 % 1023,8 hPa 0,0 mm 1,9 km/h (1 Bft) S-SW 193 ° 0 min 0,000 mm 0,0 UV-I 0 W/m² 8,6 °C 9,8 °C 4,8 km/h (1 Bft)
03.10.2017 21:08 9,8 °C 9,8 °C 92 % 1023,8 hPa 0,0 mm 3,0 km/h (1 Bft) S-SW 192 ° 0 min 0,000 mm 0,0 UV-I 0 W/m² 8,6 °C 9,8 °C 4,8 km/h (1 Bft)
03.10.2017 21:09 9,8 °C 9,8 °C 91 % 1023,8 hPa 0,0 mm 2,7 km/h (1 Bft) W-SW 248 ° 0 min 0,000 mm 0,0 UV-I 0 W/m² 8,4 °C 9,8 °C 4,8 km/h (1 Bft)
03.10.2017 21:10 9,8 °C 9,8 °C 91 % 1023,8 hPa 0,0 mm 2,3 km/h (1 Bft) S-SW 209 ° 0 min 0,000 mm 0,0 UV-I 0 W/m² 8,4 °C 9,8 °C 4,8 km/h (1 Bft)
03.10.2017 21:11 9,9 °C 9,9 °C 91 % 1023,8 hPa 0,0 mm 2,2 km/h (1 Bft) S-SW 209 ° 0 min 0,000 mm 0,0 UV-I 0 W/m² 8,5 °C 9,9 °C 4,8 km/h (1 Bft)
03.10.2017 21:12 9,9 °C 9,9 °C 91 % 1023,8 hPa 0,0 mm 0,9 km/h (0 Bft) S-SW 209 ° 0 min 0,000 mm 0,0 UV-I 0 W/m² 8,5 °C 9,9 °C 3,2 km/h (1 Bft)
03.10.2017 21:13 9,9 °C 9,9 °C 90 % 1023,9 hPa 0,0 mm 3,3 km/h (1 Bft) SW 227 ° 0 min 0,000 mm 0,0 UV-I 0 W/m² 8,3 °C 9,9 °C 4,8 km/h (1 Bft)
03.10.2017 21:14 9,9 °C 9,9 °C 90 % 1023,9 hPa 0,0 mm 1,7 km/h (1 Bft) SW 227 ° 0 min 0,000 mm 0,0 UV-I 0 W/m² 8,3 °C 9,9 °C 3,2 km/h (1 Bft)
03.10.2017 21:15 9,9 °C 9,9 °C 90 % 1023,9 hPa 0,0 mm 1,7 km/h (1 Bft) SW 227 ° 0 min 0,000 mm 0,0 UV-I 0 W/m² 8,3 °C 9,9 °C 3,2 km/h (1 Bft)
03.10.2017 21:16 9,9 °C 9,9 °C 91 % 1024,0 hPa 0,0 mm 1,4 km/h (1 Bft) SW 227 ° 0 min 0,000 mm 0,0 UV-I 0 W/m² 8,5 °C 9,9 °C 3,2 km/h (1 Bft)
03.10.2017 21:17 9,9 °C 9,9 °C 90 % 1024,0 hPa 0,0 mm 3,2 km/h (1 Bft) S-SW 207 ° 0 min 0,000 mm 0,0 UV-I 0 W/m² 8,3 °C 9,9 °C 6,4 km/h (2 Bft)
03.10.2017 21:18 9,9 °C 9,9 °C 90 % 1024,0 hPa 0,0 mm 2,2 km/h (1 Bft) S-SW 207 ° 0 min 0,000 mm 0,0 UV-I 0 W/m² 8,3 °C 9,9 °C 4,8 km/h (1 Bft)
03.10.2017 21:19 9,9 °C 9,9 °C 89 % 1024,1 hPa 0,0 mm 2,8 km/h (1 Bft) S-SW 207 ° 0 min 0,000 mm 0,0 UV-I 0 W/m² 8,2 °C 9,9 °C 4,8 km/h (1 Bft)
03.10.2017 21:20 9,9 °C 9,9 °C 89 % 1024,1 hPa 0,0 mm 1,7 km/h (1 Bft) S-SW 207 ° 0 min 0,000 mm 0,0 UV-I 0 W/m² 8,2 °C 9,9 °C 3,2 km/h (1 Bft)
03.10.2017 21:21 9,9 °C 9,9 °C 90 % 1024,1 hPa 0,0 mm 1,6 km/h (1 Bft) S-SW 207 ° 0 min 0,000 mm 0,0 UV-I 0 W/m² 8,3 °C 9,9 °C 3,2 km/h (1 Bft)
03.10.2017 21:22 9,9 °C 9,9 °C 89 % 1024,1 hPa 0,0 mm 3,2 km/h (1 Bft) S-SW 207 ° 0 min 0,000 mm 0,0 UV-I 0 W/m² 8,2 °C 9,9 °C 4,8 km/h (1 Bft)
03.10.2017 21:23 9,9 °C 9,9 °C 89 % 1024,2 hPa 0,0 mm 4,0 km/h (1 Bft) S-SW 207 ° 0 min 0,000 mm 0,0 UV-I 0 W/m² 8,2 °C 9,9 °C 6,4 km/h (2 Bft)
03.10.2017 21:24 9,9 °C 9,9 °C 89 % 1024,2 hPa 0,0 mm 2,9 km/h (1 Bft) S-SW 207 ° 0 min 0,000 mm 0,0 UV-I 0 W/m² 8,2 °C 9,9 °C 4,8 km/h (1 Bft)
03.10.2017 21:25 9,9 °C 9,9 °C 89 % 1024,2 hPa 0,0 mm 2,1 km/h (1 Bft) S-SW 207 ° 0 min 0,000 mm 0,0 UV-I 0 W/m² 8,2 °C 9,9 °C 3,2 km/h (1 Bft)
03.10.2017 21:26 9,9 °C 9,9 °C 90 % 1024,2 hPa 0,0 mm 1,5 km/h (1 Bft) S-SW 207 ° 0 min 0,000 mm 0,0 UV-I 0 W/m² 8,3 °C 9,9 °C 3,2 km/h (1 Bft)
03.10.2017 21:27 9,9 °C 9,9 °C 91 % 1024,2 hPa 0,0 mm 0,5 km/h (0 Bft) S-SW 207 ° 0 min 0,000 mm 0,0 UV-I 0 W/m² 8,5 °C 9,9 °C 3,2 km/h (1 Bft)
03.10.2017 21:28 9,8 °C 9,9 °C 91 % 1024,2 hPa 0,0 mm 1,4 km/h (1 Bft) S-SW 207 ° 0 min 0,000 mm 0,0 UV-I 0 W/m² 8,4 °C 9,8 °C 3,2 km/h (1 Bft)
03.10.2017 21:29 9,8 °C 9,8 °C 91 % 1024,2 hPa 0,0 mm 2,4 km/h (1 Bft) S-SW 207 ° 0 min 0,000 mm 0,0 UV-I 0 W/m² 8,4 °C 9,8 °C 4,8 km/h (1 Bft)
03.10.2017 21:30 9,7 °C 9,8 °C 90 % 1024,2 hPa 0,0 mm 1,6 km/h (1 Bft) S-SW 207 ° 0 min 0,000 mm 0,0 UV-I 0 W/m² 8,1 °C 9,7 °C 3,2 km/h (1 Bft)
03.10.2017 21:31 9,7 °C 9,7 °C 91 % 1024,2 hPa 0,0 mm 2,2 km/h (1 Bft) S 189 ° 0 min 0,000 mm 0,0 UV-I 0 W/m² 8,3 °C 9,7 °C 3,2 km/h (1 Bft)
03.10.2017 21:32 9,7 °C 9,7 °C 91 % 1024,1 hPa 0,0 mm 1,3 km/h (1 Bft) S 189 ° 0 min 0,000 mm 0,0 UV-I 0 W/m² 8,3 °C 9,7 °C 3,2 km/h (1 Bft)
03.10.2017 21:33 9,7 °C 9,7 °C 91 % 1024,2 hPa 0,0 mm 2,4 km/h (1 Bft) S 189 ° 0 min 0,000 mm 0,0 UV-I 0 W/m² 8,3 °C 9,7 °C 3,2 km/h (1 Bft)
03.10.2017 21:34 9,6 °C 9,7 °C 91 % 1024,2 hPa 0,0 mm 2,0 km/h (1 Bft) S 189 ° 0 min 0,000 mm 0,0 UV-I 0 W/m² 8,2 °C 9,6 °C 4,8 km/h (1 Bft)
03.10.2017 21:35 9,6 °C 9,7 °C 91 % 1024,2 hPa 0,0 mm 1,5 km/h (1 Bft) S 189 ° 0 min 0,000 mm 0,0 UV-I 0 W/m² 8,2 °C 9,6 °C 3,2 km/h (1 Bft)
03.10.2017 21:36 9,6 °C 9,6 °C 92 % 1024,2 hPa 0,0 mm 0,3 km/h (0 Bft) S 189 ° 0 min 0,000 mm 0,0 UV-I 0 W/m² 8,4 °C 9,6 °C 1,6 km/h (1 Bft)
03.10.2017 21:37 9,6 °C 9,6 °C 91 % 1024,2 hPa 0,0 mm 1,6 km/h (1 Bft) S 189 ° 0 min 0,000 mm 0,0 UV-I 0 W/m² 8,2 °C 9,6 °C 3,2 km/h (1 Bft)
03.10.2017 21:38 9,6 °C 9,6 °C 91 % 1024,2 hPa 0,0 mm 1,1 km/h (1 Bft) S 189 ° 0 min 0,000 mm 0,0 UV-I 0 W/m² 8,2 °C 9,6 °C 3,2 km/h (1 Bft)
03.10.2017 21:39 9,6 °C 9,6 °C 91 % 1024,2 hPa 0,0 mm 2,0 km/h (1 Bft) S 189 ° 0 min 0,000 mm 0,0 UV-I 0 W/m² 8,2 °C 9,6 °C 4,8 km/h (1 Bft)
03.10.2017 21:40 9,5 °C 9,6 °C 91 % 1024,3 hPa 0,0 mm 2,2 km/h (1 Bft) S 189 ° 0 min 0,000 mm 0,0 UV-I 0 W/m² 8,1 °C 9,5 °C 4,8 km/h (1 Bft)
03.10.2017 21:41 9,6 °C 9,6 °C 91 % 1024,3 hPa 0,0 mm 1,8 km/h (1 Bft) S 189 ° 0 min 0,000 mm 0,0 UV-I 0 W/m² 8,2 °C 9,6 °C 3,2 km/h (1 Bft)
03.10.2017 21:42 9,6 °C 9,6 °C 91 % 1024,2 hPa 0,0 mm 5,4 km/h (1 Bft) S 191 ° 0 min 0,000 mm 0,0 UV-I 0 W/m² 8,2 °C 9,2 °C 9,7 km/h (2 Bft)
03.10.2017 21:43 9,6 °C 9,6 °C 91 % 1024,2 hPa 0,0 mm 2,8 km/h (1 Bft) S 188 ° 0 min 0,000 mm 0,0 UV-I 0 W/m² 8,2 °C 9,6 °C 4,8 km/h (1 Bft)
03.10.2017 21:44 9,6 °C 9,6 °C 91 % 1024,2 hPa 0,0 mm 2,5 km/h (1 Bft) S 188 ° 0 min 0,000 mm 0,0 UV-I 0 W/m² 8,2 °C 9,6 °C 3,2 km/h (1 Bft)
03.10.2017 21:45 9,6 °C 9,6 °C 90 % 1024,2 hPa 0,0 mm 1,6 km/h (1 Bft) S 188 ° 0 min 0,000 mm 0,0 UV-I 0 W/m² 8,0 °C 9,6 °C 3,2 km/h (1 Bft)
03.10.2017 21:46 9,6 °C 9,6 °C 91 % 1024,3 hPa 0,0 mm 1,7 km/h (1 Bft) S 188 ° 0 min 0,000 mm 0,0 UV-I 0 W/m² 8,2 °C 9,6 °C 4,8 km/h (1 Bft)
03.10.2017 21:47 9,6 °C 9,6 °C 90 % 1024,3 hPa 0,0 mm 2,5 km/h (1 Bft) S 188 ° 0 min 0,000 mm 0,0 UV-I 0 W/m² 8,0 °C 9,6 °C 4,8 km/h (1 Bft)
03.10.2017 21:48 9,6 °C 9,6 °C 90 % 1024,3 hPa 0,0 mm 3,6 km/h (1 Bft) S 188 ° 0 min 0,000 mm 0,0 UV-I 0 W/m² 8,0 °C 9,6 °C 4,8 km/h (1 Bft)
03.10.2017 21:49 9,6 °C 9,6 °C 90 % 1024,3 hPa 0,0 mm 4,6 km/h (1 Bft) S 188 ° 0 min 0,000 mm 0,0 UV-I 0 W/m² 8,0 °C 9,4 °C 6,4 km/h (2 Bft)
03.10.2017 21:50 9,6 °C 9,6 °C 90 % 1024,3 hPa 0,0 mm 1,8 km/h (1 Bft) S 188 ° 0 min 0,000 mm 0,0 UV-I 0 W/m² 8,0 °C 9,6 °C 4,8 km/h (1 Bft)
03.10.2017 21:51 9,6 °C 9,6 °C 90 % 1024,3 hPa 0,0 mm 2,5 km/h (1 Bft) S 188 ° 0 min 0,000 mm 0,0 UV-I 0 W/m² 8,0 °C 9,6 °C 3,2 km/h (1 Bft)
03.10.2017 21:52 9,6 °C 9,6 °C 90 % 1024,4 hPa 0,0 mm 0,8 km/h (0 Bft) S 188 ° 0 min 0,000 mm 0,0 UV-I 0 W/m² 8,0 °C 9,6 °C 3,2 km/h (1 Bft)
03.10.2017 21:53 9,6 °C 9,6 °C 89 % 1024,3 hPa 0,0 mm 0,3 km/h (0 Bft) S 188 ° 0 min 0,000 mm 0,0 UV-I 0 W/m² 7,9 °C 9,6 °C 1,6 km/h (1 Bft)
03.10.2017 21:54 9,6 °C 9,6 °C 90 % 1024,3 hPa 0,0 mm 0,1 km/h (0 Bft) S 188 ° 0 min 0,000 mm 0,0 UV-I 0 W/m² 8,0 °C 9,6 °C 1,6 km/h (1 Bft)
03.10.2017 21:55 9,6 °C 9,6 °C 90 % 1024,3 hPa 0,0 mm 0,3 km/h (0 Bft) S 188 ° 0 min 0,000 mm 0,0 UV-I 0 W/m² 8,0 °C 9,6 °C 1,6 km/h (1 Bft)
03.10.2017 21:56 9,6 °C 9,6 °C 90 % 1024,3 hPa 0,0 mm 1,0 km/h (0 Bft) S 188 ° 0 min 0,000 mm 0,0 UV-I 0 W/m² 8,0 °C 9,6 °C 1,6 km/h (1 Bft)
03.10.2017 21:57 9,5 °C 9,6 °C 90 % 1024,3 hPa 0,0 mm 2,1 km/h (1 Bft) S 188 ° 0 min 0,000 mm 0,0 UV-I 0 W/m² 7,9 °C 9,5 °C 3,2 km/h (1 Bft)
03.10.2017 21:58 9,4 °C 9,5 °C 90 % 1024,3 hPa 0,0 mm 1,7 km/h (1 Bft) S 188 ° 0 min 0,000 mm 0,0 UV-I 0 W/m² 7,8 °C 9,4 °C 3,2 km/h (1 Bft)
03.10.2017 21:59 9,4 °C 9,5 °C 89 % 1024,3 hPa 0,0 mm 1,9 km/h (1 Bft) S 188 ° 0 min 0,000 mm 0,0 UV-I 0 W/m² 7,7 °C 9,4 °C 4,8 km/h (1 Bft)
03.10.2017 22:00 9,5 °C 9,5 °C 89 % 1024,3 hPa 0,0 mm 3,3 km/h (1 Bft) S 189 ° 0 min 0,000 mm 0,0 UV-I 0 W/m² 7,8 °C 9,5 °C 4,8 km/h (1 Bft)
03.10.2017 22:01 9,4 °C 9,5 °C 90 % 1024,3 hPa 0,0 mm 1,4 km/h (1 Bft) S 189 ° 0 min 0,000 mm 0,0 UV-I 0 W/m² 7,8 °C 9,4 °C 3,2 km/h (1 Bft)
03.10.2017 22:02 9,4 °C 9,4 °C 90 % 1024,3 hPa 0,0 mm 0,4 km/h (0 Bft) S 189 ° 0 min 0,000 mm 0,0 UV-I 0 W/m² 7,8 °C 9,4 °C 3,2 km/h (1 Bft)
03.10.2017 22:03 9,4 °C 9,4 °C 90 % 1024,3 hPa 0,0 mm 1,7 km/h (1 Bft) S 189 ° 0 min 0,000 mm 0,0 UV-I 0 W/m² 7,8 °C 9,4 °C 3,2 km/h (1 Bft)
03.10.2017 22:04 9,4 °C 9,4 °C 91 % 1024,3 hPa 0,0 mm 0,0 km/h (0 Bft) S 189 ° 0 min 0,000 mm 0,0 UV-I 0 W/m² 8,0 °C 9,4 °C 0,0 km/h (0 Bft)
03.10.2017 22:05 9,3 °C 9,4 °C 91 % 1024,4 hPa 0,0 mm 0,0 km/h (0 Bft) S 189 ° 0 min 0,000 mm 0,0 UV-I 0 W/m² 7,9 °C 9,3 °C 0,0 km/h (0 Bft)
03.10.2017 22:06 9,3 °C 9,3 °C 91 % 1024,3 hPa 0,0 mm 0,0 km/h (0 Bft) S 189 ° 0 min 0,000 mm 0,0 UV-I 0 W/m² 7,9 °C 9,3 °C 0,0 km/h (0 Bft)
03.10.2017 22:07 9,3 °C 9,3 °C 91 % 1024,3 hPa 0,0 mm 0,0 km/h (0 Bft) S 189 ° 0 min 0,000 mm 0,0 UV-I 0 W/m² 7,9 °C 9,3 °C 0,0 km/h (0 Bft)
03.10.2017 22:08 9,3 °C 9,3 °C 91 % 1024,3 hPa 0,0 mm 0,3 km/h (0 Bft) S 189 ° 0 min 0,000 mm 0,0 UV-I 0 W/m² 7,9 °C 9,3 °C 1,6 km/h (1 Bft)
03.10.2017 22:09 9,3 °C 9,3 °C 91 % 1024,3 hPa 0,0 mm 1,7 km/h (1 Bft) S 188 ° 0 min 0,000 mm 0,0 UV-I 0 W/m² 7,9 °C 9,3 °C 3,2 km/h (1 Bft)
03.10.2017 22:10 9,2 °C 9,3 °C 92 % 1024,3 hPa 0,0 mm 1,3 km/h (1 Bft) S 188 ° 0 min 0,000 mm 0,0 UV-I 0 W/m² 8,0 °C 9,2 °C 3,2 km/h (1 Bft)
03.10.2017 22:11 9,2 °C 9,2 °C 92 % 1024,3 hPa 0,0 mm 0,7 km/h (0 Bft) S 188 ° 0 min 0,000 mm 0,0 UV-I 0 W/m² 8,0 °C 9,2 °C 1,6 km/h (1 Bft)
03.10.2017 22:12 9,1 °C 9,2 °C 92 % 1024,4 hPa 0,0 mm 0,0 km/h (0 Bft) S 188 ° 0 min 0,000 mm 0,0 UV-I 0 W/m² 7,9 °C 9,1 °C 0,0 km/h (0 Bft)
03.10.2017 22:13 9,1 °C 9,1 °C 92 % 1024,4 hPa 0,0 mm 0,0 km/h (0 Bft) S 188 ° 0 min 0,000 mm 0,0 UV-I 0 W/m² 7,9 °C 9,1 °C 0,0 km/h (0 Bft)
03.10.2017 22:14 9,1 °C 9,1 °C 92 % 1024,5 hPa 0,0 mm 0,0 km/h (0 Bft) S 188 ° 0 min 0,000 mm 0,0 UV-I 0 W/m² 7,9 °C 9,1 °C 0,0 km/h (0 Bft)
03.10.2017 22:15 9,1 °C 9,1 °C 92 % 1024,5 hPa 0,0 mm 0,8 km/h (0 Bft) S 188 ° 0 min 0,000 mm 0,0 UV-I 0 W/m² 7,9 °C 9,1 °C 1,6 km/h (1 Bft)
03.10.2017 22:16 9,0 °C 9,1 °C 92 % 1024,5 hPa 0,0 mm 2,0 km/h (1 Bft) S 188 ° 0 min 0,000 mm 0,0 UV-I 0 W/m² 7,8 °C 9,0 °C 3,2 km/h (1 Bft)
03.10.2017 22:17 9,0 °C 9,0 °C 92 % 1024,5 hPa 0,0 mm 1,5 km/h (1 Bft) S 188 ° 0 min 0,000 mm 0,0 UV-I 0 W/m² 7,8 °C 9,0 °C 3,2 km/h (1 Bft)
03.10.2017 22:18 9,0 °C 9,0 °C 92 % 1024,5 hPa 0,0 mm 1,9 km/h (1 Bft) S 188 ° 0 min 0,000 mm 0,0 UV-I 0 W/m² 7,8 °C 9,0 °C 3,2 km/h (1 Bft)
03.10.2017 22:19 9,0 °C 9,0 °C 92 % 1024,6 hPa 0,0 mm 1,2 km/h (1 Bft) S 188 ° 0 min 0,000 mm 0,0 UV-I 0 W/m² 7,8 °C 9,0 °C 3,2 km/h (1 Bft)
03.10.2017 22:20 9,0 °C 9,0 °C 92 % 1024,6 hPa 0,0 mm 1,0 km/h (0 Bft) S 188 ° 0 min 0,000 mm 0,0 UV-I 0 W/m² 7,8 °C 9,0 °C 1,6 km/h (1 Bft)
03.10.2017 22:21 9,0 °C 9,0 °C 92 % 1024,6 hPa 0,0 mm 0,1 km/h (0 Bft) S 188 ° 0 min 0,000 mm 0,0 UV-I 0 W/m² 7,8 °C 9,0 °C 1,6 km/h (1 Bft)
03.10.2017 22:22 9,0 °C 9,0 °C 92 % 1024,6 hPa 0,0 mm 0,9 km/h (0 Bft) S 188 ° 0 min 0,000 mm 0,0 UV-I 0 W/m² 7,8 °C 9,0 °C 1,6 km/h (1 Bft)
03.10.2017 22:23 9,0 °C 9,1 °C 92 % 1024,5 hPa 0,0 mm 0,0 km/h (0 Bft) S 188 ° 0 min 0,000 mm 0,0 UV-I 0 W/m² 7,8 °C 9,0 °C 0,0 km/h (0 Bft)
03.10.2017 22:24 9,0 °C 9,0 °C 92 % 1024,6 hPa 0,0 mm 0,1 km/h (0 Bft) S 188 ° 0 min 0,000 mm 0,0 UV-I 0 W/m² 7,8 °C 9,0 °C 1,6 km/h (1 Bft)
03.10.2017 22:25 9,0 °C 9,0 °C 92 % 1024,5 hPa 0,0 mm 0,0 km/h (0 Bft) S 188 ° 0 min 0,000 mm 0,0 UV-I 0 W/m² 7,8 °C 9,0 °C 0,0 km/h (0 Bft)
03.10.2017 22:26 8,9 °C 9,0 °C 92 % 1024,6 hPa 0,0 mm 0,0 km/h (0 Bft) S 188 ° 0 min 0,000 mm 0,0 UV-I 0 W/m² 7,7 °C 8,9 °C 0,0 km/h (0 Bft)
03.10.2017 22:27 8,9 °C 8,9 °C 93 % 1024,5 hPa 0,0 mm 0,0 km/h (0 Bft) S 188 ° 0 min 0,000 mm 0,0 UV-I 0 W/m² 7,8 °C 8,9 °C 0,0 km/h (0 Bft)
03.10.2017 22:28 8,9 °C 8,9 °C 93 % 1024,6 hPa 0,0 mm 0,0 km/h (0 Bft) S 188 ° 0 min 0,000 mm 0,0 UV-I 0 W/m² 7,8 °C 8,9 °C 0,0 km/h (0 Bft)
03.10.2017 22:29 8,9 °C 8,9 °C 93 % 1024,6 hPa 0,0 mm 0,0 km/h (0 Bft) S 188 ° 0 min 0,000 mm 0,0 UV-I 0 W/m² 7,8 °C 8,9 °C 0,0 km/h (0 Bft)
03.10.2017 22:30 8,8 °C 8,9 °C 93 % 1024,6 hPa 0,0 mm 0,2 km/h (0 Bft) S 188 ° 0 min 0,000 mm 0,0 UV-I 0 W/m² 7,7 °C 8,8 °C 3,2 km/h (1 Bft)
03.10.2017 22:31 8,9 °C 8,9 °C 93 % 1024,6 hPa 0,0 mm 1,5 km/h (1 Bft) S 188 ° 0 min 0,000 mm 0,0 UV-I 0 W/m² 7,8 °C 8,9 °C 3,2 km/h (1 Bft)
03.10.2017 22:32 8,8 °C 8,9 °C 93 % 1024,6 hPa 0,0 mm 0,3 km/h (0 Bft) S 188 ° 0 min 0,000 mm 0,0 UV-I 0 W/m² 7,7 °C 8,8 °C 1,6 km/h (1 Bft)
03.10.2017 22:33 8,8 °C 8,8 °C 93 % 1024,6 hPa 0,0 mm 0,3 km/h (0 Bft) S 188 ° 0 min 0,000 mm 0,0 UV-I 0 W/m² 7,7 °C 8,8 °C 1,6 km/h (1 Bft)
03.10.2017 22:34 8,8 °C 8,8 °C 93 % 1024,6 hPa 0,0 mm 1,5 km/h (1 Bft) S 188 ° 0 min 0,000 mm 0,0 UV-I 0 W/m² 7,7 °C 8,8 °C 3,2 km/h (1 Bft)
03.10.2017 22:35 8,8 °C 8,8 °C 93 % 1024,6 hPa 0,0 mm 1,2 km/h (1 Bft) S 188 ° 0 min 0,000 mm 0,0 UV-I 0 W/m² 7,7 °C 8,8 °C 1,6 km/h (1 Bft)
03.10.2017 22:36 8,8 °C 8,8 °C 93 % 1024,5 hPa 0,0 mm 0,5 km/h (0 Bft) S 188 ° 0 min 0,000 mm 0,0 UV-I 0 W/m² 7,7 °C 8,8 °C 1,6 km/h (1 Bft)
03.10.2017 22:37 8,7 °C 8,8 °C 93 % 1024,6 hPa 0,0 mm 0,0 km/h (0 Bft) S 188 ° 0 min 0,000 mm 0,0 UV-I 0 W/m² 7,6 °C 8,7 °C 0,0 km/h (0 Bft)
03.10.2017 22:38 8,7 °C 8,7 °C 93 % 1024,5 hPa 0,0 mm 0,0 km/h (0 Bft) S 188 ° 0 min 0,000 mm 0,0 UV-I 0 W/m² 7,6 °C 8,7 °C 0,0 km/h (0 Bft)
03.10.2017 22:39 8,7 °C 8,7 °C 93 % 1024,5 hPa 0,0 mm 0,0 km/h (0 Bft) S 188 ° 0 min 0,000 mm 0,0 UV-I 0 W/m² 7,6 °C 8,7 °C 0,0 km/h (0 Bft)
03.10.2017 22:40 8,7 °C 8,7 °C 92 % 1024,5 hPa 0,0 mm 1,3 km/h (1 Bft) S 188 ° 0 min 0,000 mm 0,0 UV-I 0 W/m² 7,5 °C 8,7 °C 3,2 km/h (1 Bft)
03.10.2017 22:41 8,7 °C 8,7 °C 93 % 1024,6 hPa 0,0 mm 1,3 km/h (1 Bft) S 188 ° 0 min 0,000 mm 0,0 UV-I 0 W/m² 7,6 °C 8,7 °C 1,6 km/h (1 Bft)
03.10.2017 22:42 8,7 °C 8,7 °C 93 % 1024,5 hPa 0,0 mm 1,8 km/h (1 Bft) S 188 ° 0 min 0,000 mm 0,0 UV-I 0 W/m² 7,6 °C 8,7 °C 3,2 km/h (1 Bft)
03.10.2017 22:43 8,7 °C 8,7 °C 93 % 1024,6 hPa 0,0 mm 1,0 km/h (0 Bft) S 188 ° 0 min 0,000 mm 0,0 UV-I 0 W/m² 7,6 °C 8,7 °C 3,2 km/h (1 Bft)
03.10.2017 22:44 8,7 °C 8,7 °C 93 % 1024,6 hPa 0,0 mm 0,8 km/h (0 Bft) S 188 ° 0 min 0,000 mm 0,0 UV-I 0 W/m² 7,6 °C 8,7 °C 3,2 km/h (1 Bft)
03.10.2017 22:45 8,7 °C 8,7 °C 93 % 1024,6 hPa 0,0 mm 0,0 km/h (0 Bft) S 188 ° 0 min 0,000 mm 0,0 UV-I 0 W/m² 7,6 °C 8,7 °C 0,0 km/h (0 Bft)
03.10.2017 22:46 8,7 °C 8,7 °C 93 % 1024,6 hPa 0,0 mm 0,0 km/h (0 Bft) S 188 ° 0 min 0,000 mm 0,0 UV-I 0 W/m² 7,6 °C 8,7 °C 0,0 km/h (0 Bft)
03.10.2017 22:47 8,7 °C 8,7 °C 93 % 1024,6 hPa 0,0 mm 0,0 km/h (0 Bft) S 188 ° 0 min 0,000 mm 0,0 UV-I 0 W/m² 7,6 °C 8,7 °C 0,0 km/h (0 Bft)
03.10.2017 22:48 8,7 °C 8,7 °C 93 % 1024,6 hPa 0,0 mm 0,0 km/h (0 Bft) S 188 ° 0 min 0,000 mm 0,0 UV-I 0 W/m² 7,6 °C 8,7 °C 0,0 km/h (0 Bft)
03.10.2017 22:49 8,6 °C 8,7 °C 93 % 1024,6 hPa 0,0 mm 0,0 km/h (0 Bft) S 188 ° 0 min 0,000 mm 0,0 UV-I 0 W/m² 7,5 °C 8,6 °C 0,0 km/h (0 Bft)
03.10.2017 22:50 8,6 °C 8,6 °C 93 % 1024,6 hPa 0,0 mm 0,0 km/h (0 Bft) S 188 ° 0 min 0,000 mm 0,0 UV-I 0 W/m² 7,5 °C 8,6 °C 0,0 km/h (0 Bft)
03.10.2017 22:51 8,6 °C 8,6 °C 93 % 1024,7 hPa 0,0 mm 0,0 km/h (0 Bft) S 188 ° 0 min 0,000 mm 0,0 UV-I 0 W/m² 7,5 °C 8,6 °C 0,0 km/h (0 Bft)
03.10.2017 22:52 8,5 °C 8,6 °C 93 % 1024,7 hPa 0,0 mm 0,0 km/h (0 Bft) S 188 ° 0 min 0,000 mm 0,0 UV-I 0 W/m² 7,4 °C 8,5 °C 0,0 km/h (0 Bft)
03.10.2017 22:53 8,4 °C 8,6 °C 93 % 1024,6 hPa 0,0 mm 0,0 km/h (0 Bft) S 188 ° 0 min 0,000 mm 0,0 UV-I 0 W/m² 7,3 °C 8,4 °C 0,0 km/h (0 Bft)
03.10.2017 22:54 8,5 °C 8,5 °C 93 % 1024,7 hPa 0,0 mm 0,0 km/h (0 Bft) S 188 ° 0 min 0,000 mm 0,0 UV-I 0 W/m² 7,4 °C 8,5 °C 0,0 km/h (0 Bft)
03.10.2017 22:55 8,4 °C 8,5 °C 93 % 1024,7 hPa 0,0 mm 0,0 km/h (0 Bft) S 188 ° 0 min 0,000 mm 0,0 UV-I 0 W/m² 7,3 °C 8,4 °C 0,0 km/h (0 Bft)
03.10.2017 22:56 8,4 °C 8,4 °C 93 % 1024,7 hPa 0,0 mm 0,0 km/h (0 Bft) S 188 ° 0 min 0,000 mm 0,0 UV-I 0 W/m² 7,3 °C 8,4 °C 0,0 km/h (0 Bft)
03.10.2017 22:57 8,4 °C 8,4 °C 93 % 1024,7 hPa 0,0 mm 0,0 km/h (0 Bft) S 188 ° 0 min 0,000 mm 0,0 UV-I 0 W/m² 7,3 °C 8,4 °C 0,0 km/h (0 Bft)
03.10.2017 22:58 8,3 °C 8,4 °C 93 % 1024,7 hPa 0,0 mm 0,0 km/h (0 Bft) S 188 ° 0 min 0,000 mm 0,0 UV-I 0 W/m² 7,2 °C 8,3 °C 0,0 km/h (0 Bft)
03.10.2017 22:59 8,4 °C 8,4 °C 93 % 1024,7 hPa 0,0 mm 0,0 km/h (0 Bft) S 188 ° 0 min 0,000 mm 0,0 UV-I 0 W/m² 7,3 °C 8,4 °C 0,0 km/h (0 Bft)
03.10.2017 23:00 8,3 °C 8,4 °C 93 % 1024,7 hPa 0,0 mm 0,0 km/h (0 Bft) S 188 ° 0 min 0,000 mm 0,0 UV-I 0 W/m² 7,2 °C 8,3 °C 0,0 km/h (0 Bft)
03.10.2017 23:01 8,3 °C 8,3 °C 93 % 1024,7 hPa 0,0 mm 0,0 km/h (0 Bft) S 188 ° 0 min 0,000 mm 0,0 UV-I 0 W/m² 7,2 °C 8,3 °C 0,0 km/h (0 Bft)
03.10.2017 23:02 8,3 °C 8,3 °C 93 % 1024,7 hPa 0,0 mm 0,0 km/h (0 Bft) S 188 ° 0 min 0,000 mm 0,0 UV-I 0 W/m² 7,2 °C 8,3 °C 0,0 km/h (0 Bft)
03.10.2017 23:03 8,3 °C 8,3 °C 93 % 1024,7 hPa 0,0 mm 1,2 km/h (1 Bft) S 188 ° 0 min 0,000 mm 0,0 UV-I 0 W/m² 7,2 °C 8,3 °C 3,2 km/h (1 Bft)
03.10.2017 23:04 8,3 °C 8,3 °C 93 % 1024,7 hPa 0,0 mm 1,6 km/h (1 Bft) S 188 ° 0 min 0,000 mm 0,0 UV-I 0 W/m² 7,2 °C 8,3 °C 3,2 km/h (1 Bft)
03.10.2017 23:05 8,3 °C 8,3 °C 93 % 1024,7 hPa 0,0 mm 0,7 km/h (0 Bft) S 188 ° 0 min 0,000 mm 0,0 UV-I 0 W/m² 7,2 °C 8,3 °C 1,6 km/h (1 Bft)
03.10.2017 23:06 8,3 °C 8,3 °C 93 % 1024,7 hPa 0,0 mm 1,5 km/h (1 Bft) S 188 ° 0 min 0,000 mm 0,0 UV-I 0 W/m² 7,2 °C 8,3 °C 3,2 km/h (1 Bft)
03.10.2017 23:07 8,3 °C 8,3 °C 93 % 1024,7 hPa 0,0 mm 0,7 km/h (0 Bft) S 188 ° 0 min 0,000 mm 0,0 UV-I 0 W/m² 7,2 °C 8,3 °C 1,6 km/h (1 Bft)
03.10.2017 23:09 8,2 °C 8,3 °C 93 % 1024,6 hPa 0,0 mm 0,6 km/h (0 Bft) S 188 ° 0 min 0,000 mm 0,0 UV-I 0 W/m² 7,1 °C 8,2 °C 1,6 km/h (1 Bft)
03.10.2017 23:10 8,2 °C 8,2 °C 93 % 1024,6 hPa 0,0 mm 0,8 km/h (0 Bft) S 188 ° 0 min 0,000 mm 0,0 UV-I 0 W/m² 7,1 °C 8,2 °C 3,2 km/h (1 Bft)
03.10.2017 23:11 8,2 °C 8,2 °C 93 % 1024,5 hPa 0,0 mm 2,5 km/h (1 Bft) S 188 ° 0 min 0,000 mm 0,0 UV-I 0 W/m² 7,1 °C 8,2 °C 3,2 km/h (1 Bft)
03.10.2017 23:12 8,2 °C 8,2 °C 93 % 1024,5 hPa 0,0 mm 1,5 km/h (1 Bft) S 188 ° 0 min 0,000 mm 0,0 UV-I 0 W/m² 7,1 °C 8,2 °C 3,2 km/h (1 Bft)
03.10.2017 23:13 8,2 °C 8,2 °C 93 % 1024,6 hPa 0,0 mm 3,2 km/h (1 Bft) S 188 ° 0 min 0,000 mm 0,0 UV-I 0 W/m² 7,1 °C 8,2 °C 4,8 km/h (1 Bft)
03.10.2017 23:14 8,2 °C 8,2 °C 93 % 1024,5 hPa 0,0 mm 3,3 km/h (1 Bft) S 188 ° 0 min 0,000 mm 0,0 UV-I 0 W/m² 7,1 °C 8,2 °C 4,8 km/h (1 Bft)
03.10.2017 23:15 8,2 °C 8,2 °C 93 % 1024,5 hPa 0,0 mm 3,1 km/h (1 Bft) S 188 ° 0 min 0,000 mm 0,0 UV-I 0 W/m² 7,1 °C 8,2 °C 3,2 km/h (1 Bft)
03.10.2017 23:16 8,1 °C 8,2 °C 93 % 1024,5 hPa 0,0 mm 2,6 km/h (1 Bft) S 188 ° 0 min 0,000 mm 0,0 UV-I 0 W/m² 7,0 °C 8,1 °C 4,8 km/h (1 Bft)
03.10.2017 23:17 8,1 °C 8,1 °C 93 % 1024,5 hPa 0,0 mm 3,0 km/h (1 Bft) S 188 ° 0 min 0,000 mm 0,0 UV-I 0 W/m² 7,0 °C 8,1 °C 4,8 km/h (1 Bft)
03.10.2017 23:18 8,1 °C 8,1 °C 93 % 1024,4 hPa 0,0 mm 2,6 km/h (1 Bft) S 188 ° 0 min 0,000 mm 0,0 UV-I 0 W/m² 7,0 °C 8,1 °C 4,8 km/h (1 Bft)
03.10.2017 23:19 8,0 °C 8,1 °C 93 % 1024,4 hPa 0,0 mm 3,0 km/h (1 Bft) S 188 ° 0 min 0,000 mm 0,0 UV-I 0 W/m² 6,9 °C 8,0 °C 4,8 km/h (1 Bft)
03.10.2017 23:20 8,1 °C 8,1 °C 94 % 1024,4 hPa 0,0 mm 4,7 km/h (1 Bft) S 188 ° 0 min 0,000 mm 0,0 UV-I 0 W/m² 7,2 °C 7,7 °C 4,8 km/h (1 Bft)
03.10.2017 23:21 8,1 °C 8,1 °C 94 % 1024,4 hPa 0,0 mm 4,1 km/h (1 Bft) S 188 ° 0 min 0,000 mm 0,0 UV-I 0 W/m² 7,2 °C 8,1 °C 4,8 km/h (1 Bft)
03.10.2017 23:22 8,0 °C 8,1 °C 94 % 1024,4 hPa 0,0 mm 3,7 km/h (1 Bft) S 188 ° 0 min 0,000 mm 0,0 UV-I 0 W/m² 7,1 °C 8,0 °C 4,8 km/h (1 Bft)
03.10.2017 23:23 7,9 °C 8,0 °C 94 % 1024,4 hPa 0,0 mm 2,5 km/h (1 Bft) S 188 ° 0 min 0,000 mm 0,0 UV-I 0 W/m² 7,0 °C 7,9 °C 3,2 km/h (1 Bft)
03.10.2017 23:24 7,9 °C 8,0 °C 93 % 1024,5 hPa 0,0 mm 0,1 km/h (0 Bft) S 188 ° 0 min 0,000 mm 0,0 UV-I 0 W/m² 6,8 °C 7,9 °C 1,6 km/h (1 Bft)
03.10.2017 23:25 7,9 °C 7,9 °C 93 % 1024,4 hPa 0,0 mm 1,1 km/h (1 Bft) S 188 ° 0 min 0,000 mm 0,0 UV-I 0 W/m² 6,8 °C 7,9 °C 1,6 km/h (1 Bft)
03.10.2017 23:26 7,9 °C 7,9 °C 93 % 1024,5 hPa 0,0 mm 0,5 km/h (0 Bft) S 188 ° 0 min 0,000 mm 0,0 UV-I 0 W/m² 6,8 °C 7,9 °C 1,6 km/h (1 Bft)
03.10.2017 23:27 7,8 °C 7,9 °C 93 % 1024,5 hPa 0,0 mm 0,7 km/h (0 Bft) S 188 ° 0 min 0,000 mm 0,0 UV-I 0 W/m² 6,7 °C 7,8 °C 1,6 km/h (1 Bft)
03.10.2017 23:29 7,6 °C 7,8 °C 93 % 1024,7 hPa 0,0 mm 1,1 km/h (1 Bft) S 188 ° 0 min 0,000 mm 0,0 UV-I 0 W/m² 6,5 °C 7,6 °C 3,2 km/h (1 Bft)
03.10.2017 23:30 7,6 °C 7,6 °C 93 % 1024,7 hPa 0,0 mm 0,0 km/h (0 Bft) S 188 ° 0 min 0,000 mm 0,0 UV-I 0 W/m² 6,5 °C 7,6 °C 0,0 km/h (0 Bft)
03.10.2017 23:31 7,6 °C 7,6 °C 93 % 1024,7 hPa 0,0 mm 0,0 km/h (0 Bft) S 188 ° 0 min 0,000 mm 0,0 UV-I 0 W/m² 6,5 °C 7,6 °C 0,0 km/h (0 Bft)
03.10.2017 23:32 7,6 °C 7,6 °C 93 % 1024,8 hPa 0,0 mm 0,5 km/h (0 Bft) S 188 ° 0 min 0,000 mm 0,0 UV-I 0 W/m² 6,5 °C 7,6 °C 3,2 km/h (1 Bft)
03.10.2017 23:33 7,6 °C 7,6 °C 94 % 1024,8 hPa 0,0 mm 0,0 km/h (0 Bft) S 188 ° 0 min 0,000 mm 0,0 UV-I 0 W/m² 6,7 °C 7,6 °C 0,0 km/h (0 Bft)
03.10.2017 23:34 7,4 °C 7,6 °C 93 % 1024,8 hPa 0,0 mm 0,0 km/h (0 Bft) S 188 ° 0 min 0,000 mm 0,0 UV-I 0 W/m² 6,3 °C 7,4 °C 0,0 km/h (0 Bft)
03.10.2017 23:35 7,4 °C 7,4 °C 93 % 1024,7 hPa 0,0 mm 0,5 km/h (0 Bft) S 188 ° 0 min 0,000 mm 0,0 UV-I 0 W/m² 6,3 °C 7,4 °C 1,6 km/h (1 Bft)
03.10.2017 23:36 7,4 °C 7,4 °C 94 % 1024,8 hPa 0,0 mm 1,5 km/h (1 Bft) S 188 ° 0 min 0,000 mm 0,0 UV-I 0 W/m² 6,5 °C 7,4 °C 3,2 km/h (1 Bft)
03.10.2017 23:37 7,4 °C 7,4 °C 94 % 1024,7 hPa 0,0 mm 0,3 km/h (0 Bft) S 188 ° 0 min 0,000 mm 0,0 UV-I 0 W/m² 6,5 °C 7,4 °C 1,6 km/h (1 Bft)
03.10.2017 23:38 7,4 °C 7,4 °C 94 % 1024,7 hPa 0,0 mm 0,0 km/h (0 Bft) S 188 ° 0 min 0,000 mm 0,0 UV-I 0 W/m² 6,5 °C 7,4 °C 0,0 km/h (0 Bft)
03.10.2017 23:39 7,4 °C 7,4 °C 94 % 1024,7 hPa 0,0 mm 0,0 km/h (0 Bft) S 188 ° 0 min 0,000 mm 0,0 UV-I 0 W/m² 6,5 °C 7,4 °C 0,0 km/h (0 Bft)
03.10.2017 23:40 7,4 °C 7,4 °C 94 % 1024,7 hPa 0,0 mm 2,0 km/h (1 Bft) S 188 ° 0 min 0,000 mm 0,0 UV-I 0 W/m² 6,5 °C 7,4 °C 3,2 km/h (1 Bft)
03.10.2017 23:41 7,5 °C 7,5 °C 94 % 1024,7 hPa 0,0 mm 2,1 km/h (1 Bft) S 188 ° 0 min 0,000 mm 0,0 UV-I 0 W/m² 6,6 °C 7,5 °C 3,2 km/h (1 Bft)
03.10.2017 23:42 7,6 °C 7,6 °C 94 % 1024,7 hPa 0,0 mm 2,5 km/h (1 Bft) S 188 ° 0 min 0,000 mm 0,0 UV-I 0 W/m² 6,7 °C 7,6 °C 3,2 km/h (1 Bft)
03.10.2017 23:43 7,6 °C 7,6 °C 94 % 1024,7 hPa 0,0 mm 1,5 km/h (1 Bft) S 188 ° 0 min 0,000 mm 0,0 UV-I 0 W/m² 6,7 °C 7,6 °C 3,2 km/h (1 Bft)
03.10.2017 23:44 7,5 °C 7,6 °C 94 % 1024,7 hPa 0,0 mm 1,8 km/h (1 Bft) S 188 ° 0 min 0,000 mm 0,0 UV-I 0 W/m² 6,6 °C 7,5 °C 3,2 km/h (1 Bft)
03.10.2017 23:45 7,5 °C 7,6 °C 94 % 1024,7 hPa 0,0 mm 1,9 km/h (1 Bft) S 188 ° 0 min 0,000 mm 0,0 UV-I 0 W/m² 6,6 °C 7,5 °C 3,2 km/h (1 Bft)
03.10.2017 23:46 7,5 °C 7,5 °C 94 % 1024,6 hPa 0,0 mm 0,3 km/h (0 Bft) S 188 ° 0 min 0,000 mm 0,0 UV-I 0 W/m² 6,6 °C 7,5 °C 1,6 km/h (1 Bft)
03.10.2017 23:47 7,5 °C 7,6 °C 94 % 1024,7 hPa 0,0 mm 0,9 km/h (0 Bft) S 188 ° 0 min 0,000 mm 0,0 UV-I 0 W/m² 6,6 °C 7,5 °C 1,6 km/h (1 Bft)
03.10.2017 23:48 7,5 °C 7,5 °C 94 % 1024,7 hPa 0,0 mm 0,7 km/h (0 Bft) S 188 ° 0 min 0,000 mm 0,0 UV-I 0 W/m² 6,6 °C 7,5 °C 1,6 km/h (1 Bft)
03.10.2017 23:49 7,4 °C 7,5 °C 94 % 1024,6 hPa 0,0 mm 0,0 km/h (0 Bft) S 188 ° 0 min 0,000 mm 0,0 UV-I 0 W/m² 6,5 °C 7,4 °C 0,0 km/h (0 Bft)
03.10.2017 23:50 7,4 °C 7,4 °C 94 % 1024,7 hPa 0,0 mm 0,0 km/h (0 Bft) S 188 ° 0 min 0,000 mm 0,0 UV-I 0 W/m² 6,5 °C 7,4 °C 0,0 km/h (0 Bft)
03.10.2017 23:51 7,4 °C 7,4 °C 94 % 1024,7 hPa 0,0 mm 0,1 km/h (0 Bft) S 188 ° 0 min 0,000 mm 0,0 UV-I 0 W/m² 6,5 °C 7,4 °C 1,6 km/h (1 Bft)
03.10.2017 23:52 7,4 °C 7,4 °C 94 % 1024,7 hPa 0,0 mm 0,0 km/h (0 Bft) S 188 ° 0 min 0,000 mm 0,0 UV-I 0 W/m² 6,5 °C 7,4 °C 0,0 km/h (0 Bft)
03.10.2017 23:53 7,3 °C 7,4 °C 94 % 1024,7 hPa 0,0 mm 0,0 km/h (0 Bft) S 188 ° 0 min 0,000 mm 0,0 UV-I 0 W/m² 6,4 °C 7,3 °C 0,0 km/h (0 Bft)
03.10.2017 23:54 7,3 °C 7,3 °C 94 % 1024,8 hPa 0,0 mm 0,0 km/h (0 Bft) S 188 ° 0 min 0,000 mm 0,0 UV-I 0 W/m² 6,4 °C 7,3 °C 0,0 km/h (0 Bft)
03.10.2017 23:55 7,3 °C 7,3 °C 94 % 1024,8 hPa 0,0 mm 0,0 km/h (0 Bft) S 188 ° 0 min 0,000 mm 0,0 UV-I 0 W/m² 6,4 °C 7,3 °C 0,0 km/h (0 Bft)
03.10.2017 23:56 7,2 °C 7,3 °C 94 % 1024,9 hPa 0,0 mm 0,0 km/h (0 Bft) S 188 ° 0 min 0,000 mm 0,0 UV-I 0 W/m² 6,3 °C 7,2 °C 0,0 km/h (0 Bft)
03.10.2017 23:57 7,1 °C 7,2 °C 94 % 1024,9 hPa 0,0 mm 0,0 km/h (0 Bft) S 188 ° 0 min 0,000 mm 0,0 UV-I 0 W/m² 6,2 °C 7,1 °C 0,0 km/h (0 Bft)
03.10.2017 23:58 7,1 °C 7,1 °C 94 % 1024,9 hPa 0,0 mm 0,0 km/h (0 Bft) S 188 ° 0 min 0,000 mm 0,0 UV-I 0 W/m² 6,2 °C 7,1 °C 0,0 km/h (0 Bft)
03.10.2017 23:59 7,1 °C 7,1 °C 94 % 1024,9 hPa 0,0 mm 0,0 km/h (0 Bft) S 188 ° 0 min 0,000 mm 0,0 UV-I 0 W/m² 6,2 °C 7,1 °C 0,0 km/h (0 Bft)
_ Min-Zeit 23:59 23:59 09:24 07:51 - 23:59 - - - - - - 23:59 23:59 23:59
Minimum _ 7,1 °C 7,1 °C 84 % 1010,9 hPa - 0,0 km/h (0 Bft) - - - - - - 6,2 °C 7,1 °C 0,0 km/h (0 Bft)
_ Max-Zeit 08:18 08:19 00:44 23:59 15:00 09:43 - - 13:04 14:01 12:45 12:46 09:20 08:18 09:43
Maximum _ 14,8 °C 14,8 °C 95 % 1024,9 hPa 0,2 mm 22,9 km/h
W (4 Bft)
- - 1 min 0,102 mm 4,1 UV-I 629 W/m² 13,4 °C 14,8 °C 33,8 km/h
W-NW (5 Bft)
Durchschnitt _ 11,5 °C 11,5 °C 92 % 1017,8 hPa #18,2 mm 3,1 km/h (1 Bft) W - #6 min. #0,483 mm 1,1 UV-I 35 W/m² 10,2 °C 11,5 °C 5,6 km/h (1 Bft)